# Wetter Temperatur Luftdruck Luftfeuchtigkeit Sichtweite Windgeschwindigkeit Windrichtung Zeit
1 Clouds 8 1018 77 10000 1.28 24 04:29 17.01.2021
2 Clouds 8 1018 73 10000 2.01 10 02:48 17.01.2021
3 Clouds 8 1018 69 10000 3.29 1 00:52 17.01.2021
4 Clouds 8 1018 69 10000 3.38 19 00:20 17.01.2021
5 Clouds 8 1018 68 10000 3.38 19 23:51 16.01.2021
6 Clouds 8 1018 68 10000 3.51 18 23:20 16.01.2021
7 Clouds 8 1018 69 10000 3.51 18 22:49 16.01.2021
8 Clouds 9 1017 67 10000 3.67 26 21:59 16.01.2021
9 Clouds 9 1017 67 10000 3.67 26 21:40 16.01.2021
10 Clouds 9 1017 67 10000 4.07 33 21:20 16.01.2021
11 Clouds 8 1017 66 10000 4.07 33 20:45 16.01.2021
12 Clear 9 1017 64 10000 3.95 36 20:22 16.01.2021
13 Clear 9 1016 63 10000 3.95 36 19:48 16.01.2021
14 Clouds 10 1016 62 10000 4.18 39 19:29 16.01.2021
15 Clouds 10 1016 63 10000 0.89 350 18:44 16.01.2021
16 Clouds 10 1016 64 10000 5.23 39 18:26 16.01.2021
17 Clouds 11 1015 65 10000 0.89 350 17:49 16.01.2021
18 Clouds 11 1015 67 10000 0.45 347 17:30 16.01.2021
19 Clouds 11 1014 68 10000 0.89 358 16:47 16.01.2021
20 Clouds 11 1014 68 10000 0.89 358 16:47 16.01.2021
21 Clouds 12 1013 66 10000 0.89 3 16:29 16.01.2021
22 Clouds 12 1013 68 10000 0.45 6 15:54 16.01.2021
23 Clouds 12 1013 68 10000 5.71 36 15:54 16.01.2021
24 Clouds 12 1013 68 10000 5.7 36 15:33 16.01.2021
25 Clouds 12 1013 65 10000 5.2 23 14:30 16.01.2021
26 Clouds 12 1013 65 10000 5.73 31 14:30 16.01.2021
27 Clouds 12 1013 65 10000 5.73 31 14:30 16.01.2021
28 Clouds 12 1012 63 10000 0.45 347 13:50 16.01.2021
29 Clouds 13 1012 61 10000 0.89 355 13:29 16.01.2021
30 Clouds 13 1012 63 10000 0.45 350 12:46 16.01.2021
31 Clouds 13 1012 63 10000 1.34 351 12:21 16.01.2021
32 Clouds 13 1012 66 10000 0.89 349 11:52 16.01.2021
33 Clouds 12 1012 68 10000 0.45 343 11:25 16.01.2021
34 Clouds 12 1013 74 10000 4.15 20 10:50 16.01.2021
35 Clouds 12 1013 78 10000 4.15 20 10:30 16.01.2021
36 Clouds 11 1012 83 10000 4.05 18 09:42 16.01.2021
37 Clouds 11 1012 88 10000 3.58 19 09:19 16.01.2021
38 Clouds 10 1012 89 10000 3.17 15 07:53 16.01.2021
39 Clouds 10 1011 88 10000 4.14 10 06:44 16.01.2021
40 Clouds 10 1010 88 10000 4.79 350 04:51 16.01.2021
41 Clouds 11 1010 92 10000 4.83 338 02:58 16.01.2021
42 Clouds 11 1010 94 10000 0.89 333 02:25 16.01.2021
43 Clouds 11 1009 99 10000 1.79 17 00:44 16.01.2021
44 Clouds 11 1009 98 10000 0.89 332 00:20 16.01.2021
45 Clouds 11 1008 99 10000 2.24 29 23:30 15.01.2021
46 Rain 11 1007 99 9035 0.89 325 22:27 15.01.2021
47 Clouds 12 1006 90 9035 1.34 345 21:53 15.01.2021
48 Rain 12 1006 89 9035 1.34 2 21:34 15.01.2021
49 Clouds 12 1005 89 10000 0.45 329 20:47 15.01.2021
50 Clouds 12 1005 88 10000 1.34 339 20:23 15.01.2021
51 Clouds 12 1005 91 10000 1.34 349 19:47 15.01.2021
52 Clouds 11 1005 95 10000 1.34 320 19:26 15.01.2021
53 Clouds 12 1006 90 10000 1.34 353 18:45 15.01.2021
54 Rain 11 1006 90 10000 0.45 205 18:20 15.01.2021
55 Clouds 13 1006 72 10000 0.45 351 17:58 15.01.2021
56 Rain 13 1006 73 10000 0.89 340 17:58 15.01.2021
57 Clouds 13 1006 70 10000 1.34 280 17:40 15.01.2021
58 Clouds 13 1006 73 10000 1.34 316 17:19 15.01.2021
59 Clouds 13 1007 75 10000 0.45 332 16:44 15.01.2021
60 Clouds 14 1007 67 10000 0.45 341 16:23 15.01.2021
61 Clouds 14 1007 62 10000 1.79 278 15:41 15.01.2021
62 Clouds 14 1007 64 10000 0.89 49 15:21 15.01.2021
63 Clouds 14 1007 65 10000 0.89 357 14:43 15.01.2021
64 Clouds 15 1007 63 10000 0.45 245 14:24 15.01.2021
65 Clouds 15 1008 69 10000 0.45 213 13:41 15.01.2021
66 Clouds 14 1008 69 10000 1.34 310 13:21 15.01.2021
67 Clouds 14 1008 73 10000 2.24 33 12:49 15.01.2021
68 Clouds 14 1008 78 10000 0.45 340 12:31 15.01.2021
69 Clouds 14 1009 79 10000 7.86 269 11:46 15.01.2021
70 Clouds 14 1010 83 10000 5.34 263 11:23 15.01.2021
71 Clouds 13 1010 90 10000 5.34 263 10:53 15.01.2021
72 Clouds 13 1010 92 10000 5.34 263 10:33 15.01.2021
73 Clouds 13 1010 99 10000 4.38 239 09:53 15.01.2021
74 Clouds 12 1010 99 10000 0.45 11 09:34 15.01.2021
75 Clouds 11 1010 99 10000 4.19 208 08:37 15.01.2021
76 Clouds 11 1010 99 10000 3.92 213 08:18 15.01.2021
77 Clouds 11 1010 99 10000 3.92 213 07:39 15.01.2021
78 Clouds 11 1010 99 10000 3.13 229 07:18 15.01.2021
79 Clouds 12 1010 87 10000 4.06 286 04:33 15.01.2021
80 Clouds 13 1010 80 10000 4.25 280 01:39 15.01.2021
81 Clouds 13 1010 79 10000 3.94 256 23:50 14.01.2021
82 Clouds 13 1010 79 10000 4.56 258 23:21 14.01.2021
83 Clouds 13 1010 80 10000 4.57 258 22:42 14.01.2021
84 Clouds 13 1010 80 10000 5.3 264 22:24 14.01.2021
85 Clouds 13 1010 81 10000 0.89 331 21:44 14.01.2021
86 Clouds 13 1010 81 10000 5.8 270 21:21 14.01.2021
87 Clouds 13 1010 82 10000 5.8 270 20:49 14.01.2021
88 Clouds 13 1010 82 10000 5.86 274 20:26 14.01.2021
89 Clouds 13 1010 82 10000 5.86 274 19:46 14.01.2021
90 Clouds 13 1010 82 10000 0.89 312 19:27 14.01.2021
91 Clouds 13 1010 82 10000 1.34 269 18:55 14.01.2021
92 Clouds 13 1010 81 10000 5.66 265 18:30 14.01.2021
93 Clouds 14 1010 79 10000 0.45 59 17:50 14.01.2021
94 Clouds 13 1010 81 10000 6.6 276 17:27 14.01.2021
95 Clouds 14 1009 79 10000 6.58 276 16:44 14.01.2021
96 Clouds 14 1010 79 10000 7.28 277 16:23 14.01.2021
97 Clouds 14 1010 76 10000 7.28 277 15:45 14.01.2021
98 Clouds 15 1010 73 10000 0.45 243 15:23 14.01.2021
99 Clouds 15 1010 73 10000 0.45 334 14:39 14.01.2021
100 Clouds 15 1010 71 10000 0.89 338 14:20 14.01.2021
101 Clouds 14 1010 78 10000 7.26 270 13:54 14.01.2021
102 Clouds 14 1011 81 10000 6.9 266 13:22 14.01.2021
103 Clouds 14 1011 81 10000 0.45 283 12:54 14.01.2021
104 Clouds 14 1012 79 10000 0.45 199 12:21 14.01.2021
105 Clouds 14 1012 79 10000 6.95 261 11:53 14.01.2021
106 Clouds 14 1013 79 10000 6.62 261 11:21 14.01.2021
107 Clouds 14 1013 81 10000 6.62 261 10:57 14.01.2021
108 Clouds 13 1013 84 10000 0.45 306 10:38 14.01.2021
109 Clouds 13 1013 84 10000 5.75 253 10:18 14.01.2021
110 Clouds 13 1013 85 10000 5.75 253 09:41 14.01.2021
111 Clouds 13 1013 87 10000 4.8 238 09:19 14.01.2021
112 Clouds 12 1013 87 10000 4.16 216 08:28 14.01.2021
113 Clouds 12 1013 88 10000 4.16 216 07:51 14.01.2021
114 Clouds 12 1013 87 10000 3.77 215 07:28 14.01.2021
115 Clouds 11 1014 89 10000 3.72 212 06:24 14.01.2021
116 Clouds 11 1016 88 10000 0.45 337 02:51 14.01.2021
117 Clouds 11 1016 84 10000 3.6 283 23:57 13.01.2021
118 Clouds 11 1016 81 10000 3.4 286 23:24 13.01.2021
119 Clouds 12 1016 80 10000 0.45 219 22:43 13.01.2021
120 Clouds 12 1016 79 10000 3.61 290 22:20 13.01.2021
121 Clouds 12 1016 77 10000 3.61 290 21:42 13.01.2021
122 Clouds 13 1016 76 10000 4.13 290 21:19 13.01.2021
123 Clouds 13 1016 75 10000 4.13 290 20:48 13.01.2021
124 Clouds 13 1015 75 10000 4.44 293 20:22 13.01.2021
125 Clouds 13 1015 77 10000 4.45 293 19:47 13.01.2021
126 Clouds 13 1015 77 10000 5.2 296 19:23 13.01.2021
127 Clouds 13 1015 76 10000 5.2 296 18:45 13.01.2021
128 Clouds 13 1015 75 10000 5.6 300 18:25 13.01.2021
129 Clouds 13 1014 74 10000 0.89 297 17:42 13.01.2021
130 Clouds 13 1015 74 10000 6.17 298 17:18 13.01.2021
131 Clouds 14 1014 71 10000 6.17 298 16:42 13.01.2021
132 Clouds 14 1014 70 10000 0.89 18 16:21 13.01.2021
133 Clouds 13 1016 67 10000 6.17 300 15:41 13.01.2021
134 Clouds 13 1016 67 10000 5.66 300 15:20 13.01.2021
135 Clouds 14 1014 72 10000 0.89 353 14:28 13.01.2021
136 Clouds 14 1013 74 10000 1.34 351 13:47 13.01.2021
137 Clouds 14 1014 73 10000 2.24 340 13:25 13.01.2021
138 Clouds 14 1014 73 10000 7.76 292 12:46 13.01.2021
139 Clouds 13 1014 74 10000 5.25 287 12:24 13.01.2021
140 Clouds 13 1015 75 10000 5.25 287 11:51 13.01.2021
141 Clouds 13 1015 76 10000 5.25 287 11:33 13.01.2021
142 Clouds 12 1015 81 10000 5.64 293 10:49 13.01.2021
143 Clouds 12 1015 78 10000 6.03 293 10:28 13.01.2021
144 Clouds 12 1014 77 10000 6.03 293 09:40 13.01.2021
145 Clouds 11 1013 86 10000 0.45 321 08:59 13.01.2021
146 Clouds 11 1013 88 10000 4.93 285 08:41 13.01.2021
147 Clouds 10 1013 89 10000 3.91 285 08:23 13.01.2021
148 Clouds 10 1013 88 10000 4.64 282 07:29 13.01.2021
149 Clouds 9 1013 78 10000 3.63 249 05:55 13.01.2021
150 Clouds 9 1014 76 10000 4.14 234 04:18 13.01.2021
151 Clouds 10 1014 76 10000 4.14 234 03:43 13.01.2021
152 Clouds 10 1014 74 10000 4.31 253 03:22 13.01.2021
153 Clouds 10 1015 75 10000 4.51 286 00:48 13.01.2021
154 Clouds 9 1015 78 10000 4.85 295 23:44 12.01.2021
155 Clouds 9 1015 83 10000 4.78 295 22:59 12.01.2021
156 Clouds 9 1015 83 10000 4.78 295 22:39 12.01.2021
157 Clouds 9 1015 82 10000 4.11 297 22:19 12.01.2021
158 Clouds 9 1015 84 10000 4.11 297 21:44 12.01.2021
159 Clouds 9 1015 86 10000 3.83 308 21:25 12.01.2021
160 Clouds 9 1014 87 10000 3.83 308 20:47 12.01.2021
161 Clouds 9 1014 89 10000 3.85 315 20:27 12.01.2021
162 Clouds 8 1013 87 10000 3.85 315 19:47 12.01.2021
163 Clouds 9 1013 83 10000 3.77 314 19:26 12.01.2021
164 Clouds 9 1013 76 10000 3.67 315 18:41 12.01.2021
165 Clouds 10 1013 75 10000 4.36 301 18:22 12.01.2021
166 Clouds 9 1012 77 10000 4.36 301 17:37 12.01.2021
167 Clouds 9 1012 77 10000 4.52 295 17:19 12.01.2021
168 Clouds 10 1012 75 10000 4.52 295 16:43 12.01.2021
169 Clouds 10 1012 74 10000 5.21 295 16:22 12.01.2021
170 Clear 11 1012 79 10000 6.72 297 15:29 12.01.2021
171 Clear 10 1012 87 10000 0.89 341 14:58 12.01.2021
172 Clear 9 1012 98 10000 6.71 297 14:40 12.01.2021
173 Clouds 9 1015 81 8000 4.12 360 14:19 12.01.2021
174 Clouds 10 1013 78 10000 1.34 338 13:47 12.01.2021
175 Clouds 12 1012 71 10000 6.41 308 12:50 12.01.2021
176 Clouds 11 1012 75 10000 0.89 353 12:21 12.01.2021
177 Clouds 11 1013 99 10000 5.18 318 11:40 12.01.2021
178 Clouds 9 1013 99 9840 4.15 320 10:50 12.01.2021
179 Rain 9 1013 99 10000 3.51 319 10:21 12.01.2021
180 Clouds 9 1013 99 10000 3.51 319 09:57 12.01.2021
181 Clouds 9 1012 99 9703 4.66 328 09:27 12.01.2021
182 Clouds 9 1012 99 9703 4.66 328 08:46 12.01.2021
183 Clouds 9 1012 99 10000 0.45 355 08:23 12.01.2021
184 Rain 9 1011 96 10000 3.04 292 07:35 12.01.2021
185 Clouds 10 1011 91 10000 3.3 225 06:26 12.01.2021
186 Clouds 10 1010 88 10000 3.3 225 05:33 12.01.2021
187 Clear 10 1011 89 10000 2.86 225 03:26 12.01.2021
188 Clear 10 1012 91 10000 0.45 343 02:19 12.01.2021
189 Clear 10 1012 91 10000 2.57 214 01:28 12.01.2021
190 Clouds 10 1012 93 10000 1.85 204 23:54 11.01.2021
191 Clouds 10 1012 93 10000 1.85 204 23:36 11.01.2021
192 Clouds 11 1012 93 10000 1.42 194 23:18 11.01.2021
193 Clouds 11 1012 93 10000 1.42 194 22:44 11.01.2021
194 Clouds 11 1012 94 10000 0.78 186 22:26 11.01.2021
195 Clouds 11 1012 92 10000 0.78 186 21:39 11.01.2021
196 Clear 11 1012 92 10000 0.57 154 21:21 11.01.2021
197 Clear 11 1014 82 10000 2.06 100 20:41 11.01.2021
198 Clear 11 1014 87 10000 3.09 100 20:23 11.01.2021
199 Clear 12 1014 87 10000 3.6 70 19:56 11.01.2021
200 Clear 12 1014 87 10000 3.6 70 19:30 11.01.2021
201 Clear 12 1013 82 10000 4.12 50 18:46 11.01.2021
202 Clouds 12 1013 82 10000 6.69 30 18:27 11.01.2021
203 Clouds 13 1013 71 10000 4.12 50 17:56 11.01.2021
204 Clouds 13 1011 80 10000 1.59 80 17:37 11.01.2021
205 Clouds 13 1011 79 10000 1.54 71 17:19 11.01.2021
206 Clouds 13 1011 76 10000 1.54 71 16:39 11.01.2021
207 Clouds 14 1011 74 10000 1.53 76 16:20 11.01.2021
208 Clouds 15 1011 73 10000 0.89 341 15:47 11.01.2021
209 Clouds 14 1011 76 10000 0.89 350 15:26 11.01.2021
210 Clouds 14 1010 75 10000 0.89 6 14:40 11.01.2021
211 Clouds 14 1010 76 10000 1.7 17 13:58 11.01.2021
212 Clouds 15 1010 76 10000 1.7 17 13:38 11.01.2021
213 Clouds 14 1011 78 10000 1.86 6 13:18 11.01.2021
214 Clouds 14 1011 78 10000 2.05 20 12:36 11.01.2021
215 Clouds 14 1011 77 10000 2.31 8 11:57 11.01.2021
216 Clouds 15 1011 77 10000 2.31 8 11:36 11.01.2021
217 Clouds 14 1012 79 10000 2.36 8 10:53 11.01.2021
218 Clouds 14 1012 81 10000 2.15 358 10:27 11.01.2021
219 Clouds 14 1011 84 10000 2.15 358 09:45 11.01.2021
220 Clouds 13 1011 88 10000 1.55 3 09:23 11.01.2021
221 Clouds 12 1011 92 10000 1.55 3 08:46 11.01.2021
222 Clouds 12 1011 92 10000 1.39 12 08:19 11.01.2021
223 Clouds 12 1010 94 10000 1.39 12 07:40 11.01.2021
224 Clouds 12 1010 94 10000 1.52 9 07:19 11.01.2021
225 Clouds 12 1010 93 10000 1.52 9 06:46 11.01.2021
226 Clouds 13 1009 95 10000 3.7 320 01:53 11.01.2021
227 Clouds 13 1008 99 10000 3.11 299 00:40 11.01.2021
228 Clouds 14 1008 99 10000 3.41 283 23:45 10.01.2021
229 Clouds 14 1008 99 10000 3.82 273 22:49 10.01.2021
230 Clouds 14 1008 99 10000 3.82 276 22:28 10.01.2021
231 Rain 14 1008 99 10000 3.82 276 21:57 10.01.2021
232 Clouds 14 1008 99 10000 3.82 276 21:37 10.01.2021
233 Clouds 14 1008 99 10000 0.89 336 21:18 10.01.2021
234 Clouds 14 1007 98 10000 4.08 272 20:39 10.01.2021
235 Clouds 15 1007 99 10000 4.07 263 20:21 10.01.2021
236 Clouds 15 1007 99 10000 4.06 263 19:38 10.01.2021
237 Clouds 15 1006 97 10000 4.83 267 19:20 10.01.2021
238 Clouds 16 1006 96 10000 4.82 267 18:43 10.01.2021
239 Clouds 16 1005 96 10000 0.45 342 18:20 10.01.2021
240 Clouds 17 1005 90 10000 1.34 242 17:23 10.01.2021
241 Clouds 17 1004 87 10000 5.08 280 16:46 10.01.2021
242 Clouds 17 1003 84 10000 3.05 281 16:28 10.01.2021
243 Clouds 18 1002 78 10000 3.06 281 15:39 10.01.2021
244 Clouds 19 1002 77 10000 2.2 281 15:20 10.01.2021
245 Clouds 19 1002 76 10000 2.2 281 14:40 10.01.2021
246 Clouds 19 1002 75 10000 1.91 259 14:22 10.01.2021
247 Clouds 19 1002 73 10000 1.91 259 13:39 10.01.2021
248 Clouds 20 1002 71 10000 1.13 216 13:20 10.01.2021
249 Clouds 20 1002 65 10000 1.13 216 12:50 10.01.2021
250 Clouds 21 1002 58 10000 1.08 238 12:32 10.01.2021
251 Clouds 20 1002 59 10000 1.28 156 11:55 10.01.2021
252 Clouds 21 1003 63 10000 1.72 159 11:20 10.01.2021
253 Clouds 21 1003 63 10000 1.72 159 11:20 10.01.2021
254 Clouds 20 1003 67 10000 1.72 159 10:51 10.01.2021
255 Clouds 19 1003 68 10000 1.21 165 10:22 10.01.2021
256 Clouds 18 1004 72 10000 1.21 165 09:39 10.01.2021
257 Clouds 16 1003 76 10000 2.1 134 08:27 10.01.2021
258 Clouds 16 1003 76 10000 2.1 135 07:38 10.01.2021
259 Clouds 16 1004 76 10000 2.67 153 06:21 10.01.2021
260 Clouds 16 1004 75 10000 2.67 153 05:46 10.01.2021
261 Clouds 17 1004 75 10000 3.33 136 05:27 10.01.2021
262 Clear 18 1006 63 10000 6.69 70 01:42 10.01.2021
263 Clear 23 1007 38 10000 7.2 200 00:21 10.01.2021
264 Clear 24 1007 33 10000 7.2 180 23:41 09.01.2021
265 Clear 24 1007 33 10000 8.23 170 23:20 09.01.2021
266 Clear 24 1007 31 10000 8.23 170 22:21 09.01.2021
267 Clear 24 1007 33 10000 8.23 160 21:58 09.01.2021
268 Clear 24 1007 33 10000 8.23 160 21:39 09.01.2021
269 Clear 24 1007 38 10000 4.63 180 21:21 09.01.2021
270 Clear 25 1007 33 10000 6.69 180 20:56 09.01.2021
271 Clear 25 1007 33 10000 6.69 180 20:32 09.01.2021
272 Clear 24 1007 41 10000 8.75 200 19:40 09.01.2021
273 Clear 24 1006 38 10000 8.75 200 19:21 09.01.2021
274 Clear 22 1006 41 10000 8.75 180 18:38 09.01.2021
275 Clear 22 1006 41 10000 8.75 180 18:38 09.01.2021
276 Clear 22 1006 43 10000 8.75 190 18:19 09.01.2021
277 Clouds 22 1006 49 10000 7.72 180 17:42 09.01.2021
278 Clouds 22 1005 46 10000 7.2 180 17:22 09.01.2021
279 Clear 22 1005 46 10000 8.75 200 16:29 09.01.2021
280 Clear 22 1005 53 10000 9.26 190 15:42 09.01.2021
281 Clear 23 1005 49 10000 10.29 190 15:24 09.01.2021
282 Clear 23 1005 49 10000 9.77 190 14:37 09.01.2021
283 Clouds 23 1002 55 10000 3.13 194 14:19 09.01.2021
284 Clouds 23 1002 55 10000 3.58 240 13:46 09.01.2021
285 Clouds 23 1002 55 10000 1.34 184 13:27 09.01.2021
286 Clouds 23 1003 54 10000 0.45 188 12:47 09.01.2021
287 Clear 21 1005 49 10000 12.35 190 12:21 09.01.2021
288 Clear 20 1006 49 10000 11.83 190 11:50 09.01.2021
289 Clouds 23 1005 46 9000 12.86 190 11:27 09.01.2021
290 Clear 22 1005 49 10000 10.8 190 10:52 09.01.2021
291 Clear 19 1007 68 10000 4.12 250 10:27 09.01.2021
292 Clear 15 1007 88 10000 1.03 0 09:46 09.01.2021
293 Clouds 15 1005 99 10000 3.08 145 09:21 09.01.2021
294 Clouds 13 1006 99 10000 3.35 135 08:26 09.01.2021
295 Clouds 13 1006 99 10000 3.78 123 06:56 09.01.2021
296 Clouds 12 1006 99 10000 3.83 133 06:38 09.01.2021
297 Clear 13 1006 99 10000 4.05 125 04:47 09.01.2021
298 Clouds 13 1006 99 10000 3.88 124 03:20 09.01.2021
299 Clouds 13 1007 99 10000 4.13 121 02:29 09.01.2021
300 Clouds 13 1007 99 10000 4.13 121 01:44 09.01.2021
301 Clouds 13 1008 99 10000 3.93 114 00:34 09.01.2021
302 Clouds 12 1008 99 10000 4.13 110 23:50 08.01.2021
303 Clouds 12 1008 99 10000 4.13 110 23:50 08.01.2021
304 Clouds 13 1008 99 10000 4.15 100 22:56 08.01.2021
305 Clouds 13 1009 99 10000 3.9 88 21:59 08.01.2021
306 Clouds 13 1009 99 10000 3.9 88 21:34 08.01.2021
307 Clouds 13 1008 99 10000 3.2 78 20:42 08.01.2021
308 Clouds 13 1008 99 10000 3.74 64 20:23 08.01.2021
309 Clouds 13 1008 99 10000 3.74 64 19:44 08.01.2021
310 Clouds 13 1008 99 10000 4.4 51 19:21 08.01.2021
311 Clouds 14 1007 99 10000 4.31 44 18:34 08.01.2021
312 Clouds 14 1006 99 10000 4.38 34 17:56 08.01.2021
313 Clouds 14 1006 99 10000 4.38 34 17:35 08.01.2021
314 Clouds 13 1006 99 10000 4.2 22 16:51 08.01.2021
315 Clouds 13 1006 99 10000 4.12 21 16:51 08.01.2021
316 Clouds 14 1006 99 10000 3.22 11 16:20 08.01.2021
317 Clouds 14 1005 99 10000 0.45 358 15:40 08.01.2021
318 Clouds 16 1005 93 10000 0.45 315 14:45 08.01.2021
319 Clouds 17 1003 90 10000 1.62 125 14:26 08.01.2021
320 Clouds 17 1003 84 10000 1.44 105 13:23 08.01.2021
321 Clouds 17 1003 82 10000 1.44 105 12:57 08.01.2021
322 Clouds 17 1004 79 10000 1.62 56 12:39 08.01.2021
323 Clouds 17 1004 75 10000 1.73 11 12:19 08.01.2021
324 Clouds 18 1005 75 10000 1.73 11 11:42 08.01.2021
325 Clear 18 1005 74 10000 0.67 305 11:22 08.01.2021
326 Clear 18 1006 73 10000 0.67 305 10:48 08.01.2021
327 Clear 18 1006 72 10000 1.6 255 10:24 08.01.2021
328 Clear 17 1006 79 10000 1.6 255 09:44 08.01.2021
329 Clear 17 1006 76 10000 2.55 230 09:21 08.01.2021
330 Clear 16 1006 62 10000 3.49 217 08:19 08.01.2021
331 Clouds 16 1006 60 10000 0.45 243 07:25 08.01.2021
332 Clear 17 1008 52 10000 6.69 200 04:26 08.01.2021
333 Clear 19 1007 42 10000 8.23 190 23:46 07.01.2021
334 Clear 19 1007 42 10000 8.23 200 23:28 07.01.2021
335 Clear 19 1007 42 10000 8.75 190 22:42 07.01.2021
336 Clear 19 1007 42 10000 9.26 200 22:21 07.01.2021
337 Clear 18 1007 42 10000 8.75 190 21:41 07.01.2021
338 Clear 19 1007 42 10000 9.77 190 21:22 07.01.2021
339 Clear 19 1007 42 10000 11.83 190 20:45 07.01.2021
340 Clear 19 1007 42 10000 9.26 190 20:26 07.01.2021
341 Clear 19 1007 42 10000 8.75 200 19:42 07.01.2021
342 Clear 19 1007 39 10000 8.75 180 18:55 07.01.2021
343 Clear 19 1007 34 10000 8.23 200 18:30 07.01.2021
344 Clear 19 1007 32 10000 8.23 190 17:42 07.01.2021
345 Clear 19 1006 32 10000 10.29 190 17:22 07.01.2021
346 Clear 19 1006 30 10000 11.32 190 16:53 07.01.2021
347 Clear 19 1006 28 10000 10.8 200 16:27 07.01.2021
348 Clear 20 1007 37 10000 7.2 200 15:40 07.01.2021
349 Clear 18 1008 72 10000 2.57 30 14:55 07.01.2021
350 Clear 17 1008 72 10000 3.6 70 14:27 07.01.2021
351 Clouds 18 1006 59 10000 0.45 350 13:42 07.01.2021
352 Clouds 18 1006 62 10000 0.89 340 13:18 07.01.2021
353 Clouds 18 1007 61 10000 2.28 163 12:42 07.01.2021
354 Clouds 17 1008 62 10000 2.14 155 11:54 07.01.2021
355 Clouds 17 1009 63 10000 2.14 155 11:35 07.01.2021
356 Clouds 17 1010 64 10000 1.88 161 10:50 07.01.2021
357 Clear 16 1013 72 10000 1.5 190 10:27 07.01.2021
358 Clouds 15 1011 69 10000 2.2 164 09:48 07.01.2021
359 Clouds 15 1011 72 10000 2.33 177 09:19 07.01.2021
360 Clouds 13 1011 74 10000 2.78 177 08:29 07.01.2021
361 Clouds 13 1011 73 10000 2.77 177 07:51 07.01.2021
362 Clouds 13 1011 73 10000 3.31 169 07:30 07.01.2021
363 Clouds 14 1010 70 10000 2.49 185 05:26 07.01.2021
364 Clear 15 1013 59 10000 7.2 200 00:31 07.01.2021
365 Clear 15 1013 59 10000 8.7 200 23:49 06.01.2021
366 Clear 16 1013 59 10000 8.2 200 22:44 06.01.2021
367 Clear 15 1013 67 10000 5.7 250 21:56 06.01.2021
368 Clear 15 1014 54 10000 3.1 220 21:38 06.01.2021
369 Clear 15 1014 54 10000 3.1 220 21:19 06.01.2021
370 Clear 16 1014 55 10000 5.1 200 20:39 06.01.2021
371 Clear 15 1014 58 10000 4.6 240 20:18 06.01.2021
372 Clouds 15 1014 62 10000 3.6 210 19:38 06.01.2021
373 Clouds 15 1014 62 10000 3.6 210 19:19 06.01.2021
374 Clouds 15 1013 62 10000 2.6 200 18:42 06.01.2021
375 Clouds 15 1013 67 10000 4.6 210 18:24 06.01.2021
376 Clear 15 1013 67 10000 7.2 220 17:43 06.01.2021
377 Clouds 15 1011 55 10000 2.75 197 17:24 06.01.2021
378 Clear 15 1013 62 10000 7.7 190 16:42 06.01.2021
379 Clouds 16 1011 49 10000 2.77 204 16:20 06.01.2021
380 Clouds 16 1011 48 10000 2.77 204 15:53 06.01.2021
381 Clouds 16 1011 46 10000 0.89 234 15:32 06.01.2021
382 Clouds 16 1011 47 10000 4.64 216 14:51 06.01.2021
383 Clouds 17 1011 43 10000 5.95 216 14:21 06.01.2021
384 Clouds 16 1011 50 10000 5.99 216 13:47 06.01.2021
385 Clouds 16 1011 49 10000 2.68 227 13:24 06.01.2021
386 Clouds 17 1012 49 10000 0.89 248 12:48 06.01.2021
387 Clouds 17 1012 46 10000 5.89 204 12:20 06.01.2021
388 Clouds 16 1012 51 10000 5.91 204 11:36 06.01.2021
389 Clouds 16 1013 53 10000 0.89 305 11:18 06.01.2021
390 Clouds 15 1013 57 10000 6.16 196 10:29 06.01.2021
391 Clouds 15 1013 58 10000 0.89 196 09:51 06.01.2021
392 Clouds 14 1013 61 10000 1.34 177 09:21 06.01.2021
393 Clouds 13 1012 63 10000 0.45 223 08:41 06.01.2021
394 Clouds 13 1012 62 10000 4.82 184 07:58 06.01.2021
395 Clouds 13 1012 59 10000 0.45 192 07:18 06.01.2021
396 Clouds 13 1012 59 10000 0.45 235 05:51 06.01.2021
397 Clouds 13 1012 56 10000 0.45 18 04:41 06.01.2021
398 Clouds 13 1012 58 10000 0.45 195 02:47 06.01.2021
399 Clouds 13 1012 58 10000 0.89 194 02:26 06.01.2021
400 Clouds 13 1012 59 10000 1.34 223 01:34 06.01.2021
401 Clouds 12 1012 62 10000 4.61 188 23:39 05.01.2021
402 Clouds 13 1011 62 10000 4.49 192 22:51 05.01.2021
403 Clouds 13 1012 62 10000 4.49 192 22:32 05.01.2021
404 Clouds 13 1012 61 10000 4.71 191 21:58 05.01.2021
405 Clouds 13 1012 63 10000 4.82 198 21:18 05.01.2021
406 Clouds 12 1012 64 10000 4.98 199 20:29 05.01.2021
407 Clouds 12 1011 63 10000 4.98 199 19:45 05.01.2021
408 Clouds 12 1011 62 10000 5.11 200 19:24 05.01.2021
409 Clouds 13 1011 61 10000 5.11 200 18:47 05.01.2021
410 Clouds 13 1011 61 10000 0.45 283 18:28 05.01.2021
411 Clouds 13 1010 59 10000 0.89 273 17:54 05.01.2021
412 Clouds 13 1010 57 10000 5.02 199 17:31 05.01.2021
413 Clouds 13 1010 55 10000 5.4 198 16:54 05.01.2021
414 Clouds 13 1010 54 10000 5.45 198 16:54 05.01.2021
415 Clouds 14 1010 51 10000 5.61 199 16:24 05.01.2021
416 Clouds 14 1010 51 10000 0.89 249 15:59 05.01.2021
417 Clouds 15 1009 48 10000 0.45 284 15:35 05.01.2021
418 Clouds 15 1009 48 10000 0.45 284 15:35 05.01.2021
419 Clouds 16 1009 44 10000 1.34 196 14:48 05.01.2021
420 Clouds 15 1009 43 10000 0.45 242 14:18 05.01.2021
421 Clouds 15 1009 44 10000 7.34 205 13:39 05.01.2021
422 Clouds 15 1009 43 10000 0.89 254 13:20 05.01.2021
423 Clouds 14 1010 48 10000 1.34 193 12:46 05.01.2021
424 Clouds 14 1010 51 10000 6.68 197 12:20 05.01.2021
425 -273 0 0 0 0 0 11:33 05.01.2021
426 Clouds 13 1011 51 10000 6.68 197 11:32 05.01.2021
427 Clouds 13 1011 51 10000 6.68 197 11:32 05.01.2021
428 Clouds 13 1011 51 10000 5.85 191 11:31 05.01.2021
429 Clouds 13 1011 53 10000 0.89 262 10:45 05.01.2021
430 Clouds 13 1011 53 10000 0.45 261 10:24 05.01.2021
431 Clouds 12 1011 58 10000 4.92 180 09:45 05.01.2021
432 Clouds 11 1011 61 10000 0.45 299 09:25 05.01.2021
433 Clouds 10 1011 68 10000 4.3 182 08:19 05.01.2021
434 Clear 8 1011 79 10000 3.94 183 05:38 05.01.2021
435 Clear 8 1011 78 10000 4.11 192 03:40 05.01.2021
436 Clouds 10 1012 71 10000 4.3 207 00:28 05.01.2021
437 Clouds 10 1011 73 10000 4.3 207 23:43 04.01.2021
438 Clouds 10 1011 75 10000 4.47 212 23:24 04.01.2021
439 Clouds 10 1011 75 10000 0.45 312 22:46 04.01.2021
440 Clouds 10 1012 75 10000 4.61 215 22:21 04.01.2021
441 Clouds 10 1012 75 10000 4.61 215 21:44 04.01.2021
442 Clouds 10 1012 74 10000 4.97 215 21:24 04.01.2021
443 Clouds 10 1012 73 10000 4.97 215 20:43 04.01.2021
444 Clouds 10 1012 73 10000 5.05 215 20:22 04.01.2021
445 Clouds 10 1011 74 10000 0.45 243 19:43 04.01.2021
446 Clouds 10 1011 73 10000 4.8 209 19:22 04.01.2021
447 Clouds 10 1011 74 10000 4.83 208 18:48 04.01.2021
448 Clouds 10 1011 72 10000 4.12 204 18:19 04.01.2021
449 Clouds 11 1011 69 10000 4.12 204 17:41 04.01.2021
450 Clouds 11 1011 68 10000 3.02 221 17:22 04.01.2021
451 Clouds 11 1010 66 10000 3.02 221 16:45 04.01.2021
452 Clouds 11 1010 67 10000 3.11 242 16:26 04.01.2021
453 Clouds 11 1010 66 10000 3.11 242 15:49 04.01.2021
454 Clouds 12 1010 58 10000 3.57 253 15:25 04.01.2021
455 Clouds 13 1010 57 10000 0.89 353 14:21 04.01.2021
456 Clouds 13 1012 62 10000 4.6 220 13:43 04.01.2021
457 Clouds 13 1010 59 10000 1.34 353 13:20 04.01.2021
458 Clouds 13 1010 58 10000 3.71 268 12:32 04.01.2021
459 Clear 13 1010 58 10000 3.92 262 11:53 04.01.2021
460 Clear 13 1010 58 10000 3.71 256 11:20 04.01.2021
461 Clear 12 1011 60 10000 0.45 241 10:47 04.01.2021
462 Clear 12 1011 63 10000 3.98 243 10:25 04.01.2021
463 Clear 12 1011 65 10000 1.34 298 09:51 04.01.2021
464 Clear 11 1011 69 10000 0.45 338 09:19 04.01.2021
465 Clear 9 1011 74 10000 4.12 225 08:42 04.01.2021
466 Clear 9 1010 73 10000 4.45 222 07:54 04.01.2021
467 Clouds 9 1010 73 10000 0.45 350 07:27 04.01.2021
468 Clouds 9 1010 70 10000 4.66 211 05:31 04.01.2021
469 Clouds 10 1010 67 10000 3.93 194 02:45 04.01.2021
470 Clouds 10 1010 63 10000 4.15 192 00:40 04.01.2021
471 Clouds 11 1010 62 10000 4.68 182 23:48 03.01.2021
472 Clouds 11 1010 66 10000 4.03 193 23:21 03.01.2021
473 Clouds 11 1010 67 10000 4.03 193 22:52 03.01.2021
474 Clouds 11 1010 66 10000 4.03 193 22:30 03.01.2021
475 Clouds 11 1010 65 10000 3.06 191 21:48 03.01.2021
476 Clouds 11 1011 64 10000 2.99 199 21:26 03.01.2021
477 Clouds 11 1010 62 10000 2.99 199 20:45 03.01.2021
478 Clouds 11 1011 61 10000 4.06 207 20:26 03.01.2021
479 Clouds 12 1010 59 10000 4.06 207 19:55 03.01.2021
480 Clouds 12 1010 58 10000 4.06 207 19:34 03.01.2021
481 Clouds 12 1011 56 10000 4.66 208 18:56 03.01.2021
482 Clouds 12 1011 53 10000 4.91 211 18:38 03.01.2021
483 Clouds 12 1011 52 10000 0.45 293 18:18 03.01.2021
484 Clouds 13 1010 49 10000 5.12 209 17:41 03.01.2021
485 Clouds 13 1010 49 10000 0.89 236 17:22 03.01.2021
486 Clouds 13 1010 50 10000 1.79 223 16:42 03.01.2021
487 Clouds 13 1010 48 10000 0.89 218 16:19 03.01.2021
488 Clouds 14 1010 48 10000 1.34 223 15:46 03.01.2021
489 Clear 15 1010 45 10000 0.45 286 15:27 03.01.2021
490 Clear 15 1010 47 10000 7.4 209 14:52 03.01.2021
491 Clear 15 1009 47 10000 0.89 210 14:27 03.01.2021
492 Clear 14 1010 56 10000 1.34 193 13:41 03.01.2021
493 Clear 14 1010 54 10000 7.25 215 13:22 03.01.2021
494 Clouds 14 1010 46 10000 0.45 236 12:24 03.01.2021
495 Clouds 14 1011 47 10000 0.89 169 11:42 03.01.2021
496 Clouds 14 1010 46 10000 1.34 241 11:24 03.01.2021
497 Clouds 14 1011 56 10000 0.89 207 10:34 03.01.2021
498 Clouds 12 1011 81 10000 4.7 195 09:59 03.01.2021
499 Clouds 12 1011 82 10000 4.7 195 09:34 03.01.2021
500 Clouds 11 1011 81 10000 0.89 352 08:59 03.01.2021
501 Clouds 9 1010 80 10000 4.29 182 07:38 03.01.2021
502 Clouds 9 1009 78 10000 3.42 178 05:58 03.01.2021
503 Clouds 9 1010 75 10000 3.09 183 02:27 03.01.2021
504 Clouds 9 1010 74 10000 3.09 183 01:44 03.01.2021
505 Clouds 9 1010 74 10000 3.09 183 01:44 03.01.2021
506 Clouds 10 1010 70 10000 3.21 199 00:18 03.01.2021
507 Clouds 11 1011 66 10000 3.09 201 23:27 02.01.2021
508 Clouds 11 1011 65 10000 3.09 201 22:52 02.01.2021
509 Clouds 11 1011 65 10000 3.09 201 22:32 02.01.2021
510 Clouds 11 1011 65 10000 3.05 204 21:50 02.01.2021
511 Clouds 11 1010 66 10000 3.05 204 21:31 02.01.2021
512 Clouds 11 1010 62 10000 3.23 214 20:50 02.01.2021
513 Clouds 11 1010 60 10000 3.24 215 20:28 02.01.2021
514 Clouds 12 1010 57 10000 0.45 267 19:52 02.01.2021
515 Clear 12 1010 57 10000 0.45 229 19:20 02.01.2021
516 Clear 12 1011 58 10000 4.6 200 18:56 02.01.2021
517 Clear 12 1009 56 10000 3.27 217 18:38 02.01.2021
518 Clear 12 1009 56 10000 3.44 222 18:19 02.01.2021
519 Clear 13 1008 52 10000 3.44 222 17:38 02.01.2021
520 Clear 14 1010 51 10000 5.7 220 16:53 02.01.2021
521 Clear 14 1008 45 10000 3.66 224 16:23 02.01.2021
522 Clear 15 1008 43 10000 3.66 224 15:54 02.01.2021
523 Clear 14 1010 44 10000 7.2 210 15:31 02.01.2021
524 Clear 14 1010 47 10000 8.2 230 14:55 02.01.2021
525 Clear 14 1010 47 10000 8.2 230 14:34 02.01.2021
526 Clear 16 1007 48 10000 0.89 261 13:49 02.01.2021
527 Clear 16 1007 49 10000 5.64 222 13:18 02.01.2021
528 Clear 16 1007 50 10000 1.34 230 12:43 02.01.2021
529 Clear 16 1008 51 10000 0.89 215 12:24 02.01.2021
530 Clear 15 1008 55 10000 5.29 217 11:43 02.01.2021
531 Clear 15 1008 55 10000 5.27 207 11:21 02.01.2021
532 Clear 14 1008 61 10000 0.45 254 10:42 02.01.2021
533 Clear 14 1008 62 10000 5.69 200 10:24 02.01.2021
534 Clear 13 1008 64 10000 5.69 200 09:43 02.01.2021
535 Clouds 13 1007 65 10000 5.43 196 09:21 02.01.2021
536 Clouds 13 1007 64 10000 5.43 196 08:49 02.01.2021
537 Clouds 13 1007 64 10000 5.06 190 08:21 02.01.2021
538 Clouds 13 1007 64 10000 5.06 190 07:43 02.01.2021
539 Clouds 13 1007 64 10000 0.45 253 07:19 02.01.2021
540 Clouds 13 1006 64 10000 4.71 184 06:24 02.01.2021
541 Clouds 13 1006 64 10000 0.89 251 04:27 02.01.2021
542 Clouds 14 1007 61 10000 1.34 281 00:54 02.01.2021
543 Clouds 14 1007 63 10000 0.89 200 00:35 02.01.2021
544 Clouds 13 1008 73 10000 4.17 168 23:44 01.01.2021
545 Clouds 12 1008 79 10000 4.25 160 23:20 01.01.2021
546 Clouds 13 1008 77 10000 4.25 160 22:47 01.01.2021
547 Clouds 12 1008 74 10000 4.78 152 22:22 01.01.2021
548 Clouds 12 1009 72 10000 4.78 152 21:43 01.01.2021
549 Clear 12 1009 70 10000 4.68 151 21:21 01.01.2021
550 Clear 13 1009 67 10000 4.68 151 20:51 01.01.2021
551 Clear 13 1009 65 10000 4.75 163 20:20 01.01.2021
552 Clear 13 1009 61 10000 4.75 163 19:43 01.01.2021
553 Clear 13 1009 60 10000 4.87 169 19:23 01.01.2021
554 Clear 13 1009 59 10000 4.87 169 18:57 01.01.2021
555 Clear 13 1009 61 10000 4.9 164 18:39 01.01.2021
556 Clear 13 1009 60 10000 0.45 312 17:59 01.01.2021
557 Clear 13 1009 60 10000 0.45 241 17:41 01.01.2021
558 Clear 13 1009 58 10000 4.97 172 17:18 01.01.2021
559 Clear 14 1009 57 10000 0.89 312 16:37 01.01.2021
560 Clear 15 1009 54 10000 1.34 262 15:56 01.01.2021
561 Clear 15 1009 53 10000 5.92 181 15:36 01.01.2021
562 Clear 15 1009 45 10000 0.45 251 14:41 01.01.2021
563 Clear 15 1010 50 10000 7.08 187 13:54 01.01.2021
564 Clear 15 1010 53 10000 0.89 217 13:36 01.01.2021
565 Clear 15 1010 56 10000 1.34 221 12:47 01.01.2021
566 Clear 15 1011 57 10000 0.45 328 12:25 01.01.2021
567 Clear 14 1012 59 10000 1.34 221 11:39 01.01.2021
568 Clear 15 1012 63 10000 5.48 181 11:18 01.01.2021
569 Clear 14 1012 66 10000 0.45 284 10:50 01.01.2021
570 Clear 12 1012 79 10000 4.77 179 09:51 01.01.2021
571 Clear 11 1013 83 10000 3.73 174 09:23 01.01.2021
572 Clear 10 1013 87 10000 3.42 180 08:30 01.01.2021
573 Clear 9 1013 89 10000 3.43 191 05:50 01.01.2021
574 Clear 9 1013 87 10000 3.42 196 04:47 01.01.2021
575 Clear 9 1013 81 10000 3.43 200 01:40 01.01.2021
576 Clear 9 1013 77 10000 3.34 204 00:32 01.01.2021
577 Clear 9 1014 75 10000 3.34 204 23:38 31.12.2020
578 Clear 10 1014 74 10000 3.48 208 23:20 31.12.2020
579 Clear 10 1014 72 10000 3.48 208 22:42 31.12.2020
580 Clear 10 1014 71 10000 3.62 209 22:21 31.12.2020
581 Clear 10 1014 71 10000 3.62 209 21:55 31.12.2020
582 Clear 10 1014 70 10000 3.62 209 21:33 31.12.2020
583 Clear 11 1014 68 10000 3.84 207 20:58 31.12.2020
584 Clear 11 1014 68 10000 3.89 207 20:27 31.12.2020
585 Clear 12 1015 66 10000 4.1 180 19:50 31.12.2020
586 Clear 12 1013 62 10000 3.89 207 19:32 31.12.2020
587 Clouds 11 1013 69 10000 0.45 201 18:53 31.12.2020
588 Clouds 11 1013 67 10000 3.95 215 18:25 31.12.2020
589 Clouds 11 1013 65 10000 3.95 215 17:46 31.12.2020
590 Clouds 12 1013 63 10000 3.98 230 17:28 31.12.2020
591 Clouds 12 1013 62 10000 3.98 230 16:55 31.12.2020
592 Clouds 13 1015 62 10000 6.2 240 16:37 31.12.2020
593 Clouds 13 1013 59 10000 4.23 250 16:18 31.12.2020
594 Clouds 14 1013 51 10000 0.45 238 15:42 31.12.2020
595 Clouds 14 1014 58 10000 7.7 250 15:19 31.12.2020
596 Clouds 13 1012 61 10000 5.5 255 14:41 31.12.2020
597 Clear 13 1012 60 10000 1.34 348 14:22 31.12.2020
598 Clear 14 1012 56 10000 0.45 345 13:57 31.12.2020
599 Clear 14 1012 55 10000 6.14 261 13:36 31.12.2020
600 Clouds 14 1012 57 10000 0.89 327 13:18 31.12.2020
601 Clouds 14 1013 58 10000 6.29 266 12:45 31.12.2020
602 Clouds 14 1013 59 10000 7.01 270 12:27 31.12.2020
603 Clouds 13 1013 61 10000 7.01 270 11:47 31.12.2020
604 Clouds 13 1013 61 10000 7.01 270 11:47 31.12.2020
605 Clouds 13 1013 59 10000 6.88 272 11:28 31.12.2020
606 Clouds 13 1013 59 10000 6.88 272 11:28 31.12.2020
607 Clouds 13 1013 59 10000 6.88 272 11:28 31.12.2020
608 Clouds 13 1013 59 10000 6.88 272 11:28 31.12.2020
609 Clouds 13 1013 59 10000 6.88 272 11:28 31.12.2020
610 Clouds 13 1013 59 10000 6.88 272 11:28 31.12.2020
611 Clouds 13 1013 59 10000 6.88 272 11:28 31.12.2020
612 Clouds 13 1013 59 10000 6.88 272 11:28 31.12.2020
613 Clouds 13 1013 58 10000 6.88 272 10:41 31.12.2020
614 Clear 13 1013 57 10000 0.89 181 10:23 31.12.2020
615 Clear 13 1013 58 10000 0.45 211 09:48 31.12.2020
616 Clouds 12 1015 62 10000 8.7 260 09:24 31.12.2020
617 Clear 11 1013 69 10000 1.34 321 08:47 31.12.2020
618 Clear 11 1013 69 10000 5.85 270 08:29 31.12.2020
619 Clear 11 1012 61 10000 5.85 270 07:54 31.12.2020
620 Clouds 11 1012 59 10000 6.32 271 07:24 31.12.2020
621 Clouds 12 1011 63 10000 5.79 272 05:30 31.12.2020
622 Clouds 12 1011 60 10000 0.45 15 03:36 31.12.2020
623 Clouds 12 1011 64 10000 0.89 339 02:36 31.12.2020
624 Clear 11 1010 66 10000 6.07 267 01:56 31.12.2020
625 Clear 12 1010 67 10000 2.24 250 01:37 31.12.2020
626 Clouds 11 1010 73 10000 1.34 1 00:57 31.12.2020
627 Clouds 11 1010 76 10000 0.45 3 00:39 31.12.2020
628 Clouds 10 1009 84 10000 0.45 357 23:39 30.12.2020
629 Clouds 11 1009 77 10000 0.89 322 23:18 30.12.2020
630 Clouds 11 1009 73 10000 5.8 261 22:36 30.12.2020
631 Clouds 12 1008 68 10000 0.89 315 21:54 30.12.2020
632 Clouds 12 1008 70 10000 1.34 48 21:28 30.12.2020
633 Clouds 11 1008 73 10000 1.34 330 20:57 30.12.2020
634 Clouds 11 1008 74 10000 0.89 352 20:39 30.12.2020
635 Clouds 11 1008 77 10000 1.79 26 20:19 30.12.2020
636 Clouds 11 1007 83 10000 1.34 324 19:38 30.12.2020
637 Clouds 11 1008 77 10000 0.89 281 19:19 30.12.2020
638 Clouds 12 1007 75 10000 0.45 8 18:41 30.12.2020
639 Clouds 12 1007 76 10000 5 246 18:22 30.12.2020
640 Clouds 12 1006 77 10000 5 246 17:50 30.12.2020
641 Clouds 12 1006 76 10000 5.27 249 17:30 30.12.2020
642 Clouds 12 1006 76 10000 0.45 209 16:52 30.12.2020
643 Clouds 12 1006 76 10000 0.89 31 16:25 30.12.2020
644 Clouds 13 1006 76 10000 0.45 332 15:45 30.12.2020
645 Clouds 14 1006 69 10000 6.54 251 15:24 30.12.2020
646 Clouds 14 1005 62 10000 0.89 327 14:43 30.12.2020
647 Clear 14 1005 61 10000 6.6 251 14:22 30.12.2020
648 Clouds 14 1006 73 10000 5.85 246 13:20 30.12.2020
649 Clouds 14 1006 62 10000 0.45 230 12:27 30.12.2020
650 Clouds 14 1007 69 10000 0.45 326 11:49 30.12.2020
651 Clouds 13 1007 83 10000 4.05 223 11:23 30.12.2020
652 Clouds 14 1007 90 10000 4.05 223 10:59 30.12.2020
653 Clouds 14 1007 93 10000 4.05 223 10:39 30.12.2020
654 Clouds 14 1007 96 10000 3.62 215 10:20 30.12.2020
655 Clouds 13 1007 97 10000 3.62 215 09:46 30.12.2020
656 Clouds 13 1007 99 10000 3.93 210 09:18 30.12.2020
657 Clouds 12 1007 99 10000 3.95 206 08:23 30.12.2020
658 Clouds 12 1006 99 10000 4.51 227 07:28 30.12.2020
659 Clouds 12 1006 99 10000 4.73 227 06:43 30.12.2020
660 Clouds 12 1006 99 10000 4.33 229 05:50 30.12.2020
661 Clouds 12 1006 99 10000 4.33 229 05:31 30.12.2020
662 Clouds 12 1006 94 10000 3.13 226 03:45 30.12.2020
663 Clouds 12 1006 91 10000 2.86 237 03:25 30.12.2020
664 Clouds 13 1006 81 10000 3.24 227 02:36 30.12.2020
665 Clouds 13 1005 77 10000 3.24 227 01:50 30.12.2020
666 Clouds 13 1005 75 10000 3.24 227 01:31 30.12.2020
667 Clouds 14 1005 73 10000 2.69 218 00:47 30.12.2020
668 Clouds 14 1005 72 10000 3.38 211 00:27 30.12.2020
669 Clouds 14 1005 71 10000 3.38 211 23:52 29.12.2020
670 Clouds 14 1005 70 10000 3.38 211 23:34 29.12.2020
671 Clouds 14 1005 69 10000 4.14 196 22:50 29.12.2020
672 Clouds 14 1005 69 10000 4.14 196 22:32 29.12.2020
673 Clouds 14 1005 70 10000 4.73 186 21:59 29.12.2020
674 Clouds 14 1005 70 10000 4.73 186 21:39 29.12.2020
675 Clear 14 1005 69 10000 4.81 191 21:21 29.12.2020
676 Clear 14 1005 68 10000 4.81 191 20:44 29.12.2020
677 Clear 14 1005 68 10000 4.72 197 20:25 29.12.2020
678 Clear 15 1005 65 10000 0.89 248 19:45 29.12.2020
679 Clouds 15 1006 62 10000 7.2 210 19:23 29.12.2020
680 Clouds 15 1006 62 10000 7.2 200 18:54 29.12.2020
681 Clouds 15 1004 64 10000 4.91 185 18:29 29.12.2020
682 Clouds 15 1004 65 10000 4.91 185 17:55 29.12.2020
683 Clouds 15 1004 64 10000 4.45 178 17:36 29.12.2020
684 Clouds 15 1004 62 10000 4.45 178 17:18 29.12.2020
685 Clouds 16 1003 53 10000 4.45 178 16:34 29.12.2020
686 Clouds 17 1003 48 10000 0.45 298 15:52 29.12.2020
687 Clear 17 1005 51 7000 7.7 180 15:33 29.12.2020
688 Clear 15 1005 51 7000 7.7 180 14:55 29.12.2020
689 Clear 17 1004 51 8000 9.8 190 14:36 29.12.2020
690 Clear 18 1005 51 8000 9.3 200 14:18 29.12.2020
691 Clouds 17 1005 48 10000 4.6 190 13:26 29.12.2020
692 Clouds 17 1006 51 10000 6.2 190 12:59 29.12.2020
693 Clouds 17 1006 55 10000 8.2 200 12:36 29.12.2020
694 Clouds 17 1006 55 10000 8.2 190 12:18 29.12.2020
695 Clouds 16 1004 61 10000 3.97 170 11:49 29.12.2020
696 Clouds 16 1004 66 10000 3.58 175 11:27 29.12.2020
697 Clouds 15 1006 72 10000 3.66 182 10:22 29.12.2020
698 Clouds 14 1005 74 10000 3.66 182 09:41 29.12.2020
699 Clouds 14 1005 74 10000 3.84 186 09:19 29.12.2020
700 Clouds 14 1005 74 10000 3.84 186 08:49 29.12.2020
701 Clouds 14 1005 71 10000 3.98 192 07:41 29.12.2020
702 Clouds 14 1005 70 10000 4.26 201 07:20 29.12.2020
703 Clouds 13 1005 68 10000 4.26 205 05:54 29.12.2020
704 Clouds 14 1004 73 10000 5.65 210 02:41 29.12.2020
705 Clouds 14 1003 68 10000 0.45 297 00:44 29.12.2020
706 Clouds 14 1003 69 10000 6.12 206 23:39 28.12.2020
707 Clear 14 1003 68 10000 6.5 202 22:56 28.12.2020
708 Clear 15 1003 61 10000 1.34 265 22:22 28.12.2020
709 Clear 14 1002 58 10000 1.34 252 21:42 28.12.2020
710 Clear 14 1002 57 10000 6.75 192 21:21 28.12.2020
711 Clear 14 1002 58 10000 1.34 248 20:40 28.12.2020
712 Clear 13 1002 61 10000 0.45 271 20:21 28.12.2020
713 Clear 13 1002 65 10000 0.45 290 19:42 28.12.2020
714 Clear 13 1002 66 10000 7.07 193 19:23 28.12.2020
715 Clear 13 1002 64 10000 6.59 190 18:50 28.12.2020
716 Clear 13 1001 63 10000 6.94 195 18:28 28.12.2020
717 Clear 13 1000 63 10000 1.34 186 17:42 28.12.2020
718 Clear 13 1000 63 10000 1.34 186 17:42 28.12.2020
719 Clear 13 999 62 10000 0.89 212 17:23 28.12.2020
720 Clear 13 999 61 10000 0.45 212 16:38 28.12.2020
721 Clear 13 999 60 10000 0.45 213 16:20 28.12.2020
722 Clear 14 999 57 10000 2.68 179 15:45 28.12.2020
723 Clear 15 997 50 10000 4.92 266 14:56 28.12.2020
724 Clear 15 997 55 10000 4.02 183 13:56 28.12.2020
725 Clear 15 997 56 10000 2.68 206 13:32 28.12.2020
726 Clear 15 997 55 10000 4.02 217 12:51 28.12.2020
727 Clear 15 998 52 10000 4.47 225 12:23 28.12.2020
728 Clear 15 999 48 10000 2.24 198 11:47 28.12.2020
729 Clear 15 1000 49 10000 1.79 181 11:24 28.12.2020
730 Clear 14 1001 51 10000 2.24 226 10:49 28.12.2020
731 Clear 14 1001 52 10000 1.79 223 10:27 28.12.2020
732 Clear 13 1001 56 10000 1.79 234 09:46 28.12.2020
733 Clear 12 1002 58 10000 1.34 247 09:20 28.12.2020
734 Clear 12 1003 60 10000 1.79 221 08:52 28.12.2020
735 Clouds 11 1004 70 10000 0.89 257 06:51 28.12.2020
736 Clouds 9 1005 83 10000 5.47 203 04:41 28.12.2020
737 Clouds 10 1007 76 10000 4.96 209 02:44 28.12.2020
738 Clear 9 1007 93 10000 4.93 223 01:46 28.12.2020
739 Clouds 8 1008 99 10000 4.7 204 23:49 27.12.2020
740 Clouds 9 1009 99 10000 4.43 212 23:20 27.12.2020
741 Clouds 8 1009 99 10000 4.6 226 21:58 27.12.2020
742 Clouds 8 1008 99 10000 4.94 235 21:27 27.12.2020
743 Clouds 9 1008 99 10000 4.94 235 20:53 27.12.2020
744 Clouds 9 1008 98 10000 5.59 257 19:49 27.12.2020
745 Clouds 9 1008 98 10000 6.17 273 19:23 27.12.2020
746 Clouds 9 1008 99 10000 0.45 264 18:47 27.12.2020
747 Clouds 8 1007 99 10000 7.51 281 18:20 27.12.2020
748 Clouds 8 1007 99 10000 7.51 281 17:52 27.12.2020
749 Clouds 9 1007 98 10000 7.51 281 17:34 27.12.2020
750 Clouds 10 1007 85 10000 1.79 308 16:54 27.12.2020
751 Clouds 10 1006 92 10000 0.45 280 16:20 27.12.2020
752 Rain 10 1008 81 6000 9.8 260 15:22 27.12.2020
753 Rain 9 1006 87 10000 0.45 222 14:45 27.12.2020
754 Clouds 10 1006 80 10000 1.34 27 14:27 27.12.2020
755 Clouds 11 1006 80 10000 1.34 342 13:23 27.12.2020
756 Rain 11 1006 78 10000 0.45 310 12:51 27.12.2020
757 Clouds 12 1005 79 10000 1.34 355 12:22 27.12.2020
758 Clouds 11 1006 85 10000 7.23 278 11:40 27.12.2020
759 Clouds 10 1006 87 10000 0.45 301 10:58 27.12.2020
760 Clouds 10 1006 91 10000 1.79 334 10:39 27.12.2020
761 Clouds 10 1006 97 10000 1.34 335 10:19 27.12.2020
762 Rain 9 1006 95 10000 4.99 265 08:53 27.12.2020
763 Clouds 9 1005 94 10000 4.86 256 08:28 27.12.2020
764 Clouds 8 1005 91 10000 4.72 259 07:28 27.12.2020
765 Clouds 8 1005 88 10000 4.41 244 05:47 27.12.2020
766 Clouds 9 1004 80 10000 0.89 337 04:59 27.12.2020
767 Clouds 8 1005 84 10000 0.45 225 03:23 27.12.2020
768 Clouds 9 1005 85 10000 3.71 192 01:52 27.12.2020
769 Clouds 9 1005 81 10000 3.88 175 00:26 27.12.2020
770 Clouds 9 1005 81 10000 3.88 175 00:26 27.12.2020
771 Clouds 10 1006 79 10000 3.88 175 23:42 26.12.2020
772 Clouds 10 1006 79 10000 3.72 168 23:22 26.12.2020
773 Clouds 10 1007 79 10000 3.72 168 22:41 26.12.2020
774 Clouds 10 1007 78 10000 4.01 171 22:19 26.12.2020
775 Clouds 10 1006 77 10000 4.01 171 21:53 26.12.2020
776 Clouds 10 1007 76 10000 4.19 183 21:24 26.12.2020
777 Clouds 10 1007 75 10000 4.19 183 20:44 26.12.2020
778 Clouds 10 1007 74 10000 4.35 193 20:22 26.12.2020
779 Clouds 10 1007 73 10000 4.35 193 19:31 26.12.2020
780 Clouds 10 1007 74 10000 4.44 202 18:57 26.12.2020
781 Clouds 10 1007 73 10000 4.7 198 18:33 26.12.2020
782 Clouds 11 1007 69 10000 4.82 205 17:47 26.12.2020
783 Clouds 11 1007 69 10000 4.68 212 17:28 26.12.2020
784 Clouds 11 1007 68 10000 4.68 212 16:38 26.12.2020
785 Clouds 11 1008 67 10000 4.56 222 16:18 26.12.2020
786 Clouds 11 1007 67 10000 0.89 228 15:21 26.12.2020
787 Clouds 11 1008 71 10000 0.45 224 14:38 26.12.2020
788 Clouds 11 1008 73 10000 3.96 206 14:20 26.12.2020
789 Clouds 10 1009 77 10000 3.96 206 13:37 26.12.2020
790 Clouds 10 1009 80 10000 3.81 181 13:18 26.12.2020
791 Clouds 10 1010 82 10000 3.81 181 12:40 26.12.2020
792 Clouds 10 1010 84 10000 3.74 217 12:19 26.12.2020
793 Clouds 10 1010 89 10000 3.74 217 11:42 26.12.2020
794 Clouds 9 1011 91 10000 3.38 223 11:20 26.12.2020
795 Clouds 9 1011 91 10000 0.45 282 10:47 26.12.2020
796 Clouds 9 1011 90 10000 0.45 229 10:26 26.12.2020
797 Clouds 9 1012 94 10000 0.89 301 09:47 26.12.2020
798 Clouds 9 1011 93 10000 0.45 332 08:55 26.12.2020
799 Clouds 9 1011 94 10000 6.46 280 08:20 26.12.2020
800 Clouds 9 1010 95 8910 7.17 294 07:21 26.12.2020
801 Clouds 10 1009 96 5506 0.45 54 05:52 26.12.2020
802 Clouds 14 1009 91 7143 0.89 225 02:48 26.12.2020
803 Clouds 15 1009 76 10000 4.97 223 00:40 26.12.2020
804 Clouds 16 1010 76 10000 4.64 205 23:58 25.12.2020
805 Clouds 16 1010 76 10000 4.64 205 23:38 25.12.2020
806 Clouds 16 1010 77 10000 4.82 204 23:20 25.12.2020
807 Clouds 15 1011 76 10000 4.92 206 22:28 25.12.2020
808 Clouds 15 1011 73 10000 4.92 206 21:49 25.12.2020
809 Clouds 15 1013 77 10000 6.7 200 21:31 25.12.2020
810 Clouds 15 1012 77 10000 8.7 200 20:47 25.12.2020
811 Clouds 16 1011 74 10000 0.45 341 20:28 25.12.2020
812 Clouds 16 1011 75 10000 5.22 211 19:44 25.12.2020
813 Clouds 15 1011 74 10000 0.45 196 18:58 25.12.2020
814 Clouds 16 1011 74 10000 0.45 188 18:38 25.12.2020
815 Clouds 16 1012 73 10000 3.83 215 17:35 25.12.2020
816 Clouds 16 1012 70 10000 3.83 215 16:58 25.12.2020
817 Clouds 17 1012 69 10000 3.61 226 16:32 25.12.2020
818 Clouds 17 1012 68 10000 3.61 226 15:57 25.12.2020
819 Clouds 17 1012 66 10000 3.61 226 15:35 25.12.2020
820 Clouds 18 1012 61 10000 0.45 217 14:46 25.12.2020
821 Clouds 16 1015 77 10000 5.7 220 14:25 25.12.2020
822 Clouds 18 1015 72 10000 6.2 220 13:44 25.12.2020
823 Clouds 18 1016 68 10000 7.7 210 13:25 25.12.2020
824 Clouds 18 1016 68 10000 7.7 210 12:34 25.12.2020
825 Clouds 17 1014 70 10000 0.45 250 11:52 25.12.2020
826 Clouds 17 1014 70 10000 4.55 223 11:29 25.12.2020
827 Clouds 16 1015 71 10000 4.55 223 10:49 25.12.2020
828 Clouds 16 1015 69 10000 4.77 222 10:23 25.12.2020
829 Clouds 15 1015 70 10000 4.77 222 09:32 25.12.2020
830 Clouds 14 1015 69 10000 4.44 220 08:48 25.12.2020
831 Clouds 13 1015 70 10000 4.18 218 07:58 25.12.2020
832 Clouds 12 1015 71 10000 4.01 214 06:46 25.12.2020
833 Clouds 14 1016 66 10000 3.42 211 02:51 25.12.2020
834 Clouds 13 1016 74 10000 3.43 207 01:41 25.12.2020
835 Clouds 13 1016 80 10000 3.15 205 00:18 25.12.2020
836 Clouds 13 1017 80 10000 2.76 209 23:23 24.12.2020
837 Clouds 13 1017 87 10000 2.76 209 22:41 24.12.2020
838 Clouds 12 1017 88 10000 2.73 209 22:20 24.12.2020
839 Clouds 13 1017 89 10000 2.73 209 21:33 24.12.2020
840 Clouds 14 1018 89 10000 2.74 203 20:36 24.12.2020
841 Clouds 14 1018 89 10000 2.61 192 18:51 24.12.2020
842 Clouds 14 1018 87 10000 2.48 188 18:18 24.12.2020
843 Clouds 15 1017 83 10000 2.48 188 17:37 24.12.2020
844 Clouds 16 1018 77 10000 2.02 180 16:45 24.12.2020
845 Clouds 16 1018 73 10000 1.56 183 16:22 24.12.2020
846 Clouds 17 1018 65 10000 1.56 183 15:42 24.12.2020
847 Clear 18 1020 63 10000 7.2 210 15:19 24.12.2020
848 Clear 17 1020 63 10000 6.2 210 14:49 24.12.2020
849 Clear 17 1020 63 10000 6.2 210 14:24 24.12.2020
850 Clear 17 1019 73 10000 1.76 203 13:43 24.12.2020
851 Clear 17 1019 72 10000 1.8 199 13:25 24.12.2020
852 Clear 17 1020 70 10000 0.45 347 12:44 24.12.2020
853 Clear 17 1020 71 10000 1.97 191 12:21 24.12.2020
854 Clear 16 1020 75 10000 1.97 191 11:47 24.12.2020
855 Clear 16 1021 80 10000 0.89 356 11:20 24.12.2020
856 Clear 16 1021 89 10000 2.34 194 10:53 24.12.2020
857 Clear 16 1022 93 10000 2.34 194 10:34 24.12.2020
858 Clear 14 1022 99 10000 2.93 197 09:52 24.12.2020
859 Clear 13 1022 99 10000 3.17 195 09:25 24.12.2020
860 Clear 13 1027 72 10000 1.34 90 08:25 24.12.2020
861 Clear 12 1023 76 10000 3.6 170 07:41 24.12.2020
862 Clear 12 1023 76 10000 3.6 170 07:20 24.12.2020
863 Clear 11 1022 99 10000 2.27 196 05:40 24.12.2020
864 Clear 11 1024 99 10000 1.88 215 01:57 24.12.2020
865 Clear 11 1024 99 10000 1.88 215 01:37 24.12.2020
866 Clear 11 1024 99 10000 1.93 217 01:18 24.12.2020
867 Clear 11 1024 99 10000 2.05 217 00:21 24.12.2020
868 Clear 11 1025 99 10000 2.05 217 23:49 23.12.2020
869 Clear 11 1025 99 10000 1.99 211 23:30 23.12.2020
870 Clear 11 1025 99 10000 1.99 211 22:57 23.12.2020
871 Clear 11 1025 99 10000 1.99 211 22:31 23.12.2020
872 Clear 12 1025 99 10000 1.73 206 21:57 23.12.2020
873 Clear 12 1025 99 10000 1.63 195 21:28 23.12.2020
874 Clear 12 1025 99 10000 1.63 195 20:56 23.12.2020
875 Clear 13 1025 99 10000 1.63 195 20:37 23.12.2020
876 Clear 13 1025 99 10000 1.4 193 20:19 23.12.2020
877 Clear 13 1025 99 10000 1.4 193 19:39 23.12.2020
878 Clear 13 1025 99 10000 1.06 190 19:20 23.12.2020
879 Clear 13 1025 99 10000 1.12 180 18:49 23.12.2020
880 Clear 13 1025 99 10000 1.12 180 18:30 23.12.2020
881 Clear 13 1025 98 10000 0.59 175 17:42 23.12.2020
882 Clear 14 1025 97 10000 0.15 138 17:22 23.12.2020
883 Clear 14 1025 95 10000 0.15 138 16:49 23.12.2020
884 Clear 15 1025 95 10000 0.45 358 16:30 23.12.2020
885 Clear 15 1025 94 10000 0.45 358 15:58 23.12.2020
886 Clear 15 1025 93 10000 0.45 358 15:38 23.12.2020
887 Clear 15 1025 93 10000 0.45 351 15:20 23.12.2020
888 Clear 16 1025 91 10000 0.67 333 14:41 23.12.2020
889 Clear 16 1025 88 10000 0.99 318 14:21 23.12.2020
890 Clear 16 1025 91 10000 0.99 318 13:45 23.12.2020
891 Clear 16 1025 89 10000 0.89 1 13:20 23.12.2020
892 Clear 16 1025 88 10000 0.45 359 12:55 23.12.2020
893 Clear 16 1025 85 10000 0.89 358 12:31 23.12.2020
894 Clear 17 1026 87 10000 0.62 324 11:56 23.12.2020
895 Clear 16 1026 91 10000 0.62 324 11:36 23.12.2020
896 Clear 16 1026 96 10000 0.17 254 10:56 23.12.2020
897 Clear 15 1026 99 10000 0.45 341 10:38 23.12.2020
898 Clear 13 1026 99 10000 0.55 192 09:38 23.12.2020
899 Clear 13 1026 99 10000 0.55 192 09:38 23.12.2020
900 Clear 12 1026 99 10000 0.87 190 08:57 23.12.2020
901 Clear 11 1026 99 10000 0.65 215 08:33 23.12.2020
902 Clear 11 1026 99 10000 0.65 215 07:49 23.12.2020
903 Clear 11 1026 99 10000 0.78 177 06:42 23.12.2020
904 Clear 12 1026 99 10000 1.1 181 05:58 23.12.2020
905 Clear 12 1025 99 10000 1.08 186 05:23 23.12.2020
906 Clear 12 1026 99 10000 1.39 159 01:59 23.12.2020
907 Clear 11 1026 99 10000 1.02 162 00:33 23.12.2020
908 Clear 12 1026 99 10000 0.64 150 23:45 22.12.2020
909 Clear 12 1026 99 10000 0.56 154 23:23 22.12.2020
910 Clear 12 1026 99 10000 0.56 154 22:43 22.12.2020
911 Clear 12 1026 99 10000 0.91 156 22:24 22.12.2020
912 Clear 12 1026 99 10000 0.91 156 21:54 22.12.2020
913 Clear 12 1026 99 10000 0.68 118 21:21 22.12.2020
914 Clear 12 1026 99 10000 0.68 118 20:55 22.12.2020
915 Clear 13 1026 99 10000 0.68 118 20:37 22.12.2020
916 Clear 13 1026 99 10000 0.56 72 20:18 22.12.2020
917 Clear 13 1026 99 10000 0.56 72 19:41 22.12.2020
918 Clouds 13 1026 99 10000 0.75 70 19:20 22.12.2020
919 Clouds 13 1026 99 10000 0.75 70 18:47 22.12.2020
920 Clouds 14 1026 99 10000 1.51 67 18:27 22.12.2020
921 Clouds 15 1025 99 10000 1.51 67 17:45 22.12.2020
922 Clouds 15 1025 99 10000 1.76 59 17:18 22.12.2020
923 Clouds 15 1025 98 10000 1.76 59 16:48 22.12.2020
924 Clouds 15 1025 97 10000 1.86 50 16:22 22.12.2020
925 Clouds 15 1025 96 10000 1.86 50 15:51 22.12.2020
926 Clouds 16 1025 94 10000 0.45 358 15:33 22.12.2020
927 Clouds 16 1025 91 10000 1.9 50 14:59 22.12.2020
928 Clouds 16 1025 86 10000 1.9 50 14:41 22.12.2020
929 Clouds 17 1025 83 10000 0.45 357 14:22 22.12.2020
930 Clouds 17 1025 86 10000 2.16 45 13:47 22.12.2020
931 Clouds 17 1025 88 10000 2.35 43 13:19 22.12.2020
932 Clouds 17 1025 88 10000 2.17 41 12:55 22.12.2020
933 Clouds 16 1025 89 10000 2.17 41 12:36 22.12.2020
934 Clouds 16 1025 88 10000 0.89 354 12:18 22.12.2020
935 Clouds 16 1026 88 10000 0.45 359 11:40 22.12.2020
936 Clouds 16 1026 90 10000 2.29 34 11:21 22.12.2020
937 Clouds 16 1026 93 10000 2.29 34 10:53 22.12.2020
938 Clouds 15 1026 97 10000 1.7 39 10:25 22.12.2020
939 Clouds 14 1026 99 10000 1.7 39 09:57 22.12.2020
940 Clouds 13 1026 99 10000 1.45 42 09:27 22.12.2020
941 Clouds 12 1026 99 10000 1.45 42 08:53 22.12.2020
942 Clear 12 1027 93 10000 2.1 160 08:34 22.12.2020
943 Clear 11 1026 93 10000 2.6 150 07:57 22.12.2020
944 Clear 11 1026 87 10000 2.1 180 07:26 22.12.2020
945 Clouds 12 1025 99 10000 1.53 55 05:54 22.12.2020
946 Clouds 11 1025 99 10000 1.33 52 05:25 22.12.2020
947 Clouds 12 1025 99 10000 0.9 78 01:48 22.12.2020
948 Clouds 12 1024 98 10000 1.47 113 00:23 22.12.2020
949 Clouds 13 1025 98 10000 1.47 113 23:43 21.12.2020
950 Clear 13 1025 98 10000 1.55 106 23:19 21.12.2020
951 Clear 13 1024 99 10000 1.55 106 22:36 21.12.2020
952 Clear 13 1025 99 10000 1.98 98 22:18 21.12.2020
953 Clear 13 1025 98 10000 1.98 98 21:46 21.12.2020
954 Clear 13 1024 98 10000 1.85 87 21:27 21.12.2020
955 Clear 13 1024 96 10000 1.85 87 20:45 21.12.2020
956 Clear 13 1024 95 10000 1.47 77 20:21 21.12.2020
957 Clear 13 1024 93 10000 1.47 77 19:47 21.12.2020
958 Clear 13 1024 92 10000 1.47 77 19:47 21.12.2020
959 Clear 14 1024 91 10000 1.43 58 19:22 21.12.2020
960 Clear 14 1024 91 10000 1.51 80 18:59 21.12.2020
961 Clear 14 1023 91 10000 1.43 58 18:41 21.12.2020
962 Clear 14 1024 90 10000 1.68 83 18:23 21.12.2020
963 Clear 14 1023 87 10000 1.68 83 17:42 21.12.2020
964 Clear 15 1023 86 10000 1.64 63 17:23 21.12.2020
965 Clear 15 1023 81 10000 1.64 63 16:45 21.12.2020
966 Clear 16 1022 77 10000 1.55 56 16:21 21.12.2020
967 Clear 17 1022 70 10000 1.55 56 15:43 21.12.2020
968 Clouds 17 1023 77 10000 3.6 30 14:58 21.12.2020
969 Clouds 17 1023 77 10000 2.6 10 14:36 21.12.2020
970 Clouds 17 1023 77 10000 2.1 30 14:18 21.12.2020
971 Clear 17 1024 82 10000 2.6 20 13:41 21.12.2020
972 Clear 17 1024 82 10000 2.1 20 13:22 21.12.2020
973 Clear 17 1022 79 10000 1.54 54 12:42 21.12.2020
974 Clear 17 1022 81 10000 1.73 39 12:22 21.12.2020
975 Clear 17 1022 86 10000 1.73 39 11:43 21.12.2020
976 Clear 17 1022 91 10000 1.6 20 11:23 21.12.2020
977 Clear 16 1023 96 10000 1.6 20 10:58 21.12.2020
978 Clear 16 1023 99 10000 1.6 20 10:39 21.12.2020
979 Clear 15 1023 99 10000 0.95 354 09:59 21.12.2020
980 Clear 15 1023 99 10000 0.95 354 09:40 21.12.2020
981 Clear 14 1023 99 10000 0.57 255 09:22 21.12.2020
982 Clear 13 1022 99 10000 1.01 213 08:30 21.12.2020
983 Clear 12 1021 99 10000 1.01 213 07:31 21.12.2020
984 Clouds 11 1021 99 10000 0.96 129 05:40 21.12.2020
985 Clouds 11 1020 99 10000 1.09 114 04:31 21.12.2020
986 Clouds 13 1020 99 10000 0.68 145 00:38 21.12.2020
987 Clouds 13 1020 99 10000 0.81 139 23:52 20.12.2020
988 Clouds 13 1020 99 10000 1.35 142 23:21 20.12.2020
989 Clouds 13 1020 99 10000 1.35 142 22:55 20.12.2020
990 Clouds 13 1020 99 10000 1.35 142 22:37 20.12.2020
991 Clouds 13 1019 99 10000 1.93 149 22:19 20.12.2020
992 Clouds 14 1020 99 10000 1.93 149 21:38 20.12.2020
993 Clouds 14 1019 99 10000 2.44 149 21:19 20.12.2020
994 Clouds 14 1019 99 10000 2.44 149 20:45 20.12.2020
995 Clouds 14 1019 99 10000 2.64 142 20:22 20.12.2020
996 Clouds 14 1019 99 10000 2.64 142 19:44 20.12.2020
997 Clouds 14 1019 99 10000 2.81 119 19:24 20.12.2020
998 Clouds 14 1019 99 10000 2.81 119 18:54 20.12.2020
999 Clouds 14 1019 99 10000 3.54 114 18:36 20.12.2020
1000 Clouds 14 1019 99 10000 3.54 114 18:36 20.12.2020
1001 Clouds 14 1019 99 10000 2.62 110 17:55 20.12.2020
1002 Clouds 14 1019 99 10000 2.62 110 17:36 20.12.2020
1003 Clouds 14 1019 99 10000 1.44 96 17:18 20.12.2020
1004 Clouds 14 1019 99 10000 1.44 96 16:43 20.12.2020
1005 Clouds 14 1019 99 10000 1.12 358 16:23 20.12.2020
1006 Clouds 14 1019 99 10000 1.12 358 15:40 20.12.2020
1007 Clouds 15 1019 99 10000 1.76 331 15:22 20.12.2020
1008 Clouds 15 1019 99 10000 1.76 331 14:45 20.12.2020
1009 Clouds 14 1018 99 10000 1.49 331 14:27 20.12.2020
1010 Clouds 14 1019 99 10000 1.49 331 13:44 20.12.2020
1011 Clouds 14 1019 99 10000 1.64 356 13:23 20.12.2020
1012 Clouds 14 1019 99 10000 1.68 73 12:51 20.12.2020
1013 Clouds 14 1019 99 10000 1.56 82 12:23 20.12.2020
1014 Clouds 14 1020 99 10000 1.56 82 11:51 20.12.2020
1015 Clouds 14 1020 99 10000 1.38 107 11:28 20.12.2020
1016 Clouds 14 1020 99 10000 1.38 107 10:50 20.12.2020
1017 Clouds 14 1021 99 10000 1.18 117 10:22 20.12.2020
1018 Clouds 14 1020 99 10000 1.18 117 09:57 20.12.2020
1019 Clouds 14 1020 99 10000 1.18 117 09:37 20.12.2020
1020 Clouds 13 1020 99 10000 1.09 158 09:19 20.12.2020
1021 Clouds 13 1021 99 10000 1.09 158 08:48 20.12.2020
1022 Clouds 13 1020 99 10000 1.67 154 08:29 20.12.2020
1023 Clouds 13 1020 99 10000 2.13 143 07:22 20.12.2020
1024 Clouds 13 1020 99 10000 2.74 131 04:42 20.12.2020
1025 Clouds 13 1020 99 10000 1.46 155 01:31 20.12.2020
1026 Clouds 13 1021 99 10000 2.06 159 00:20 20.12.2020
1027 Clouds 13 1021 99 10000 2.47 142 23:18 19.12.2020
1028 Clouds 13 1021 99 10000 2.47 142 22:45 19.12.2020
1029 Clouds 13 1021 99 10000 2.41 132 22:25 19.12.2020
1030 Clouds 13 1021 99 10000 2.41 132 21:59 19.12.2020
1031 Clouds 13 1021 99 10000 2.41 132 21:40 19.12.2020
1032 Clouds 13 1021 98 10000 2.42 130 21:21 19.12.2020
1033 Clouds 13 1022 97 10000 2.42 130 20:40 19.12.2020
1034 Clouds 14 1022 96 10000 1.9 132 20:18 19.12.2020
1035 Clouds 14 1021 94 10000 1.9 132 19:50 19.12.2020
1036 Clouds 14 1022 93 10000 2 128 19:29 19.12.2020
1037 Clouds 14 1022 91 10000 2.03 121 18:37 19.12.2020
1038 Clouds 14 1021 89 10000 1.89 117 18:19 19.12.2020
1039 Clouds 14 1021 87 10000 1.89 117 17:44 19.12.2020
1040 Clouds 15 1021 85 10000 1.86 96 17:22 19.12.2020
1041 Clouds 15 1021 82 10000 1.86 96 16:43 19.12.2020
1042 Clouds 15 1021 81 10000 1.59 85 16:25 19.12.2020
1043 Clouds 16 1021 80 10000 1.59 85 15:55 19.12.2020
1044 Clouds 16 1021 79 10000 1.59 85 15:33 19.12.2020
1045 Clouds 16 1021 78 10000 1.48 77 14:41 19.12.2020
1046 Clouds 16 1021 78 10000 1.44 86 14:21 19.12.2020
1047 Clouds 16 1021 77 10000 1.44 86 13:41 19.12.2020
1048 Clouds 16 1021 76 10000 1.55 106 13:20 19.12.2020
1049 Clouds 17 1022 73 10000 2.12 118 12:44 19.12.2020
1050 Clouds 17 1022 75 10000 2.24 127 12:26 19.12.2020
1051 Clouds 16 1022 79 10000 2.24 127 11:57 19.12.2020
1052 Clouds 15 1022 83 10000 2.24 127 11:36 19.12.2020
1053 Clouds 15 1023 91 10000 2.19 130 10:43 19.12.2020
1054 Clouds 14 1023 93 10000 2.22 141 10:25 19.12.2020
1055 Clouds 14 1023 97 10000 2.22 141 09:53 19.12.2020
1056 Clouds 13 1023 98 10000 2.22 141 09:35 19.12.2020
1057 Clear 12 1024 87 10000 2.1 180 08:36 19.12.2020
1058 Clear 11 1023 87 10000 1.5 130 07:25 19.12.2020
1059 Clouds 11 1022 99 10000 1.82 166 06:53 19.12.2020
1060 Clear 11 1023 87 10000 1.5 160 06:21 19.12.2020
1061 Clear 10 1023 87 10000 1.5 140 05:18 19.12.2020
1062 Clear 12 1024 87 10000 1.5 180 03:20 19.12.2020
1063 Clear 12 1024 81 10000 1.5 120 00:40 19.12.2020
1064 Clear 12 1024 81 10000 1.5 140 00:18 19.12.2020
1065 Clouds 12 1023 97 10000 1.73 184 23:48 18.12.2020
1066 Clouds 12 1024 81 10000 2.1 140 23:23 18.12.2020
1067 Clouds 13 1024 82 10000 1 110 22:46 18.12.2020
1068 Clouds 13 1024 82 10000 1 110 22:24 18.12.2020
1069 Clouds 13 1024 81 10000 0.5 150 21:50 18.12.2020
1070 Clouds 13 1024 81 10000 1.5 180 21:31 18.12.2020
1071 Clouds 13 1023 92 10000 1.95 139 20:42 18.12.2020
1072 Clouds 13 1024 87 10000 2.1 130 20:21 18.12.2020
1073 Clouds 14 1024 76 10000 1 0 19:45 18.12.2020
1074 Clouds 14 1024 71 10000 2.1 170 19:21 18.12.2020
1075 Clouds 14 1023 88 10000 1.96 116 18:43 18.12.2020
1076 Clouds 14 1023 86 10000 1.82 99 18:24 18.12.2020
1077 Clouds 14 1022 81 10000 1.99 91 17:28 18.12.2020
1078 Clouds 15 1023 77 10000 1.99 91 16:57 18.12.2020
1079 Clouds 15 1023 76 10000 1.99 91 16:38 18.12.2020
1080 Clouds 16 1022 68 10000 1.98 79 16:18 18.12.2020
1081 Clouds 17 1022 59 10000 1.98 79 15:42 18.12.2020
1082 Clear 15 1024 72 10000 0.5 0 15:24 18.12.2020
1083 Clear 15 1024 72 10000 0.5 0 14:55 18.12.2020
1084 Clear 16 1024 77 10000 2.1 250 14:22 18.12.2020
1085 Clouds 18 1022 65 10000 1.95 53 13:51 18.12.2020
1086 Clouds 18 1022 67 10000 1.95 53 13:31 18.12.2020
1087 Clouds 17 1023 77 10000 1.22 66 12:50 18.12.2020
1088 Clouds 17 1023 82 10000 0.45 295 12:27 18.12.2020
1089 Clouds 16 1024 90 10000 0.93 112 11:26 18.12.2020
1090 Clouds 16 1024 98 10000 0.93 112 10:40 18.12.2020
1091 Clouds 15 1024 99 10000 0.98 143 10:21 18.12.2020
1092 Clouds 15 1024 99 10000 0.98 143 09:55 18.12.2020
1093 Clouds 14 1024 99 10000 0.98 143 09:36 18.12.2020
1094 Clouds 14 1024 99 10000 1.44 156 09:18 18.12.2020
1095 Clouds 13 1024 99 10000 1.44 156 08:42 18.12.2020
1096 Clouds 13 1024 99 10000 1.53 146 07:52 18.12.2020
1097 Clouds 12 1024 99 10000 1.49 125 07:19 18.12.2020
1098 Clouds 13 1024 99 10000 1.48 139 06:58 18.12.2020
1099 Clouds 13 1023 99 10000 1.54 121 05:44 18.12.2020
1100 Clouds 13 1023 99 10000 1.37 119 04:51 18.12.2020
1101 Clouds 13 1023 99 10000 1.31 123 03:20 18.12.2020
1102 Clouds 13 1023 99 10000 1.41 133 01:44 18.12.2020
1103 Clouds 13 1023 99 10000 1.5 134 00:29 18.12.2020
1104 Clouds 13 1023 97 10000 1.5 134 23:52 17.12.2020
1105 Clouds 13 1023 95 10000 1.7 131 23:21 17.12.2020
1106 Clouds 13 1023 95 10000 1.7 131 22:48 17.12.2020
1107 Clouds 13 1023 93 10000 1.78 120 22:27 17.12.2020
1108 Clouds 13 1023 93 10000 1.78 120 21:46 17.12.2020
1109 Clouds 13 1023 94 10000 1.46 105 21:22 17.12.2020
1110 Clouds 13 1023 93 10000 1.46 105 20:55 17.12.2020
1111 Clouds 13 1023 92 10000 1.46 105 20:36 17.12.2020
1112 Clouds 14 1023 90 10000 1.28 118 20:18 17.12.2020
1113 Clouds 14 1023 89 10000 1.28 118 19:39 17.12.2020
1114 Clouds 14 1023 88 10000 1.39 121 19:21 17.12.2020
1115 Clouds 15 1023 87 10000 2.01 112 18:40 17.12.2020
1116 Clouds 15 1023 86 10000 1.89 110 18:19 17.12.2020
1117 Clouds 15 1023 83 10000 1.89 110 17:46 17.12.2020
1118 Clouds 15 1023 82 10000 1.86 99 17:27 17.12.2020
1119 Clouds 16 1022 78 10000 1.86 99 16:41 17.12.2020
1120 Clouds 16 1022 77 10000 1.98 84 16:22 17.12.2020
1121 Clouds 17 1022 75 10000 1.98 84 15:50 17.12.2020
1122 Clouds 18 1022 72 10000 1.86 64 15:28 17.12.2020
1123 Clouds 18 1022 72 10000 1.86 64 14:50 17.12.2020
1124 Clouds 18 1022 70 10000 1.59 48 14:28 17.12.2020
1125 Clouds 18 1022 71 10000 1.59 48 13:50 17.12.2020
1126 Clouds 18 1022 73 10000 0.89 33 13:23 17.12.2020
1127 Clouds 18 1022 70 10000 0.76 38 12:44 17.12.2020
1128 Clouds 18 1022 68 10000 0.53 74 12:24 17.12.2020
1129 Clouds 17 1023 70 10000 0.53 74 11:44 17.12.2020
1130 Clouds 17 1023 74 10000 0.72 119 11:23 17.12.2020
1131 Clouds 17 1023 81 10000 0.72 119 10:49 17.12.2020
1132 Clouds 15 1023 94 10000 1 153 09:43 17.12.2020
1133 Clouds 15 1023 96 10000 1.5 157 09:24 17.12.2020
1134 Clouds 12 1022 99 10000 1.93 153 07:50 17.12.2020
1135 Clouds 12 1023 87 10000 1 0 07:31 17.12.2020
1136 Clouds 12 1023 87 10000 1 0 06:53 17.12.2020
1137 Clouds 13 1023 81 10000 1.5 180 06:32 17.12.2020
1138 Clouds 13 1023 81 10000 1.5 180 06:32 17.12.2020
1139 Clouds 12 1022 95 10000 1.5 132 04:45 17.12.2020
1140 Clouds 13 1022 90 10000 1.66 131 00:38 17.12.2020
1141 Clouds 13 1022 91 10000 1.62 132 23:52 16.12.2020
1142 Clouds 14 1022 91 10000 1.37 148 23:19 16.12.2020
1143 Clouds 14 1022 91 10000 1.37 148 22:54 16.12.2020
1144 Clouds 14 1022 90 10000 1.37 148 22:34 16.12.2020
1145 Clouds 14 1022 89 10000 1.76 159 21:50 16.12.2020
1146 Clouds 14 1022 89 10000 1.97 138 21:32 16.12.2020
1147 Clouds 14 1022 89 10000 1.97 138 20:55 16.12.2020
1148 Clouds 14 1022 89 10000 1.97 138 20:37 16.12.2020
1149 Clouds 14 1022 89 10000 2.01 137 20:18 16.12.2020
1150 Clouds 15 1022 89 10000 1.92 137 19:20 16.12.2020
1151 Clouds 15 1022 88 10000 2.11 135 18:54 16.12.2020
1152 Clouds 15 1021 87 10000 2.02 136 18:27 16.12.2020
1153 Clouds 15 1021 85 10000 2.02 136 17:47 16.12.2020
1154 Clouds 15 1021 83 10000 1.92 122 17:28 16.12.2020
1155 Clouds 16 1021 78 10000 1.92 122 16:39 16.12.2020
1156 Clouds 16 1021 76 10000 1.72 104 16:21 16.12.2020
1157 Clouds 17 1021 73 10000 1.72 104 15:50 16.12.2020
1158 Clouds 17 1021 72 10000 1.23 74 15:26 16.12.2020
1159 Clouds 17 1021 72 10000 1.23 74 14:47 16.12.2020
1160 Clouds 17 1021 72 10000 0.68 40 14:28 16.12.2020
1161 Clouds 16 1021 73 10000 0.68 40 13:49 16.12.2020
1162 Clouds 17 1021 73 10000 0.22 2 13:28 16.12.2020
1163 Clouds 16 1021 71 10000 0.22 9 12:55 16.12.2020
1164 Clouds 16 1021 72 10000 0.36 213 12:34 16.12.2020
1165 Clouds 16 1021 75 10000 0.36 213 11:40 16.12.2020
1166 Clouds 15 1021 75 10000 0.77 181 11:22 16.12.2020
1167 Clouds 15 1022 76 10000 0.77 181 10:46 16.12.2020
1168 Clouds 14 1022 79 10000 1.33 191 10:22 16.12.2020
1169 Clouds 13 1021 81 10000 1.33 191 09:42 16.12.2020
1170 Clouds 13 1022 62 10000 2.1 100 08:36 16.12.2020
1171 Clear 13 1022 62 10000 1 0 07:52 16.12.2020
1172 Clear 13 1022 62 10000 1 0 07:33 16.12.2020
1173 Clear 13 1021 62 10000 0.5 0 06:52 16.12.2020
1174 Clouds 11 1020 75 10000 1.7 197 02:26 16.12.2020
1175 Clear 11 1021 76 10000 2.1 200 00:26 16.12.2020
1176 Clouds 10 1019 83 10000 1.66 192 23:44 15.12.2020
1177 Clouds 11 1020 85 10000 1.6 195 22:47 15.12.2020
1178 Clouds 11 1020 85 10000 1.73 192 22:25 15.12.2020
1179 Clouds 11 1019 83 10000 1.73 192 21:57 15.12.2020
1180 Clouds 11 1019 82 10000 1.73 192 21:37 15.12.2020
1181 Clouds 11 1019 81 10000 1.92 190 21:19 15.12.2020
1182 Clouds 11 1019 81 10000 1.92 190 20:44 15.12.2020
1183 Clear 11 1019 80 10000 1.9 171 20:25 15.12.2020
1184 Clear 12 1019 80 10000 1.9 171 19:51 15.12.2020
1185 Clouds 12 1019 79 10000 1.8 154 19:26 15.12.2020
1186 Clouds 12 1019 76 10000 1.8 154 18:39 15.12.2020
1187 Clouds 13 1018 76 10000 1.72 136 18:21 15.12.2020
1188 Clouds 13 1019 76 10000 1.72 136 18:21 15.12.2020
1189 Clouds 13 1018 74 10000 1.72 136 17:44 15.12.2020
1190 Clouds 13 1018 72 10000 1.5 112 17:23 15.12.2020
1191 Clouds 14 1018 66 10000 1.5 112 16:39 15.12.2020
1192 Clouds 14 1018 63 10000 1.37 92 16:21 15.12.2020
1193 Clouds 16 1018 52 10000 1.37 92 15:37 15.12.2020
1194 Clear 16 1019 59 10000 2.1 270 15:18 15.12.2020
1195 Clear 16 1019 63 10000 3.1 260 14:41 15.12.2020
1196 Clear 16 1019 63 10000 3.1 260 14:41 15.12.2020
1197 Clear 16 1019 59 10000 4.1 230 14:19 15.12.2020
1198 Clouds 16 1017 60 10000 0.41 27 13:49 15.12.2020
1199 Clouds 16 1017 60 10000 0.35 279 13:24 15.12.2020
1200 Clouds 16 1017 60 10000 0.89 1 12:46 15.12.2020
1201 Clouds 16 1018 59 10000 0.76 142 12:19 15.12.2020
1202 Clouds 16 1018 61 10000 0.76 142 11:51 15.12.2020
1203 Clouds 15 1018 65 10000 1.07 150 11:23 15.12.2020
1204 Clouds 15 1018 68 10000 1.07 150 10:48 15.12.2020
1205 Clouds 14 1018 70 10000 2.27 155 10:20 15.12.2020
1206 Clouds 14 1018 77 10000 2.27 155 09:43 15.12.2020
1207 Clouds 13 1018 81 10000 2.75 131 09:25 15.12.2020
1208 Clouds 11 1017 84 10000 2.75 131 08:41 15.12.2020
1209 Clouds 10 1017 83 10000 2.08 139 08:21 15.12.2020
1210 Clouds 10 1017 82 10000 2.08 139 07:44 15.12.2020
1211 Clouds 10 1017 81 10000 1.79 148 07:18 15.12.2020
1212 Clear 9 1017 81 10000 2.1 130 05:55 15.12.2020
1213 Clear 10 1016 93 10000 1.18 194 00:54 15.12.2020
1214 Clouds 11 1016 91 10000 1.1 197 23:54 14.12.2020
1215 Clouds 11 1016 92 10000 0.87 197 23:21 14.12.2020
1216 Clouds 10 1016 92 10000 0.87 197 22:44 14.12.2020
1217 Clouds 11 1016 92 10000 0.46 207 22:26 14.12.2020
1218 Clouds 11 1016 91 10000 0.46 207 21:42 14.12.2020
1219 Clouds 11 1016 89 10000 0.52 282 21:19 14.12.2020
1220 Clouds 12 1016 88 10000 0.52 282 20:48 14.12.2020
1221 Clouds 11 1015 86 10000 0.85 309 20:28 14.12.2020
1222 Clouds 12 1015 85 10000 0.85 309 19:49 14.12.2020
1223 Clear 12 1015 84 10000 0.69 34 19:28 14.12.2020
1224 Clear 13 1015 81 10000 0.69 34 18:44 14.12.2020
1225 Clear 13 1015 79 10000 1.34 17 18:24 14.12.2020
1226 Clear 13 1015 77 10000 1.34 17 17:45 14.12.2020
1227 Clear 13 1015 76 10000 1.86 360 17:22 14.12.2020
1228 Clear 14 1014 76 10000 0.89 6 16:50 14.12.2020
1229 Clear 15 1014 74 10000 2.28 351 16:28 14.12.2020
1230 Clear 16 1014 65 10000 0.45 2 15:33 14.12.2020
1231 Clouds 16 1016 67 10000 3.1 350 14:54 14.12.2020
1232 Clear 17 1014 68 10000 2.81 345 14:36 14.12.2020
1233 Clear 17 1014 68 10000 1.34 356 14:18 14.12.2020
1234 Clear 15 1014 77 10000 1.34 3 13:39 14.12.2020
1235 Clouds 15 1014 77 10000 0.89 5 13:18 14.12.2020
1236 Clouds 15 1014 76 10000 1.34 358 12:44 14.12.2020
1237 Clouds 15 1014 75 10000 3.48 331 12:23 14.12.2020
1238 Clouds 16 1014 74 10000 0.45 17 11:31 14.12.2020
1239 Clouds 15 1014 71 10000 1.34 347 10:30 14.12.2020
1240 Clouds 15 1014 72 10000 4.28 326 09:58 14.12.2020
1241 Clouds 14 1014 73 10000 0.89 1 09:25 14.12.2020
1242 Clouds 14 1014 76 10000 0.45 265 08:45 14.12.2020
1243 Clouds 14 1013 76 10000 4.09 313 08:26 14.12.2020
1244 Clouds 14 1013 77 10000 4.14 312 07:26 14.12.2020
1245 Clouds 14 1012 76 10000 1.34 357 06:44 14.12.2020
1246 Clouds 14 1012 73 10000 4.46 315 04:28 14.12.2020
1247 Clouds 13 1011 78 10000 4.36 309 02:26 14.12.2020
1248 Clouds 13 1010 80 10000 4.03 309 00:54 14.12.2020
1249 Clouds 13 1010 79 10000 4.03 312 00:31 14.12.2020
1250 Clouds 13 1010 79 10000 3.84 317 23:46 13.12.2020
1251 Clouds 13 1010 79 10000 3.84 317 23:46 13.12.2020
1252 Clear 13 1011 79 10000 3.74 324 23:24 13.12.2020
1253 Clear 13 1010 79 10000 0.45 6 22:45 13.12.2020
1254 Clouds 13 1010 79 10000 3.9 330 22:18 13.12.2020
1255 Clouds 13 1010 82 10000 0.89 316 21:42 13.12.2020
1256 Clouds 13 1010 82 10000 0.45 287 21:22 13.12.2020
1257 Clouds 13 1009 87 10000 4.4 332 20:35 13.12.2020
1258 Clouds 13 1009 92 10000 4.91 335 19:51 13.12.2020
1259 Clouds 13 1009 86 10000 5.29 344 19:30 13.12.2020
1260 Clouds 13 1008 83 10000 5.41 349 18:58 13.12.2020
1261 Clouds 13 1008 82 10000 5.41 349 18:39 13.12.2020
1262 Clouds 13 1008 83 10000 0.89 349 18:19 13.12.2020
1263 Clouds 13 1007 84 10000 5.63 353 17:46 13.12.2020
1264 Clouds 13 1007 81 10000 6.11 358 17:21 13.12.2020
1265 Clouds 13 1006 80 10000 1.79 344 16:54 13.12.2020
1266 Clouds 13 1006 83 10000 0.45 356 16:36 13.12.2020
1267 Clouds 13 1006 87 10000 0.89 347 15:57 13.12.2020
1268 Clouds 13 1005 89 10000 0.45 345 15:38 13.12.2020
1269 Clouds 13 1005 91 10000 0.45 342 15:18 13.12.2020
1270 Clouds 13 1004 94 10000 1.79 7 14:42 13.12.2020
1271 Clouds 13 1003 99 10000 1.34 356 14:19 13.12.2020
1272 Clouds 13 1003 99 10000 6.92 349 13:42 13.12.2020
1273 Clouds 13 1003 99 10000 1.34 351 13:22 13.12.2020
1274 Clouds 13 1003 99 10000 1.34 351 13:22 13.12.2020
1275 Clouds 13 1000 99 10000 0.45 3 12:39 13.12.2020
1276 Clouds 13 999 99 10000 7.37 360 12:20 13.12.2020
1277 Clouds 12 1000 93 10000 1.34 192 11:35 13.12.2020
1278 Clouds 13 1002 91 8295 1.34 242 10:52 13.12.2020
1279 Clouds 13 1002 91 8295 7.25 3 10:34 13.12.2020
1280 Clouds 12 1002 93 10000 0.45 330 09:54 13.12.2020
1281 Clouds 12 1001 99 7288 6.61 303 08:58 13.12.2020
1282 Clouds 11 1001 99 7288 6.61 303 08:33 13.12.2020
1283 Rain 12 1002 76 8000 8.7 310 07:35 13.12.2020
1284 Clouds 12 999 98 10000 5.99 286 04:23 13.12.2020
1285 Rain 11 999 98 10000 0.45 355 02:40 13.12.2020
1286 Clouds 12 999 99 10000 4.86 286 01:57 13.12.2020
1287 Clouds 11 999 99 10000 3.97 289 00:49 13.12.2020
1288 Clouds 11 999 99 10000 3.9 274 23:55 12.12.2020
1289 Clouds 11 999 99 10000 3.9 274 23:31 12.12.2020
1290 Clouds 11 999 99 10000 3.92 264 22:49 12.12.2020
1291 Clouds 12 999 99 10000 3.7 257 21:59 12.12.2020
1292 Clouds 12 999 99 10000 3.7 257 21:34 12.12.2020
1293 Clouds 12 999 99 10000 0.45 3 20:55 12.12.2020
1294 Clouds 11 998 99 10000 0.45 224 20:29 12.12.2020
1295 Rain 11 998 99 10000 3.87 262 19:57 12.12.2020
1296 Rain 11 998 99 10000 3.87 262 19:39 12.12.2020
1297 Rain 11 998 99 10000 4.39 254 19:20 12.12.2020
1298 Rain 11 998 99 10000 4.39 254 18:42 12.12.2020
1299 Rain 12 998 99 8368 4.47 257 18:23 12.12.2020
1300 Rain 12 998 99 8368 1.34 308 17:47 12.12.2020
1301 Clouds 14 997 78 5808 4.72 257 16:55 12.12.2020
1302 Clouds 15 997 76 6428 5.29 251 16:20 12.12.2020
1303 Clouds 15 997 74 6428 5.29 251 15:45 12.12.2020
1304 Clouds 15 997 73 8158 3.49 247 15:27 12.12.2020
1305 Clouds 15 997 70 8158 3.49 247 14:45 12.12.2020
1306 Clouds 16 997 69 10000 2.96 245 13:55 12.12.2020
1307 Clouds 16 996 68 10000 2.96 245 13:36 12.12.2020
1308 Clouds 16 997 68 10000 3.07 252 12:58 12.12.2020
1309 Clouds 15 998 72 10000 3.55 243 11:48 12.12.2020
1310 Clouds 15 999 80 10000 2.95 242 10:53 12.12.2020
1311 Clouds 14 1000 89 10000 2.81 235 09:46 12.12.2020
1312 Clouds 13 1000 96 10000 2.63 227 08:54 12.12.2020
1313 Clouds 11 999 99 10000 2.69 218 02:56 12.12.2020
1314 Clouds 11 1001 95 10000 3.3 224 23:55 11.12.2020
1315 Clouds 12 1001 99 10000 3.78 250 22:30 11.12.2020
1316 Clouds 12 1001 99 10000 3.27 265 20:48 11.12.2020
1317 Clouds 12 1002 93 10000 4.08 291 18:26 11.12.2020
1318 Clouds 14 1001 80 10000 4.6 294 15:54 11.12.2020
1319 Clouds 15 1001 77 10000 0.45 264 13:59 11.12.2020
1320 Clouds 16 1001 73 10000 1.34 303 13:25 11.12.2020
1321 Clouds 15 1001 76 10000 1.34 344 12:19 11.12.2020
1322 Clouds 15 1001 80 10000 2.24 258 11:51 11.12.2020
1323 Clouds 14 1001 80 10000 0.89 323 10:46 11.12.2020
1324 Clouds 14 1002 72 10000 0.45 305 08:53 11.12.2020
1325 Clouds 13 1000 83 10000 0.89 166 05:43 11.12.2020
1326 Clouds 13 1000 86 10000 1.34 231 05:18 11.12.2020
1327 Clouds 12 1002 80 10000 7.25 201 02:18 11.12.2020
1328 Clouds 12 1003 77 10000 6.21 199 00:31 11.12.2020
1329 Clouds 12 1005 78 10000 1.34 231 22:55 10.12.2020
1330 Clouds 12 1005 80 10000 4.66 178 21:36 10.12.2020
1331 Clouds 12 1006 72 10000 4.08 205 20:46 10.12.2020
1332 Clouds 13 1005 68 10000 4.87 202 19:44 10.12.2020
1333 Clouds 12 1005 69 10000 0.89 270 18:57 10.12.2020
1334 Clouds 12 1005 70 10000 3.9 207 18:21 10.12.2020
1335 Clouds 12 1006 73 10000 3.88 225 16:32 10.12.2020
1336 Clouds 12 1006 70 10000 5.89 251 15:27 10.12.2020
1337 Clouds 13 1007 62 10000 5.89 251 14:51 10.12.2020
1338 Clouds 14 1007 62 10000 7.2 254 14:28 10.12.2020
1339 Clouds 14 1007 67 10000 1.34 248 12:54 10.12.2020
1340 Clouds 12 1008 75 10000 8.69 253 11:39 10.12.2020
1341 Clouds 12 1008 70 10000 1.34 321 08:52 10.12.2020
1342 Clouds 11 1008 74 10000 0.45 209 07:51 10.12.2020
1343 Clouds 11 1008 75 10000 1.34 194 06:42 10.12.2020
1344 Clouds 11 1008 82 10000 7 257 03:36 10.12.2020
1345 Clouds 11 1009 77 10000 0.45 206 02:23 10.12.2020
1346 Clouds 11 1008 71 10000 6.12 264 00:22 10.12.2020
1347 Clouds 12 1008 65 10000 6.77 261 21:59 09.12.2020
1348 Clouds 12 1007 69 10000 7.31 260 20:28 09.12.2020
1349 Clouds 12 1007 74 10000 7.1 256 19:32 09.12.2020
1350 Clouds 13 1005 67 10000 0.45 249 17:43 09.12.2020
1351 Clouds 13 1005 70 10000 0.45 322 16:52 09.12.2020
1352 Clouds 13 1005 69 10000 0.89 307 16:22 09.12.2020
1353 Clouds 13 1004 72 10000 8.61 260 15:30 09.12.2020
1354 Clouds 13 1004 90 10000 0.45 282 14:40 09.12.2020
1355 Clouds 12 1005 81 10000 3.1 210 14:18 09.12.2020
1356 Clouds 10 1005 81 9000 8.2 190 13:19 09.12.2020
1357 Rain 10 1005 81 5000 9.8 190 12:44 09.12.2020
1358 Rain 11 1005 76 9000 8.2 190 11:53 09.12.2020
1359 Clouds 13 1003 74 10000 0.45 327 10:59 09.12.2020
1360 Clouds 13 1003 80 10000 8.02 244 09:38 09.12.2020
1361 Clouds 12 1002 76 10000 1.79 356 07:43 09.12.2020
1362 Clouds 12 1002 79 10000 0.45 212 05:53 09.12.2020
1363 Clouds 12 1002 85 10000 6.5 240 03:54 09.12.2020
1364 Clouds 13 1002 73 10000 1.79 229 01:56 09.12.2020
1365 Clouds 14 1003 65 10000 1.34 222 23:44 08.12.2020
1366 Clouds 14 1003 71 8724 0.89 214 22:56 08.12.2020
1367 Clouds 13 1003 82 10000 7.03 202 21:28 08.12.2020
1368 Clouds 12 1003 93 10000 0.45 258 19:40 08.12.2020
1369 Rain 13 1004 81 10000 0.89 325 18:59 08.12.2020
1370 Clouds 15 1003 69 10000 0.45 262 17:55 08.12.2020
1371 Clouds 16 1003 67 10000 5.41 208 15:51 08.12.2020
1372 Clouds 16 1003 70 10000 0.45 223 14:31 08.12.2020
1373 Clouds 15 1003 77 10000 7.98 213 13:35 08.12.2020
1374 Clouds 16 1004 62 10000 0.45 238 12:29 08.12.2020
1375 Clouds 17 1004 58 10000 1.34 218 11:51 08.12.2020
1376 Clouds 16 1005 59 10000 0.45 230 10:49 08.12.2020
1377 Clouds 16 1005 61 10000 6.55 194 10:29 08.12.2020
1378 Clouds 15 1005 62 10000 0.89 242 08:53 08.12.2020
1379 Clouds 14 1005 63 10000 3.13 161 07:18 08.12.2020
1380 Clouds 14 1007 63 10000 2.24 258 03:43 08.12.2020
1381 Clouds 13 1009 71 10000 5.11 184 00:48 08.12.2020
1382 Clouds 13 1009 70 10000 5.55 199 00:25 08.12.2020
1383 Clouds 13 1010 72 10000 5.33 201 22:43 07.12.2020
1384 Clouds 13 1010 74 10000 5.51 206 21:56 07.12.2020
1385 Clouds 13 1010 72 10000 5.92 215 20:32 07.12.2020
1386 Clear 13 1010 73 10000 5.51 218 18:47 07.12.2020
1387 Clear 14 1010 71 10000 4.58 219 17:29 07.12.2020
1388 Clear 14 1010 69 10000 0.45 229 16:55 07.12.2020
1389 Clear 14 1009 64 10000 4.88 234 15:57 07.12.2020
1390 Clear 16 1009 58 10000 5.57 245 15:23 07.12.2020
1391 Clouds 16 1009 59 10000 0.45 270 14:24 07.12.2020
1392 Clouds 15 1009 65 10000 0.45 208 13:33 07.12.2020
1393 Clouds 15 1009 61 10000 1.34 223 11:46 07.12.2020
1394 Clouds 15 1009 61 10000 1.34 316 11:27 07.12.2020
1395 Clouds 15 1009 71 10000 0.45 332 10:20 07.12.2020
1396 Clouds 12 1008 78 10000 5.95 221 08:30 07.12.2020
1397 Clouds 12 1007 80 10000 5.28 230 06:45 07.12.2020
1398 Clouds 12 1007 82 10000 5.45 239 04:58 07.12.2020
1399 Clouds 12 1006 80 10000 1.34 233 01:57 07.12.2020
1400 Clouds 11 1006 84 10000 5.98 235 00:30 07.12.2020
1401 Clouds 11 1005 99 10000 0.45 13 22:33 06.12.2020
1402 Clouds 10 1005 97 10000 5.05 215 21:32 06.12.2020
1403 Rain 10 1005 95 10000 5.49 229 20:34 06.12.2020
1404 Clouds 11 1004 96 10000 5.49 229 19:57 06.12.2020
1405 Clouds 11 1003 96 10000 5.04 242 18:41 06.12.2020
1406 Clouds 12 1003 80 10000 1.34 351 17:20 06.12.2020
1407 Clouds 13 1001 78 10000 0.45 13 15:53 06.12.2020
1408 Clouds 15 1000 62 10000 0.45 277 13:58 06.12.2020
1409 Clouds 14 999 67 10000 7.06 227 12:52 06.12.2020
1410 Clouds 14 1000 66 10000 1.34 210 12:23 06.12.2020
1411 Clouds 14 1000 68 10000 1.34 11 11:37 06.12.2020
1412 Clouds 13 1000 72 10000 6.56 216 11:18 06.12.2020
1413 Clouds 14 1000 91 10000 6.6 248 10:26 06.12.2020
1414 Clouds 12 1000 99 10000 1.34 315 08:45 06.12.2020
1415 Clouds 13 998 99 5304 1.34 279 06:53 06.12.2020
1416 Rain 17 997 85 10000 0.45 278 02:40 06.12.2020
1417 Clear 17 1002 64 10000 8.2 190 00:42 06.12.2020
1418 Clear 17 1002 64 10000 8.2 190 00:24 06.12.2020
1419 Clear 17 1002 56 10000 6.7 180 22:52 05.12.2020
1420 Clear 17 1001 86 10000 4.88 167 22:21 05.12.2020
1421 Clear 17 1001 85 10000 4.88 167 21:51 05.12.2020
1422 Clear 17 1001 84 10000 5.06 162 21:26 05.12.2020
1423 Clear 18 1002 75 10000 5.13 163 19:49 05.12.2020
1424 Clear 18 1002 68 10000 5.95 163 18:45 05.12.2020
1425 Clear 19 1002 57 10000 5.88 163 17:35 05.12.2020
1426 Clear 20 1002 49 10000 10.8 200 16:43 05.12.2020
1427 Clear 20 1001 50 10000 5.44 161 16:20 05.12.2020
1428 Clouds 21 1002 49 10000 9.3 180 14:30 05.12.2020
1429 Clear 21 1001 43 10000 1.34 189 12:32 05.12.2020
1430 Clear 21 1002 46 10000 1.34 203 11:49 05.12.2020
1431 Clear 19 1003 51 10000 0.45 242 10:33 05.12.2020
1432 Clouds 17 1002 61 10000 0.45 185 07:49 05.12.2020
1433 Clouds 16 1002 66 10000 4.71 163 07:25 05.12.2020
1434 Clouds 16 1003 62 10000 0.45 261 04:46 05.12.2020
1435 Clouds 15 1004 68 10000 5.16 174 23:56 04.12.2020
1436 Clouds 15 1004 67 10000 0.89 340 22:39 04.12.2020
1437 Clouds 15 1004 67 10000 5.07 175 20:30 04.12.2020
1438 Clouds 14 1004 63 10000 4.86 167 18:53 04.12.2020
1439 Clouds 15 1004 64 10000 4.53 167 18:21 04.12.2020
1440 Clouds 15 1004 62 10000 4.53 167 17:41 04.12.2020
1441 Clouds 16 1004 55 10000 4.64 178 15:54 04.12.2020
1442 Clouds 17 1004 51 10000 9.3 200 15:18 04.12.2020
1443 Clouds 17 1003 59 10000 0.45 228 13:35 04.12.2020
1444 Clouds 17 1004 63 10000 4.45 193 12:55 04.12.2020
1445 Clouds 16 1005 67 10000 4.14 199 11:41 04.12.2020
1446 Clouds 15 1005 75 10000 1.34 249 10:30 04.12.2020
1447 Clouds 11 1006 91 10000 3.55 202 07:53 04.12.2020
1448 Clouds 11 1005 90 10000 3.55 200 06:40 04.12.2020
1449 Clouds 11 1005 85 10000 3.88 243 04:52 04.12.2020
1450 Clouds 11 1005 99 10000 3.66 271 00:24 04.12.2020
1451 Clouds 10 1005 99 10000 4.19 292 22:47 03.12.2020
1452 Clouds 12 1006 67 10000 6.7 290 21:20 03.12.2020
1453 Clouds 12 1006 87 10000 5.1 150 20:41 03.12.2020
1454 Clouds 12 1004 89 10000 5.71 303 19:22 03.12.2020
1455 Clouds 12 1004 87 10000 4.34 301 18:40 03.12.2020
1456 Clouds 12 1004 87 10000 3.93 265 17:21 03.12.2020
1457 Clouds 13 1004 84 10000 3.64 266 15:59 03.12.2020
1458 Clouds 13 1004 85 10000 3.64 266 15:32 03.12.2020
1459 Clouds 13 1004 88 10000 3.66 266 14:48 03.12.2020
1460 Clouds 13 1004 95 10000 2.99 261 13:55 03.12.2020
1461 Clouds 11 1005 98 10000 3.51 274 12:44 03.12.2020
1462 Clouds 11 1005 99 7875 4.61 280 12:22 03.12.2020
1463 Clouds 11 1006 93 10000 5.04 293 10:40 03.12.2020
1464 Rain 11 1006 99 10000 5.69 305 08:41 03.12.2020
1465 Clouds 15 1004 77 10000 0.89 348 03:57 03.12.2020
1466 Clouds 15 1005 77 10000 0.45 266 01:54 03.12.2020
1467 Clouds 16 1007 82 10000 3.6 270 00:19 03.12.2020
1468 Clouds 17 1006 68 10000 4.92 179 22:46 02.12.2020
1469 Clouds 17 1005 68 10000 4.95 176 21:46 02.12.2020
1470 Clouds 17 1005 67 10000 4.82 174 20:50 02.12.2020
1471 Clouds 17 1007 67 10000 8.2 200 20:32 02.12.2020
1472 Clouds 17 1007 67 10000 8.7 190 19:40 02.12.2020
1473 Clouds 17 1007 67 10000 7.2 190 17:50 02.12.2020
1474 Clouds 17 1007 67 10000 7.2 190 17:31 02.12.2020
1475 Clouds 18 1006 68 10000 7.7 190 16:42 02.12.2020
1476 Clouds 19 1005 63 10000 1.34 304 13:48 02.12.2020
1477 Clouds 18 1007 72 10000 0.45 289 11:33 02.12.2020
1478 Clouds 17 1009 87 10000 4.49 166 10:25 02.12.2020
1479 Rain 14 1010 86 10000 3.84 168 07:48 02.12.2020
1480 Clouds 16 1014 67 10000 6.7 190 23:42 01.12.2020
1481 Clouds 15 1012 75 10000 4.21 216 22:20 01.12.2020
1482 Clouds 15 1012 73 10000 4.18 228 19:45 01.12.2020
1483 Clouds 15 1013 71 10000 4.26 217 18:56 01.12.2020
1484 Clouds 16 1012 66 10000 4.35 242 17:26 01.12.2020
1485 Clouds 18 1013 53 10000 5.37 261 15:24 01.12.2020
1486 Clouds 18 1014 64 10000 1.34 196 13:37 01.12.2020
1487 Clouds 18 1015 67 10000 3.81 245 11:43 01.12.2020
1488 Clouds 17 1016 69 10000 3.59 228 10:55 01.12.2020
1489 Clouds 17 1018 67 10000 4.6 200 10:32 01.12.2020
1490 Clouds 13 1017 97 10000 3.45 230 07:47 01.12.2020
1491 Clouds 14 1017 94 10000 3.16 242 06:26 01.12.2020
1492 Clear 14 1018 93 10000 2.04 242 01:44 01.12.2020
1493 Clear 14 1018 95 10000 1.58 238 00:52 01.12.2020
1494 Clear 14 1019 96 10000 0.72 191 23:20 30.11.2020
1495 Clear 14 1019 93 10000 0.72 191 22:42 30.11.2020
1496 Clear 14 1019 92 10000 0.37 149 22:22 30.11.2020
1497 Clear 15 1019 92 10000 0.47 62 20:47 30.11.2020
1498 Clear 14 1019 88 10000 0.87 42 19:41 30.11.2020
1499 Clouds 16 1018 88 10000 1.92 29 18:22 30.11.2020
1500 Clouds 16 1018 86 10000 1.92 29 17:46 30.11.2020
1501 Clouds 17 1018 83 10000 2.3 26 16:54 30.11.2020
1502 Clouds 18 1017 76 10000 0.45 350 15:45 30.11.2020
1503 Clouds 18 1018 72 10000 4.6 40 14:21 30.11.2020
1504 Clouds 18 1017 77 10000 0.45 5 13:41 30.11.2020
1505 Clouds 18 1017 79 10000 0.45 345 12:26 30.11.2020
1506 Clouds 18 1017 80 10000 2.66 350 11:57 30.11.2020
1507 Clouds 17 1017 97 10000 1.34 1 10:25 30.11.2020
1508 Clouds 16 1016 99 10000 2.76 334 09:35 30.11.2020
1509 Clouds 16 1016 99 10000 2.76 334 09:35 30.11.2020
1510 Rain 13 1012 99 10000 3.7 327 04:27 30.11.2020
1511 Rain 13 1011 99 10000 2.51 348 23:28 29.11.2020
1512 Clouds 14 1010 97 10000 3.27 5 21:46 29.11.2020
1513 Clouds 14 1010 96 10000 3.56 12 21:28 29.11.2020
1514 Rain 15 1009 90 10000 3.73 19 19:31 29.11.2020
1515 Clouds 15 1007 86 10000 2.51 38 17:46 29.11.2020
1516 Clouds 17 1005 67 8388 2.59 90 14:53 29.11.2020
1517 Clear 18 1006 55 10000 2.6 50 12:46 29.11.2020
1518 Clouds 15 1004 75 10000 2.76 109 11:41 29.11.2020
1519 Clouds 15 1005 76 10000 3.59 142 08:55 29.11.2020
1520 Clouds 14 1005 78 10000 3.59 142 08:36 29.11.2020
1521 Clouds 15 1004 76 10000 1.79 213 04:21 29.11.2020
1522 Clouds 14 1005 99 10000 0.89 349 23:19 28.11.2020
1523 Clouds 14 1005 99 10000 4.03 173 22:55 28.11.2020
1524 Rain 15 1005 99 10000 5.19 161 20:27 28.11.2020
1525 Rain 15 1005 94 10000 5.19 161 19:31 28.11.2020
1526 Rain 19 1005 46 10000 4.6 120 18:59 28.11.2020
1527 Rain 19 1005 49 10000 4.1 150 18:23 28.11.2020
1528 Thunderstorm 19 1005 49 10000 4.1 150 17:40 28.11.2020
1529 Clouds 18 1005 79 10000 6.85 135 16:39 28.11.2020
1530 Rain 20 1006 59 10000 0.45 314 14:25 28.11.2020
1531 Clouds 19 1009 67 10000 0.89 265 11:29 28.11.2020
1532 Clouds 17 1011 73 10000 5.5 125 09:38 28.11.2020
1533 Clouds 15 1013 68 10000 4.77 151 03:55 28.11.2020
1534 Clouds 15 1013 68 10000 4.44 158 03:24 28.11.2020
1535 Clouds 15 1016 67 10000 4.8 156 23:23 27.11.2020
1536 Clouds 16 1016 67 10000 4.8 156 22:55 27.11.2020
1537 Clouds 15 1016 71 10000 3.48 161 21:27 27.11.2020
1538 Clouds 16 1016 70 10000 3.58 161 20:30 27.11.2020
1539 Clouds 15 1016 70 10000 3.76 144 19:25 27.11.2020
1540 Clouds 16 1016 69 10000 3.49 138 17:50 27.11.2020
1541 Clear 19 1018 55 10000 2.1 360 14:46 27.11.2020
1542 Clouds 20 1017 54 10000 1.88 137 13:25 27.11.2020
1543 Clouds 19 1017 57 10000 1.85 135 12:47 27.11.2020
1544 Clouds 19 1018 62 10000 1.98 144 11:35 27.11.2020
1545 Clouds 18 1018 70 10000 2.31 153 10:50 27.11.2020
1546 Clouds 16 1019 87 10000 2.57 162 09:57 27.11.2020
1547 Clouds 12 1019 99 10000 2.68 156 07:22 27.11.2020
1548 Clouds 15 1020 99 10000 2.49 136 22:27 26.11.2020
1549 Clouds 15 1020 99 10000 2.49 136 21:56 26.11.2020
1550 Clouds 15 1020 96 10000 2.27 130 20:52 26.11.2020
1551 Clouds 16 1020 89 10000 2.52 115 18:42 26.11.2020
1552 Clouds 16 1020 86 10000 2.45 103 17:51 26.11.2020
1553 Clouds 19 1019 69 10000 1.88 63 14:50 26.11.2020
1554 Clouds 19 1019 73 10000 1.33 52 13:41 26.11.2020
1555 Clouds 19 1019 72 10000 1.21 81 12:42 26.11.2020
1556 Clouds 18 1020 70 10000 1.14 101 11:36 26.11.2020
1557 Clouds 18 1021 76 10000 1.37 115 10:33 26.11.2020
1558 Clouds 16 1021 87 10000 1.42 122 09:46 26.11.2020
1559 Clouds 16 1021 90 10000 1.57 136 09:27 26.11.2020
1560 Clouds 14 1021 96 10000 1.57 136 08:38 26.11.2020
1561 Clouds 13 1020 99 10000 1.59 152 04:42 26.11.2020
1562 Clouds 14 1020 99 10000 2.66 116 22:42 25.11.2020
1563 Clouds 15 1020 92 10000 2.36 102 20:43 25.11.2020
1564 Clouds 15 1020 91 10000 2.35 96 19:46 25.11.2020
1565 Clouds 16 1020 87 10000 2.43 83 18:28 25.11.2020
1566 Clouds 17 1019 80 10000 2.34 73 16:43 25.11.2020
1567 Clouds 18 1019 72 10000 2.54 66 15:38 25.11.2020
1568 Clear 18 1020 63 10000 4.6 60 13:56 25.11.2020
1569 Clouds 18 1019 77 10000 2.14 48 13:37 25.11.2020
1570 Clouds 18 1020 80 10000 1.94 34 11:45 25.11.2020
1571 Clouds 17 1020 85 10000 1.8 37 11:18 25.11.2020
1572 Clouds 15 1021 99 10000 1.62 27 09:18 25.11.2020
1573 Clear 14 1022 76 10000 2.1 150 08:43 25.11.2020
1574 Clouds 14 1020 99 10000 2.07 3 03:59 25.11.2020
1575 Clouds 15 1021 99 10000 2.18 344 01:53 25.11.2020
1576 Clouds 15 1021 99 10000 1.87 354 00:24 25.11.2020
1577 Clouds 15 1021 99 10000 1.87 354 23:52 24.11.2020
1578 Clouds 15 1021 99 10000 1.87 354 23:33 24.11.2020
1579 Clouds 14 1021 99 10000 1.82 8 21:51 24.11.2020
1580 Clouds 14 1021 99 10000 1.85 13 21:30 24.11.2020
1581 Clouds 15 1021 99 10000 1.85 13 20:42 24.11.2020
1582 Clouds 15 1021 99 10000 2.4 18 18:56 24.11.2020
1583 Clouds 15 1020 99 10000 2.9 18 17:31 24.11.2020
1584 Clouds 16 1020 99 10000 2.9 18 16:54 24.11.2020
1585 Clouds 16 1020 99 10000 3 18 16:35 24.11.2020
1586 Clouds 16 1020 99 10000 3 18 15:54 24.11.2020
1587 Clouds 16 1020 99 10000 2.91 18 15:19 24.11.2020
1588 Clouds 17 1020 99 10000 0.45 346 14:43 24.11.2020
1589 Clouds 17 1021 99 10000 2.94 22 12:55 24.11.2020
1590 Clouds 16 1021 99 10000 3.25 25 12:22 24.11.2020
1591 Clouds 16 1021 99 10000 3.25 25 11:53 24.11.2020
1592 Rain 16 1022 99 10000 3.44 31 10:47 24.11.2020
1593 Rain 15 1022 99 10000 3.56 29 10:25 24.11.2020
1594 Rain 15 1022 99 10000 3.56 29 09:35 24.11.2020
1595 Rain 15 1021 99 10000 3.98 41 08:26 24.11.2020
1596 Clouds 14 1020 99 3494 4.83 41 04:49 24.11.2020
1597 Rain 15 1021 99 10000 1.94 45 23:28 23.11.2020
1598 Clear 15 1021 99 10000 0.83 66 21:46 23.11.2020
1599 Clear 15 1021 99 10000 0.71 102 20:58 23.11.2020
1600 Clear 16 1021 99 10000 1.29 119 20:28 23.11.2020
1601 Clear 15 1021 97 10000 1.29 119 19:36 23.11.2020
1602 Clouds 17 1021 90 10000 1.95 79 17:27 23.11.2020
1603 Clouds 17 1021 86 10000 1.95 79 16:54 23.11.2020
1604 Clear 20 1021 69 10000 2.05 62 14:49 23.11.2020
1605 Clear 20 1021 72 10000 5.1 60 13:55 23.11.2020
1606 Clear 19 1022 68 10000 6.7 70 12:40 23.11.2020
1607 Clear 19 1023 68 10000 4.6 60 11:56 23.11.2020
1608 Clear 19 1023 72 10000 2.6 50 11:37 23.11.2020
1609 Clear 18 1023 72 10000 2.1 220 09:47 23.11.2020
1610 Clear 15 1023 82 10000 1.5 140 08:51 23.11.2020
1611 Clear 14 1022 76 10000 1.5 180 07:56 23.11.2020
1612 Clear 14 1022 67 10000 1 0 02:39 23.11.2020
1613 Clear 14 1022 72 10000 2.6 30 23:48 22.11.2020
1614 Clouds 14 1022 77 10000 5.1 80 22:22 22.11.2020
1615 Rain 14 1021 99 10000 2.06 121 21:24 22.11.2020
1616 Rain 14 1021 99 10000 3.21 90 20:20 22.11.2020
1617 Rain 14 1020 99 10000 4.25 87 19:23 22.11.2020
1618 Clouds 15 1020 98 10000 3.13 101 18:23 22.11.2020
1619 Clouds 17 1019 95 10000 4.4 89 16:29 22.11.2020
1620 Clouds 17 1019 96 10000 5.07 74 15:27 22.11.2020
1621 Clouds 18 1019 93 10000 0.89 5 13:32 22.11.2020
1622 Clouds 17 1019 97 10000 5.59 68 12:43 22.11.2020
1623 Clouds 17 1020 77 10000 4.1 70 11:54 22.11.2020
1624 Clouds 16 1019 77 10000 6.2 80 10:51 22.11.2020
1625 Clouds 15 1019 77 10000 6.2 80 10:33 22.11.2020
1626 Clouds 13 1022 98 8956 5.81 45 07:43 22.11.2020
1627 Clouds 13 1016 82 7000 5.1 60 01:47 22.11.2020
1628 Clouds 13 1019 99 10000 7.24 73 22:42 21.11.2020
1629 Clouds 13 1019 97 10000 8.36 74 21:32 21.11.2020
1630 Clouds 13 1019 95 7815 8.55 70 20:54 21.11.2020
1631 Thunderstorm 14 1015 67 10000 4.1 90 20:28 21.11.2020
1632 Clouds 13 1018 94 8852 8.04 65 19:50 21.11.2020
1633 Rain 14 1018 93 10000 8.98 61 19:20 21.11.2020
1634 Clouds 13 1017 92 10000 8.19 63 17:57 21.11.2020
1635 Clouds 14 1016 87 10000 7.35 68 16:48 21.11.2020
1636 Clouds 15 1016 87 10000 7.07 63 15:45 21.11.2020
1637 Rain 16 1016 86 10000 6.23 57 15:21 21.11.2020
1638 Clear 16 1012 63 10000 7.7 60 14:42 21.11.2020
1639 Clouds 16 1012 55 10000 7.2 80 13:41 21.11.2020
1640 Clouds 18 1013 59 10000 6.2 60 12:24 21.11.2020
1641 Clouds 18 1013 63 10000 6.7 60 11:54 21.11.2020
1642 Clouds 16 1012 81 10000 3.52 96 10:37 21.11.2020
1643 Clouds 15 1012 82 10000 2.77 113 09:22 21.11.2020
1644 Clouds 14 1012 90 10000 2.77 113 08:50 21.11.2020
1645 Clear 12 1010 94 10000 1.97 145 05:43 21.11.2020
1646 Clear 12 1010 95 10000 2.42 181 04:24 21.11.2020
1647 Rain 13 1010 96 10000 3.82 217 00:26 21.11.2020
1648 Rain 14 1011 96 10000 0.45 230 23:23 20.11.2020
1649 Clouds 14 1011 99 10000 3.03 234 21:47 20.11.2020
1650 Clouds 14 1011 99 10000 2.82 248 21:26 20.11.2020
1651 Clouds 14 1010 98 10000 2.82 248 20:55 20.11.2020
1652 Clouds 14 1011 96 10000 3.79 262 19:43 20.11.2020
1653 Rain 14 1010 87 10000 5.46 266 18:29 20.11.2020
1654 Clouds 16 1010 64 10000 0.89 237 17:42 20.11.2020
1655 Clouds 16 1010 63 10000 4.9 248 17:23 20.11.2020
1656 Clouds 17 1010 60 10000 0.89 235 16:37 20.11.2020
1657 Clouds 17 1010 58 10000 0.45 276 15:51 20.11.2020
1658 Clouds 18 1012 55 10000 11.3 260 14:30 20.11.2020
1659 Clouds 18 1011 57 10000 0.45 13 13:43 20.11.2020
1660 Clouds 18 1011 62 10000 1.34 224 13:18 20.11.2020
1661 Clouds 19 1011 65 10000 0.89 288 12:31 20.11.2020
1662 Clouds 19 1012 62 10000 1.34 237 11:39 20.11.2020
1663 Clouds 19 1012 69 10000 1.34 205 10:37 20.11.2020
1664 Clouds 17 1013 89 10000 4.25 229 08:36 20.11.2020
1665 Clouds 17 1013 91 10000 4.25 229 07:58 20.11.2020
1666 Clouds 16 1014 92 10000 3.79 223 05:20 20.11.2020
1667 Clouds 16 1015 95 10000 3.68 224 03:43 20.11.2020
1668 Clear 15 1019 99 10000 2.33 247 22:33 19.11.2020
1669 Clear 15 1020 99 10000 1.9 245 21:55 19.11.2020
1670 Clear 16 1020 97 10000 1.31 258 21:19 19.11.2020
1671 Clear 16 1020 93 10000 0.91 293 20:31 19.11.2020
1672 Clear 17 1021 90 10000 0.91 293 19:45 19.11.2020
1673 Clear 17 1021 89 10000 1.2 337 19:22 19.11.2020
1674 Clear 17 1021 86 10000 1.8 344 17:39 19.11.2020
1675 Clear 18 1021 84 10000 1.94 347 16:48 19.11.2020
1676 Clear 21 1021 70 10000 0.45 356 15:31 19.11.2020
1677 Clear 21 1021 73 10000 0.89 2 14:31 19.11.2020
1678 Clear 20 1022 85 10000 1.79 5 13:44 19.11.2020
1679 Clouds 19 1022 92 10000 0.45 344 12:57 19.11.2020
1680 Clouds 20 1022 94 10000 1.34 3 12:34 19.11.2020
1681 Clouds 19 1023 99 10000 2.62 3 11:42 19.11.2020
1682 Clouds 19 1023 99 10000 2.5 10 11:22 19.11.2020
1683 Clouds 19 1024 99 10000 2.5 10 10:51 19.11.2020
1684 Clouds 19 1024 99 10000 2.33 8 09:55 19.11.2020
1685 Clouds 18 1024 99 10000 2.33 8 09:36 19.11.2020
1686 Clouds 17 1024 99 10000 2.23 9 09:18 19.11.2020
1687 Clouds 15 1024 99 10000 1.95 7 07:59 19.11.2020
1688 Clear 15 1023 99 10000 1.15 241 01:53 19.11.2020
1689 Clear 16 1024 99 10000 1.05 215 00:33 19.11.2020
1690 Clear 16 1024 99 10000 1.17 183 23:47 18.11.2020
1691 Clear 15 1024 99 10000 1.09 159 23:24 18.11.2020
1692 Clear 16 1024 99 10000 1.09 159 22:30 18.11.2020
1693 Clear 16 1024 99 10000 1.49 138 21:45 18.11.2020
1694 Clear 16 1023 99 10000 1.91 124 21:26 18.11.2020
1695 Clear 16 1023 99 10000 1.91 124 20:40 18.11.2020
1696 Clear 18 1023 99 10000 1.99 110 19:44 18.11.2020
1697 Clear 18 1023 98 10000 2.03 106 19:24 18.11.2020
1698 Clear 17 1023 97 10000 1.61 120 18:48 18.11.2020
1699 Clear 18 1022 92 10000 1.96 104 17:55 18.11.2020
1700 Clouds 18 1022 86 10000 2.18 86 16:58 18.11.2020
1701 Clouds 19 1022 80 10000 2.39 78 16:21 18.11.2020
1702 Clouds 18 1022 77 10000 4.1 60 14:43 18.11.2020
1703 Clouds 18 1022 77 10000 4.1 60 14:25 18.11.2020
1704 Clouds 20 1022 73 10000 2.31 60 13:37 18.11.2020
1705 Clear 20 1022 74 10000 2.27 66 12:45 18.11.2020
1706 Clouds 20 1023 72 10000 5.1 40 11:57 18.11.2020
1707 Clouds 20 1023 72 10000 4.6 50 11:25 18.11.2020
1708 Clear 19 1022 89 10000 2.15 79 10:30 18.11.2020
1709 Clear 16 1022 99 10000 1.69 75 08:44 18.11.2020
1710 Clear 15 1021 82 10000 1.5 160 07:36 18.11.2020
1711 Clear 14 1020 99 10000 1.28 111 06:28 18.11.2020
1712 Clouds 14 1019 99 10000 2.2 79 00:22 18.11.2020
1713 Clouds 15 1019 99 10000 1.59 79 23:30 17.11.2020
1714 Clouds 15 1019 99 10000 1.59 79 22:45 17.11.2020
1715 Clouds 15 1018 99 10000 0.71 101 22:27 17.11.2020
1716 Clouds 15 1018 99 10000 0.71 101 21:48 17.11.2020
1717 Clouds 15 1018 99 10000 0.92 200 21:28 17.11.2020
1718 Clouds 15 1017 99 10000 0.92 200 20:43 17.11.2020
1719 Clouds 15 1017 98 10000 1.41 222 20:23 17.11.2020
1720 Clouds 15 1017 95 10000 1.41 222 19:44 17.11.2020
1721 Clouds 17 1016 94 10000 1.72 244 18:23 17.11.2020
1722 Clouds 17 1016 89 10000 1.72 244 17:33 17.11.2020
1723 Clouds 17 1015 85 10000 2.31 269 16:37 17.11.2020
1724 Clouds 18 1015 84 10000 3.43 285 16:18 17.11.2020
1725 Clouds 18 1015 87 10000 3.43 285 15:38 17.11.2020
1726 Rain 18 1015 89 10000 4.38 293 15:20 17.11.2020
1727 Rain 18 1015 94 10000 4.82 295 14:30 17.11.2020
1728 Clouds 18 1015 92 10000 4.82 295 13:45 17.11.2020
1729 Rain 18 1015 84 10000 0.45 331 13:22 17.11.2020
1730 Clouds 20 1017 68 10000 6.7 310 12:42 17.11.2020
1731 Clouds 19 1017 72 10000 6.2 330 11:45 17.11.2020
1732 Rain 19 1015 81 10000 0.45 320 11:21 17.11.2020
1733 Clouds 19 1016 77 10000 1.34 336 10:39 17.11.2020
1734 Clouds 19 1016 80 10000 1.34 206 09:53 17.11.2020
1735 Clouds 18 1016 81 10000 0.89 337 09:34 17.11.2020
1736 Clouds 18 1015 93 10000 3.59 268 08:25 17.11.2020
1737 Clouds 18 1015 96 10000 3.59 268 07:57 17.11.2020
1738 Clouds 17 1014 99 10000 4.06 283 07:28 17.11.2020
1739 Rain 18 1014 97 10000 0.45 225 04:29 17.11.2020
1740 Rain 17 1014 99 10000 5.11 209 03:22 17.11.2020
1741 Rain 17 1014 99 10000 5.23 202 02:28 17.11.2020
1742 Rain 17 1015 99 10000 0.89 357 00:56 17.11.2020
1743 Rain 18 1015 97 7314 0.45 354 23:52 16.11.2020
1744 Rain 18 1015 94 7314 5.47 197 23:30 16.11.2020
1745 Rain 19 1016 85 10000 5.02 207 22:48 16.11.2020
1746 Rain 19 1016 83 10000 4.61 212 22:22 16.11.2020
1747 Clouds 19 1016 83 10000 4.61 212 21:50 16.11.2020
1748 Rain 19 1016 81 10000 4.65 210 21:27 16.11.2020
1749 Clouds 19 1016 80 10000 4.65 210 20:59 16.11.2020
1750 Clouds 19 1017 81 10000 4.03 210 20:26 16.11.2020
1751 Clouds 19 1017 81 10000 4.03 210 19:50 16.11.2020
1752 Clouds 19 1017 80 10000 3.8 224 19:28 16.11.2020
1753 Clouds 20 1017 79 10000 3.8 224 18:48 16.11.2020
1754 Clouds 20 1017 78 10000 3.82 233 17:57 16.11.2020
1755 Clouds 20 1017 78 10000 4.22 254 17:26 16.11.2020
1756 Clouds 20 1017 81 10000 4.22 254 16:57 16.11.2020
1757 Clouds 20 1017 81 10000 0.45 284 16:38 16.11.2020
1758 Clouds 20 1017 79 10000 4.4 264 16:18 16.11.2020
1759 Clouds 21 1017 69 10000 4.4 264 15:41 16.11.2020
1760 Rain 22 1016 64 10000 4.38 262 15:22 16.11.2020
1761 Clouds 19 1018 73 10000 6.2 270 14:47 16.11.2020
1762 Clouds 22 1019 64 10000 5.1 230 13:37 16.11.2020
1763 Clouds 22 1017 67 10000 3.2 238 12:45 16.11.2020
1764 Clouds 22 1017 67 10000 3.2 238 12:45 16.11.2020
1765 Clouds 22 1017 68 10000 3.33 224 12:23 16.11.2020
1766 Clouds 21 1018 70 10000 3.48 220 11:38 16.11.2020
1767 Clouds 21 1019 70 10000 0.45 37 11:19 16.11.2020
1768 Clouds 21 1019 69 10000 0.89 312 10:41 16.11.2020
1769 Clouds 21 1019 70 10000 3.46 206 10:22 16.11.2020
1770 Clouds 19 1019 76 10000 3.46 206 09:43 16.11.2020
1771 Clouds 18 1019 76 10000 3.31 198 09:19 16.11.2020
1772 Clouds 18 1019 75 10000 3.31 198 08:38 16.11.2020
1773 Clouds 17 1019 77 10000 3.22 203 07:44 16.11.2020
1774 Clouds 17 1019 76 10000 2.96 199 06:49 16.11.2020
1775 Clouds 17 1019 75 10000 3.02 200 05:57 16.11.2020
1776 Clouds 17 1019 76 10000 2.97 199 04:37 16.11.2020
1777 Clouds 17 1020 82 10000 2.6 192 02:29 16.11.2020
1778 Clouds 17 1020 84 10000 2.6 192 01:41 16.11.2020
1779 Clouds 17 1020 89 10000 1.98 200 23:54 15.11.2020
1780 Clouds 17 1021 91 10000 2.13 186 23:22 15.11.2020
1781 Clouds 17 1021 92 10000 2.13 186 22:48 15.11.2020
1782 Clouds 17 1021 92 10000 2.06 179 22:21 15.11.2020
1783 Clouds 17 1021 92 10000 2.06 179 21:45 15.11.2020
1784 Clouds 17 1021 91 10000 1.8 198 21:24 15.11.2020
1785 Clouds 17 1021 89 10000 1.8 198 20:41 15.11.2020
1786 Clouds 17 1021 88 10000 1.83 210 20:21 15.11.2020
1787 Clouds 18 1021 87 10000 1.83 210 19:48 15.11.2020
1788 Clouds 18 1021 85 10000 1.93 196 19:22 15.11.2020
1789 Clouds 18 1021 84 10000 1.75 197 18:57 15.11.2020
1790 Clouds 18 1021 83 10000 1.75 197 18:39 15.11.2020
1791 Clouds 19 1021 82 10000 1.82 162 18:19 15.11.2020
1792 Clouds 19 1021 80 10000 1.82 162 17:45 15.11.2020
1793 Clouds 19 1020 79 10000 1.5 133 17:24 15.11.2020
1794 Clouds 20 1020 77 10000 1.5 133 16:48 15.11.2020
1795 Clouds 20 1021 74 10000 1.11 83 16:21 15.11.2020
1796 Clouds 21 1020 61 10000 1.11 83 15:54 15.11.2020
1797 Clear 21 1021 53 10000 5.7 70 15:29 15.11.2020
1798 Clear 22 1021 53 10000 4.6 70 14:58 15.11.2020
1799 Clear 22 1021 53 10000 3.6 50 14:31 15.11.2020
1800 Clouds 23 1020 59 10000 0.45 355 13:57 15.11.2020
1801 Clouds 23 1020 60 10000 1.79 5 13:36 15.11.2020
1802 Clouds 22 1020 62 10000 1.34 356 12:52 15.11.2020
1803 Clear 22 1020 61 10000 0.89 352 12:25 15.11.2020
1804 Clear 22 1021 61 10000 0.38 41 11:47 15.11.2020
1805 Clear 22 1021 63 10000 0.5 123 11:21 15.11.2020
1806 Clear 21 1021 64 10000 0.5 123 10:54 15.11.2020
1807 Clear 21 1021 65 10000 0.5 123 10:33 15.11.2020
1808 Clear 20 1022 68 10000 1.04 160 09:59 15.11.2020
1809 Clear 20 1022 70 10000 1.04 160 09:40 15.11.2020
1810 Clear 19 1022 73 10000 1.48 176 09:19 15.11.2020
1811 Clear 18 1022 75 10000 1.48 176 08:50 15.11.2020
1812 Clear 16 1022 77 10000 1.55 184 07:48 15.11.2020
1813 Clouds 16 1021 76 10000 1.96 191 06:55 15.11.2020
1814 Clouds 16 1021 68 10000 2.34 191 04:58 15.11.2020
1815 Clouds 17 1021 62 10000 0.45 246 02:55 15.11.2020
1816 Clouds 17 1022 62 10000 2.77 194 00:48 15.11.2020
1817 Clouds 17 1022 63 10000 2.34 196 00:26 15.11.2020
1818 Clouds 17 1022 63 10000 2.34 196 23:36 14.11.2020
1819 Clouds 18 1022 62 10000 2.09 206 22:50 14.11.2020
1820 Clouds 17 1022 64 10000 2.05 205 22:29 14.11.2020
1821 Clouds 17 1022 64 10000 2.05 205 21:42 14.11.2020
1822 Clouds 17 1022 65 10000 1.99 192 21:22 14.11.2020
1823 Clouds 17 1022 65 10000 1.99 192 20:56 14.11.2020
1824 Clouds 17 1022 69 10000 1.91 168 20:27 14.11.2020
1825 Clouds 17 1022 72 10000 1.91 168 19:51 14.11.2020
1826 Clouds 17 1022 74 10000 1.93 161 19:31 14.11.2020
1827 Clouds 18 1022 76 10000 2.07 162 18:43 14.11.2020
1828 Clouds 18 1022 76 10000 2.03 160 18:24 14.11.2020
1829 Clouds 19 1022 75 10000 2.03 160 17:57 14.11.2020
1830 Clouds 19 1022 74 10000 2.03 160 17:39 14.11.2020
1831 Clouds 19 1022 70 10000 1.5 154 17:19 14.11.2020
1832 Clear 21 1023 49 10000 5.1 210 16:41 14.11.2020
1833 Clouds 20 1022 68 10000 0.96 138 16:20 14.11.2020
1834 Clouds 21 1022 57 10000 0.96 138 15:52 14.11.2020
1835 Clear 21 1023 53 10000 2.1 50 15:26 14.11.2020
1836 Clear 22 1023 56 10000 1.5 0 14:47 14.11.2020
1837 Clear 23 1023 47 10000 4.6 200 14:24 14.11.2020
1838 Clear 23 1023 44 10000 6.2 200 13:45 14.11.2020
1839 Clear 23 1022 54 10000 0.8 169 13:24 14.11.2020
1840 Clear 22 1022 53 10000 0.8 169 12:48 14.11.2020
1841 Clear 22 1022 54 10000 0.45 350 12:29 14.11.2020
1842 Clear 22 1023 57 10000 1.16 182 11:46 14.11.2020
1843 Clear 22 1023 57 10000 0.89 344 11:25 14.11.2020
1844 Clear 21 1023 61 10000 1.55 187 10:49 14.11.2020
1845 Clear 21 1023 67 10000 2.03 186 10:26 14.11.2020
1846 Clear 20 1023 76 10000 2.03 186 09:50 14.11.2020
1847 Clear 18 1024 83 10000 2.42 180 09:28 14.11.2020
1848 Clear 18 1024 91 10000 2.42 180 08:55 14.11.2020
1849 Clear 17 1028 53 10000 2.42 180 08:37 14.11.2020
1850 Clear 15 1024 72 10000 1 0 07:51 14.11.2020
1851 Clear 16 1024 68 10000 1.5 40 07:28 14.11.2020
1852 Clear 18 1024 55 10000 4.1 150 06:35 14.11.2020
1853 Clear 16 1024 68 10000 3.6 150 05:37 14.11.2020
1854 Clear 16 1023 88 10000 2.04 203 04:20 14.11.2020
1855 Clear 16 1024 88 10000 2.27 203 01:20 14.11.2020
1856 Clear 16 1024 90 10000 2.2 195 23:49 13.11.2020
1857 Clear 16 1023 89 10000 2.11 182 23:26 13.11.2020
1858 Clear 17 1023 88 10000 2.11 182 22:55 13.11.2020
1859 Clear 16 1023 88 10000 1.96 187 22:29 13.11.2020
1860 Clear 16 1023 87 10000 1.96 187 21:59 13.11.2020
1861 Clear 17 1023 86 10000 1.96 187 21:41 13.11.2020
1862 Clear 17 1023 85 10000 1.75 189 21:22 13.11.2020
1863 Clear 17 1023 84 10000 1.75 189 20:44 13.11.2020
1864 Clear 17 1023 83 10000 1.79 169 20:22 13.11.2020
1865 Clear 18 1023 82 10000 1.79 169 19:46 13.11.2020
1866 Clear 18 1023 82 10000 1.79 169 19:46 13.11.2020
1867 Clouds 18 1023 80 10000 2.04 148 19:23 13.11.2020
1868 Clouds 18 1023 79 10000 2.04 148 18:58 13.11.2020
1869 Clouds 18 1023 77 10000 1.83 130 18:26 13.11.2020
1870 Clouds 19 1023 75 10000 1.83 130 17:43 13.11.2020
1871 Clouds 19 1023 75 10000 1.83 130 17:43 13.11.2020
1872 Clouds 19 1023 73 10000 1.78 130 17:19 13.11.2020
1873 Clouds 20 1022 70 10000 1.78 130 16:50 13.11.2020
1874 Clouds 20 1022 69 10000 1.74 145 16:24 13.11.2020
1875 Clear 21 1023 64 10000 3.6 50 15:52 13.11.2020
1876 Clear 21 1023 64 10000 3.6 50 15:32 13.11.2020
1877 Clear 21 1023 56 10000 3.6 50 14:50 13.11.2020
1878 Clear 21 1023 64 10000 3.1 30 14:27 13.11.2020
1879 Clear 22 1024 64 10000 3.1 30 13:53 13.11.2020
1880 Clear 21 1024 68 10000 3.1 30 13:29 13.11.2020
1881 Clouds 21 1023 67 10000 0.41 283 12:52 13.11.2020
1882 Clouds 21 1023 68 10000 1.13 211 12:27 13.11.2020
1883 Clouds 21 1024 69 10000 1.13 211 11:56 13.11.2020
1884 Clouds 21 1024 70 10000 1.13 211 11:37 13.11.2020
1885 Clouds 20 1024 72 10000 1.71 181 10:59 13.11.2020
1886 Clouds 20 1024 75 10000 1.71 181 10:41 13.11.2020
1887 Clouds 20 1024 79 10000 1.95 173 10:22 13.11.2020
1888 Clouds 19 1024 87 10000 1.95 173 09:47 13.11.2020
1889 Clouds 18 1024 89 10000 2 192 09:25 13.11.2020
1890 Clouds 18 1024 89 10000 2 192 09:25 13.11.2020
1891 Clouds 17 1024 93 10000 2 192 08:53 13.11.2020
1892 Clear 16 1024 82 10000 1 180 08:23 13.11.2020
1893 Clear 16 1024 77 10000 1.5 170 07:49 13.11.2020
1894 Clouds 16 1024 96 10000 1.42 172 07:27 13.11.2020
1895 Clouds 16 1024 82 10000 1.5 150 06:55 13.11.2020
1896 Clouds 16 1024 77 10000 1 80 06:34 13.11.2020
1897 Clouds 16 1024 77 10000 1 80 06:34 13.11.2020
1898 Clouds 16 1024 77 10000 1 0 05:40 13.11.2020
1899 Clear 15 1023 92 10000 1.17 192 02:57 13.11.2020
1900 Clear 15 1024 91 10000 1.6 207 01:39 13.11.2020
1901 Clear 15 1023 90 10000 1.61 212 00:35 13.11.2020
1902 Clear 15 1024 87 10000 1.57 204 23:49 12.11.2020
1903 Clear 16 1024 82 10000 2.6 200 23:21 12.11.2020
1904 Clear 16 1024 84 10000 1.95 190 22:54 12.11.2020
1905 Clear 16 1025 82 10000 2.1 180 22:36 12.11.2020
1906 Clear 16 1024 83 10000 2.41 172 21:57 12.11.2020
1907 Clear 16 1024 83 10000 2.41 172 21:39 12.11.2020
1908 Clear 16 1024 83 10000 2.13 163 21:19 12.11.2020
1909 Clear 16 1024 82 10000 2.13 163 20:40 12.11.2020
1910 Clear 17 1024 82 10000 1.73 152 20:22 12.11.2020
1911 Clear 17 1024 81 10000 1.73 152 19:52 12.11.2020
1912 Clear 17 1024 80 10000 1.73 152 19:34 12.11.2020
1913 Clear 17 1024 79 10000 1.41 137 18:56 12.11.2020
1914 Clear 17 1024 78 10000 1.65 139 18:37 12.11.2020
1915 Clear 17 1024 77 10000 0.98 115 18:18 12.11.2020
1916 Clear 18 1024 75 10000 0.98 115 17:39 12.11.2020
1917 Clear 18 1024 73 10000 1.04 39 17:21 12.11.2020
1918 Clear 19 1023 71 10000 1.04 39 16:44 12.11.2020
1919 Clear 19 1023 69 10000 1.6 24 16:23 12.11.2020
1920 Clear 20 1023 65 10000 1.6 24 15:47 12.11.2020
1921 Clear 21 1023 64 10000 3.6 40 15:27 12.11.2020
1922 Clear 20 1024 60 10000 1.5 360 14:47 12.11.2020
1923 Clear 20 1024 64 10000 3.1 30 14:47 12.11.2020
1924 Clear 22 1024 60 10000 1.5 360 14:27 12.11.2020
1925 Clear 22 1023 62 10000 1.27 35 13:58 12.11.2020
1926 Clear 21 1025 64 10000 2.6 280 13:39 12.11.2020
1927 Clear 20 1023 65 10000 1.25 21 13:19 12.11.2020
1928 Clear 20 1024 66 10000 1.25 21 12:44 12.11.2020
1929 Clear 20 1024 68 10000 0.61 29 12:24 12.11.2020
1930 Clear 20 1024 68 10000 0.45 325 11:53 12.11.2020
1931 Clear 20 1024 68 10000 0.61 29 11:30 12.11.2020
1932 Clear 20 1025 69 10000 0.25 357 10:49 12.11.2020
1933 Clear 19 1025 71 10000 0.93 266 10:29 12.11.2020
1934 Clear 18 1024 78 10000 0.93 266 09:50 12.11.2020
1935 Clear 17 1025 78 10000 1.29 239 09:25 12.11.2020
1936 Clear 17 1024 78 10000 1.29 239 08:58 12.11.2020
1937 Clear 16 1024 79 10000 1.29 239 08:40 12.11.2020
1938 Clear 15 1024 80 10000 1.4 211 08:20 12.11.2020
1939 Clear 14 1025 76 10000 1 0 07:53 12.11.2020
1940 Clear 15 1024 67 10000 1.5 100 07:30 12.11.2020
1941 Clear 14 1024 76 10000 3.1 150 06:51 12.11.2020
1942 Clear 14 1023 83 10000 1.45 210 06:22 12.11.2020
1943 Clear 15 1024 67 10000 1.5 270 03:43 12.11.2020
1944 Clear 15 1024 67 10000 1.5 270 03:18 12.11.2020
1945 Clear 15 1025 76 10000 2.1 160 00:25 12.11.2020
1946 Clear 15 1024 77 10000 0.5 0 23:42 11.11.2020
1947 Clear 15 1024 77 10000 0.5 0 23:23 11.11.2020
1948 Clear 15 1024 92 10000 1.83 159 22:47 11.11.2020
1949 Clear 16 1024 92 10000 1.76 152 22:21 11.11.2020
1950 Clear 16 1024 91 10000 1.76 152 21:56 11.11.2020
1951 Clear 16 1024 91 10000 1.76 152 21:38 11.11.2020
1952 Clear 16 1024 91 10000 1.39 139 21:19 11.11.2020
1953 Clear 16 1023 91 10000 1.39 139 20:42 11.11.2020
1954 Clear 16 1024 89 10000 0.96 131 20:21 11.11.2020
1955 Clear 17 1023 88 10000 0.96 131 19:55 11.11.2020
1956 Clear 17 1023 87 10000 0.96 131 19:36 11.11.2020
1957 Clear 17 1023 86 10000 1.1 115 19:18 11.11.2020
1958 Clear 17 1023 86 10000 1.1 115 19:18 11.11.2020
1959 Clear 17 1023 83 10000 1.14 112 18:41 11.11.2020
1960 Clear 17 1023 82 10000 1.36 92 18:21 11.11.2020
1961 Clear 17 1022 79 10000 1.36 92 17:37 11.11.2020
1962 Clear 19 1023 72 10000 5.1 50 17:19 11.11.2020
1963 Clear 19 1022 76 10000 1.46 66 16:39 11.11.2020
1964 Clear 19 1022 73 10000 1.79 44 16:21 11.11.2020
1965 Clear 20 1022 67 10000 1.79 44 15:41 11.11.2020
1966 Clear 20 1022 68 10000 3.6 30 15:23 11.11.2020
1967 Clear 20 1022 68 10000 3.6 30 14:47 11.11.2020
1968 Clear 20 1023 68 10000 4.1 30 14:28 11.11.2020
1969 Clear 20 1023 68 10000 4.6 40 13:49 11.11.2020
1970 Clear 20 1022 68 10000 1.55 23 13:24 11.11.2020
1971 Clear 20 1022 68 10000 1.14 30 12:22 11.11.2020
1972 Clear 20 1023 71 10000 1.14 30 11:58 11.11.2020
1973 Clear 20 1024 77 10000 1.5 270 11:40 11.11.2020
1974 Clear 20 1024 77 10000 1.5 270 11:20 11.11.2020
1975 Clear 19 1024 72 10000 1.5 250 10:38 11.11.2020
1976 Clear 18 1024 81 10000 0.68 7 10:19 11.11.2020
1977 Clear 17 1024 85 10000 0.68 7 09:43 11.11.2020
1978 Clear 17 1024 85 10000 0.15 360 09:24 11.11.2020
1979 Clear 16 1024 91 10000 0.15 360 08:45 11.11.2020
1980 Clear 15 1024 91 10000 0.34 221 08:25 11.11.2020
1981 Clear 15 1024 87 10000 1 0 07:49 11.11.2020
1982 Clear 15 1023 76 10000 2.1 190 06:33 11.11.2020
1983 Clear 14 1023 92 10000 0.47 192 05:52 11.11.2020
1984 Clear 14 1022 96 10000 0.86 161 02:48 11.11.2020
1985 Clear 15 1024 76 10000 0.5 0 00:58 11.11.2020
1986 Clear 15 1024 76 10000 0.5 0 00:58 11.11.2020
1987 Clear 15 1023 77 10000 1.5 150 00:26 11.11.2020
1988 Clear 16 1023 82 10000 4.1 70 23:42 10.11.2020
1989 Clear 16 1023 82 10000 4.1 70 23:23 10.11.2020
1990 Clear 16 1023 87 10000 4.1 70 22:52 10.11.2020
1991 Clear 16 1023 77 10000 4.1 60 22:27 10.11.2020
1992 Clear 16 1023 87 10000 1.2 120 21:43 10.11.2020
1993 Clear 16 1023 86 10000 1.2 111 21:25 10.11.2020
1994 Clear 16 1023 86 10000 1.2 111 20:58 10.11.2020
1995 Clear 16 1023 85 10000 1.2 111 20:40 10.11.2020
1996 Clear 16 1023 85 10000 1 97 20:22 10.11.2020
1997 Clear 16 1023 83 10000 1 97 19:47 10.11.2020
1998 Clear 17 1023 82 10000 0.93 84 19:28 10.11.2020
1999 Clear 17 1022 82 10000 0.93 84 18:57 10.11.2020
2000 Clear 18 1022 81 10000 0.84 89 18:38 10.11.2020
2001 Clear 18 1022 80 10000 0.87 69 18:18 10.11.2020
2002 Clear 18 1022 80 10000 0.87 69 18:18 10.11.2020
2003 Clear 18 1022 68 10000 5.1 50 17:42 10.11.2020
2004 Clear 18 1022 76 10000 1.16 57 17:24 10.11.2020
2005 Clear 19 1021 74 10000 1.16 57 16:43 10.11.2020
2006 Clear 18 1021 73 10000 1.61 48 16:24 10.11.2020
2007 Clear 20 1021 67 10000 1.61 48 15:56 10.11.2020
2008 Clear 21 1021 61 10000 1.61 48 15:37 10.11.2020
2009 Clear 20 1022 68 10000 6.2 40 15:19 10.11.2020
2010 Clear 20 1022 68 10000 5.7 40 14:41 10.11.2020
2011 Clear 20 1022 64 10000 5.7 40 14:21 10.11.2020
2012 Clear 20 1022 68 10000 5.7 40 13:41 10.11.2020
2013 Clear 21 1021 61 10000 2.04 39 13:23 10.11.2020
2014 Clear 21 1021 61 10000 2.04 39 12:58 10.11.2020
2015 Clear 21 1021 62 10000 2.07 42 12:38 10.11.2020
2016 Clear 20 1022 63 10000 1.69 41 12:20 10.11.2020
2017 Clear 19 1022 67 10000 1.69 41 11:38 10.11.2020
2018 Clear 20 1022 69 10000 1.42 56 11:19 10.11.2020
2019 Clear 20 1022 70 10000 1.42 56 11:19 10.11.2020
2020 Clear 19 1022 76 10000 1.42 56 10:42 10.11.2020
2021 Clear 18 1023 78 10000 1.24 77 10:24 10.11.2020
2022 Clear 18 1023 86 10000 1.24 77 09:51 10.11.2020
2023 Clear 17 1022 90 10000 0.97 101 09:26 10.11.2020
2024 Clear 16 1022 95 10000 0.97 101 08:57 10.11.2020
2025 Rain 15 1022 99 10000 0.97 129 08:30 10.11.2020
2026 Rain 13 1022 76 10000 0.97 129 07:51 10.11.2020
2027 Clear 13 1022 82 10000 1.5 170 07:27 10.11.2020
2028 Clear 13 1022 82 10000 1 0 06:58 10.11.2020
2029 Clear 13 1022 82 10000 2.1 150 06:37 10.11.2020
2030 Clear 13 1022 93 10000 1 0 05:27 10.11.2020
2031 Clear 13 1022 98 10000 0.81 131 02:59 10.11.2020
2032 Clear 14 1022 95 10000 0.61 143 01:40 10.11.2020
2033 Clear 14 1022 93 10000 1.09 148 00:30 10.11.2020
2034 Clear 15 1022 92 10000 1.42 139 23:42 09.11.2020
2035 Clear 15 1022 90 10000 1.55 129 22:58 09.11.2020
2036 Clear 15 1022 89 10000 1.43 118 22:40 09.11.2020
2037 Clear 15 1022 88 10000 1.43 118 22:19 09.11.2020
2038 Clear 16 1022 88 10000 1.43 118 21:40 09.11.2020
2039 Clear 16 1022 87 10000 1.37 108 21:21 09.11.2020
2040 Clear 16 1022 86 10000 1.37 108 20:41 09.11.2020
2041 Clear 16 1022 85 10000 1.31 93 20:21 09.11.2020
2042 Clear 17 1022 82 10000 1.31 93 19:46 09.11.2020
2043 Clear 17 1022 81 10000 1.37 75 19:23 09.11.2020
2044 Clear 17 1022 79 10000 1.37 75 18:57 09.11.2020
2045 Clear 18 1022 72 10000 6.2 50 18:38 09.11.2020
2046 Clear 17 1022 72 10000 5.7 50 18:18 09.11.2020
2047 Clear 17 1022 68 10000 5.7 50 17:43 09.11.2020
2048 Clear 18 1022 74 10000 1.67 64 17:25 09.11.2020
2049 Clear 19 1022 68 10000 6.7 50 16:44 09.11.2020
2050 Clear 19 1021 66 10000 1.96 46 16:20 09.11.2020
2051 Clear 20 1022 64 10000 6.2 40 15:44 09.11.2020
2052 Clear 20 1022 64 10000 6.2 40 15:25 09.11.2020
2053 Clear 20 1022 64 10000 6.2 40 14:46 09.11.2020
2054 Clear 20 1022 64 10000 6.2 40 14:28 09.11.2020
2055 Clear 20 1022 60 10000 5.7 40 13:52 09.11.2020
2056 Clear 20 1021 64 10000 1.93 45 13:25 09.11.2020
2057 Clear 20 1022 63 10000 1.93 45 12:57 09.11.2020
2058 Clear 20 1022 64 10000 1.92 42 12:39 09.11.2020
2059 Clear 20 1022 64 10000 1.75 48 12:20 09.11.2020
2060 Clear 20 1023 66 10000 1.75 48 11:42 09.11.2020
2061 Clear 20 1023 67 10000 0.45 272 11:24 09.11.2020
2062 Clear 20 1023 67 10000 0.45 272 11:24 09.11.2020
2063 Clear 19 1023 73 10000 1.62 62 10:44 09.11.2020
2064 Clear 19 1023 75 10000 1.63 81 10:25 09.11.2020
2065 Clear 19 1023 79 10000 1.63 81 09:54 09.11.2020
2066 Clear 18 1023 82 10000 1.76 94 09:29 09.11.2020
2067 Clear 17 1023 94 10000 1.76 94 08:50 09.11.2020
2068 Clear 16 1023 97 10000 1.91 101 08:27 09.11.2020
2069 Clear 14 1023 99 10000 1.91 101 07:44 09.11.2020
2070 Clear 14 1023 99 10000 1.81 94 07:22 09.11.2020
2071 Clear 14 1022 99 10000 2.03 105 06:51 09.11.2020
2072 Clear 15 1023 98 10000 1.86 76 03:51 09.11.2020
2073 Clear 15 1023 98 10000 1.56 57 01:57 09.11.2020
2074 Clear 15 1023 77 10000 3.1 60 01:39 09.11.2020
2075 Clear 15 1023 98 10000 1.56 59 00:40 09.11.2020
2076 Clear 15 1023 97 10000 0.99 55 23:40 08.11.2020
2077 Clear 15 1023 97 10000 0.55 57 23:22 08.11.2020
2078 Clear 16 1023 97 10000 0.55 57 22:42 08.11.2020
2079 Clear 16 1023 96 10000 0.65 77 22:21 08.11.2020
2080 Clear 16 1023 96 10000 0.65 77 21:46 08.11.2020
2081 Clear 16 1023 95 10000 1.04 80 21:21 08.11.2020
2082 Clear 16 1024 93 10000 1.04 80 20:57 08.11.2020
2083 Clear 16 1024 93 10000 1.04 80 20:38 08.11.2020
2084 Clear 16 1024 92 10000 1.34 78 20:19 08.11.2020
2085 Clear 16 1024 90 10000 1.34 78 19:45 08.11.2020
2086 Clouds 17 1024 88 10000 1.4 70 19:21 08.11.2020
2087 Clouds 17 1023 88 10000 1.4 70 18:56 08.11.2020
2088 Clouds 17 1024 87 10000 1.54 91 18:38 08.11.2020
2089 Clouds 17 1024 87 10000 1.54 91 18:38 08.11.2020
2090 Clouds 17 1024 84 10000 1.71 76 18:20 08.11.2020
2091 Clouds 17 1024 83 10000 1.71 76 17:42 08.11.2020
2092 Clouds 18 1024 80 10000 1.82 56 17:20 08.11.2020
2093 Clouds 18 1023 79 10000 1.82 56 16:57 08.11.2020
2094 Clouds 18 1023 79 10000 1.82 56 16:57 08.11.2020
2095 Clouds 18 1023 78 10000 1.82 56 16:38 08.11.2020
2096 Clear 19 1023 78 10000 2.15 34 16:19 08.11.2020
2097 Clear 19 1023 78 10000 2.15 34 15:45 08.11.2020
2098 Clear 20 1023 76 10000 2.34 24 15:26 08.11.2020
2099 Clear 20 1024 71 10000 2.34 24 14:43 08.11.2020
2100 Clear 20 1024 69 10000 2.27 13 14:24 08.11.2020
2101 Clear 20 1024 69 10000 0.45 3 13:56 08.11.2020
2102 Clear 20 1024 72 10000 0.89 345 13:26 08.11.2020
2103 Clear 20 1024 70 10000 0.45 4 12:57 08.11.2020
2104 Clear 20 1024 70 10000 0.89 358 12:39 08.11.2020
2105 Clear 20 1025 73 10000 1.34 4 12:19 08.11.2020
2106 Clear 20 1025 73 10000 0.89 354 11:55 08.11.2020
2107 Clear 20 1025 73 10000 0.45 13 11:36 08.11.2020
2108 Clear 20 1025 72 10000 0.89 356 11:18 08.11.2020
2109 Clear 20 1026 76 10000 1.69 358 10:41 08.11.2020
2110 Clouds 19 1026 79 10000 1.39 6 10:18 08.11.2020
2111 Clouds 18 1026 87 10000 1.39 6 09:41 08.11.2020
2112 Clouds 18 1026 90 10000 0.85 346 09:19 08.11.2020
2113 Clouds 16 1026 96 10000 0.85 346 08:45 08.11.2020
2114 Clouds 16 1026 98 10000 0.19 238 08:23 08.11.2020
2115 Clear 15 1026 87 10000 1 130 07:53 08.11.2020
2116 Clouds 14 1026 99 10000 0.19 238 07:31 08.11.2020
2117 Clear 15 1026 87 10000 1 150 06:29 08.11.2020
2118 Clear 15 1026 82 10000 1 140 05:54 08.11.2020
2119 Clear 15 1026 87 10000 0.5 0 04:51 08.11.2020
2120 Clear 15 1026 97 10000 0.69 144 03:25 08.11.2020
2121 Clear 15 1026 97 10000 0.67 246 01:19 08.11.2020
2122 Clear 15 1026 97 10000 0.67 246 01:19 08.11.2020
2123 Clear 15 1026 97 10000 0.67 246 01:19 08.11.2020
2124 Clear 16 1027 95 10000 0.76 233 00:31 08.11.2020
2125 Clear 16 1027 94 10000 0.89 206 23:57 07.11.2020
2126 Clear 16 1027 95 10000 0.89 206 23:38 07.11.2020
2127 Clear 16 1027 96 10000 1.18 175 23:19 07.11.2020
2128 Clear 16 1027 96 10000 1.18 175 22:40 07.11.2020
2129 Clear 16 1027 96 10000 1.18 161 22:20 07.11.2020
2130 Clear 17 1027 94 10000 1.18 161 21:43 07.11.2020
2131 Clear 17 1027 94 10000 1.16 149 21:19 07.11.2020
2132 Clear 17 1027 93 10000 1.16 149 20:47 07.11.2020
2133 Clear 17 1027 92 10000 1.03 147 20:29 07.11.2020
2134 Clear 18 1027 91 10000 1.03 147 19:50 07.11.2020
2135 Clear 18 1027 90 10000 0.92 128 19:28 07.11.2020
2136 Clear 18 1027 88 10000 0.92 128 18:55 07.11.2020
2137 Clear 19 1027 72 10000 2.1 50 18:37 07.11.2020
2138 Clouds 18 1026 86 10000 1.55 113 18:18 07.11.2020
2139 Clear 19 1027 72 10000 3.1 50 17:38 07.11.2020
2140 Clouds 19 1026 80 10000 1.71 91 16:58 07.11.2020
2141 Clear 20 1026 68 10000 4.6 40 16:40 07.11.2020
2142 Clear 20 1026 64 10000 4.6 40 16:21 07.11.2020
2143 Clear 21 1026 60 10000 4.6 50 15:43 07.11.2020
2144 Clear 21 1026 60 10000 4.6 50 15:23 07.11.2020
2145 Clear 19 1026 60 10000 4.6 40 14:48 07.11.2020
2146 Clear 20 1027 64 10000 3.6 40 14:29 07.11.2020
2147 Clear 20 1027 64 10000 2.6 30 13:56 07.11.2020
2148 Clear 22 1027 68 10000 2.1 30 13:31 07.11.2020
2149 Clear 21 1027 72 10000 2.1 20 12:55 07.11.2020
2150 Clear 21 1026 67 10000 1.56 42 12:30 07.11.2020
2151 Clear 21 1026 69 10000 1.5 43 11:45 07.11.2020
2152 Clear 21 1027 69 10000 1.02 26 11:24 07.11.2020
2153 Clear 20 1027 72 10000 1.02 26 10:46 07.11.2020
2154 Clear 20 1027 75 10000 0.36 11 10:27 07.11.2020
2155 Clear 19 1027 81 10000 0.36 11 09:57 07.11.2020
2156 Clear 18 1027 85 10000 0.36 11 09:37 07.11.2020
2157 Clear 17 1027 96 10000 0.33 167 08:56 07.11.2020
2158 Clear 17 1027 97 10000 0.33 167 08:37 07.11.2020
2159 Clear 16 1026 77 10000 1 0 07:56 07.11.2020
2160 Clear 14 1026 77 10000 0.5 0 07:32 07.11.2020
2161 Clear 15 1026 82 10000 1.5 160 06:48 07.11.2020
2162 Clouds 15 1026 82 10000 1.5 170 05:37 07.11.2020
2163 Clear 15 1025 97 10000 2 138 03:24 07.11.2020
2164 Clear 16 1025 96 10000 2.12 131 01:43 07.11.2020
2165 Clear 16 1025 96 10000 2.11 128 01:24 07.11.2020
2166 Clear 16 1025 95 10000 2.11 134 00:22 07.11.2020
2167 Clear 16 1025 93 10000 2.22 127 23:25 06.11.2020
2168 Clear 17 1025 91 10000 2.22 127 22:45 06.11.2020
2169 Clear 17 1025 91 10000 2.22 127 22:45 06.11.2020
2170 Clear 16 1026 90 10000 2.09 119 22:20 06.11.2020
2171 Clear 17 1025 90 10000 2.09 119 21:56 06.11.2020
2172 Clear 18 1026 90 10000 2.09 119 21:37 06.11.2020
2173 Clear 18 1025 89 10000 2.11 105 21:18 06.11.2020
2174 Clouds 18 1026 77 10000 4.1 70 20:43 06.11.2020
2175 Clouds 17 1025 72 10000 4.6 80 20:19 06.11.2020
2176 Clouds 17 1026 77 10000 3.6 70 19:45 06.11.2020
2177 Clouds 18 1026 77 10000 3.6 70 19:26 06.11.2020
2178 Clouds 19 1025 72 10000 5.1 70 18:47 06.11.2020
2179 Clouds 19 1025 68 10000 5.1 60 18:28 06.11.2020
2180 Clear 18 1025 81 10000 2.13 78 17:52 06.11.2020
2181 Clear 18 1025 80 10000 2.13 78 17:31 06.11.2020
2182 Clear 19 1025 79 10000 2.14 71 16:59 06.11.2020
2183 Clear 19 1025 77 10000 2.14 71 16:37 06.11.2020
2184 Clear 20 1025 74 10000 2.52 65 16:19 06.11.2020
2185 Clouds 20 1025 72 10000 5.1 50 15:33 06.11.2020
2186 Clear 21 1025 72 10000 2.72 63 14:55 06.11.2020
2187 Clear 21 1025 69 10000 1.34 5 14:30 06.11.2020
2188 Clear 20 1025 75 10000 2.66 62 13:56 06.11.2020
2189 Clouds 21 1025 71 10000 2.72 64 13:26 06.11.2020
2190 Clouds 20 1026 72 10000 5.7 50 12:59 06.11.2020
2191 Clear 21 1025 75 10000 0.45 2 12:40 06.11.2020
2192 Clouds 20 1025 77 10000 2.69 58 12:21 06.11.2020
2193 Clouds 20 1026 68 10000 4.1 70 11:37 06.11.2020
2194 Clouds 20 1026 68 10000 3.6 50 10:59 06.11.2020
2195 Clouds 19 1026 81 10000 2.55 57 10:36 06.11.2020
2196 Clouds 19 1026 82 10000 0.89 357 09:58 06.11.2020
2197 Clouds 19 1026 84 10000 0.45 317 09:38 06.11.2020
2198 Clouds 19 1026 82 10000 0.5 0 09:20 06.11.2020
2199 Clouds 18 1026 91 10000 2.15 68 08:47 06.11.2020
2200 Clouds 18 1026 94 10000 2.1 64 08:28 06.11.2020
2201 Clouds 17 1025 99 10000 2.1 64 07:44 06.11.2020
2202 Clouds 16 1025 99 10000 1.77 54 07:19 06.11.2020
2203 Clouds 16 1025 99 10000 1.83 67 06:40 06.11.2020
2204 Clouds 15 1025 99 10000 1.68 63 05:39 06.11.2020
2205 Clear 16 1025 97 10000 0.99 69 02:52 06.11.2020
2206 Clear 16 1025 96 10000 1.26 92 00:34 06.11.2020
2207 Clear 17 1025 94 10000 1.39 94 23:56 05.11.2020
2208 Clear 17 1025 93 10000 1.54 88 23:26 05.11.2020
2209 Clear 17 1025 92 10000 1.54 88 22:48 05.11.2020
2210 Clear 17 1025 91 10000 1.48 86 22:26 05.11.2020
2211 Clear 17 1025 88 10000 1.48 86 21:57 05.11.2020
2212 Clear 18 1025 88 10000 1.48 86 21:38 05.11.2020
2213 Clear 18 1025 87 10000 1.37 98 21:19 05.11.2020
2214 Clear 18 1025 77 10000 4.6 60 20:44 05.11.2020
2215 Clear 18 1025 77 10000 4.6 60 20:24 05.11.2020
2216 Clear 18 1025 72 10000 5.1 60 19:57 05.11.2020
2217 Clear 18 1025 72 10000 5.7 70 19:38 05.11.2020
2218 Clear 18 1025 87 10000 1.45 68 19:18 05.11.2020
2219 Clear 18 1024 77 10000 6.7 60 18:41 05.11.2020
2220 Clear 18 1024 86 10000 1.74 60 18:22 05.11.2020
2221 Clear 19 1024 72 10000 6.7 50 17:46 05.11.2020
2222 Clear 19 1024 85 10000 2.16 51 17:25 05.11.2020
2223 Clear 19 1024 82 10000 2.16 51 16:49 05.11.2020
2224 Clear 19 1024 81 10000 2.25 36 16:28 05.11.2020
2225 Clear 20 1024 68 10000 5.1 60 15:55 05.11.2020
2226 Clear 20 1024 68 10000 6.7 60 15:36 05.11.2020
2227 Clouds 21 1024 68 10000 5.7 50 15:18 05.11.2020
2228 Clouds 21 1024 64 10000 5.1 60 14:42 05.11.2020
2229 Clouds 21 1024 64 10000 5.1 60 14:23 05.11.2020
2230 Clouds 22 1024 68 10000 4.1 30 13:40 05.11.2020
2231 Clouds 21 1025 68 10000 3.1 30 13:18 05.11.2020
2232 Clouds 21 1025 72 10000 2.6 20 12:42 05.11.2020
2233 Clouds 21 1025 72 10000 2.6 20 12:23 05.11.2020
2234 Clouds 21 1024 69 10000 2.12 48 11:43 05.11.2020
2235 Clouds 21 1025 72 10000 1.5 350 11:23 05.11.2020
2236 Clouds 21 1025 70 10000 1.97 53 10:49 05.11.2020
2237 Clouds 20 1025 72 10000 2.6 240 10:28 05.11.2020
2238 Clouds 19 1025 81 10000 1.6 61 09:50 05.11.2020
2239 Clouds 19 1024 85 10000 1.15 85 09:25 05.11.2020
2240 Clouds 18 1024 93 10000 1.15 85 08:55 05.11.2020
2241 Clouds 17 1024 98 10000 1.06 107 08:36 05.11.2020
2242 Clouds 16 1024 99 10000 1.06 107 08:18 05.11.2020
2243 Clouds 15 1024 99 10000 1.18 118 07:28 05.11.2020
2244 Clear 15 1024 87 10000 1.5 170 06:50 05.11.2020
2245 Clear 15 1024 87 10000 2.1 160 06:32 05.11.2020
2246 Clear 16 1023 77 10000 1 200 03:45 05.11.2020
2247 Clouds 16 1023 95 10000 2.04 96 00:45 05.11.2020
2248 Clouds 16 1023 94 10000 1.78 112 00:20 05.11.2020
2249 Clouds 16 1023 93 10000 1.78 112 23:43 04.11.2020
2250 Clouds 16 1023 93 10000 1.85 108 23:24 04.11.2020
2251 Clouds 16 1023 92 10000 1.85 108 22:42 04.11.2020
2252 Clouds 16 1022 92 10000 2.13 113 22:22 04.11.2020
2253 Clouds 16 1022 91 10000 2.13 113 21:47 04.11.2020
2254 Clouds 17 1022 90 10000 2 108 21:27 04.11.2020
2255 Clouds 17 1022 89 10000 2 108 20:54 04.11.2020
2256 Clouds 17 1022 89 10000 2 108 20:35 04.11.2020
2257 Clouds 17 1022 87 10000 2.01 113 19:59 04.11.2020
2258 Clouds 17 1021 86 10000 2.01 113 19:40 04.11.2020
2259 Clouds 17 1021 85 10000 2.29 107 19:22 04.11.2020
2260 Clouds 18 1021 83 10000 2.39 99 18:41 04.11.2020
2261 Clouds 18 1021 82 10000 2.22 89 18:23 04.11.2020
2262 Clouds 18 1021 80 10000 2.22 89 17:48 04.11.2020
2263 Clouds 18 1021 80 10000 2.22 89 17:48 04.11.2020
2264 Clouds 18 1021 79 10000 2.24 73 17:27 04.11.2020
2265 Clouds 19 1021 77 10000 2.24 73 16:57 04.11.2020
2266 Clouds 19 1021 75 10000 2.24 73 16:37 04.11.2020
2267 Clouds 19 1021 73 10000 2.11 63 16:18 04.11.2020
2268 Clear 20 1021 64 10000 5.1 60 15:42 04.11.2020
2269 Clear 21 1021 64 10000 5.1 60 15:23 04.11.2020
2270 Clear 20 1021 64 10000 4.6 50 14:46 04.11.2020
2271 Clear 21 1021 68 10000 3.1 30 14:25 04.11.2020
2272 Clear 20 1021 68 10000 2.6 20 13:53 04.11.2020
2273 Clear 20 1020 71 10000 1.55 49 13:22 04.11.2020
2274 Clouds 20 1020 69 10000 1.41 43 12:59 04.11.2020
2275 Clouds 20 1020 69 10000 1.41 43 12:59 04.11.2020
2276 Clouds 20 1020 69 10000 1.41 43 12:41 04.11.2020
2277 Clear 20 1020 70 10000 1.29 43 12:22 04.11.2020
2278 Clear 20 1020 68 10000 1.29 43 11:46 04.11.2020
2279 Clear 20 1021 69 10000 0.96 67 11:23 04.11.2020
2280 Clear 20 1021 71 10000 0.96 67 10:51 04.11.2020
2281 Clear 19 1021 72 10000 1.24 90 10:24 04.11.2020
2282 Clear 18 1021 77 10000 1.24 90 09:56 04.11.2020
2283 Clear 18 1021 81 10000 1.59 102 09:29 04.11.2020
2284 Clear 17 1021 87 10000 1.59 102 08:58 04.11.2020
2285 Clear 16 1021 91 10000 1.59 102 08:39 04.11.2020
2286 Clear 16 1021 94 10000 1.85 113 08:18 04.11.2020
2287 Clear 16 1021 94 10000 1.85 113 08:18 04.11.2020
2288 Clear 15 1021 96 10000 1.85 113 07:40 04.11.2020
2289 Clouds 15 1021 98 10000 1.68 110 07:21 04.11.2020
2290 Clouds 14 1021 99 10000 1.61 113 06:40 04.11.2020
2291 Clear 14 1021 87 10000 1 220 05:39 04.11.2020
2292 Clear 15 1022 87 10000 1.5 90 02:31 04.11.2020
2293 Clear 15 1022 82 10000 1.5 160 01:39 04.11.2020
2294 Clear 15 1022 77 10000 0.5 180 00:25 04.11.2020
2295 Clouds 16 1022 86 10000 1.76 120 23:30 03.11.2020
2296 Clouds 16 1022 86 10000 1.94 108 22:59 03.11.2020
2297 Clouds 16 1022 85 10000 1.94 108 22:40 03.11.2020
2298 Clouds 16 1022 85 10000 1.96 105 22:20 03.11.2020
2299 Clouds 16 1022 83 10000 1.96 105 21:43 03.11.2020
2300 Clouds 16 1022 82 10000 1.99 104 21:25 03.11.2020
2301 Clouds 16 1022 81 10000 1.99 104 20:56 03.11.2020
2302 Clouds 17 1022 81 10000 1.99 104 20:38 03.11.2020
2303 Clouds 17 1022 80 10000 1.87 105 20:18 03.11.2020
2304 Clouds 17 1022 78 10000 1.87 105 19:41 03.11.2020
2305 Clouds 17 1022 77 10000 2.28 104 19:19 03.11.2020
2306 Clouds 17 1022 75 10000 2.28 104 18:41 03.11.2020
2307 Clouds 18 1022 73 10000 2.31 86 18:19 03.11.2020
2308 Clouds 18 1022 72 10000 2.31 86 17:53 03.11.2020
2309 Clouds 18 1022 70 10000 2.31 86 17:34 03.11.2020
2310 Clouds 19 1022 68 10000 2.17 76 16:52 03.11.2020
2311 Clouds 20 1022 66 10000 2.41 70 16:31 03.11.2020
2312 Clouds 20 1022 60 10000 2.41 70 15:59 03.11.2020
2313 Clouds 20 1022 60 10000 7.7 50 15:40 03.11.2020
2314 Clouds 21 1022 56 10000 7.2 50 15:20 03.11.2020
2315 Clouds 21 1022 60 10000 6.7 50 14:46 03.11.2020
2316 Clouds 21 1022 60 10000 6.7 50 14:27 03.11.2020
2317 Clouds 21 1023 64 10000 6.2 40 13:42 03.11.2020
2318 Clouds 21 1022 66 10000 2.35 50 13:22 03.11.2020
2319 Clouds 21 1023 66 10000 2.35 50 12:48 03.11.2020
2320 Clouds 21 1023 67 10000 2.29 51 12:27 03.11.2020
2321 Clouds 21 1023 67 10000 2.29 51 11:57 03.11.2020
2322 Clouds 20 1023 67 10000 2.29 51 11:39 03.11.2020
2323 Clouds 20 1023 67 10000 1.76 63 11:18 03.11.2020
2324 Clouds 20 1024 70 10000 0.45 261 10:39 03.11.2020
2325 Clouds 19 1024 74 10000 1.75 83 10:19 03.11.2020
2326 Clouds 19 1024 78 10000 1.75 83 09:48 03.11.2020
2327 Clouds 19 1024 80 10000 2.09 94 09:27 03.11.2020
2328 Clouds 19 1024 87 10000 2.09 94 08:52 03.11.2020
2329 Clouds 18 1024 94 10000 2.29 90 08:34 03.11.2020
2330 Clouds 16 1023 97 10000 2.29 90 07:49 03.11.2020
2331 Clouds 15 1023 96 10000 1.82 91 07:22 03.11.2020
2332 Clouds 15 1023 96 10000 1.87 88 06:44 03.11.2020
2333 Clouds 15 1023 94 10000 1.56 81 04:54 03.11.2020
2334 Clouds 16 1023 88 10000 2 109 00:53 03.11.2020
2335 Clouds 16 1023 87 10000 2 109 00:30 03.11.2020
2336 Clouds 17 1024 84 10000 2.23 101 23:47 02.11.2020
2337 Clouds 17 1024 84 10000 2.19 106 23:29 02.11.2020
2338 Clouds 17 1024 83 10000 2.19 106 22:49 02.11.2020
2339 Clouds 17 1024 82 10000 2.27 115 22:30 02.11.2020
2340 Clouds 17 1024 82 10000 2.27 115 21:58 02.11.2020
2341 Clouds 17 1024 82 10000 2.27 115 21:37 02.11.2020
2342 Clouds 18 1024 82 10000 2.39 116 21:19 02.11.2020
2343 Clouds 17 1024 83 10000 2.39 116 20:39 02.11.2020
2344 Clouds 17 1024 83 10000 2.58 112 20:20 02.11.2020
2345 Clouds 17 1024 82 10000 2.58 112 19:45 02.11.2020
2346 Clear 17 1023 81 10000 2.57 96 19:27 02.11.2020
2347 Clear 18 1023 80 10000 2.57 96 18:56 02.11.2020
2348 Clear 18 1023 79 10000 2.76 96 18:38 02.11.2020
2349 Clear 18 1023 79 10000 2.76 96 18:19 02.11.2020
2350 Clear 18 1023 77 10000 2.76 96 17:41 02.11.2020
2351 Clear 19 1023 76 10000 2.94 79 17:23 02.11.2020
2352 Clear 19 1023 71 10000 2.94 79 16:49 02.11.2020
2353 Clear 20 1023 67 10000 2.85 65 16:30 02.11.2020
2354 Clear 20 1023 60 10000 7.2 50 15:57 02.11.2020
2355 Clear 21 1023 64 10000 7.7 50 15:38 02.11.2020
2356 Clear 21 1023 64 10000 7.7 50 15:38 02.11.2020
2357 Clear 21 1023 60 10000 7.7 50 15:19 02.11.2020
2358 Clear 21 1023 60 10000 7.7 50 15:19 02.11.2020
2359 Clear 21 1023 56 10000 7.2 50 14:43 02.11.2020
2360 Clear 21 1023 56 10000 7.2 50 14:19 02.11.2020
2361 Clear 21 1023 60 10000 7.7 50 13:48 02.11.2020
2362 Clear 21 1023 68 10000 2.52 54 13:22 02.11.2020
2363 Clear 21 1023 69 10000 2.52 54 12:51 02.11.2020
2364 Clear 21 1023 70 10000 2.09 55 12:28 02.11.2020
2365 Clear 21 1024 70 10000 2.09 55 11:46 02.11.2020
2366 Clear 21 1024 71 10000 1.72 65 11:21 02.11.2020
2367 Clear 20 1024 74 10000 1.72 65 10:48 02.11.2020
2368 Clear 20 1025 75 10000 1.41 89 10:26 02.11.2020
2369 Clear 20 1024 82 10000 1.41 89 09:56 02.11.2020
2370 Clear 19 1024 87 10000 1.62 121 09:30 02.11.2020
2371 Clear 19 1024 86 10000 1.62 121 09:30 02.11.2020
2372 Clear 18 1024 95 10000 1.62 121 08:59 02.11.2020
2373 Clear 17 1024 99 10000 1.62 121 08:39 02.11.2020
2374 Clear 16 1024 99 10000 1.92 130 08:19 02.11.2020
2375 Clear 15 1023 99 10000 1.92 130 07:42 02.11.2020
2376 Clouds 15 1023 99 10000 1.81 120 06:46 02.11.2020
2377 Clouds 15 1023 99 10000 1.68 114 05:39 02.11.2020
2378 Clear 15 1023 97 10000 1.77 122 01:35 02.11.2020
2379 Clear 16 1023 95 10000 1.71 109 00:41 02.11.2020
2380 Clear 16 1023 94 10000 1.69 99 00:23 02.11.2020
2381 Clear 16 1023 92 10000 1.69 99 23:40 01.11.2020
2382 Clear 16 1023 92 10000 1.43 90 23:21 01.11.2020
2383 Clear 17 1023 91 10000 1.43 90 22:44 01.11.2020
2384 Clouds 18 1023 90 10000 0.78 121 22:23 01.11.2020
2385 Clouds 17 1023 89 10000 0.78 121 21:46 01.11.2020
2386 Clouds 17 1023 88 10000 0.85 130 21:26 01.11.2020
2387 Clouds 17 1023 87 10000 0.85 130 20:51 01.11.2020
2388 Clouds 18 1023 87 10000 1.76 140 20:29 01.11.2020
2389 Clouds 18 1023 87 10000 1.76 140 19:58 01.11.2020
2390 Clouds 18 1023 88 10000 1.76 140 19:39 01.11.2020
2391 Clouds 18 1023 88 10000 1.76 140 19:39 01.11.2020
2392 Clear 18 1023 88 10000 2.43 116 19:20 01.11.2020
2393 Clear 18 1023 88 10000 2.43 116 18:40 01.11.2020
2394 Clouds 18 1022 87 10000 2.09 105 18:19 01.11.2020
2395 Clouds 18 1022 86 10000 2.09 105 17:56 01.11.2020
2396 Clouds 18 1022 86 10000 2.09 105 17:37 01.11.2020
2397 Clouds 18 1022 85 10000 2.1 86 17:18 01.11.2020
2398 Clouds 19 1022 82 10000 2.1 86 16:39 01.11.2020
2399 Clouds 20 1022 80 10000 2.63 51 16:19 01.11.2020
2400 Clouds 20 1023 77 10000 2.63 51 15:40 01.11.2020
2401 Clouds 21 1022 78 10000 2.69 40 15:21 01.11.2020
2402 Clouds 21 1023 76 10000 2.69 40 14:54 01.11.2020
2403 Clouds 21 1023 76 10000 2.69 40 14:36 01.11.2020
2404 Clouds 21 1023 75 10000 2.77 34 14:18 01.11.2020
2405 Clouds 21 1022 75 10000 2.77 34 13:44 01.11.2020
2406 Clouds 22 1022 74 10000 2.6 48 13:26 01.11.2020
2407 Clouds 21 1022 77 10000 0.45 305 12:43 01.11.2020
2408 Clouds 21 1022 78 10000 2.21 77 12:22 01.11.2020
2409 Clouds 21 1022 77 10000 2.21 77 11:50 01.11.2020
2410 Clouds 21 1022 78 10000 2 86 11:19 01.11.2020
2411 Clouds 21 1023 79 10000 2 86 10:43 01.11.2020
2412 Clouds 20 1023 82 10000 1.61 74 10:24 01.11.2020
2413 Clouds 20 1023 86 10000 0.45 244 09:53 01.11.2020
2414 Clouds 20 1023 91 10000 1.61 74 09:34 01.11.2020
2415 Clouds 18 1023 99 10000 1.35 97 08:46 01.11.2020
2416 Clouds 17 1023 99 10000 1.1 113 08:19 01.11.2020
2417 Clouds 15 1023 99 10000 1.1 113 07:35 01.11.2020
2418 Clear 15 1023 99 10000 0.99 83 03:54 01.11.2020
2419 Clear 16 1023 99 10000 0.94 104 01:49 01.11.2020
2420 Clear 16 1023 99 10000 1.29 127 00:26 01.11.2020
2421 Clear 16 1023 99 10000 1.3 140 23:25 31.10.2020
2422 Clear 16 1023 98 10000 1.3 140 22:57 31.10.2020
2423 Clear 16 1023 97 10000 1.3 140 22:37 31.10.2020
2424 Clear 17 1023 97 10000 1.41 146 22:19 31.10.2020
2425 Clear 17 1023 95 10000 1.41 146 21:43 31.10.2020
2426 Clear 17 1023 94 10000 1.33 139 21:19 31.10.2020
2427 Clear 17 1023 94 10000 1.33 139 20:38 31.10.2020
2428 Clear 17 1023 93 10000 1.17 126 20:18 31.10.2020
2429 Clear 18 1023 91 10000 1.17 126 19:41 31.10.2020
2430 Clear 18 1023 90 10000 1.25 105 19:22 31.10.2020
2431 Clear 18 1023 90 10000 1.25 105 18:47 31.10.2020
2432 Clear 18 1023 89 10000 1.54 80 18:24 31.10.2020
2433 Clear 19 1023 88 10000 1.54 80 17:40 31.10.2020
2434 Clear 19 1023 87 10000 1.83 59 17:22 31.10.2020
2435 Clouds 20 1023 77 10000 4.6 30 16:44 31.10.2020
2436 Clear 20 1023 85 10000 0.45 341 16:26 31.10.2020
2437 Clear 20 1023 85 10000 0.45 356 15:45 31.10.2020
2438 Clear 20 1023 85 10000 0.89 345 15:25 31.10.2020
2439 Clear 20 1023 83 10000 0.45 2 14:52 31.10.2020
2440 Clear 20 1023 80 10000 2.16 17 14:31 31.10.2020
2441 Clear 21 1023 75 10000 1.34 3 13:51 31.10.2020
2442 Clear 21 1023 74 10000 0.45 355 13:28 31.10.2020
2443 Clear 21 1023 74 10000 1.34 350 12:45 31.10.2020
2444 Clear 21 1023 74 10000 0.89 35 12:19 31.10.2020
2445 Clear 21 1023 74 10000 0.45 4 11:39 31.10.2020
2446 Clear 21 1025 72 10000 1.5 260 11:21 31.10.2020
2447 Clear 20 1024 77 10000 1.31 340 10:37 31.10.2020
2448 Clear 20 1024 84 10000 0.59 264 09:48 31.10.2020
2449 Clear 19 1024 88 10000 0.64 206 09:30 31.10.2020
2450 Clear 18 1024 93 10000 0.64 206 08:57 31.10.2020
2451 Clear 17 1024 99 10000 0.77 178 08:20 31.10.2020
2452 Clear 17 1024 99 10000 0.77 178 08:20 31.10.2020
2453 Clouds 15 1024 99 10000 0.84 157 07:28 31.10.2020
2454 Clouds 14 1023 99 10000 1.22 175 06:47 31.10.2020
2455 Clouds 14 1023 99 10000 0.59 159 06:29 31.10.2020
2456 Clouds 16 1023 95 10000 0.64 21 03:47 31.10.2020
2457 Clouds 17 1024 94 10000 1.31 350 02:27 31.10.2020
2458 Clouds 16 1024 94 10000 1.15 318 00:51 31.10.2020
2459 Clouds 17 1024 92 10000 1.02 310 23:54 30.10.2020
2460 Clouds 17 1024 92 10000 0.87 300 23:29 30.10.2020
2461 Clouds 17 1023 93 10000 0.87 300 22:59 30.10.2020
2462 Clouds 17 1024 91 10000 0.87 300 22:38 30.10.2020
2463 Clouds 17 1023 91 10000 0.99 299 22:19 30.10.2020
2464 Clouds 17 1023 91 10000 0.99 299 22:19 30.10.2020
2465 Clouds 17 1023 91 10000 0.99 299 21:47 30.10.2020
2466 Clouds 17 1023 90 10000 1.26 311 21:26 30.10.2020
2467 Clouds 18 1023 88 10000 1.26 311 20:45 30.10.2020
2468 Clouds 18 1023 86 10000 1.78 329 20:26 30.10.2020
2469 Clouds 18 1023 85 10000 1.78 329 19:58 30.10.2020
2470 Clouds 18 1023 85 10000 1.78 329 19:37 30.10.2020
2471 Clouds 18 1023 86 10000 2.2 338 19:18 30.10.2020
2472 Clouds 18 1023 85 10000 2.13 341 18:41 30.10.2020
2473 Clouds 18 1023 86 10000 2.22 336 18:22 30.10.2020
2474 Clouds 19 1022 86 10000 2.22 336 17:44 30.10.2020
2475 Clouds 19 1022 87 10000 2.5 317 17:21 30.10.2020
2476 Clouds 19 1022 87 10000 2.5 317 16:50 30.10.2020
2477 Clouds 19 1022 86 10000 0.89 1 16:25 30.10.2020
2478 Clouds 19 1022 84 10000 2.97 301 15:44 30.10.2020
2479 Clouds 19 1022 82 10000 3.19 291 15:26 30.10.2020
2480 Clouds 19 1022 81 10000 3.19 291 14:58 30.10.2020
2481 Clouds 19 1022 80 10000 3.19 291 14:39 30.10.2020
2482 Clouds 20 1022 79 10000 3.2 288 14:21 30.10.2020
2483 Clouds 20 1022 79 10000 3.2 288 14:21 30.10.2020
2484 Clouds 20 1022 80 10000 0.45 318 13:42 30.10.2020
2485 Clouds 20 1022 79 10000 0.45 54 13:20 30.10.2020
2486 Clouds 20 1022 81 10000 2.88 294 12:46 30.10.2020
2487 Clouds 20 1023 80 10000 0.45 355 12:22 30.10.2020
2488 Clouds 20 1023 76 10000 2.36 300 11:54 30.10.2020
2489 Clouds 21 1023 72 10000 2.51 318 11:21 30.10.2020
2490 Clouds 21 1023 68 10000 1.34 350 10:50 30.10.2020
2491 Clouds 20 1023 69 10000 0.89 335 10:25 30.10.2020
2492 Clouds 20 1023 71 10000 0.89 292 09:48 30.10.2020
2493 Clouds 20 1023 75 10000 2.36 330 09:25 30.10.2020
2494 Clouds 20 1023 75 10000 0.89 323 08:59 30.10.2020
2495 Clouds 19 1023 79 10000 2.01 335 08:31 30.10.2020
2496 Clouds 18 1023 84 10000 0.89 4 07:52 30.10.2020
2497 Clouds 18 1023 93 10000 1.51 343 07:33 30.10.2020
2498 Clouds 17 1022 97 10000 1.9 4 06:49 30.10.2020
2499 Clouds 16 1022 93 10000 2.15 9 05:45 30.10.2020
2500 Clouds 16 1021 87 10000 1.08 225 02:43 30.10.2020
2501 Clouds 16 1021 86 10000 2.25 212 01:18 30.10.2020
2502 Clouds 16 1021 84 10000 2.41 210 23:58 29.10.2020
2503 Clouds 16 1021 83 10000 2.41 210 23:40 29.10.2020
2504 Clouds 17 1021 82 10000 2.67 223 23:21 29.10.2020
2505 Clouds 17 1022 80 10000 2.67 223 22:43 29.10.2020
2506 Clouds 17 1022 79 10000 2.76 235 22:24 29.10.2020
2507 Clouds 18 1022 77 10000 2.76 235 21:43 29.10.2020
2508 Clouds 18 1022 76 10000 2.64 236 21:22 29.10.2020
2509 Clouds 18 1022 76 10000 2.64 236 21:21 29.10.2020
2510 Clouds 18 1022 75 10000 2.64 236 20:42 29.10.2020
2511 Clouds 18 1022 75 10000 2.21 238 20:21 29.10.2020
2512 Clouds 18 1022 75 10000 2.21 238 19:54 29.10.2020
2513 Clouds 18 1022 75 10000 2.21 238 19:36 29.10.2020
2514 Clouds 18 1022 75 10000 2.04 259 19:18 29.10.2020
2515 Clouds 18 1021 73 10000 2.33 258 18:41 29.10.2020
2516 Clouds 18 1021 72 10000 2.29 285 18:21 29.10.2020
2517 Clouds 19 1021 68 10000 2.29 285 17:42 29.10.2020
2518 Clouds 19 1021 66 10000 1.74 305 17:21 29.10.2020
2519 Clouds 20 1021 60 10000 1.74 305 16:48 29.10.2020
2520 Clouds 21 1021 57 10000 1.75 291 16:22 29.10.2020
2521 Clouds 18 1022 64 10000 2.6 220 15:57 29.10.2020
2522 Clouds 19 1022 64 10000 2.1 230 15:39 29.10.2020
2523 Clouds 19 1022 64 10000 2.1 230 15:21 29.10.2020
2524 Clear 19 1022 60 10000 2.6 190 14:46 29.10.2020
2525 Clear 19 1022 60 10000 2.6 190 14:24 29.10.2020
2526 Clear 19 1022 60 10000 2.1 240 13:49 29.10.2020
2527 Clear 21 1022 60 10000 3.1 230 13:28 29.10.2020
2528 Clear 21 1022 56 10000 3.1 250 12:59 29.10.2020
2529 Clear 21 1022 60 10000 2.6 210 12:39 29.10.2020
2530 Clear 21 1021 58 10000 1.42 304 12:19 29.10.2020
2531 Clear 20 1021 56 10000 0.89 352 11:44 29.10.2020
2532 Clear 20 1022 62 10000 0.45 306 11:24 29.10.2020
2533 Clear 19 1023 67 10000 2.19 320 10:37 29.10.2020
2534 Clear 19 1023 67 10000 1.94 315 10:19 29.10.2020
2535 Clear 19 1022 69 10000 1.94 315 09:51 29.10.2020
2536 Clear 19 1022 69 10000 1.3 308 09:28 29.10.2020
2537 Clear 18 1022 72 10000 1.3 308 08:55 29.10.2020
2538 Clear 17 1022 74 10000 1.3 308 08:31 29.10.2020
2539 Clear 16 1022 78 10000 1.83 319 07:54 29.10.2020
2540 Clear 15 1022 78 10000 1.83 319 07:35 29.10.2020
2541 Clear 15 1021 79 10000 2.11 317 06:56 29.10.2020
2542 Clear 15 1021 78 10000 2.36 301 04:52 29.10.2020
2543 Clear 15 1020 79 10000 2.96 300 03:00 29.10.2020
2544 Clear 16 1020 77 10000 3.27 296 01:22 29.10.2020
2545 Clouds 15 1020 77 10000 3.26 299 00:31 29.10.2020
2546 Clouds 15 1020 75 10000 3.26 299 23:46 28.10.2020
2547 Clouds 16 1020 74 10000 3.23 306 23:21 28.10.2020
2548 Clouds 17 1020 74 10000 3.23 306 22:45 28.10.2020
2549 Clouds 17 1020 74 10000 3.22 314 22:26 28.10.2020
2550 Clouds 16 1020 75 10000 3.22 314 21:58 28.10.2020
2551 Clouds 16 1020 75 10000 3.22 314 21:40 28.10.2020
2552 Clouds 17 1019 74 10000 3.71 322 21:19 28.10.2020
2553 Clouds 17 1019 71 10000 3.71 322 20:41 28.10.2020
2554 Clouds 17 1019 70 10000 4.53 326 20:22 28.10.2020
2555 Clouds 17 1019 68 10000 4.53 326 19:50 28.10.2020
2556 Clouds 17 1019 66 10000 5.26 325 19:28 28.10.2020
2557 Clouds 18 1019 65 10000 4.98 331 18:47 28.10.2020
2558 Clouds 18 1018 66 10000 0.45 231 18:21 28.10.2020
2559 Clouds 18 1018 67 10000 0.45 313 17:45 28.10.2020
2560 Clouds 18 1017 68 10000 1.34 338 17:25 28.10.2020
2561 Clouds 18 1017 67 10000 0.45 354 16:57 28.10.2020
2562 Clouds 18 1017 69 10000 0.45 2 16:39 28.10.2020
2563 Clouds 18 1017 69 10000 0.45 3 16:20 28.10.2020
2564 Clouds 18 1017 69 10000 0.89 354 15:38 28.10.2020
2565 Clouds 18 1016 73 10000 0.89 13 15:19 28.10.2020
2566 Clouds 18 1016 79 10000 0.45 334 14:43 28.10.2020
2567 Clouds 18 1016 74 10000 1.34 284 14:23 28.10.2020
2568 Clouds 18 1016 64 10000 0.45 5 12:48 28.10.2020
2569 Clouds 18 1015 65 10000 0.89 357 12:27 28.10.2020
2570 Clouds 19 1016 69 10000 6.4 319 11:57 28.10.2020
2571 Clouds 18 1016 71 10000 0.45 343 11:39 28.10.2020
2572 Rain 18 1016 74 10000 6.14 308 11:19 28.10.2020
2573 Clouds 18 1016 72 10000 0.89 307 10:44 28.10.2020
2574 Rain 18 1016 74 10000 6.47 304 10:26 28.10.2020
2575 Clear 17 1015 73 10000 0.45 315 09:44 28.10.2020
2576 Clear 17 1015 72 10000 6.07 307 09:23 28.10.2020
2577 Clear 18 1015 61 10000 0.45 351 08:50 28.10.2020
2578 Clear 17 1015 66 10000 5.25 305 08:30 28.10.2020
2579 Clear 16 1015 70 10000 5.25 305 07:53 28.10.2020
2580 Rain 15 1014 72 10000 4.93 309 07:31 28.10.2020
2581 Clouds 14 1014 74 10000 0.45 331 06:54 28.10.2020
2582 Clear 15 1014 73 10000 0.45 346 06:36 28.10.2020
2583 Rain 16 1014 69 10000 4.44 305 05:23 28.10.2020
2584 Clear 16 1013 72 10000 4.44 305 04:50 28.10.2020
2585 Clear 15 1013 79 10000 4.23 300 03:31 28.10.2020
2586 Clear 15 1014 71 10000 3.27 285 01:55 28.10.2020
2587 Clear 15 1014 73 10000 3.06 279 00:33 28.10.2020
2588 Clear 15 1014 73 10000 3.15 288 23:47 27.10.2020
2589 Rain 15 1014 70 10000 0.89 346 23:21 27.10.2020
2590 Clear 15 1014 62 10000 1.34 304 22:44 27.10.2020
2591 Clear 16 1014 64 10000 3.23 306 22:19 27.10.2020
2592 Clear 15 1014 65 10000 3.23 306 21:57 27.10.2020
2593 Clear 15 1014 65 10000 3.23 306 21:57 27.10.2020
2594 Clear 16 1014 67 10000 0.45 359 21:38 27.10.2020
2595 Clear 16 1014 67 10000 2.67 300 21:19 27.10.2020
2596 Clear 16 1014 70 10000 0.45 345 20:50 27.10.2020
2597 Rain 16 1014 74 10000 2.54 298 20:24 27.10.2020
2598 Clear 16 1013 76 10000 2.54 298 19:57 27.10.2020
2599 Clear 16 1013 75 10000 2.54 298 19:38 27.10.2020
2600 Rain 16 1013 74 10000 3.45 304 19:19 27.10.2020
2601 Clouds 15 1013 75 10000 0.45 14 18:45 27.10.2020
2602 Rain 17 1013 76 10000 0.89 347 18:24 27.10.2020
2603 Clouds 17 1013 71 10000 1.34 223 17:59 27.10.2020
2604 Clouds 17 1013 71 10000 4.71 330 17:40 27.10.2020
2605 Rain 17 1013 72 10000 4.77 329 17:19 27.10.2020
2606 Clouds 17 1012 79 10000 4.77 329 16:42 27.10.2020
2607 Rain 16 1012 83 10000 5.26 324 16:23 27.10.2020
2608 Clouds 16 1012 82 10000 0.45 336 15:42 27.10.2020
2609 Clouds 18 1013 63 10000 3.1 360 15:24 27.10.2020
2610 Clouds 19 1012 57 10000 4.74 309 14:50 27.10.2020
2611 Clouds 19 1013 59 10000 6.2 280 14:30 27.10.2020
2612 Clouds 18 1013 59 10000 6.2 260 13:59 27.10.2020
2613 Clouds 19 1013 68 10000 5.1 250 13:31 27.10.2020
2614 Clouds 19 1013 59 10000 4.6 230 12:49 27.10.2020
2615 Clouds 20 1014 63 10000 6.2 220 12:30 27.10.2020
2616 Clouds 19 1014 63 10000 4.6 220 11:59 27.10.2020
2617 Clouds 19 1014 63 10000 5.7 210 11:41 27.10.2020
2618 Clouds 18 1014 63 10000 5.7 210 11:21 27.10.2020
2619 Rain 18 1014 72 10000 5.7 200 10:44 27.10.2020
2620 Clouds 17 1013 68 10000 5.7 230 10:21 27.10.2020
2621 Clouds 18 1013 68 10000 5.7 250 09:42 27.10.2020
2622 Rain 17 1012 73 10000 5.71 280 09:23 27.10.2020
2623 Clouds 17 1012 72 10000 5.71 280 08:33 27.10.2020
2624 Clouds 17 1012 76 10000 5.88 283 07:58 27.10.2020
2625 Clouds 17 1012 79 10000 5.88 283 07:40 27.10.2020
2626 Rain 17 1012 80 10000 0.45 246 07:21 27.10.2020
2627 Rain 17 1012 81 7530 0.45 354 06:21 27.10.2020
2628 Clouds 16 1011 96 7530 5.45 270 05:47 27.10.2020
2629 Rain 16 1011 98 9889 4.66 259 05:28 27.10.2020
2630 Rain 17 1011 90 10000 3.96 246 03:38 27.10.2020
2631 Clear 20 1011 72 10000 4.13 192 01:32 27.10.2020
2632 Clear 21 1012 64 10000 8.2 190 00:48 27.10.2020
2633 Clear 20 1011 69 10000 3.59 185 23:40 26.10.2020
2634 Clear 20 1011 71 10000 3.62 182 23:19 26.10.2020
2635 Clear 20 1011 72 10000 3.62 182 22:46 26.10.2020
2636 Clear 20 1012 71 10000 3.25 176 22:21 26.10.2020
2637 Clear 20 1013 60 10000 7.2 190 21:42 26.10.2020
2638 Clear 19 1012 70 10000 2.95 161 21:19 26.10.2020
2639 Clear 20 1012 68 10000 2.95 161 20:55 26.10.2020
2640 Clear 20 1012 68 10000 2.95 161 20:37 26.10.2020
2641 Clear 20 1012 69 10000 2.67 148 20:18 26.10.2020
2642 Clouds 20 1013 64 10000 7.7 170 19:44 26.10.2020
2643 Clear 20 1012 67 10000 2.69 141 19:22 26.10.2020
2644 Clouds 21 1012 64 10000 8.2 200 18:42 26.10.2020
2645 Clear 21 1012 64 10000 3 143 18:22 26.10.2020
2646 Clear 21 1012 62 10000 3 143 17:45 26.10.2020
2647 Clear 21 1012 61 10000 2.76 151 17:24 26.10.2020
2648 Clear 21 1012 59 10000 2.76 151 16:59 26.10.2020
2649 Clear 22 1012 57 10000 2.76 151 16:39 26.10.2020
2650 Clear 22 1012 54 10000 2.07 166 16:19 26.10.2020
2651 Clouds 20 1013 53 10000 8.7 210 15:41 26.10.2020
2652 Clouds 21 1013 53 10000 8.7 210 15:20 26.10.2020
2653 Clouds 21 1013 53 10000 8.7 210 15:20 26.10.2020
2654 Clouds 22 1014 53 10000 8.7 210 14:46 26.10.2020
2655 Clouds 22 1014 50 10000 7.7 210 14:26 26.10.2020
2656 Clouds 22 1015 56 10000 8.2 210 13:43 26.10.2020
2657 Clouds 23 1015 53 10000 7.2 210 13:23 26.10.2020
2658 Clouds 23 1015 53 10000 7.2 210 12:48 26.10.2020
2659 Clouds 23 1015 53 10000 7.2 200 12:27 26.10.2020
2660 Clear 22 1015 59 10000 0.45 270 11:56 26.10.2020
2661 Clear 22 1015 61 10000 1.52 201 11:37 26.10.2020
2662 Clouds 22 1017 60 10000 5.1 190 11:19 26.10.2020
2663 Clear 21 1016 66 10000 1.89 200 10:44 26.10.2020
2664 Clear 21 1016 67 10000 2.28 201 10:25 26.10.2020
2665 Clear 19 1016 74 10000 2.28 201 09:48 26.10.2020
2666 Clear 18 1016 77 10000 2.24 193 09:26 26.10.2020
2667 Clear 17 1016 81 10000 2.24 193 08:46 26.10.2020
2668 Clear 16 1016 83 10000 2.02 192 08:22 26.10.2020
2669 Clear 16 1016 85 10000 2.02 192 07:38 26.10.2020
2670 Clear 15 1016 85 10000 1.85 200 07:18 26.10.2020
2671 Clear 15 1016 83 10000 1.85 204 05:30 26.10.2020
2672 Clear 15 1016 81 10000 1.9 192 04:18 26.10.2020
2673 Clear 16 1016 81 10000 2.02 188 03:20 26.10.2020
2674 Clear 16 1016 82 10000 2.02 188 03:20 26.10.2020
2675 Clear 16 1016 81 10000 2.02 188 03:20 26.10.2020
2676 Clear 17 1017 82 10000 2.04 204 01:34 26.10.2020
2677 Clouds 16 1017 82 10000 2.27 219 00:33 26.10.2020
2678 Clouds 17 1018 81 10000 2.36 228 23:45 25.10.2020
2679 Clouds 17 1018 80 10000 2.26 235 23:22 25.10.2020
2680 Clouds 17 1018 81 10000 2.26 235 22:44 25.10.2020
2681 Clouds 17 1018 81 10000 1.92 243 22:25 25.10.2020
2682 Clouds 17 1018 80 10000 1.92 243 21:49 25.10.2020
2683 Clouds 17 1018 79 10000 1.92 243 21:30 25.10.2020
2684 Clear 18 1018 78 10000 1.87 261 20:58 25.10.2020
2685 Clear 17 1018 78 10000 1.87 261 20:39 25.10.2020
2686 Clear 17 1018 76 10000 2.15 269 20:19 25.10.2020
2687 Clear 18 1018 75 10000 2.15 269 19:49 25.10.2020
2688 Clear 18 1018 74 10000 2.47 274 19:26 25.10.2020
2689 Clear 18 1018 72 10000 2.47 274 18:58 25.10.2020
2690 Clear 18 1018 71 10000 2.45 274 18:40 25.10.2020
2691 Clear 19 1018 70 10000 2.62 281 18:21 25.10.2020
2692 Clear 19 1018 69 10000 2.62 281 17:54 25.10.2020
2693 Clear 19 1017 69 10000 2.62 281 17:36 25.10.2020
2694 Clear 19 1017 68 10000 3.01 295 17:18 25.10.2020
2695 Clear 20 1017 65 10000 3.01 295 16:39 25.10.2020
2696 Clear 21 1017 64 10000 3.59 305 16:21 25.10.2020
2697 Clouds 21 1018 64 10000 5.1 290 15:47 25.10.2020
2698 Clear 22 1017 59 10000 1.34 332 15:26 25.10.2020
2699 Clear 22 1017 63 10000 4.1 309 14:52 25.10.2020
2700 Clear 22 1017 64 10000 0.45 335 14:29 25.10.2020
2701 Clear 22 1017 57 10000 0.89 339 13:44 25.10.2020
2702 Clear 22 1017 58 10000 4.32 308 13:44 25.10.2020
2703 Clouds 22 1019 64 10000 5.7 270 13:23 25.10.2020
2704 Clouds 22 1019 64 10000 5.1 250 12:49 25.10.2020
2705 Clouds 22 1019 64 10000 5.1 250 12:27 25.10.2020
2706 Clear 22 1018 61 10000 0.45 349 11:58 25.10.2020
2707 Clear 22 1018 62 10000 4.63 300 11:40 25.10.2020
2708 Clouds 21 1020 64 10000 4.1 210 11:19 25.10.2020
2709 Clouds 21 1020 60 10000 5.7 210 10:45 25.10.2020
2710 Clouds 21 1020 60 10000 5.7 210 10:25 25.10.2020
2711 Clear 21 1019 64 10000 4.03 288 09:50 25.10.2020
2712 Clear 20 1019 66 10000 3.63 276 09:21 25.10.2020
2713 Clouds 20 1019 64 10000 4.1 210 08:58 25.10.2020
2714 Clear 20 1019 71 10000 3.63 276 08:40 25.10.2020
2715 Clear 19 1019 74 10000 3.37 267 08:22 25.10.2020
2716 Clear 19 1018 75 10000 3.37 267 07:42 25.10.2020
2717 Clear 18 1018 78 10000 3.39 273 06:52 25.10.2020
2718 Clear 18 1018 77 10000 3.36 283 06:26 25.10.2020
2719 Clear 19 1018 77 10000 3.54 289 05:19 25.10.2020
2720 Clear 19 1018 75 10000 4.01 290 04:23 25.10.2020
2721 Clear 19 1019 72 10000 0.89 359 02:24 25.10.2020
2722 Clouds 19 1019 82 10000 4.22 273 00:53 25.10.2020
2723 Clouds 19 1019 82 10000 4.09 263 00:28 25.10.2020
2724 Clouds 19 1019 82 10000 4.09 263 23:54 24.10.2020
2725 Clouds 19 1019 82 10000 4.01 263 23:31 24.10.2020
2726 Clouds 19 1019 82 10000 4.01 263 22:58 24.10.2020
2727 Clouds 19 1019 82 10000 4.01 263 22:40 24.10.2020
2728 Clouds 20 1019 82 10000 4.01 268 22:21 24.10.2020
2729 Clouds 20 1019 83 10000 4.01 268 21:44 24.10.2020
2730 Clouds 20 1019 83 10000 4.01 268 21:44 24.10.2020
2731 Clouds 19 1023 84 10000 2.68 270 21:22 24.10.2020
2732 Clouds 19 1023 86 10000 4.02 270 20:58 24.10.2020
2733 Clouds 19 1020 77 10000 7.2 270 20:39 24.10.2020
2734 Clouds 19 1020 77 10000 7.2 270 20:20 24.10.2020
2735 Clouds 19 1023 87 10000 3.58 270 19:40 24.10.2020
2736 Clouds 19 1024 85 10000 1.79 315 19:22 24.10.2020
2737 Clouds 19 1023 87 10000 2.24 292 18:49 24.10.2020
2738 Clouds 19 1023 84 10000 4.92 225 18:28 24.10.2020
2739 Clouds 19 1020 77 10000 5.1 280 17:44 24.10.2020
2740 Clouds 20 1023 83 10000 4.47 0 17:25 24.10.2020
2741 Clouds 20 1020 83 10000 5.7 280 16:53 24.10.2020
2742 Clouds 20 1020 83 10000 6.2 290 16:34 24.10.2020
2743 Clouds 20 1023 92 10000 3.13 315 15:57 24.10.2020
2744 Clouds 20 1023 86 10000 3.58 315 15:37 24.10.2020
2745 Clouds 21 1023 87 10000 3.13 315 15:18 24.10.2020
2746 Clouds 21 1020 78 10000 4.1 310 14:30 24.10.2020
2747 Clouds 21 1023 87 10000 4.92 315 13:55 24.10.2020
2748 Clouds 22 1023 86 10000 4.92 315 13:36 24.10.2020
2749 Clouds 22 1023 82 10000 3.13 270 13:18 24.10.2020
2750 Clouds 21 1021 88 10000 5.7 260 12:37 24.10.2020
2751 Clouds 21 1024 87 10000 6.71 292 12:19 24.10.2020
2752 Clouds 21 1021 78 10000 5.7 250 11:49 24.10.2020
2753 Clouds 21 1021 78 10000 5.7 250 11:20 24.10.2020
2754 Clouds 21 1021 73 10000 4.1 220 10:43 24.10.2020
2755 Clouds 21 1021 73 10000 4.1 220 10:25 24.10.2020
2756 Clouds 20 1020 73 10000 4.1 240 09:45 24.10.2020
2757 Clouds 20 1020 73 10000 4.1 240 09:26 24.10.2020
2758 Clouds 19 1020 77 10000 3.6 180 08:56 24.10.2020
2759 Clouds 19 1024 83 10000 2.68 315 08:19 24.10.2020
2760 Clouds 19 1020 77 10000 4.1 200 07:51 24.10.2020
2761 Clear 19 1020 77 10000 5.7 190 07:20 24.10.2020
2762 Clouds 19 1024 86 10000 2.24 315 06:50 24.10.2020
2763 Clear 19 1020 73 10000 7.2 190 05:43 24.10.2020
2764 Clouds 18 1020 85 10000 1.54 192 02:26 24.10.2020
2765 Clouds 18 1021 84 10000 1.51 180 00:56 24.10.2020
2766 Clouds 18 1020 83 10000 1.51 180 00:37 24.10.2020
2767 Clouds 18 1020 83 10000 1.4 181 00:19 24.10.2020
2768 Clear 19 1021 64 10000 1 0 23:41 23.10.2020
2769 Clear 19 1021 64 10000 1 0 23:22 23.10.2020
2770 Clear 19 1021 68 10000 4.1 200 22:42 23.10.2020
2771 Clear 19 1021 81 10000 1.73 168 22:22 23.10.2020
2772 Clear 19 1021 80 10000 1.73 168 21:58 23.10.2020
2773 Clear 19 1021 79 10000 1.73 168 21:39 23.10.2020
2774 Clear 19 1021 78 10000 1.58 172 21:20 23.10.2020
2775 Clear 20 1021 77 10000 1.58 172 20:39 23.10.2020
2776 Clouds 20 1021 75 10000 1.97 150 20:20 23.10.2020
2777 Clouds 19 1021 74 10000 1.91 147 19:45 23.10.2020
2778 Clouds 20 1020 73 10000 1.93 138 19:26 23.10.2020
2779 Clouds 20 1020 69 10000 1.93 138 18:48 23.10.2020
2780 Clouds 21 1020 68 10000 1.45 116 18:30 23.10.2020
2781 Clouds 21 1020 66 10000 1.45 116 17:47 23.10.2020
2782 Clouds 22 1020 63 10000 1.18 108 17:22 23.10.2020
2783 Clear 23 1021 60 10000 3.6 50 16:55 23.10.2020
2784 Clear 22 1021 60 10000 4.1 40 16:35 23.10.2020
2785 Clear 22 1021 60 10000 4.1 30 15:58 23.10.2020
2786 Clear 22 1021 60 10000 4.6 50 15:40 23.10.2020
2787 Clear 24 1021 64 10000 4.1 30 15:19 23.10.2020
2788 Clear 24 1021 64 10000 4.1 30 15:19 23.10.2020
2789 Clear 24 1021 60 10000 3.1 30 14:48 23.10.2020
2790 Clear 23 1021 65 10000 1.22 66 14:29 23.10.2020
2791 Clear 22 1021 64 10000 1.03 66 13:42 23.10.2020
2792 Clear 22 1021 63 10000 1.01 74 13:23 23.10.2020
2793 Clear 22 1022 66 10000 1.01 74 12:51 23.10.2020
2794 Clear 22 1022 66 10000 1.01 74 12:31 23.10.2020
2795 Clear 22 1022 67 10000 1.43 104 11:51 23.10.2020
2796 Clear 21 1022 69 10000 1.65 119 11:28 23.10.2020
2797 Clear 20 1022 72 10000 1.65 119 10:55 23.10.2020
2798 Clear 20 1022 75 10000 1.65 119 10:37 23.10.2020
2799 Clear 19 1022 78 10000 0.84 161 10:19 23.10.2020
2800 Clear 18 1022 85 10000 0.84 161 09:43 23.10.2020
2801 Clear 17 1022 88 10000 1.19 170 09:23 23.10.2020
2802 Clear 17 1022 91 10000 1.19 170 08:50 23.10.2020
2803 Clear 15 1022 93 10000 1.53 150 08:26 23.10.2020
2804 Clear 16 1022 77 10000 2.1 190 07:27 23.10.2020
2805 Clear 16 1022 77 10000 2.1 170 06:49 23.10.2020
2806 Clear 17 1022 77 10000 1.5 160 06:20 23.10.2020
2807 Clear 17 1023 72 10000 1.5 150 03:44 23.10.2020
2808 Clear 17 1023 72 10000 2.6 150 02:27 23.10.2020
2809 Clear 17 1023 77 10000 1.5 160 00:52 23.10.2020
2810 Clear 18 1023 72 10000 1.5 160 00:32 23.10.2020
2811 Clear 18 1023 72 10000 1 180 23:38 22.10.2020
2812 Clear 18 1023 72 10000 1 180 23:19 22.10.2020
2813 Clear 18 1023 84 10000 2.19 131 22:45 22.10.2020
2814 Clear 18 1023 83 10000 2.52 125 22:26 22.10.2020
2815 Clear 18 1023 81 10000 2.52 125 21:56 22.10.2020
2816 Clear 19 1023 81 10000 2.52 125 21:37 22.10.2020
2817 Clear 19 1023 80 10000 2.55 122 21:18 22.10.2020
2818 Clear 19 1023 78 10000 2.55 122 20:42 22.10.2020
2819 Clouds 19 1023 77 10000 2.42 119 20:24 22.10.2020
2820 Clear 21 1022 53 10000 2.1 120 19:43 22.10.2020
2821 Clouds 20 1023 74 10000 2.4 112 19:20 22.10.2020
2822 Clear 21 1022 49 10000 4.6 70 18:44 22.10.2020
2823 Clouds 21 1023 71 10000 2.49 106 18:22 22.10.2020
2824 Clear 22 1022 53 10000 5.7 70 17:58 22.10.2020
2825 Clear 22 1022 50 10000 5.7 60 17:39 22.10.2020
2826 Clear 23 1022 50 10000 5.7 60 17:20 22.10.2020
2827 Clear 23 1022 50 10000 7.2 70 16:42 22.10.2020
2828 Clear 23 1022 50 10000 7.2 70 16:23 22.10.2020
2829 Clear 23 1022 47 10000 6.2 60 15:48 22.10.2020
2830 Clear 23 1023 49 10000 5.7 60 15:26 22.10.2020
2831 Clouds 24 1023 47 10000 5.7 60 14:50 22.10.2020
2832 Clouds 24 1023 47 10000 5.1 60 14:29 22.10.2020
2833 Clouds 23 1023 54 10000 2.25 75 13:58 22.10.2020
2834 Clouds 23 1023 55 10000 0.45 356 13:39 22.10.2020
2835 Clear 23 1023 56 10000 2.02 79 13:20 22.10.2020
2836 Clear 23 1024 56 10000 1.28 86 12:29 22.10.2020
2837 Clear 23 1024 56 10000 1.28 86 11:54 22.10.2020
2838 Clear 22 1024 56 10000 1.28 86 11:36 22.10.2020
2839 Clouds 22 1024 58 10000 0.82 127 11:18 22.10.2020
2840 Clouds 21 1024 69 10000 0.82 127 10:44 22.10.2020
2841 Clouds 20 1025 71 10000 1.29 155 10:23 22.10.2020
2842 Clouds 18 1025 80 10000 1.29 155 09:42 22.10.2020
2843 Clouds 17 1024 82 10000 1.76 162 09:18 22.10.2020
2844 Clouds 18 1023 77 10000 2.6 230 08:39 22.10.2020
2845 Clouds 16 1023 87 10000 1.86 168 08:19 22.10.2020
2846 Clouds 16 1023 68 10000 1.5 110 07:43 22.10.2020
2847 Clouds 17 1023 63 10000 1 0 07:00 22.10.2020
2848 Clouds 17 1023 63 10000 2.1 100 06:37 22.10.2020
2849 Clouds 17 1023 63 10000 2.1 90 06:18 22.10.2020
2850 Clouds 17 1023 68 10000 2.1 120 05:37 22.10.2020
2851 Clear 16 1023 83 10000 1.2 170 02:55 22.10.2020
2852 Clear 17 1024 72 10000 3.1 190 00:50 22.10.2020
2853 Clear 17 1024 77 10000 1.5 180 00:21 22.10.2020
2854 Clear 18 1024 77 10000 1 0 23:42 21.10.2020
2855 Clear 18 1024 76 10000 2.26 136 22:59 21.10.2020
2856 Clear 18 1023 72 10000 2.1 160 22:37 21.10.2020
2857 Clear 18 1023 75 10000 2.12 130 22:19 21.10.2020
2858 Clear 18 1023 75 10000 2.12 130 21:45 21.10.2020
2859 Clouds 18 1023 74 10000 2.16 131 21:19 21.10.2020
2860 Clouds 19 1023 74 10000 2.16 131 20:57 21.10.2020
2861 Clouds 19 1023 73 10000 2.16 131 20:57 21.10.2020
2862 Clouds 19 1023 73 10000 2.16 131 20:39 21.10.2020
2863 Clouds 19 1023 72 10000 2.2 119 20:18 21.10.2020
2864 Clouds 19 1023 70 10000 2.2 119 19:40 21.10.2020
2865 Clouds 20 1023 69 10000 2.23 114 19:22 21.10.2020
2866 Clouds 20 1022 67 10000 2.23 114 18:49 21.10.2020
2867 Clouds 21 1022 66 10000 1.97 111 18:27 21.10.2020
2868 Clouds 21 1022 62 10000 1.97 111 17:50 21.10.2020
2869 Clouds 22 1022 53 10000 5.1 60 17:22 21.10.2020
2870 Clouds 22 1022 53 10000 5.1 60 16:58 21.10.2020
2871 Clouds 22 1022 53 10000 5.1 60 16:38 21.10.2020
2872 Clouds 22 1022 49 10000 5.1 60 16:19 21.10.2020
2873 Clouds 23 1022 49 10000 5.7 60 15:44 21.10.2020
2874 Clouds 23 1022 49 10000 5.7 70 15:21 21.10.2020
2875 Clouds 23 1023 46 10000 5.7 70 14:49 21.10.2020
2876 Clouds 23 1023 49 10000 4.6 50 14:28 21.10.2020
2877 Clouds 22 1023 56 10000 1.86 95 13:56 21.10.2020
2878 Clouds 22 1023 57 10000 1.86 95 13:38 21.10.2020
2879 Clouds 22 1023 55 10000 1.67 105 13:19 21.10.2020
2880 Clouds 22 1023 56 10000 1.67 105 12:38 21.10.2020
2881 Clear 22 1024 58 10000 1.85 110 12:19 21.10.2020
2882 Clear 22 1024 61 10000 1.85 110 11:41 21.10.2020
2883 Clear 21 1024 60 10000 1.65 118 11:20 21.10.2020
2884 Clear 20 1024 63 10000 1.65 118 10:47 21.10.2020
2885 Clear 19 1024 67 10000 1.44 129 10:26 21.10.2020
2886 Clear 18 1024 74 10000 1.44 129 09:57 21.10.2020
2887 Clear 18 1023 77 10000 1.44 129 09:35 21.10.2020
2888 Clear 16 1023 79 10000 1.7 153 08:57 21.10.2020
2889 Clear 15 1023 72 10000 1 0 08:39 21.10.2020
2890 Clear 15 1023 81 10000 1.66 155 08:21 21.10.2020
2891 Clear 15 1023 67 10000 1 0 07:41 21.10.2020
2892 Clear 14 1023 81 10000 0.96 164 06:58 21.10.2020
2893 Clear 14 1022 82 10000 0.96 164 06:33 21.10.2020
2894 Clear 14 1022 88 10000 1.69 175 05:23 21.10.2020
2895 Clear 16 1023 87 10000 2.58 149 02:37 21.10.2020
2896 Clear 16 1024 67 10000 0.5 0 00:24 21.10.2020
2897 Clear 17 1024 67 10000 2.6 150 23:28 20.10.2020
2898 Clear 17 1024 78 10000 2.6 117 22:38 20.10.2020
2899 Clear 17 1024 63 10000 2.1 100 22:20 20.10.2020
2900 Clear 17 1024 63 10000 2.6 90 21:47 20.10.2020
2901 Clear 18 1024 74 10000 1.63 123 21:19 20.10.2020
2902 Clear 18 1024 72 10000 1.63 123 20:43 20.10.2020
2903 Clear 18 1024 71 10000 1.93 114 20:23 20.10.2020
2904 Clear 18 1024 68 10000 1.97 109 19:45 20.10.2020
2905 Clear 19 1023 59 10000 3.1 70 19:22 20.10.2020
2906 Clear 19 1022 60 10000 6.2 60 18:59 20.10.2020
2907 Clear 20 1022 60 10000 6.2 60 18:38 20.10.2020
2908 Clear 20 1022 61 10000 2.23 76 17:51 20.10.2020
2909 Clear 21 1023 57 10000 2.62 58 17:33 20.10.2020
2910 Clear 20 1023 56 10000 6.7 60 16:59 20.10.2020
2911 Clear 21 1023 56 10000 6.7 60 16:40 20.10.2020
2912 Clear 21 1023 52 10000 6.2 60 16:22 20.10.2020
2913 Clear 21 1023 52 10000 6.2 60 15:46 20.10.2020
2914 Clear 21 1024 56 10000 5.1 50 15:27 20.10.2020
2915 Clouds 21 1024 56 10000 5.1 40 14:45 20.10.2020
2916 Clear 22 1023 57 10000 2.17 36 14:25 20.10.2020
2917 Clear 21 1024 59 10000 2.06 39 13:58 20.10.2020
2918 Clear 21 1024 59 10000 2.06 39 13:40 20.10.2020
2919 Clear 21 1024 59 10000 1.69 45 13:19 20.10.2020
2920 Clear 21 1024 58 10000 1.69 45 12:49 20.10.2020
2921 Clear 21 1024 58 10000 0.98 66 12:30 20.10.2020
2922 Clear 20 1025 65 10000 0.98 66 11:47 20.10.2020
2923 Clear 20 1025 68 10000 0.76 124 11:28 20.10.2020
2924 Clear 19 1024 74 10000 0.76 124 10:46 20.10.2020
2925 Clear 19 1025 77 10000 0.89 145 10:25 20.10.2020
2926 Clear 17 1024 84 10000 0.89 145 09:44 20.10.2020
2927 Clear 16 1024 88 10000 1.01 159 09:20 20.10.2020
2928 Clear 15 1024 92 10000 1.01 159 08:40 20.10.2020
2929 Clear 15 1024 92 10000 1.21 153 08:21 20.10.2020
2930 Clear 14 1023 92 10000 1.4 139 07:44 20.10.2020
2931 Clear 14 1023 91 10000 1.14 128 07:22 20.10.2020
2932 Clear 14 1023 90 10000 0.79 112 06:20 20.10.2020
2933 Clear 15 1023 88 10000 0.41 129 04:51 20.10.2020
2934 Clear 15 1023 85 10000 0.63 189 02:31 20.10.2020
2935 Clear 15 1023 83 10000 0.02 109 01:27 20.10.2020
2936 Clear 15 1023 81 10000 0.02 109 00:51 20.10.2020
2937 Clear 15 1024 81 10000 0.08 248 00:27 20.10.2020
2938 Clear 16 1024 80 10000 0.08 248 23:51 19.10.2020
2939 Clear 16 1024 79 10000 0.46 305 23:27 19.10.2020
2940 Clear 16 1023 77 10000 0.46 305 22:56 19.10.2020
2941 Clear 17 1023 76 10000 0.3 330 22:28 19.10.2020
2942 Clear 17 1023 75 10000 0.3 330 21:58 19.10.2020
2943 Clear 17 1023 74 10000 0.3 330 21:39 19.10.2020
2944 Clear 17 1023 73 10000 0.65 39 21:19 19.10.2020
2945 Clear 17 1023 72 10000 0.65 39 20:43 19.10.2020
2946 Clear 17 1023 71 10000 1.38 21 20:25 19.10.2020
2947 Clear 18 1023 68 10000 1.21 28 19:46 19.10.2020
2948 Clear 18 1023 67 10000 1.87 353 19:20 19.10.2020
2949 Clear 18 1022 65 10000 1.87 353 18:50 19.10.2020
2950 Clear 18 1022 65 10000 1.87 353 18:31 19.10.2020
2951 Clear 19 1022 64 10000 2.24 351 17:49 19.10.2020
2952 Clear 20 1022 61 10000 0.45 351 17:28 19.10.2020
2953 Clouds 19 1023 56 10000 3.1 30 16:54 19.10.2020
2954 Clouds 19 1022 56 10000 2.1 360 16:30 19.10.2020
2955 Clear 18 1022 53 10000 4.92 330 15:57 19.10.2020
2956 Clear 18 1022 52 10000 5.36 11 15:36 19.10.2020
2957 Clear 18 1022 53 10000 5.36 348 15:18 19.10.2020
2958 Clear 20 1022 54 10000 4.47 353 14:43 19.10.2020
2959 Clear 21 1022 58 10000 1.34 356 14:23 19.10.2020
2960 Clear 20 1022 59 10000 0.89 13 13:46 19.10.2020
2961 Clear 20 1022 60 10000 1.34 11 13:28 19.10.2020
2962 Clear 20 1022 64 10000 1.34 354 12:46 19.10.2020
2963 Clear 20 1023 64 10000 0.45 350 12:26 19.10.2020
2964 Clear 20 1022 65 10000 2.07 350 11:51 19.10.2020
2965 Clear 20 1023 64 10000 0.45 2 11:24 19.10.2020
2966 Clear 20 1023 68 10000 1.34 353 10:46 19.10.2020
2967 Clear 19 1023 72 10000 0.89 349 10:28 19.10.2020
2968 Clear 19 1022 80 10000 1.1 352 09:58 19.10.2020
2969 Clear 18 1022 83 10000 1.1 352 09:39 19.10.2020
2970 Clear 17 1022 87 10000 0.81 358 09:18 19.10.2020
2971 Clear 16 1022 92 10000 0.81 358 08:45 19.10.2020
2972 Clouds 15 1022 94 10000 0.95 12 08:21 19.10.2020
2973 Rain 14 1021 67 10000 2.6 120 07:21 19.10.2020
2974 Clouds 15 1021 95 10000 0.87 8 06:50 19.10.2020
2975 Clouds 15 1021 94 10000 1.51 11 05:40 19.10.2020
2976 Clouds 15 1021 89 10000 2.37 22 03:46 19.10.2020
2977 Clouds 16 1021 87 10000 2.52 43 01:44 19.10.2020
2978 Clouds 16 1021 86 10000 2.51 48 00:43 19.10.2020
2979 Clouds 16 1021 84 10000 2.5 52 23:59 18.10.2020
2980 Clouds 16 1021 84 10000 2.5 52 23:40 18.10.2020
2981 Clouds 16 1021 83 10000 2.57 61 23:21 18.10.2020
2982 Clouds 16 1021 86 10000 2.57 61 22:45 18.10.2020
2983 Clouds 16 1020 88 10000 2.53 64 22:19 18.10.2020
2984 Clouds 16 1020 87 10000 2.53 64 21:48 18.10.2020
2985 Clear 17 1020 85 10000 2.64 70 21:29 18.10.2020
2986 Clear 17 1020 84 10000 2.64 70 20:47 18.10.2020
2987 Clouds 17 1020 84 10000 2.76 72 20:24 18.10.2020
2988 Clouds 17 1019 83 10000 2.76 72 19:56 18.10.2020
2989 Clouds 17 1019 83 10000 2.76 93 19:38 18.10.2020
2990 Clouds 17 1019 82 10000 2.63 86 19:19 18.10.2020
2991 Clouds 17 1019 84 10000 2.63 86 18:46 18.10.2020
2992 Clouds 17 1019 84 10000 2.44 82 18:24 18.10.2020
2993 Clouds 18 1019 79 10000 2.44 82 17:41 18.10.2020
2994 Clouds 18 1018 73 10000 2.12 75 17:22 18.10.2020
2995 Clouds 19 1018 66 10000 2.12 75 16:44 18.10.2020
2996 Rain 19 1018 64 10000 1.82 64 16:26 18.10.2020
2997 Clouds 19 1018 63 10000 1.82 64 15:55 18.10.2020
2998 Clouds 20 1018 63 10000 1.82 64 15:36 18.10.2020
2999 Rain 19 1018 63 10000 1.58 57 15:18 18.10.2020
3000 Clouds 19 1018 64 10000 1.58 57 14:43 18.10.2020
3001 Rain 20 1018 64 10000 1.46 58 14:25 18.10.2020
3002 Clouds 20 1019 64 10000 1.39 69 13:45 18.10.2020
3003 Clouds 20 1019 63 10000 0.61 90 13:26 18.10.2020
3004 Clouds 20 1019 63 10000 0.61 90 12:57 18.10.2020
3005 Clouds 19 1019 66 10000 0.61 90 12:39 18.10.2020
3006 Clouds 20 1019 66 10000 0.71 190 12:19 18.10.2020
3007 Clouds 20 1019 63 10000 0.71 190 11:40 18.10.2020
3008 Clouds 20 1019 63 10000 1.35 206 11:22 18.10.2020
3009 Clouds 20 1019 67 10000 1.35 206 10:40 18.10.2020
3010 Clouds 19 1019 70 10000 1.56 220 10:19 18.10.2020
3011 Clouds 19 1019 74 10000 0.45 250 09:47 18.10.2020
3012 Clouds 18 1019 80 10000 1.68 214 09:21 18.10.2020
3013 Clouds 17 1018 80 10000 1.68 214 08:56 18.10.2020
3014 Clouds 17 1018 80 10000 1.68 214 08:36 18.10.2020
3015 Clouds 16 1018 80 10000 1.79 203 08:18 18.10.2020
3016 Clouds 16 1017 81 10000 1.76 199 06:51 18.10.2020
3017 Clouds 16 1018 74 10000 1.21 267 03:59 18.10.2020
3018 Clear 17 1018 73 10000 0.45 343 02:55 18.10.2020
3019 Clouds 17 1018 74 10000 0.45 333 01:38 18.10.2020
3020 Clouds 16 1018 76 10000 1.93 294 00:48 18.10.2020
3021 Clouds 17 1018 76 10000 2.49 298 00:24 18.10.2020
3022 Clouds 17 1018 71 10000 2.49 298 23:43 17.10.2020
3023 Clouds 17 1018 68 10000 2.92 298 23:22 17.10.2020
3024 Clouds 17 1018 68 10000 2.92 298 22:59 17.10.2020
3025 Clear 18 1018 66 10000 0.45 303 22:40 17.10.2020
3026 Clear 18 1018 66 10000 3.42 293 22:19 17.10.2020
3027 Clear 18 1018 65 10000 0.89 323 21:44 17.10.2020
3028 Clear 18 1017 64 10000 3.94 286 21:23 17.10.2020
3029 Clear 18 1017 63 10000 3.94 286 20:49 17.10.2020
3030 Clear 18 1017 63 10000 4.12 284 20:21 17.10.2020
3031 Clouds 18 1017 62 10000 3.51 287 19:47 17.10.2020
3032 Clouds 18 1017 60 10000 3.55 287 19:25 17.10.2020
3033 Clouds 18 1016 58 10000 3.55 287 18:59 17.10.2020
3034 Clouds 18 1016 57 10000 3.55 287 18:41 17.10.2020
3035 Clouds 18 1016 56 10000 3.86 292 18:18 17.10.2020
3036 Clouds 19 1016 57 10000 3.86 292 17:42 17.10.2020
3037 Clouds 19 1016 58 10000 4.27 294 17:20 17.10.2020
3038 Clouds 19 1016 56 10000 4.27 294 16:48 17.10.2020
3039 Clouds 21 1016 49 10000 4.49 296 16:22 17.10.2020
3040 Clouds 21 1016 51 10000 0.45 281 15:43 17.10.2020
3041 Clouds 20 1017 60 10000 7.7 270 15:23 17.10.2020
3042 Clouds 21 1016 49 10000 0.45 351 14:59 17.10.2020
3043 Clouds 20 1017 56 10000 7.7 270 14:39 17.10.2020
3044 Clouds 20 1016 50 10000 0.45 325 14:20 17.10.2020
3045 Clouds 20 1016 52 10000 5.08 293 13:47 17.10.2020
3046 Clouds 20 1016 51 10000 4.87 290 13:29 17.10.2020
3047 Clouds 20 1016 54 10000 4.87 290 12:59 17.10.2020
3048 Clouds 20 1016 54 10000 4.87 290 12:59 17.10.2020
3049 Clouds 20 1016 55 10000 4.87 290 12:38 17.10.2020
3050 Rain 20 1016 58 10000 4.45 286 12:19 17.10.2020
3051 Clouds 19 1016 64 10000 0.89 287 11:48 17.10.2020
3052 Rain 19 1016 68 10000 1.79 210 11:26 17.10.2020
3053 Clouds 17 1016 78 10000 4.08 279 10:33 17.10.2020
3054 Clouds 18 1016 73 10000 0.45 317 09:53 17.10.2020
3055 Clouds 17 1016 77 10000 3.64 271 09:34 17.10.2020
3056 Clouds 17 1016 80 10000 3.2 266 08:59 17.10.2020
3057 Clouds 16 1015 80 10000 3.09 272 08:28 17.10.2020
3058 Clouds 16 1015 79 10000 0.45 318 07:47 17.10.2020
3059 Clouds 16 1015 77 10000 3.26 275 07:27 17.10.2020
3060 Clouds 16 1014 75 10000 3.39 271 06:22 17.10.2020
3061 Clouds 16 1016 63 10000 3.1 160 03:47 17.10.2020
3062 Clouds 16 1016 63 10000 3.1 160 02:28 17.10.2020
3063 Clouds 16 1016 73 10000 3.28 292 00:53 17.10.2020
3064 Clouds 16 1016 73 10000 3.54 292 00:30 17.10.2020
3065 Rain 17 1016 74 10000 3.45 294 23:27 16.10.2020
3066 Clouds 17 1015 74 10000 3.45 294 22:59 16.10.2020
3067 Clouds 17 1015 75 10000 3.45 294 22:41 16.10.2020
3068 Rain 17 1015 76 10000 3.41 296 22:22 16.10.2020
3069 Clouds 17 1015 75 10000 3.41 296 21:46 16.10.2020
3070 Clouds 17 1015 74 10000 3.63 286 21:24 16.10.2020
3071 Clouds 17 1015 74 10000 3.63 286 20:44 16.10.2020
3072 Clouds 17 1015 74 10000 3.4 280 20:25 16.10.2020
3073 Clouds 17 1015 76 10000 3.4 280 19:47 16.10.2020
3074 Rain 17 1015 76 10000 4.59 273 19:28 16.10.2020
3075 Clouds 17 1014 76 10000 4.59 273 18:57 16.10.2020
3076 Rain 18 1014 69 10000 1.34 3 18:34 16.10.2020
3077 Clouds 19 1014 53 10000 4.58 268 17:51 16.10.2020
3078 Clouds 20 1014 50 10000 0.45 262 17:33 16.10.2020
3079 Clouds 19 1014 59 10000 8.7 240 16:57 16.10.2020
3080 Clouds 21 1013 51 10000 0.89 235 16:38 16.10.2020
3081 Clouds 20 1013 51 10000 4.41 283 16:19 16.10.2020
3082 Clouds 21 1013 46 10000 5.85 286 15:24 16.10.2020
3083 Clouds 21 1013 44 10000 5.85 286 14:58 16.10.2020
3084 Clouds 22 1013 42 10000 5.85 286 14:39 16.10.2020
3085 Clouds 22 1013 41 10000 0.89 314 14:18 16.10.2020
3086 Clouds 22 1013 41 10000 4.93 294 14:18 16.10.2020
3087 Clouds 21 1014 46 10000 4.93 294 13:42 16.10.2020
3088 Clouds 21 1014 45 10000 4.64 289 13:24 16.10.2020
3089 Clouds 21 1014 48 10000 0.45 350 12:51 16.10.2020
3090 Clouds 21 1014 47 10000 3.9 277 12:25 16.10.2020
3091 Clouds 21 1014 46 10000 3.9 277 11:57 16.10.2020
3092 Clouds 20 1014 46 10000 3.9 277 11:39 16.10.2020
3093 Clouds 20 1014 49 10000 0.45 260 11:18 16.10.2020
3094 Clouds 20 1014 51 10000 1.34 346 10:46 16.10.2020
3095 Clouds 20 1014 55 10000 3.24 247 10:26 16.10.2020
3096 Clouds 18 1014 62 10000 0.89 224 09:40 16.10.2020
3097 Clouds 18 1014 68 10000 2.77 247 09:22 16.10.2020
3098 Clouds 17 1014 76 10000 2.77 247 08:44 16.10.2020
3099 Clouds 16 1014 78 10000 2.37 262 08:26 16.10.2020
3100 Clouds 15 1013 80 10000 2.37 262 07:43 16.10.2020
3101 Clouds 15 1014 80 10000 2.37 262 07:43 16.10.2020
3102 Clouds 15 1013 78 10000 2.57 277 06:56 16.10.2020
3103 Clouds 16 1013 72 10000 2.17 283 05:25 16.10.2020
3104 Clouds 16 1013 68 10000 2.06 276 03:52 16.10.2020
3105 Clouds 16 1013 67 10000 3.39 278 01:43 16.10.2020
3106 Clouds 17 1013 65 10000 3.52 273 00:44 16.10.2020
3107 Clouds 17 1013 63 10000 3.82 271 23:57 15.10.2020
3108 Clouds 18 1013 62 10000 3.82 271 23:38 15.10.2020
3109 Clouds 18 1013 61 10000 4.17 276 23:19 15.10.2020
3110 Clouds 18 1013 62 10000 4.17 276 22:45 15.10.2020
3111 Clouds 18 1013 62 10000 4.33 278 22:21 15.10.2020
3112 Clouds 18 1013 62 10000 4.33 278 21:43 15.10.2020
3113 Clear 18 1012 61 10000 4.2 277 21:21 15.10.2020
3114 Clear 18 1012 62 10000 4.2 277 20:58 15.10.2020
3115 Clear 18 1012 62 10000 4.2 277 20:40 15.10.2020
3116 Clouds 19 1012 61 10000 4.11 276 20:18 15.10.2020
3117 Clouds 19 1012 61 10000 4.02 272 19:41 15.10.2020
3118 Clouds 20 1011 60 10000 4.18 276 19:21 15.10.2020
3119 Clouds 20 1011 60 10000 4.18 276 19:21 15.10.2020
3120 Clouds 20 1011 59 10000 4.18 276 18:42 15.10.2020
3121 Clouds 20 1011 59 10000 1.34 315 18:23 15.10.2020
3122 Clouds 21 1011 62 10000 0.89 350 17:47 15.10.2020
3123 Clouds 22 1011 61 10000 5.75 282 17:23 15.10.2020
3124 Clouds 21 1011 64 10000 7.7 270 16:49 15.10.2020
3125 Clouds 21 1011 64 10000 7.7 260 16:26 15.10.2020
3126 Clouds 21 1011 60 10000 8.2 270 15:57 15.10.2020
3127 Clouds 21 1011 64 10000 8.7 270 15:39 15.10.2020
3128 Clouds 21 1011 64 10000 8.7 270 15:20 15.10.2020
3129 Clouds 22 1010 60 10000 6.3 276 14:45 15.10.2020
3130 Clouds 22 1010 64 10000 6 271 14:23 15.10.2020
3131 Clouds 22 1010 64 10000 0.45 342 13:44 15.10.2020
3132 Rain 22 1010 63 10000 5.88 274 13:24 15.10.2020
3133 Clouds 23 1010 64 10000 0.45 267 12:52 15.10.2020
3134 Rain 23 1010 67 10000 3.54 255 12:29 15.10.2020
3135 Clouds 22 1010 72 10000 3.54 255 11:56 15.10.2020
3136 Clouds 22 1010 72 10000 3.54 255 11:38 15.10.2020
3137 Clouds 22 1010 73 10000 0.89 344 11:18 15.10.2020
3138 Clouds 22 949 72 10000 0.45 343 10:42 15.10.2020
3139 Clouds 22 949 79 10000 3.28 237 10:23 15.10.2020
3140 Clouds 21 949 83 10000 0.89 334 09:40 15.10.2020
3141 Clouds 21 949 79 10000 3.63 228 09:19 15.10.2020
3142 Clouds 22 948 72 10000 3.63 228 08:48 15.10.2020
3143 Clouds 19 1009 88 10000 9.3 290 08:25 15.10.2020
3144 Clouds 23 1009 60 10000 8.2 200 06:54 15.10.2020
3145 Clouds 22 1008 56 10000 8.2 200 05:53 15.10.2020
3146 Clouds 22 1008 49 10000 10.3 190 03:55 15.10.2020
3147 Clouds 22 1009 40 10000 10.3 180 01:43 15.10.2020
3148 Clouds 22 1009 43 10000 12.3 170 00:46 15.10.2020
3149 Clouds 22 949 49 10000 0.89 208 00:19 15.10.2020
3150 Clouds 22 949 50 10000 2.68 232 23:41 14.10.2020
3151 Clouds 22 949 53 10000 3.58 219 23:21 14.10.2020
3152 Clouds 22 949 55 10000 3.58 209 22:49 14.10.2020
3153 Clouds 22 948 56 10000 4.02 207 22:30 14.10.2020
3154 Clouds 22 949 58 10000 1.34 200 21:58 14.10.2020
3155 Clouds 22 949 58 10000 2.68 202 21:39 14.10.2020
3156 Clouds 22 949 58 10000 3.58 217 21:20 14.10.2020
3157 Clouds 22 948 59 10000 4.02 204 20:41 14.10.2020
3158 Clouds 22 948 59 10000 4.92 210 20:41 14.10.2020
3159 Clouds 22 948 59 10000 4.02 204 20:41 14.10.2020
3160 Clouds 22 948 59 10000 3.58 200 20:19 14.10.2020
3161 Clouds 22 947 60 10000 1.79 209 19:48 14.10.2020
3162 Clouds 22 947 61 10000 4.02 171 19:25 14.10.2020
3163 Clouds 22 947 59 10000 4.02 182 18:43 14.10.2020
3164 Clouds 23 947 59 10000 3.13 183 18:24 14.10.2020
3165 Clouds 23 947 59 10000 3.13 225 17:57 14.10.2020
3166 Clouds 23 948 57 10000 3.58 198 17:39 14.10.2020
3167 Clouds 24 948 54 10000 4.02 212 17:19 14.10.2020
3168 Clouds 24 1010 47 10000 11.3 200 16:40 14.10.2020
3169 Clouds 24 1011 47 10000 8.7 190 16:21 14.10.2020
3170 Clouds 24 1011 47 10000 12.3 200 15:45 14.10.2020
3171 Clouds 24 1011 47 10000 12.3 200 15:26 14.10.2020
3172 Clouds 24 1012 44 10000 10.8 200 14:45 14.10.2020
3173 Clear 24 951 49 10000 0.45 194 14:21 14.10.2020
3174 Clear 24 951 51 10000 0.45 313 13:47 14.10.2020
3175 Clear 24 951 49 10000 0.89 197 13:24 14.10.2020
3176 Clear 24 952 51 10000 0.89 235 12:54 14.10.2020
3177 Clear 24 952 52 10000 0.89 239 12:36 14.10.2020
3178 Clouds 23 952 53 10000 1.34 215 12:18 14.10.2020
3179 Clouds 23 952 52 10000 1.34 200 11:43 14.10.2020
3180 Clouds 23 952 52 10000 2.68 215 11:23 14.10.2020
3181 Clouds 22 952 55 10000 0.89 219 10:49 14.10.2020
3182 Clouds 21 952 57 10000 0.45 214 10:27 14.10.2020
3183 Clouds 21 953 55 10000 0.89 256 09:47 14.10.2020
3184 Clouds 21 953 58 10000 5.45 197 09:25 14.10.2020
3185 Clouds 20 953 68 10000 1.79 303 08:42 14.10.2020
3186 Clouds 20 953 70 10000 5.59 204 08:23 14.10.2020
3187 Clouds 19 953 72 10000 0.89 216 07:23 14.10.2020
3188 Clouds 19 952 75 10000 5.3 213 06:59 14.10.2020
3189 Clouds 19 952 75 10000 5.3 213 06:59 14.10.2020
3190 Clouds 19 953 78 10000 5.3 213 06:37 14.10.2020
3191 Clouds 19 953 79 10000 0.89 205 06:18 14.10.2020
3192 Clouds 17 953 80 10000 5.17 210 02:32 14.10.2020
3193 Clouds 17 953 80 10000 4.82 209 01:57 14.10.2020
3194 Clouds 17 954 76 10000 4.2 208 00:44 14.10.2020
3195 Clouds 17 953 76 10000 4.41 208 00:23 14.10.2020
3196 Clouds 17 954 75 10000 4.41 208 23:37 13.10.2020
3197 Clouds 17 954 74 10000 4.22 217 23:18 13.10.2020
3198 Clouds 17 953 71 10000 4.22 217 22:40 13.10.2020
3199 Clear 17 953 69 10000 3.2 242 22:22 13.10.2020
3200 Clear 18 953 65 10000 3.2 242 21:42 13.10.2020
3201 Clear 18 953 64 10000 3.34 262 21:21 13.10.2020
3202 Clear 19 953 64 10000 3.34 262 20:57 13.10.2020
3203 Clear 19 953 64 10000 3.34 262 20:37 13.10.2020
3204 Clear 19 952 62 10000 0.45 341 20:19 13.10.2020
3205 Clear 19 952 59 10000 3.68 279 19:43 13.10.2020
3206 Clear 19 952 57 10000 0.45 353 19:24 13.10.2020
3207 Clear 19 952 57 10000 4.54 282 18:57 13.10.2020
3208 Clear 19 952 56 10000 0.45 294 18:38 13.10.2020
3209 Clear 19 951 59 10000 0.45 209 18:19 13.10.2020
3210 Clear 19 951 60 10000 0.45 310 17:46 13.10.2020
3211 Clear 20 951 58 10000 0.89 7 17:27 13.10.2020
3212 Clouds 20 1012 52 10000 8.7 270 16:42 13.10.2020
3213 Clouds 20 1012 56 10000 9.3 270 16:20 13.10.2020
3214 Clouds 20 1012 56 10000 9.3 270 15:50 13.10.2020
3215 Clear 20 951 62 10000 8.42 274 15:23 13.10.2020
3216 Clear 20 951 73 10000 8.42 274 14:51 13.10.2020
3217 Rain 19 951 80 10000 8.15 275 14:28 13.10.2020
3218 Clouds 19 951 71 10000 7.99 273 13:50 13.10.2020
3219 Rain 19 951 69 10000 0.45 344 13:23 13.10.2020
3220 Clouds 19 951 77 10000 7.37 274 12:55 13.10.2020
3221 Clouds 19 951 75 10000 7.37 274 12:36 13.10.2020
3222 Clouds 18 951 82 10000 0.45 252 11:59 13.10.2020
3223 Clouds 18 950 90 10000 1.34 27 11:41 13.10.2020
3224 Rain 17 950 92 10000 0.45 339 11:21 13.10.2020
3225 Clouds 19 950 70 10000 1.34 335 10:57 13.10.2020
3226 Clouds 18 950 76 10000 6.55 282 10:39 13.10.2020
3227 Rain 18 950 81 10000 0.45 263 10:19 13.10.2020
3228 Clouds 17 950 83 10000 6.4 285 09:42 13.10.2020
3229 Rain 16 950 89 10000 1.34 38 09:22 13.10.2020
3230 Clouds 17 949 83 10000 5.98 284 08:52 13.10.2020
3231 Rain 16 949 85 10000 5.73 280 08:28 13.10.2020
3232 Clouds 16 949 88 10000 5.73 280 07:58 13.10.2020
3233 Clouds 16 949 88 10000 5.69 284 07:30 13.10.2020
3234 Clouds 16 949 86 10000 0.89 289 06:42 13.10.2020
3235 Clouds 17 949 77 10000 1.79 303 05:47 13.10.2020
3236 Clouds 17 990 78 10000 7.57 296 03:56 13.10.2020
3237 Clouds 18 989 73 10000 1.34 313 02:56 13.10.2020
3238 Clouds 17 989 77 10000 0.45 241 00:57 13.10.2020
3239 Rain 17 989 77 10000 0.45 343 00:28 13.10.2020
3240 Clouds 16 989 87 10000 6.97 270 23:44 12.10.2020
3241 Rain 15 989 88 10000 6.28 272 23:25 12.10.2020
3242 Clouds 15 989 88 10000 6.28 272 22:50 12.10.2020
3243 Clouds 15 989 96 10000 6.28 272 22:31 12.10.2020
3244 Clouds 14 988 98 10000 6.5 270 21:56 12.10.2020
3245 Clouds 14 988 96 10000 6.5 270 21:36 12.10.2020
3246 Rain 15 989 92 10000 6.99 264 21:18 12.10.2020
3247 Rain 16 988 86 10000 6.99 264 20:41 12.10.2020
3248 Rain 16 988 84 10000 7.83 251 20:20 12.10.2020
3249 Clouds 16 988 79 10000 7.83 251 19:44 12.10.2020
3250 Clouds 16 988 77 10000 0.89 11 19:26 12.10.2020
3251 Clouds 17 988 69 10000 2.68 352 18:50 12.10.2020
3252 Rain 19 987 59 10000 0.45 227 18:23 12.10.2020
3253 Clouds 20 986 57 10000 8.84 252 17:51 12.10.2020
3254 Rain 20 987 53 10000 1.34 291 17:29 12.10.2020
3255 Clouds 20 987 54 10000 0.89 238 16:58 12.10.2020
3256 Clouds 19 1007 60 10000 9.3 240 16:39 12.10.2020
3257 Clouds 20 987 55 10000 1.34 198 16:19 12.10.2020
3258 Clouds 19 1007 60 10000 9.3 240 16:19 12.10.2020
3259 Clouds 20 988 62 10000 1.34 272 15:43 12.10.2020
3260 Rain 20 988 65 10000 1.34 215 15:24 12.10.2020
3261 Clouds 20 988 62 10000 8.83 265 14:53 12.10.2020
3262 Clouds 20 1008 56 10000 8.7 260 14:28 12.10.2020
3263 Clouds 20 1008 52 10000 6.7 220 13:44 12.10.2020
3264 Clouds 21 989 52 10000 0.89 213 13:21 12.10.2020
3265 Clouds 20 989 52 10000 1.34 267 12:41 12.10.2020
3266 Clouds 20 989 61 10000 5.91 260 12:21 12.10.2020
3267 Clouds 20 1009 56 10000 8.2 260 11:41 12.10.2020
3268 Clouds 21 990 55 10000 0.45 235 11:20 12.10.2020
3269 Clouds 20 990 58 10000 5.14 248 10:48 12.10.2020
3270 Clouds 19 990 59 10000 0.45 244 10:24 12.10.2020
3271 Clouds 19 990 59 10000 0.89 222 09:56 12.10.2020
3272 Clouds 19 990 62 10000 0.89 226 09:32 12.10.2020
3273 Clouds 18 990 68 10000 5.11 251 08:46 12.10.2020
3274 Clouds 18 990 70 10000 4.61 257 08:24 12.10.2020
3275 Clouds 17 990 74 10000 4.69 239 07:41 12.10.2020
3276 Clouds 17 990 73 10000 4.18 246 06:36 12.10.2020
3277 Clouds 18 991 75 10000 5.43 251 05:30 12.10.2020
3278 Rain 17 992 86 10000 5.51 250 01:26 12.10.2020
3279 Rain 18 994 78 10000 6.75 273 23:51 11.10.2020
3280 Rain 18 993 75 10000 5.31 274 23:27 11.10.2020
3281 Clouds 18 992 83 10000 0.45 343 22:59 11.10.2020
3282 Rain 18 993 89 10000 5.31 274 22:37 11.10.2020
3283 Clouds 19 993 97 10000 1.34 321 21:58 11.10.2020
3284 Rain 19 993 94 10000 1.34 281 21:36 11.10.2020
3285 Rain 21 992 77 10000 1.34 329 21:18 11.10.2020
3286 Clouds 22 992 73 10000 5.94 268 20:38 11.10.2020
3287 Rain 22 992 73 10000 3.27 231 20:18 11.10.2020
3288 Clouds 23 992 72 10000 4.74 252 19:44 11.10.2020
3289 Rain 23 992 73 10000 4.06 247 19:24 11.10.2020
3290 Clouds 22 1012 73 10000 6.7 270 18:48 11.10.2020
3291 Rain 23 992 68 10000 3.83 253 18:30 11.10.2020
3292 Clouds 22 1012 78 10000 8.7 270 17:46 11.10.2020
3293 Clouds 22 1012 73 10000 7.7 280 17:23 11.10.2020
3294 Clouds 23 1012 60 10000 3.6 240 16:58 11.10.2020
3295 Clouds 24 1012 57 10000 3.1 240 16:40 11.10.2020
3296 Clouds 24 1012 57 10000 3.1 240 16:22 11.10.2020
3297 Clouds 23 1012 60 10000 4.1 240 15:48 11.10.2020
3298 Clouds 24 1013 64 10000 3.1 230 15:28 11.10.2020
3299 Clouds 23 1014 64 10000 5.7 280 14:44 11.10.2020
3300 Clouds 25 993 59 10000 0.45 341 14:25 11.10.2020
3301 Clouds 24 994 60 10000 0.45 272 13:45 11.10.2020
3302 Clear 24 994 63 10000 1.76 268 13:23 11.10.2020
3303 Clear 24 995 62 10000 1.76 268 12:47 11.10.2020
3304 Clear 24 995 62 10000 1.76 268 12:47 11.10.2020
3305 Clear 24 995 66 10000 0.89 349 12:28 11.10.2020
3306 Clear 23 995 67 10000 0.89 358 11:50 11.10.2020
3307 Clear 23 995 64 10000 1.37 254 11:26 11.10.2020
3308 Clear 22 995 65 10000 1.37 254 10:55 11.10.2020
3309 Clear 22 996 70 10000 1.54 256 10:30 11.10.2020
3310 Clear 21 996 72 10000 1.54 256 09:59 11.10.2020
3311 Clear 21 996 73 10000 1.54 256 09:39 11.10.2020
3312 Clear 20 996 75 10000 1.6 231 09:21 11.10.2020
3313 Clear 20 996 79 10000 1.6 231 08:49 11.10.2020
3314 Clouds 18 996 82 10000 1.57 243 08:23 11.10.2020
3315 Clear 17 996 88 10000 1.64 239 07:41 11.10.2020
3316 Clear 18 996 85 10000 1.17 240 04:59 11.10.2020
3317 Clear 18 997 83 10000 0.84 195 02:46 11.10.2020
3318 Clouds 18 998 82 10000 1.11 158 02:22 11.10.2020
3319 Clouds 19 999 80 10000 1.26 147 00:57 11.10.2020
3320 Clouds 19 998 80 10000 1.21 144 00:29 11.10.2020
3321 Clouds 19 999 78 10000 1.21 144 23:38 10.10.2020
3322 Clouds 20 999 77 10000 0.85 136 22:58 10.10.2020
3323 Clouds 20 999 76 10000 0.85 136 22:39 10.10.2020
3324 Clouds 20 999 75 10000 1.09 119 22:20 10.10.2020
3325 Clouds 21 999 73 10000 1.09 119 21:42 10.10.2020
3326 Clouds 21 999 71 10000 1.36 112 21:23 10.10.2020
3327 Clouds 21 999 70 10000 1.36 112 20:55 10.10.2020
3328 Clouds 21 999 69 10000 1.36 112 20:30 10.10.2020
3329 Clear 22 999 67 10000 1.48 87 19:58 10.10.2020
3330 Clear 22 999 66 10000 1.48 87 19:39 10.10.2020
3331 Clear 22 999 65 10000 1.59 66 19:20 10.10.2020
3332 Clear 22 999 63 10000 1.59 66 18:37 10.10.2020
3333 Clear 23 999 61 10000 2.01 55 18:18 10.10.2020
3334 Clear 23 999 58 10000 2.01 55 17:39 10.10.2020
3335 Clear 23 1018 56 10000 7.2 40 17:21 10.10.2020
3336 Clear 22 1019 64 10000 6.2 40 16:47 10.10.2020
3337 Clear 23 1019 64 10000 6.2 40 16:25 10.10.2020
3338 Clear 23 1019 60 10000 5.7 40 15:41 10.10.2020
3339 Clear 23 1019 60 10000 5.7 40 15:21 10.10.2020
3340 Clear 23 1019 64 10000 5.1 30 14:57 10.10.2020
3341 Clear 23 1020 60 10000 4.6 30 14:34 10.10.2020
3342 Clear 24 1000 58 10000 0.45 355 13:58 10.10.2020
3343 Clear 24 1000 57 10000 2 5 13:39 10.10.2020
3344 Clear 24 1001 56 10000 0.45 338 13:19 10.10.2020
3345 Clear 24 1001 55 10000 1.53 5 12:52 10.10.2020
3346 Clear 24 1001 55 10000 1.53 5 12:33 10.10.2020
3347 Clear 23 1002 54 10000 0.89 9 11:50 10.10.2020
3348 Clouds 23 1002 55 10000 0.54 36 11:24 10.10.2020
3349 Clouds 23 1002 55 10000 0.54 36 11:24 10.10.2020
3350 Clouds 22 1002 61 10000 0.54 36 10:50 10.10.2020
3351 Clear 22 1002 63 10000 0.56 4 10:30 10.10.2020
3352 Clear 21 1002 68 10000 0.56 4 09:59 10.10.2020
3353 Clear 21 1002 68 10000 0.56 4 09:40 10.10.2020
3354 Clear 19 1002 68 10000 0.08 134 08:59 10.10.2020
3355 Clear 18 1001 68 10000 0.08 134 08:39 10.10.2020
3356 Clear 18 1001 67 10000 0.55 178 08:20 10.10.2020
3357 Clear 17 1001 69 10000 0.47 177 07:39 10.10.2020
3358 Clear 17 1001 68 10000 0.47 177 07:39 10.10.2020
3359 Clear 18 1001 79 10000 0.92 189 05:52 10.10.2020
3360 Clear 18 1001 81 10000 1.66 140 02:27 10.10.2020
3361 Clear 18 1001 81 10000 1.66 140 02:27 10.10.2020
3362 Clear 19 1002 79 10000 1.54 130 00:47 10.10.2020
3363 Clear 19 1002 78 10000 1.53 122 00:24 10.10.2020
3364 Clear 20 1002 77 10000 1.53 122 23:42 09.10.2020
3365 Clear 20 1003 76 10000 1.69 101 23:22 09.10.2020
3366 Clear 20 1021 64 10000 5.1 70 22:44 09.10.2020
3367 Clear 20 1021 64 10000 5.1 70 22:23 09.10.2020
3368 Clear 20 1021 64 10000 5.1 70 21:44 09.10.2020
3369 Clear 20 1021 64 10000 5.1 70 21:21 09.10.2020
3370 Clear 21 1021 60 10000 5.1 70 20:50 09.10.2020
3371 Clear 21 1021 60 10000 5.7 60 20:29 09.10.2020
3372 Clear 20 1003 69 10000 1.93 67 19:56 09.10.2020
3373 Clear 21 1003 68 10000 1.9 70 19:37 09.10.2020
3374 Clear 21 1003 68 10000 2.05 59 19:18 09.10.2020
3375 Clear 22 1003 67 10000 2.05 59 18:51 09.10.2020
3376 Clear 22 1002 64 10000 2.6 49 18:22 09.10.2020
3377 Clear 23 1002 61 10000 0.45 334 17:53 09.10.2020
3378 Clear 23 1021 60 10000 6.2 40 17:19 09.10.2020
3379 Clear 23 1021 53 10000 6.2 40 16:42 09.10.2020
3380 Clear 23 1021 53 10000 6.2 40 16:24 09.10.2020
3381 Clear 23 1021 53 10000 6.7 40 15:46 09.10.2020
3382 Clear 24 1002 54 10000 0.45 341 15:25 09.10.2020
3383 Clear 24 1002 48 10000 0.45 350 14:48 09.10.2020
3384 Clear 24 1002 47 10000 2.63 36 14:29 09.10.2020
3385 Clouds 24 1003 47 10000 2.64 36 13:42 09.10.2020
3386 Clouds 24 1003 50 10000 2.22 47 13:22 09.10.2020
3387 Clouds 23 1023 64 10000 4.6 30 12:41 09.10.2020
3388 Clouds 23 1022 60 10000 4.6 30 12:20 09.10.2020
3389 Clouds 23 1022 60 10000 4.6 30 11:57 09.10.2020
3390 Clouds 23 1003 57 10000 2.29 59 11:38 09.10.2020
3391 Clouds 23 1023 60 10000 4.1 30 11:19 09.10.2020
3392 Clouds 22 1022 60 10000 4.1 50 10:42 09.10.2020
3393 Clouds 22 1022 60 10000 4.1 50 10:22 09.10.2020
3394 Clouds 21 1022 60 10000 3.6 70 09:38 09.10.2020
3395 Clouds 21 1003 76 10000 2.44 67 09:19 09.10.2020
3396 Clouds 20 1003 81 10000 2.37 65 08:28 09.10.2020
3397 Clear 18 1003 82 10000 2.5 72 07:57 09.10.2020
3398 Clear 17 1002 81 10000 2.44 67 07:22 09.10.2020
3399 Clear 19 1003 80 10000 2.44 67 06:53 09.10.2020
3400 Clear 17 1003 80 10000 2.48 62 06:25 09.10.2020
3401 Clear 18 1002 77 10000 2.51 56 04:30 09.10.2020
3402 Clear 19 1003 75 10000 2.31 63 02:39 09.10.2020
3403 Clear 20 1003 74 10000 2.45 54 00:53 09.10.2020
3404 Clear 20 1022 59 10000 4.1 70 00:33 09.10.2020
3405 Clear 20 1022 63 10000 3.6 70 23:45 08.10.2020
3406 Clear 20 1022 63 10000 3.6 70 23:26 08.10.2020
3407 Clear 20 1022 60 10000 4.6 60 22:45 08.10.2020
3408 Clear 20 1022 60 10000 5.1 50 22:26 08.10.2020
3409 Clear 20 1021 60 10000 5.1 50 21:59 08.10.2020
3410 Clear 21 1021 56 10000 5.1 50 21:41 08.10.2020
3411 Clear 21 1021 56 10000 5.1 50 21:23 08.10.2020
3412 Clear 21 1021 60 10000 5.1 40 20:42 08.10.2020
3413 Clear 21 1021 60 10000 5.1 40 20:42 08.10.2020
3414 Clouds 21 1021 60 10000 5.7 50 20:23 08.10.2020
3415 Clouds 21 1020 60 10000 5.1 40 19:55 08.10.2020
3416 Clouds 21 1020 60 10000 5.1 40 19:35 08.10.2020
3417 Clouds 22 1020 56 10000 5.7 40 18:58 08.10.2020
3418 Clouds 22 1020 56 10000 6.2 40 18:38 08.10.2020
3419 Clouds 22 1020 56 10000 5.1 40 18:18 08.10.2020
3420 Clouds 23 1020 56 10000 5.7 50 17:24 08.10.2020
3421 Clouds 22 1020 60 10000 5.7 30 16:58 08.10.2020
3422 Clouds 22 1019 60 10000 6.2 40 16:40 08.10.2020
3423 Clouds 22 1019 60 10000 6.2 40 16:22 08.10.2020
3424 Clouds 22 1019 64 10000 6.2 40 15:45 08.10.2020
3425 Clouds 24 1019 64 10000 6.2 40 15:24 08.10.2020
3426 Clouds 24 1019 64 10000 6.2 40 15:24 08.10.2020
3427 Clouds 24 1019 64 10000 3.6 10 14:55 08.10.2020
3428 Clouds 24 1020 60 10000 3.6 20 14:37 08.10.2020
3429 Clouds 24 1020 60 10000 3.6 20 14:18 08.10.2020
3430 Clouds 23 1020 64 10000 4.1 10 13:42 08.10.2020
3431 Clouds 23 1020 64 10000 4.1 10 13:18 08.10.2020
3432 Clouds 23 1020 68 10000 5.7 360 12:41 08.10.2020
3433 Clouds 23 1020 68 10000 5.7 360 12:21 08.10.2020
3434 Clouds 23 1019 68 10000 5.1 360 11:53 08.10.2020
3435 Clouds 22 1019 68 10000 6.7 350 11:27 08.10.2020
3436 Clouds 22 1019 73 10000 4.6 360 10:49 08.10.2020
3437 Clouds 22 1019 73 10000 4.6 360 10:31 08.10.2020
3438 Clouds 22 1000 72 10000 0.45 343 09:58 08.10.2020
3439 Clouds 22 1018 64 10000 6.2 350 09:38 08.10.2020
3440 Clouds 22 1018 64 10000 6.2 350 09:20 08.10.2020
3441 Clouds 21 1018 60 10000 6.2 340 08:39 08.10.2020
3442 Clouds 21 1017 68 10000 5.7 340 08:20 08.10.2020
3443 Clouds 21 1017 68 10000 5.7 340 07:49 08.10.2020
3444 Clouds 21 1017 68 10000 4.6 340 07:23 08.10.2020
3445 Clouds 21 1017 64 10000 5.7 320 06:30 08.10.2020
3446 Clouds 21 1017 64 10000 6.7 340 05:19 08.10.2020
3447 Clouds 21 997 76 10000 0.45 336 02:53 08.10.2020
3448 Clouds 22 997 77 10000 0.45 299 01:48 08.10.2020
3449 Clouds 22 997 74 10000 4.93 249 23:42 07.10.2020
3450 Rain 22 997 73 10000 4.57 235 23:23 07.10.2020
3451 Rain 22 997 73 10000 4.57 235 23:23 07.10.2020
3452 Clouds 22 997 73 10000 0.45 251 22:59 07.10.2020
3453 Clouds 22 997 75 10000 0.45 278 22:41 07.10.2020
3454 Clouds 22 997 75 10000 4.69 242 22:22 07.10.2020
3455 Clouds 22 997 74 10000 0.89 332 21:42 07.10.2020
3456 Clouds 22 997 74 10000 1.34 288 21:23 07.10.2020
3457 Clouds 22 997 70 10000 0.45 354 20:44 07.10.2020
3458 Clouds 22 996 69 10000 5.22 255 20:26 07.10.2020
3459 Clouds 22 996 72 10000 4.96 255 19:49 07.10.2020
3460 Clouds 22 996 72 10000 0.45 240 19:21 07.10.2020
3461 Clouds 22 996 72 10000 0.45 270 18:59 07.10.2020
3462 Clouds 23 996 72 10000 5.06 263 18:40 07.10.2020
3463 Clouds 23 996 72 10000 5.04 268 18:20 07.10.2020
3464 Clouds 23 996 70 10000 1.34 329 17:49 07.10.2020
3465 Clouds 23 996 69 10000 1.34 326 17:31 07.10.2020
3466 Clouds 23 1016 73 10000 7.2 280 16:51 07.10.2020
3467 Clouds 24 996 64 10000 4.86 281 16:22 07.10.2020
3468 Clouds 24 1017 64 10000 3.6 230 15:57 07.10.2020
3469 Clouds 24 1017 68 10000 3.1 240 15:39 07.10.2020
3470 Clouds 23 1017 69 10000 3.6 240 15:18 07.10.2020
3471 Clouds 23 1017 73 10000 6.2 260 14:42 07.10.2020
3472 Clouds 23 1017 73 10000 6.2 260 14:23 07.10.2020
3473 Clouds 23 1018 60 10000 3.6 220 13:49 07.10.2020
3474 Clouds 24 1018 60 10000 3.6 220 13:23 07.10.2020
3475 Clouds 24 1018 64 10000 3.6 220 12:48 07.10.2020
3476 Clouds 23 1018 60 10000 4.6 190 12:24 07.10.2020
3477 Clouds 23 1018 60 10000 4.6 210 11:52 07.10.2020
3478 Clouds 22 1018 60 10000 3.6 210 11:26 07.10.2020
3479 Clouds 22 1018 60 10000 3.6 210 10:57 07.10.2020
3480 Clouds 22 999 69 10000 2.81 267 10:33 07.10.2020
3481 Clouds 21 999 75 10000 2.22 267 09:45 07.10.2020
3482 Clouds 20 999 77 10000 1.73 231 09:21 07.10.2020
3483 Clouds 20 999 82 10000 1.73 231 08:48 07.10.2020
3484 Clouds 19 999 82 10000 2.15 199 08:24 07.10.2020
3485 Clouds 19 999 83 10000 1.39 217 07:26 07.10.2020
3486 Clouds 18 999 84 10000 1.25 278 05:58 07.10.2020
3487 Clouds 18 999 84 10000 1.25 278 05:36 07.10.2020
3488 Clouds 18 1000 80 10000 2.14 319 02:55 07.10.2020
3489 Clear 19 1000 77 10000 1.05 21 01:31 07.10.2020
3490 Clear 19 1000 75 10000 1.66 37 00:24 07.10.2020
3491 Clear 20 1001 73 10000 1.66 37 23:42 06.10.2020
3492 Clear 20 1001 72 10000 2.28 20 23:20 06.10.2020
3493 Clouds 20 1020 60 10000 3.6 20 22:41 06.10.2020
3494 Clouds 20 1020 60 10000 3.6 20 22:22 06.10.2020
3495 Clouds 21 1019 56 10000 3.1 20 21:45 06.10.2020
3496 Clouds 21 1019 56 10000 3.1 20 21:25 06.10.2020
3497 Clouds 21 1019 60 10000 3.6 10 20:46 06.10.2020
3498 Clouds 21 1019 56 10000 3.6 20 20:24 06.10.2020
3499 Clouds 21 1019 56 10000 3.6 10 19:55 06.10.2020
3500 Clouds 20 1000 69 10000 3.04 1 19:26 06.10.2020
3501 Clouds 21 1000 69 10000 3.04 1 18:51 06.10.2020
3502 Clouds 21 1000 67 10000 3.83 350 18:29 06.10.2020
3503 Clouds 22 999 67 10000 3.83 350 17:58 06.10.2020
3504 Clouds 22 1019 64 10000 5.1 10 17:40 06.10.2020
3505 Clouds 22 999 67 10000 0.89 333 17:19 06.10.2020
3506 Clouds 22 999 66 10000 0.45 323 16:41 06.10.2020
3507 Clouds 22 1019 68 10000 6.2 20 16:21 06.10.2020
3508 Clouds 23 999 69 10000 0.45 1 15:48 06.10.2020
3509 Rain 23 999 69 10000 0.89 358 15:29 06.10.2020
3510 Clouds 22 999 72 10000 0.45 347 14:47 06.10.2020
3511 Rain 23 999 73 10000 1.79 9 14:24 06.10.2020
3512 Clouds 23 999 70 10000 0.89 353 13:58 06.10.2020
3513 Clear 23 999 69 10000 1.79 6 13:39 06.10.2020
3514 Rain 23 999 72 10000 0.89 356 13:19 06.10.2020
3515 Clouds 23 1019 64 10000 6.2 360 12:43 06.10.2020
3516 Clear 23 999 77 10000 4.89 339 12:25 06.10.2020
3517 Clear 23 999 76 10000 0.45 7 11:43 06.10.2020
3518 Clear 23 999 73 10000 0.45 24 11:23 06.10.2020
3519 Clouds 23 1017 53 10000 2.6 300 10:44 06.10.2020
3520 Clouds 23 1017 53 10000 2.6 300 10:26 06.10.2020
3521 Clouds 22 1017 60 10000 2.6 300 09:47 06.10.2020
3522 Clouds 22 1016 60 10000 3.6 310 09:20 06.10.2020
3523 Clear 22 997 74 10000 1.85 282 08:47 06.10.2020
3524 Clouds 21 997 77 10000 1.53 264 08:29 06.10.2020
3525 Clear 21 1016 64 10000 3.1 320 07:39 06.10.2020
3526 Clear 22 1016 64 10000 3.1 310 07:21 06.10.2020
3527 Clear 22 1016 68 10000 4.1 310 05:54 06.10.2020
3528 Clear 22 1016 68 10000 1 160 02:36 06.10.2020
3529 Clouds 22 1016 69 10000 3.1 300 00:46 06.10.2020
3530 Rain 22 1016 69 10000 3.1 300 00:25 06.10.2020
3531 Clouds 23 1016 73 10000 2.6 320 23:57 05.10.2020
3532 Rain 22 997 81 10000 2.07 301 23:31 05.10.2020
3533 Clouds 22 996 80 10000 2.07 301 22:51 05.10.2020
3534 Rain 23 997 80 10000 2 351 22:24 05.10.2020
3535 Clouds 23 996 80 10000 2 351 21:49 05.10.2020
3536 Rain 23 996 80 10000 1.66 330 21:29 05.10.2020
3537 Clouds 23 995 80 10000 1.66 330 20:49 05.10.2020
3538 Clouds 23 995 80 10000 1.74 340 20:30 05.10.2020
3539 Clouds 23 995 79 10000 1.74 340 19:56 05.10.2020
3540 Clouds 23 995 79 10000 0.45 347 19:37 05.10.2020
3541 Rain 23 995 78 10000 0.45 353 19:19 05.10.2020
3542 Clouds 23 994 77 10000 0.89 2 18:42 05.10.2020
3543 Clouds 24 994 75 10000 0.45 4 18:20 05.10.2020
3544 Clouds 24 994 74 10000 1.44 42 17:42 05.10.2020
3545 Clouds 24 994 72 10000 2.53 18 17:23 05.10.2020
3546 Clouds 25 994 72 10000 2.53 18 16:47 05.10.2020
3547 Clouds 25 994 71 10000 2.56 26 16:29 05.10.2020
3548 Clouds 25 994 63 10000 0.45 6 15:49 05.10.2020
3549 Clouds 25 994 62 10000 2.53 14 15:25 05.10.2020
3550 Clouds 25 994 59 10000 1.34 282 14:57 05.10.2020
3551 Clouds 25 994 60 10000 2.53 14 14:37 05.10.2020
3552 Clouds 25 994 61 10000 0.89 325 14:19 05.10.2020
3553 Clouds 24 1014 69 10000 2.1 300 13:43 05.10.2020
3554 Clouds 25 1014 69 10000 2.1 300 13:21 05.10.2020
3555 Clouds 25 1014 69 10000 3.1 300 12:45 05.10.2020
3556 Clouds 25 1014 64 10000 3.1 310 12:24 05.10.2020
3557 Clouds 24 1013 69 10000 2.6 310 11:55 05.10.2020
3558 Clouds 25 994 74 10000 0.45 355 11:32 05.10.2020
3559 Clouds 25 1013 64 10000 1 300 10:57 05.10.2020
3560 Clouds 24 1013 69 10000 1 270 10:37 05.10.2020
3561 Clouds 24 1013 69 10000 1 0 10:19 05.10.2020
3562 Clouds 23 993 87 10000 1.73 329 09:50 05.10.2020
3563 Clouds 23 993 91 10000 1.38 325 09:18 05.10.2020
3564 Clouds 22 993 93 10000 1.38 325 08:38 05.10.2020
3565 Clouds 22 993 94 10000 1.71 327 08:20 05.10.2020
3566 Clouds 21 993 91 10000 1 300 07:26 05.10.2020
3567 Clouds 21 992 86 10000 1.13 246 05:25 05.10.2020
3568 Clouds 21 992 83 10000 0.71 165 02:23 05.10.2020
3569 Clouds 22 992 82 10000 1.5 137 00:35 05.10.2020
3570 Clouds 22 992 81 10000 1.79 109 23:43 04.10.2020
3571 Clouds 22 992 80 10000 2.67 111 23:19 04.10.2020
3572 Clouds 22 992 79 10000 2.67 111 22:42 04.10.2020
3573 Clear 22 991 79 10000 3.13 116 22:20 04.10.2020
3574 Clear 22 992 78 10000 3.13 116 21:47 04.10.2020
3575 Clear 22 992 77 10000 2.22 107 21:21 04.10.2020
3576 Clear 22 992 77 10000 2.22 107 20:56 04.10.2020
3577 Clear 23 992 76 10000 2.22 107 20:38 04.10.2020
3578 Clear 23 992 76 10000 1.1 90 20:19 04.10.2020
3579 Clear 23 992 74 10000 1.87 90 19:47 04.10.2020
3580 Clear 23 992 74 10000 1.31 51 19:29 04.10.2020
3581 Clear 23 992 72 10000 1.31 51 18:48 04.10.2020
3582 Clear 24 992 70 10000 0.95 57 18:24 04.10.2020
3583 Clear 24 992 66 10000 0.95 57 17:44 04.10.2020
3584 Clear 25 992 63 10000 1.55 88 17:25 04.10.2020
3585 Clear 24 1011 60 10000 5.7 30 16:58 04.10.2020
3586 Clear 24 1012 60 10000 4.6 30 16:39 04.10.2020
3587 Clear 24 1012 60 10000 4.6 30 16:19 04.10.2020
3588 Clear 24 1012 60 10000 3.6 20 15:48 04.10.2020
3589 Clear 24 1012 60 10000 4.1 30 15:48 04.10.2020
3590 Clear 24 1012 60 10000 3.6 20 15:19 04.10.2020
3591 Clear 24 1012 60 10000 4.1 20 14:52 04.10.2020
3592 Clear 26 992 59 10000 2.15 24 14:29 04.10.2020
3593 Clear 25 993 58 10000 1.96 10 13:59 04.10.2020
3594 Clear 25 993 59 10000 0.89 307 13:40 04.10.2020
3595 Clear 24 1013 60 10000 4.6 30 13:20 04.10.2020
3596 Clear 25 993 58 10000 1.98 7 12:41 04.10.2020
3597 Clear 25 993 58 10000 2.05 356 12:23 04.10.2020
3598 Clear 24 1013 56 10000 4.1 30 11:42 04.10.2020
3599 Clear 24 1013 56 10000 4.1 30 11:24 04.10.2020
3600 Clear 24 1013 56 10000 4.1 30 10:51 04.10.2020
3601 Clear 23 1013 60 10000 3.6 30 10:32 04.10.2020
3602 Clear 23 1012 56 10000 3.6 40 09:47 04.10.2020
3603 Clouds 22 1012 56 10000 3.1 30 09:26 04.10.2020
3604 Clouds 22 993 62 10000 0.76 37 08:58 04.10.2020
3605 Clouds 21 993 65 10000 0.76 37 08:36 04.10.2020
3606 Clouds 21 993 66 10000 1.02 359 08:18 04.10.2020
3607 Clouds 20 993 66 10000 1.02 359 07:42 04.10.2020
3608 Clouds 21 1013 64 10000 1.5 40 07:21 04.10.2020
3609 Clouds 22 1012 53 10000 2.6 340 06:40 04.10.2020
3610 Clouds 22 1012 53 10000 2.6 340 06:22 04.10.2020
3611 Clouds 23 1012 60 10000 4.1 290 02:53 04.10.2020
3612 Clouds 23 1012 68 10000 5.1 270 01:29 04.10.2020
3613 Clouds 23 1012 64 10000 7.2 270 00:49 04.10.2020
3614 Clouds 23 1011 69 10000 7.7 280 23:41 03.10.2020
3615 Clouds 23 1011 69 10000 7.7 280 23:22 03.10.2020
3616 Clouds 23 1010 73 10000 7.2 280 22:41 03.10.2020
3617 Clouds 23 1010 73 10000 7.2 280 22:21 03.10.2020
3618 Clouds 23 1009 69 10000 4.6 280 21:49 03.10.2020
3619 Clouds 23 1009 64 10000 3.1 280 21:28 03.10.2020
3620 Clouds 23 1008 64 10000 3.1 280 20:58 03.10.2020
3621 Clouds 23 1007 69 10000 3.6 310 20:38 03.10.2020
3622 Clouds 23 1007 69 10000 4.1 310 20:19 03.10.2020
3623 Clouds 24 1006 73 10000 4.6 310 19:39 03.10.2020
3624 Clouds 24 1006 73 10000 4.6 330 19:20 03.10.2020
3625 Clouds 24 1006 73 10000 4.6 330 18:50 03.10.2020
3626 Clouds 25 985 81 10000 0.45 157 18:25 03.10.2020
3627 Clouds 26 985 77 10000 0.89 354 17:59 03.10.2020
3628 Clouds 26 985 73 10000 0.45 22 17:37 03.10.2020
3629 Clouds 27 1004 78 10000 2.1 310 17:18 03.10.2020
3630 Clouds 25 1004 78 10000 2.1 310 16:41 03.10.2020
3631 Clouds 28 1004 78 10000 2.1 310 16:22 03.10.2020
3632 Clouds 36 1002 25 10000 8.7 190 15:45 03.10.2020
3633 Clouds 35 1002 25 10000 8.7 190 15:21 03.10.2020
3634 Clouds 36 1002 25 10000 8.7 180 14:57 03.10.2020
3635 Clouds 36 1002 25 10000 8.2 180 14:38 03.10.2020
3636 Clouds 35 1002 25 10000 8.2 180 14:20 03.10.2020
3637 Clouds 35 1001 22 10000 11.3 180 13:43 03.10.2020
3638 Clouds 35 1001 22 10000 11.3 180 13:24 03.10.2020
3639 Clouds 35 1001 22 10000 9.8 190 12:50 03.10.2020
3640 Clouds 34 1001 24 10000 9.3 190 12:23 03.10.2020
3641 Clouds 33 1002 26 10000 10.3 180 11:52 03.10.2020
3642 Clouds 32 1002 28 10000 9.3 180 11:24 03.10.2020
3643 Clouds 32 1002 24 10000 9.3 190 10:59 03.10.2020
3644 Clouds 32 1001 21 10000 7.2 190 10:40 03.10.2020
3645 Clouds 32 1001 21 10000 7.2 190 10:21 03.10.2020
3646 Clouds 30 1001 26 10000 7.7 190 09:45 03.10.2020
3647 Clouds 30 1001 27 10000 8.7 200 09:20 03.10.2020
3648 Clouds 30 982 39 10000 6.6 176 08:46 03.10.2020
3649 Clouds 33 1001 26 10000 10.8 180 08:28 03.10.2020
3650 Clouds 30 1001 26 10000 11.3 180 07:44 03.10.2020
3651 Clouds 33 1001 26 10000 11.3 180 07:22 03.10.2020
3652 Clouds 32 1001 27 10000 8.7 190 06:48 03.10.2020
3653 Clear 29 1001 24 10000 9.8 200 05:41 03.10.2020
3654 Clear 29 1001 22 10000 9.8 180 04:38 03.10.2020
3655 Clear 29 1002 23 10000 7.2 200 03:41 03.10.2020
3656 Clear 25 983 63 10000 4.18 164 00:42 03.10.2020
3657 Clear 24 983 67 10000 3.7 169 00:19 03.10.2020
3658 Clear 24 984 74 10000 3.7 169 23:43 02.10.2020
3659 Clear 24 984 83 10000 3.58 171 23:24 02.10.2020
3660 Clear 24 984 87 10000 3.58 171 22:52 02.10.2020
3661 Clear 24 985 89 10000 3.56 158 22:27 02.10.2020
3662 Clear 25 985 92 10000 3.56 158 21:52 02.10.2020
3663 Clear 25 985 92 10000 3.56 158 21:52 02.10.2020
3664 Clear 25 985 92 10000 3.56 158 21:30 02.10.2020
3665 Clear 24 985 89 10000 3.54 134 20:57 02.10.2020
3666 Clear 24 985 88 10000 3.54 134 20:38 02.10.2020
3667 Clouds 24 985 88 10000 2.75 140 20:20 02.10.2020
3668 Clouds 25 986 86 10000 3.23 133 19:42 02.10.2020
3669 Clouds 25 985 84 10000 2.33 131 19:19 02.10.2020
3670 Clouds 25 985 80 10000 2.33 131 18:43 02.10.2020
3671 Clouds 25 985 78 10000 1.94 118 18:24 02.10.2020
3672 Clouds 26 985 76 10000 1.94 118 17:56 02.10.2020
3673 Clouds 26 985 72 10000 1.94 118 17:37 02.10.2020
3674 Clouds 26 1005 65 10000 5.1 40 17:19 02.10.2020
3675 Clouds 26 1005 61 10000 4.1 20 16:31 02.10.2020
3676 Clouds 26 1005 61 10000 5.1 40 15:55 02.10.2020
3677 Clouds 27 986 65 10000 1.47 109 15:36 02.10.2020
3678 Clouds 27 986 63 10000 0.64 111 14:57 02.10.2020
3679 Clouds 27 986 63 10000 0.64 111 14:39 02.10.2020
3680 Clear 27 986 63 10000 0.43 103 14:18 02.10.2020
3681 Clear 27 986 62 10000 0.49 63 13:44 02.10.2020
3682 Clear 27 986 61 10000 0.45 358 13:18 02.10.2020
3683 Clear 27 986 57 10000 0.45 351 12:43 02.10.2020
3684 Clear 26 987 58 10000 0.86 134 12:21 02.10.2020
3685 Clear 26 987 63 10000 0.86 134 11:46 02.10.2020
3686 Clear 26 987 65 10000 0.84 124 11:26 02.10.2020
3687 Clear 25 987 70 10000 0.84 124 10:48 02.10.2020
3688 Clear 24 987 74 10000 1.22 146 10:27 02.10.2020
3689 Clear 23 988 83 10000 1.22 146 09:52 02.10.2020
3690 Clear 22 988 87 10000 1.28 164 09:29 02.10.2020
3691 Clear 22 988 89 10000 1.28 164 08:55 02.10.2020
3692 Clear 21 988 91 10000 1.28 164 08:35 02.10.2020
3693 Clear 21 988 92 10000 1.54 159 07:56 02.10.2020
3694 Clear 20 988 92 10000 1.04 174 07:23 02.10.2020
3695 Clear 20 988 95 10000 1.65 159 06:22 02.10.2020
3696 Clear 22 989 83 10000 1.97 152 02:54 02.10.2020
3697 Clouds 21 989 81 10000 2.03 132 02:21 02.10.2020
3698 Clouds 22 1009 73 10000 2.6 100 00:28 02.10.2020
3699 Clouds 22 990 75 10000 2.24 134 23:58 01.10.2020
3700 Clouds 23 1009 73 10000 4.6 70 23:39 01.10.2020
3701 Clouds 23 1009 73 10000 4.6 70 23:21 01.10.2020
3702 Clouds 23 1009 69 10000 5.7 70 22:41 01.10.2020
3703 Clouds 23 1009 69 10000 5.7 70 22:41 01.10.2020
3704 Clouds 23 1009 69 10000 5.7 70 22:22 01.10.2020
3705 Clouds 23 990 78 10000 1.95 96 21:44 01.10.2020
3706 Clouds 23 990 78 10000 1.86 87 21:22 01.10.2020
3707 Clouds 23 990 78 10000 1.86 87 21:22 01.10.2020
3708 Clouds 23 990 79 10000 1.86 87 20:59 01.10.2020
3709 Clouds 23 990 79 10000 1.86 87 20:39 01.10.2020
3710 Clouds 23 990 79 10000 1.6 65 20:19 01.10.2020
3711 Clouds 23 990 78 10000 1.6 65 19:42 01.10.2020
3712 Clouds 23 990 78 10000 1.98 59 19:23 01.10.2020
3713 Clouds 24 1008 64 10000 6.7 60 18:46 01.10.2020
3714 Clouds 24 1008 64 10000 6.7 60 18:24 01.10.2020
3715 Clouds 24 1008 65 10000 7.2 60 17:44 01.10.2020
3716 Clouds 24 989 77 10000 2.16 34 17:26 01.10.2020
3717 Clouds 24 1008 69 10000 6.2 60 16:45 01.10.2020
3718 Clouds 24 989 79 10000 1.64 22 16:25 01.10.2020
3719 Clouds 25 1009 65 10000 6.2 60 15:56 01.10.2020
3720 Clouds 25 1009 61 10000 5.1 70 15:27 01.10.2020
3721 Clouds 26 1009 65 10000 5.1 60 14:47 01.10.2020
3722 Clouds 26 1009 65 10000 5.1 60 14:29 01.10.2020
3723 Clouds 26 1009 61 10000 4.6 50 13:49 01.10.2020
3724 Clouds 25 1010 65 10000 5.1 50 13:30 01.10.2020
3725 Clouds 25 1010 69 10000 4.6 60 12:41 01.10.2020
3726 Clouds 25 1010 69 10000 4.6 60 12:20 01.10.2020
3727 Clouds 25 991 73 10000 1.53 104 11:42 01.10.2020
3728 Clouds 25 1010 78 10000 1 300 11:24 01.10.2020
3729 Clouds 24 1010 78 10000 1 300 10:47 01.10.2020
3730 Clouds 24 991 80 10000 1.97 113 10:25 01.10.2020
3731 Clouds 24 991 83 10000 0.45 241 09:55 01.10.2020
3732 Clouds 23 991 84 10000 1.97 113 09:37 01.10.2020
3733 Clouds 23 1010 83 10000 1.5 100 09:19 01.10.2020
3734 Clouds 22 991 90 10000 2.14 119 08:41 01.10.2020
3735 Clouds 22 991 95 10000 2.35 121 07:57 01.10.2020
3736 Clouds 21 991 96 10000 2.65 120 07:27 01.10.2020
3737 Clouds 21 991 96 10000 2.65 120 07:27 01.10.2020
3738 Clouds 21 991 94 10000 2.65 120 06:46 01.10.2020
3739 Clouds 21 991 94 10000 2.62 116 05:33 01.10.2020
3740 Clouds 22 993 88 10000 2.01 138 00:38 01.10.2020
3741 Clouds 22 993 87 10000 2.25 132 23:42 30.09.2020
3742 Clouds 22 1013 69 10000 1 30 22:59 30.09.2020
3743 Clouds 22 1013 69 10000 0.5 0 22:40 30.09.2020
3744 Clouds 22 1013 69 10000 0.5 0 22:21 30.09.2020
3745 Clouds 23 1013 69 10000 2.6 60 21:44 30.09.2020
3746 Clouds 23 1013 69 10000 3.1 70 21:19 30.09.2020
3747 Clouds 23 1012 69 10000 4.6 70 20:44 30.09.2020
3748 Clouds 23 1012 69 10000 4.6 70 20:25 30.09.2020
3749 Clouds 24 1012 69 10000 5.7 50 19:43 30.09.2020
3750 Clouds 23 994 80 10000 2.16 92 19:21 30.09.2020
3751 Clouds 24 1012 69 10000 6.2 60 18:57 30.09.2020
3752 Clouds 23 1013 69 10000 6.7 50 18:39 30.09.2020
3753 Clouds 24 1013 69 10000 6.7 50 18:20 30.09.2020
3754 Clouds 23 1013 69 10000 7.2 60 17:45 30.09.2020
3755 Clouds 23 1013 61 10000 6.7 50 17:20 30.09.2020
3756 Clouds 23 1013 61 10000 6.7 50 17:20 30.09.2020
3757 Clouds 23 1013 61 10000 7.2 50 16:43 30.09.2020
3758 Clouds 24 1013 61 10000 7.2 50 16:21 30.09.2020
3759 Clouds 24 1013 64 10000 7.2 50 15:46 30.09.2020
3760 Clouds 24 1013 64 10000 7.2 50 15:18 30.09.2020
3761 Clouds 23 1014 64 10000 6.2 50 14:43 30.09.2020
3762 Clouds 25 1014 64 10000 6.2 50 14:22 30.09.2020
3763 Clouds 25 1014 69 10000 5.7 40 13:55 30.09.2020
3764 Clouds 25 1015 64 10000 5.7 40 13:37 30.09.2020
3765 Clouds 25 1015 60 10000 4.6 80 12:48 30.09.2020
3766 Clouds 23 1015 60 10000 4.6 80 12:26 30.09.2020
3767 Clouds 23 1015 64 10000 3.6 30 11:55 30.09.2020
3768 Clouds 25 1016 64 10000 3.6 30 11:36 30.09.2020
3769 Clouds 24 1016 64 10000 3.1 30 11:18 30.09.2020
3770 Clouds 24 1016 56 10000 2.1 100 10:42 30.09.2020
3771 Clear 23 997 74 10000 0.62 140 09:59 30.09.2020
3772 Clear 23 997 78 10000 0.62 140 09:41 30.09.2020
3773 Clear 22 1016 73 10000 1 0 09:22 30.09.2020
3774 Clear 21 1016 77 10000 2.1 190 08:42 30.09.2020
3775 Clear 19 997 91 10000 0.94 213 07:59 30.09.2020
3776 Clear 19 996 92 10000 1.06 219 07:36 30.09.2020
3777 Clear 19 996 92 10000 1.35 234 06:35 30.09.2020
3778 Clear 19 1016 82 10000 2.1 180 05:57 30.09.2020
3779 Clear 19 997 91 10000 1.23 262 04:43 30.09.2020
3780 Clear 20 997 90 10000 1.36 262 03:34 30.09.2020
3781 Clouds 21 998 87 10000 1.34 233 00:32 30.09.2020
3782 Clouds 21 998 86 10000 1.34 252 23:59 29.09.2020
3783 Clouds 21 998 85 10000 1.34 252 23:37 29.09.2020
3784 Clouds 21 999 83 10000 1.5 266 23:19 29.09.2020
3785 Clouds 22 1018 73 10000 3.6 300 22:42 29.09.2020
3786 Clouds 22 1018 73 10000 3.6 300 22:22 29.09.2020
3787 Clouds 22 1018 73 10000 4.6 290 21:41 29.09.2020
3788 Clouds 23 1018 73 10000 4.6 290 21:22 29.09.2020
3789 Clouds 23 1018 73 10000 4.6 290 20:58 29.09.2020
3790 Clouds 23 1018 73 10000 5.1 280 20:39 29.09.2020
3791 Clouds 23 999 73 10000 2.91 290 20:21 29.09.2020
3792 Clouds 23 999 74 10000 2.75 299 19:39 29.09.2020
3793 Clouds 23 998 73 10000 0.89 1 19:19 29.09.2020
3794 Clouds 23 998 70 10000 3.32 298 18:43 29.09.2020
3795 Clouds 24 998 69 10000 4.25 298 18:18 29.09.2020
3796 Clouds 24 1018 69 10000 7.2 280 17:48 29.09.2020
3797 Clouds 24 1018 73 10000 7.7 280 17:23 29.09.2020
3798 Clouds 24 1018 69 10000 8.2 280 16:42 29.09.2020
3799 Clouds 24 1018 69 10000 8.2 280 16:42 29.09.2020
3800 Clouds 24 1018 69 10000 8.2 280 16:22 29.09.2020
3801 Clouds 24 1018 69 10000 7.2 280 15:50 29.09.2020
3802 Clouds 23 1018 69 10000 7.2 270 15:29 29.09.2020
3803 Clouds 23 1019 73 10000 5.7 270 14:43 29.09.2020
3804 Clouds 25 999 67 10000 0.45 341 14:24 29.09.2020
3805 Clouds 25 999 70 10000 5.64 280 13:58 29.09.2020
3806 Clouds 25 999 70 10000 0.45 306 13:37 29.09.2020
3807 Clouds 24 1000 70 10000 5.85 274 13:18 29.09.2020
3808 Clouds 24 1000 68 10000 0.45 333 12:43 29.09.2020
3809 Clouds 23 1019 73 10000 4.1 240 12:21 29.09.2020
3810 Clouds 23 1020 73 10000 8.2 250 11:37 29.09.2020
3811 Clouds 23 1020 73 10000 8.2 250 11:18 29.09.2020
3812 Clear 23 1000 68 10000 0.45 317 10:37 29.09.2020
3813 Clear 23 1000 70 10000 0.45 224 09:51 29.09.2020
3814 Clear 22 1000 69 10000 4.8 257 09:31 29.09.2020
3815 Clouds 22 1018 64 10000 6.2 200 08:57 29.09.2020
3816 Clouds 22 1018 68 10000 5.1 210 08:38 29.09.2020
3817 Clouds 22 999 75 10000 4.69 250 08:18 29.09.2020
3818 Clouds 21 999 74 10000 4.55 258 07:42 29.09.2020
3819 Rain 22 998 72 10000 1.34 355 06:22 29.09.2020
3820 Rain 21 998 77 10000 1.34 331 05:33 29.09.2020
3821 Clouds 20 1017 69 10000 9.8 250 02:50 29.09.2020
3822 Clouds 22 1017 60 10000 10.3 250 02:20 29.09.2020
3823 Clouds 21 1017 60 10000 8.2 190 23:47 28.09.2020
3824 Clouds 21 1017 60 10000 8.2 190 23:28 28.09.2020
3825 Clouds 21 1016 64 10000 8.2 210 22:45 28.09.2020
3826 Clouds 21 1016 64 10000 8.2 210 22:24 28.09.2020
3827 Clouds 21 1016 64 10000 7.7 210 21:59 28.09.2020
3828 Clouds 21 1016 60 10000 9.8 230 21:41 28.09.2020
3829 Clouds 21 1016 60 10000 9.8 230 21:22 28.09.2020
3830 Clouds 21 1016 64 10000 9.8 230 20:57 28.09.2020
3831 Clouds 21 1016 64 10000 9.8 230 20:37 28.09.2020
3832 Clouds 21 1016 64 10000 9.8 230 20:19 28.09.2020
3833 Clouds 21 1016 56 10000 9.3 230 19:40 28.09.2020
3834 Clouds 22 996 57 10000 0.45 208 19:19 28.09.2020
3835 Clouds 22 996 57 10000 1.34 314 19:19 28.09.2020
3836 Clouds 22 996 56 10000 0.45 217 18:48 28.09.2020
3837 Clouds 22 996 57 10000 0.89 226 18:30 28.09.2020
3838 Clouds 23 996 52 10000 1.34 185 17:47 28.09.2020
3839 Clouds 23 996 53 10000 7.28 268 17:29 28.09.2020
3840 Clouds 22 1015 60 10000 9.3 250 16:57 28.09.2020
3841 Clouds 23 995 52 10000 7.61 271 16:38 28.09.2020
3842 Clouds 22 1015 64 10000 8.7 240 16:20 28.09.2020
3843 Clouds 23 996 51 10000 1.34 348 15:37 28.09.2020
3844 Clouds 23 1015 56 10000 8.2 250 15:18 28.09.2020
3845 Clear 24 996 48 10000 0.45 255 14:45 28.09.2020
3846 Clouds 24 1016 49 10000 8.7 240 14:26 28.09.2020
3847 Clouds 23 996 47 10000 0.45 4 13:57 28.09.2020
3848 Clouds 24 1015 53 10000 8.7 240 13:27 28.09.2020
3849 Clouds 23 1015 56 10000 8.7 240 12:58 28.09.2020
3850 Clouds 23 1015 56 10000 8.2 250 12:37 28.09.2020
3851 Clouds 22 1015 53 10000 8.2 250 11:47 28.09.2020
3852 Clouds 23 1015 53 10000 8.2 250 11:28 28.09.2020
3853 Clouds 22 1015 60 10000 7.7 250 10:59 28.09.2020
3854 Clouds 22 995 51 10000 0.45 224 10:41 28.09.2020
3855 Clouds 22 1014 53 10000 7.7 250 10:21 28.09.2020
3856 Clouds 21 1014 52 10000 7.2 210 09:44 28.09.2020
3857 Clouds 21 1013 56 10000 8.7 250 08:51 28.09.2020
3858 Clouds 21 1013 60 10000 9.8 260 08:32 28.09.2020
3859 Clouds 20 993 60 10000 0.89 223 07:56 28.09.2020
3860 Clouds 20 993 61 10000 0.45 212 07:37 28.09.2020
3861 Clouds 20 993 65 10000 5.46 245 06:28 28.09.2020
3862 Clouds 20 992 55 10000 0.45 237 03:31 28.09.2020
3863 Clouds 21 991 59 10000 0.45 354 01:29 28.09.2020
3864 Clouds 21 1010 60 10000 11.3 270 00:36 28.09.2020
3865 Clouds 21 1010 60 10000 13.9 270 23:44 27.09.2020
3866 Clouds 21 990 59 10000 0.45 258 23:25 27.09.2020
3867 Clouds 21 990 58 10000 1.34 334 22:50 27.09.2020
3868 Clouds 21 990 58 10000 8.74 259 22:31 27.09.2020
3869 Clouds 21 1008 68 10000 15.4 270 21:45 27.09.2020
3870 Clouds 21 1008 68 10000 15.4 270 21:27 27.09.2020
3871 Clouds 21 1008 68 10000 13.4 260 20:55 27.09.2020
3872 Clouds 21 988 69 10000 0.45 317 20:28 27.09.2020
3873 Clouds 21 987 69 10000 0.89 320 19:52 27.09.2020
3874 Rain 21 986 67 10000 5.88 257 19:21 27.09.2020
3875 Clouds 20 985 72 10000 0.45 331 18:59 27.09.2020
3876 Clouds 20 985 80 10000 0.89 196 18:41 27.09.2020
3877 Rain 20 985 87 10000 10.06 274 18:19 27.09.2020
3878 Clouds 22 986 78 10000 1.79 214 17:41 27.09.2020
3879 Rain 23 984 66 6325 1.34 238 17:23 27.09.2020
3880 Clouds 23 985 70 6325 1.34 266 16:53 27.09.2020
3881 Clouds 23 984 73 6325 0.45 229 16:30 27.09.2020
3882 Clouds 24 1004 53 10000 15.9 200 15:47 27.09.2020
3883 Clouds 21 1004 53 10000 15.9 200 15:28 27.09.2020
3884 Clouds 25 986 51 10000 1.34 217 14:56 27.09.2020
3885 Clouds 26 986 51 10000 8.39 203 14:37 27.09.2020
3886 Clouds 25 986 53 10000 0.89 183 14:19 27.09.2020
3887 Clouds 25 987 54 10000 0.89 242 13:43 27.09.2020
3888 Clouds 25 987 51 10000 1.34 184 13:19 27.09.2020
3889 Clouds 25 987 53 10000 1.34 213 12:43 27.09.2020
3890 Clouds 25 1007 53 10000 12.9 200 12:23 27.09.2020
3891 Clouds 25 1007 53 10000 13.9 200 11:47 27.09.2020
3892 Clouds 19 1006 56 10000 12.9 200 11:23 27.09.2020
3893 Clouds 23 988 60 10000 8.39 199 10:47 27.09.2020
3894 Rain 23 988 62 10000 1.34 205 10:29 27.09.2020
3895 Clouds 22 988 68 10000 1.34 204 09:46 27.09.2020
3896 Clouds 21 1007 68 10000 7.7 190 09:28 27.09.2020
3897 Clouds 20 1008 68 10000 6.2 180 08:56 27.09.2020
3898 Clouds 19 1008 68 10000 6.7 180 08:37 27.09.2020
3899 Clouds 19 1008 68 10000 6.7 180 08:19 27.09.2020
3900 Clouds 19 1008 72 10000 4.6 170 07:18 27.09.2020
3901 Clouds 19 1008 72 10000 6.2 210 06:43 27.09.2020
3902 Clear 20 989 60 10000 4.04 258 03:44 27.09.2020
3903 Clear 21 989 50 10000 1.34 281 01:53 27.09.2020
3904 Clouds 21 1009 53 10000 10.3 270 01:20 27.09.2020
3905 Clouds 21 1009 53 10000 10.8 270 00:55 27.09.2020
3906 Clouds 21 1009 53 10000 12.9 280 00:18 27.09.2020
3907 Clouds 21 1009 49 10000 12.9 280 23:39 26.09.2020
3908 Clouds 22 989 45 10000 1.79 302 23:18 26.09.2020
3909 Clouds 22 989 43 10000 1.79 250 22:40 26.09.2020
3910 Clouds 22 989 44 10000 1.34 266 22:20 26.09.2020
3911 Clouds 22 989 42 10000 0.45 132 21:46 26.09.2020
3912 Clouds 21 989 46 10000 2.24 287 21:23 26.09.2020
3913 Clouds 21 988 45 10000 0.45 314 20:55 26.09.2020
3914 Clouds 21 988 45 10000 1.34 287 20:36 26.09.2020
3915 Clouds 22 1008 46 10000 13.9 260 20:18 26.09.2020
3916 Clouds 22 1007 46 10000 12.9 270 19:43 26.09.2020
3917 Clouds 22 1007 53 10000 12.9 270 19:20 26.09.2020
3918 Clouds 22 1007 46 10000 12.9 270 19:20 26.09.2020
3919 Clouds 22 1007 53 10000 12.9 270 18:46 26.09.2020
3920 Clouds 22 1007 53 10000 12.9 270 18:25 26.09.2020
3921 Clouds 22 1007 56 10000 11.8 270 17:42 26.09.2020
3922 Clouds 22 1007 56 10000 11.8 270 17:24 26.09.2020
3923 Clouds 22 1007 56 10000 12.9 270 16:44 26.09.2020
3924 Clouds 22 1007 56 10000 12.9 270 16:22 26.09.2020
3925 Clouds 22 1007 56 10000 12.9 270 15:55 26.09.2020
3926 Clouds 23 1007 56 10000 13.4 260 15:26 26.09.2020
3927 Clouds 22 1007 56 10000 13.4 270 14:51 26.09.2020
3928 Clouds 22 1007 60 10000 12.9 270 14:20 26.09.2020
3929 Clouds 22 1008 68 10000 9.8 280 13:53 26.09.2020
3930 Clouds 22 1008 68 10000 9.8 280 13:34 26.09.2020
3931 Clouds 22 988 49 10000 1.34 326 12:58 26.09.2020
3932 Clouds 21 1007 56 10000 13.9 270 12:38 26.09.2020
3933 Clouds 22 1007 56 10000 13.9 270 12:19 26.09.2020
3934 Clouds 22 1007 56 8000 15.4 270 11:51 26.09.2020
3935 Clouds 22 1007 56 8000 14.4 270 11:22 26.09.2020
3936 Clouds 22 986 47 10000 1.79 269 10:47 26.09.2020
3937 Rain 21 986 50 10000 1.79 280 10:23 26.09.2020
3938 Clouds 20 986 58 10000 2.24 345 09:49 26.09.2020
3939 Clouds 18 1006 77 6000 7.7 260 09:23 26.09.2020
3940 Clouds 19 986 70 10000 12.85 278 08:55 26.09.2020
3941 Rain 19 986 61 10000 2.24 334 08:19 26.09.2020
3942 Clouds 21 1006 56 10000 14.4 280 07:19 26.09.2020
3943 Clouds 22 1007 60 10000 11.8 260 02:56 26.09.2020
3944 Clouds 22 1007 56 10000 10.8 270 01:54 26.09.2020
3945 Clouds 23 1008 57 10000 14.4 270 00:42 26.09.2020
3946 Clouds 24 987 62 10000 0.89 298 23:39 25.09.2020
3947 Clouds 24 988 67 10000 0.45 267 23:19 25.09.2020
3948 Clouds 24 987 69 10000 0.89 334 22:47 25.09.2020
3949 Clouds 25 987 57 10000 1.79 8 22:28 25.09.2020
3950 Clouds 25 1007 65 10000 13.9 260 21:58 25.09.2020
3951 Clouds 26 1007 69 7000 14.9 270 21:27 25.09.2020
3952 Clouds 26 1007 61 10000 13.4 270 20:52 25.09.2020
3953 Clouds 27 1007 54 10000 12.9 260 20:33 25.09.2020
3954 Clouds 28 1006 65 10000 11.3 250 19:48 25.09.2020
3955 Clouds 28 986 60 10000 1.34 175 19:25 25.09.2020
3956 Clouds 29 986 57 10000 1.34 157 18:46 25.09.2020
3957 Clouds 29 986 54 10000 1.34 165 18:20 25.09.2020
3958 Clouds 28 1007 58 10000 8.2 230 17:40 25.09.2020
3959 Clouds 29 1007 51 10000 9.3 220 17:20 25.09.2020
3960 Clouds 30 1007 51 10000 10.3 230 16:39 25.09.2020
3961 Clear 30 1007 51 10000 10.3 230 16:20 25.09.2020
3962 Clear 31 1007 40 10000 10.8 230 15:23 25.09.2020
3963 Clear 32 1008 43 10000 9.8 230 14:45 25.09.2020
3964 Clouds 32 1008 43 10000 9.8 230 14:22 25.09.2020
3965 Clouds 31 1008 48 10000 11.8 220 13:31 25.09.2020
3966 Clouds 31 1008 43 10000 12.3 210 12:56 25.09.2020
3967 Clouds 31 1008 45 10000 11.8 210 12:36 25.09.2020
3968 Clouds 31 1009 48 10000 10.3 210 11:58 25.09.2020
3969 Clouds 30 1009 51 10000 8.7 200 11:40 25.09.2020
3970 Clouds 30 1009 58 10000 9.3 200 10:48 25.09.2020
3971 Clouds 30 989 45 10000 4.52 216 10:27 25.09.2020
3972 Clouds 29 990 44 10000 4.52 216 09:55 25.09.2020
3973 Clouds 29 1009 61 10000 10.3 200 09:34 25.09.2020
3974 Clouds 27 1010 61 10000 9.3 190 08:56 25.09.2020
3975 Clear 28 1010 61 10000 8.7 190 08:28 25.09.2020
3976 Clear 28 1010 61 10000 9.3 190 07:37 25.09.2020
3977 Clear 28 1010 57 10000 10.3 190 06:57 25.09.2020
3978 Clouds 28 991 49 10000 3.97 206 04:28 25.09.2020
3979 Clouds 27 1012 32 10000 6.7 200 01:58 25.09.2020
3980 Clear 25 994 70 10000 2.19 184 23:44 24.09.2020
3981 Clear 26 1014 47 10000 3.6 200 22:59 24.09.2020
3982 Clear 26 1014 44 10000 3.6 200 22:38 24.09.2020
3983 Clear 27 995 71 10000 2.18 159 22:20 24.09.2020
3984 Clear 27 1014 54 10000 5.1 200 21:47 24.09.2020
3985 Clear 26 995 69 10000 2.1 165 21:22 24.09.2020
3986 Clear 27 1014 51 10000 3.1 200 20:45 24.09.2020
3987 Clear 27 1014 57 10000 4.1 210 20:27 24.09.2020
3988 Clouds 27 1014 54 10000 4.1 200 19:57 24.09.2020
3989 Clouds 27 995 65 10000 1.44 226 19:29 24.09.2020
3990 Clouds 28 995 62 10000 1.44 226 18:52 24.09.2020
3991 Clouds 28 995 61 10000 2.87 264 18:21 24.09.2020
3992 Clouds 28 1014 65 10000 2.6 250 17:42 24.09.2020
3993 Clouds 28 1014 61 10000 2.6 250 17:20 24.09.2020
3994 Clouds 28 1014 65 10000 3.1 260 16:31 24.09.2020
3995 Clouds 29 1014 61 10000 3.1 260 15:51 24.09.2020
3996 Clouds 29 1015 65 10000 4.1 290 15:19 24.09.2020
3997 Clouds 28 1015 65 10000 4.6 300 14:40 24.09.2020
3998 Clouds 29 1015 57 10000 4.6 300 13:57 24.09.2020
3999 Clouds 29 1015 54 10000 3.6 280 13:31 24.09.2020
4000 Clear 29 1015 51 10000 3.6 250 12:57 24.09.2020
4001 Clear 29 1015 45 10000 5.7 240 12:38 24.09.2020
4002 Clear 29 1015 44 10000 5.7 240 12:19 24.09.2020
4003 Clear 29 996 40 10000 0.45 344 11:20 24.09.2020
4004 Clear 28 996 42 10000 1.45 237 10:51 24.09.2020
4005 Clear 28 996 43 10000 1.04 208 10:30 24.09.2020
4006 Clear 27 996 49 10000 1.04 208 09:53 24.09.2020
4007 Clear 26 996 54 10000 1.29 216 09:20 24.09.2020
4008 Clear 25 996 58 10000 1.29 216 08:50 24.09.2020
4009 Clouds 24 996 60 10000 1.25 202 08:28 24.09.2020
4010 Clear 22 995 63 10000 1.96 207 06:47 24.09.2020
4011 Clear 23 995 62 10000 1.84 224 04:51 24.09.2020
4012 Clouds 24 995 68 10000 2.3 259 01:24 24.09.2020
4013 Clouds 24 996 68 10000 2.11 242 00:20 24.09.2020
4014 Clouds 24 996 72 10000 2.11 242 23:45 23.09.2020
4015 Clouds 25 996 74 10000 1.94 244 22:58 23.09.2020
4016 Clouds 25 996 75 10000 1.94 244 22:38 23.09.2020
4017 Clouds 25 996 77 10000 1.72 257 22:19 23.09.2020
4018 Clouds 26 1014 69 10000 2.1 290 21:42 23.09.2020
4019 Clouds 25 1014 69 10000 2.1 290 21:21 23.09.2020
4020 Clouds 25 1014 69 10000 4.6 290 20:51 23.09.2020
4021 Clouds 26 1014 69 10000 5.1 290 20:18 23.09.2020
4022 Clouds 26 994 70 10000 2.59 304 19:31 23.09.2020
4023 Clouds 27 1013 69 10000 4.1 270 18:58 23.09.2020
4024 Clouds 27 1013 69 10000 3.1 290 18:24 23.09.2020
4025 Clouds 27 993 79 10000 0.89 335 17:43 23.09.2020
4026 Clouds 27 1013 74 10000 3.6 300 17:24 23.09.2020
4027 Clouds 26 1013 78 10000 3.1 310 16:29 23.09.2020
4028 Clouds 27 1013 78 10000 4.1 320 15:55 23.09.2020
4029 Clouds 28 993 80 10000 0.45 3 15:23 23.09.2020
4030 Clouds 28 994 77 10000 0.45 350 14:52 23.09.2020
4031 Clouds 28 994 71 10000 2.24 359 14:28 23.09.2020
4032 Clouds 29 1014 69 10000 4.1 310 13:43 23.09.2020
4033 Clouds 29 1014 69 10000 4.1 310 13:24 23.09.2020
4034 Clouds 29 994 62 10000 1.66 325 12:41 23.09.2020
4035 Clouds 28 1014 69 10000 3.1 260 12:19 23.09.2020
4036 Clouds 27 1015 65 10000 4.1 240 11:28 23.09.2020
4037 Clouds 28 1014 65 10000 4.1 230 10:58 23.09.2020
4038 Clouds 28 1014 69 10000 4.1 240 10:37 23.09.2020
4039 Clear 28 995 63 10000 0.85 116 09:55 23.09.2020
4040 Clear 27 1014 69 10000 2.1 260 09:25 23.09.2020
4041 Clear 26 1013 57 10000 2.1 170 08:36 23.09.2020
4042 Clouds 26 994 71 10000 0.72 102 08:18 23.09.2020
4043 Clouds 25 994 75 10000 0.6 222 07:19 23.09.2020
4044 Clouds 25 1013 69 10000 5.7 220 05:38 23.09.2020
4045 Clouds 26 1014 54 10000 5.7 200 02:19 23.09.2020
4046 Clouds 26 1014 65 10000 4.6 210 00:59 23.09.2020
4047 Clouds 26 1015 69 10000 5.1 230 23:42 22.09.2020
4048 Clouds 26 1015 69 10000 5.1 230 23:19 22.09.2020
4049 Clouds 27 1015 65 10000 4.1 230 22:33 22.09.2020
4050 Clouds 26 1015 65 10000 3.6 240 21:51 22.09.2020
4051 Clouds 26 1014 74 10000 2.1 50 21:29 22.09.2020
4052 Clouds 27 995 80 10000 2.5 157 20:58 22.09.2020
4053 Clouds 27 995 80 10000 2.5 157 20:39 22.09.2020
4054 Rain 27 995 80 10000 2.13 162 20:21 22.09.2020
4055 Clouds 27 995 77 10000 2.13 162 19:46 22.09.2020
4056 Clouds 27 995 75 10000 1.72 226 19:24 22.09.2020
4057 Clouds 28 1014 69 10000 3.1 40 18:45 22.09.2020
4058 Clouds 28 995 70 10000 1.72 251 18:25 22.09.2020
4059 Clouds 28 1014 65 10000 3.6 40 17:30 22.09.2020
4060 Clouds 28 1014 65 10000 3.6 40 17:30 22.09.2020
4061 Clouds 28 1015 58 10000 4.1 70 16:47 22.09.2020
4062 Clouds 28 1015 58 10000 4.1 70 16:26 22.09.2020
4063 Clouds 28 1015 62 10000 2.1 360 15:43 22.09.2020
4064 Clear 29 996 66 10000 2.64 283 14:51 22.09.2020
4065 Clouds 30 996 64 10000 0.89 354 14:28 22.09.2020
4066 Clouds 30 996 63 10000 3.02 261 13:46 22.09.2020
4067 Clouds 30 996 63 10000 2.24 257 12:59 22.09.2020
4068 Clouds 30 996 64 10000 2.24 257 12:37 22.09.2020
4069 Clouds 29 1015 48 10000 6.2 210 11:57 22.09.2020
4070 Clouds 29 1015 48 10000 6.2 210 11:24 22.09.2020
4071 Clouds 28 996 69 10000 0.45 352 10:57 22.09.2020
4072 Clouds 28 996 73 10000 2.03 223 10:32 22.09.2020
4073 Clouds 26 996 78 10000 1.75 200 09:48 22.09.2020
4074 Rain 25 996 80 10000 1.95 195 09:24 22.09.2020
4075 Rain 25 996 80 10000 1.95 195 08:50 22.09.2020
4076 Rain 25 996 80 10000 2.2 201 07:55 22.09.2020
4077 Rain 25 996 81 10000 2.46 230 07:37 22.09.2020
4078 Clouds 25 996 82 10000 2.49 225 06:58 22.09.2020
4079 Clouds 25 996 82 10000 1.96 219 05:36 22.09.2020
4080 Clouds 25 996 81 10000 1.49 195 04:38 22.09.2020
4081 Clouds 26 1016 69 10000 2.1 190 01:39 22.09.2020
4082 Clouds 26 1016 73 10000 1 120 00:56 22.09.2020
4083 Clouds 26 1016 69 10000 3.1 60 23:38 21.09.2020
4084 Clouds 26 1016 69 10000 3.1 60 23:20 21.09.2020
4085 Clouds 26 1016 69 10000 2.6 30 22:39 21.09.2020
4086 Clouds 27 1016 69 10000 2.1 30 22:21 21.09.2020
4087 Clouds 27 1016 69 10000 2.1 10 21:39 21.09.2020
4088 Clouds 27 1016 69 10000 2.1 10 21:19 21.09.2020
4089 Clouds 27 1016 69 10000 2.1 10 20:41 21.09.2020
4090 Clouds 27 1016 69 10000 2.1 10 20:22 21.09.2020
4091 Clouds 27 1016 69 10000 2.6 310 19:44 21.09.2020
4092 Clouds 27 997 69 10000 2.01 304 19:20 21.09.2020
4093 Clouds 28 996 68 10000 2.01 304 18:48 21.09.2020
4094 Clouds 28 996 67 10000 0.45 351 18:22 21.09.2020
4095 Clouds 27 1015 65 10000 4.1 300 17:34 21.09.2020
4096 Clouds 28 1016 65 10000 4.6 300 16:40 21.09.2020
4097 Clouds 28 1016 69 10000 5.7 310 16:21 21.09.2020
4098 Clouds 30 996 47 10000 0.45 322 15:34 21.09.2020
4099 Clouds 29 1016 65 10000 4.6 290 14:56 21.09.2020
4100 Clouds 28 1016 58 10000 4.1 270 14:23 21.09.2020
4101 Clouds 28 1016 65 10000 4.1 260 13:37 21.09.2020
4102 Clouds 28 1016 69 10000 3.6 250 12:51 21.09.2020
4103 Clear 30 996 58 10000 1.62 305 12:29 21.09.2020
4104 Clear 30 997 60 10000 1.62 305 11:56 21.09.2020
4105 Clear 29 997 60 10000 0.45 350 11:20 21.09.2020
4106 Clear 29 997 68 10000 1.18 280 10:50 21.09.2020
4107 Clear 28 997 72 10000 0.84 272 10:24 21.09.2020
4108 Clear 26 1016 69 10000 2.1 210 09:51 21.09.2020
4109 Clear 27 997 81 10000 1.4 246 09:27 21.09.2020
4110 Clear 24 997 91 10000 0.87 233 07:59 21.09.2020
4111 Clear 24 996 92 10000 0.87 233 07:38 21.09.2020
4112 Clear 23 996 92 10000 1.16 230 06:46 21.09.2020
4113 Clear 24 997 91 10000 1.33 244 03:31 21.09.2020
4114 Clear 25 997 88 10000 1.71 250 01:55 21.09.2020
4115 Clear 25 997 83 10000 2 238 23:47 20.09.2020
4116 Clear 26 997 81 10000 2.3 249 22:47 20.09.2020
4117 Clear 26 997 80 10000 2.33 252 22:21 20.09.2020
4118 Clear 26 997 78 10000 2.33 252 21:46 20.09.2020
4119 Clear 26 997 77 10000 1.99 251 21:21 20.09.2020
4120 Clouds 26 996 77 10000 1.43 209 20:24 20.09.2020
4121 Clouds 27 995 76 10000 1.43 209 19:51 20.09.2020
4122 Clouds 27 995 74 10000 0.71 217 19:28 20.09.2020
4123 Clouds 28 995 71 10000 0.71 217 18:54 20.09.2020
4124 Clouds 28 995 68 10000 0.57 127 18:26 20.09.2020
4125 Clouds 29 995 61 10000 0.57 127 17:58 20.09.2020
4126 Clouds 29 996 61 10000 0.89 350 17:37 20.09.2020
4127 Clouds 27 1015 69 10000 2.6 20 16:56 20.09.2020
4128 Clouds 28 1015 65 10000 3.6 30 16:28 20.09.2020
4129 Clouds 28 1016 69 10000 3.1 20 15:35 20.09.2020
4130 Clouds 28 1016 69 10000 4.1 20 14:44 20.09.2020
4131 Clouds 28 1016 74 10000 3.6 360 14:20 20.09.2020
4132 Clouds 28 1016 74 10000 3.1 340 13:28 20.09.2020
4133 Clouds 27 1016 69 10000 2.6 310 12:51 20.09.2020
4134 Clouds 30 997 65 10000 1.93 325 12:27 20.09.2020
4135 Clouds 29 997 64 10000 1.93 325 11:41 20.09.2020
4136 Clouds 29 997 65 10000 2.19 283 11:22 20.09.2020
4137 Clouds 28 997 66 10000 2.19 283 10:53 20.09.2020
4138 Clouds 28 997 70 10000 1 112 10:28 20.09.2020
4139 Clouds 27 997 74 10000 1 112 09:52 20.09.2020
4140 Clouds 26 997 81 10000 1.35 134 08:45 20.09.2020
4141 Clouds 23 997 90 10000 0.99 121 07:34 20.09.2020
4142 Clouds 24 997 87 10000 1.9 140 04:58 20.09.2020
4143 Clouds 25 998 82 10000 0.91 222 00:49 20.09.2020
4144 Clouds 25 998 81 10000 0.99 279 23:54 19.09.2020
4145 Clear 25 998 82 10000 1.14 298 23:26 19.09.2020
4146 Clouds 25 998 79 10000 1.01 323 22:30 19.09.2020
4147 Clouds 26 998 80 10000 1.01 323 21:59 19.09.2020
4148 Clouds 26 998 82 10000 1.01 323 21:37 19.09.2020
4149 Clouds 26 997 82 10000 0.95 338 20:54 19.09.2020
4150 Clouds 26 997 77 10000 1.81 319 19:51 19.09.2020
4151 Clouds 27 997 71 10000 1.73 330 19:24 19.09.2020
4152 Clouds 28 997 63 10000 1.7 338 18:30 19.09.2020
4153 Clouds 28 997 63 10000 1.7 338 18:30 19.09.2020
4154 Clouds 27 1016 69 10000 2.6 20 17:46 19.09.2020
4155 Clouds 28 1016 69 10000 2.6 20 17:26 19.09.2020
4156 Clouds 28 1016 69 10000 2.6 20 16:55 19.09.2020
4157 Clouds 28 1016 69 10000 3.1 30 16:24 19.09.2020
4158 Clouds 28 1017 65 10000 2.6 360 15:44 19.09.2020
4159 Clouds 27 1018 65 10000 1.5 330 13:37 19.09.2020
4160 Clouds 26 1018 69 10000 1 0 12:32 19.09.2020
4161 Clouds 26 1018 74 10000 1.5 260 11:37 19.09.2020
4162 Clouds 25 1018 74 10000 1.5 260 10:43 19.09.2020
4163 Clouds 27 1018 74 10000 1.5 260 10:18 19.09.2020
4164 Clouds 26 1017 69 10000 1.5 170 09:31 19.09.2020
4165 Clear 24 998 80 10000 1.24 271 08:57 19.09.2020
4166 Clear 23 998 89 10000 0.83 257 07:54 19.09.2020
4167 Clear 23 998 89 10000 0.66 287 07:19 19.09.2020
4168 Clear 23 997 84 10000 1.39 290 05:53 19.09.2020
4169 Clear 23 998 76 10000 1.05 306 04:21 19.09.2020
4170 Clear 24 998 77 10000 1.37 309 01:39 19.09.2020
4171 Clear 24 998 78 10000 1.22 300 00:42 19.09.2020
4172 Clear 25 998 82 10000 1.77 280 23:20 18.09.2020
4173 Clear 25 998 80 10000 1.77 280 22:49 18.09.2020
4174 Clouds 25 1017 78 10000 1.5 160 21:52 18.09.2020
4175 Clear 26 998 78 10000 1.89 280 21:34 18.09.2020
4176 Clear 26 998 77 10000 1.8 289 20:50 18.09.2020
4177 Clear 26 997 78 10000 2.31 290 19:58 18.09.2020
4178 Clear 26 997 78 10000 0.45 325 19:34 18.09.2020
4179 Clear 27 997 76 10000 2.85 296 18:48 18.09.2020
4180 Clouds 26 1016 69 10000 4.1 280 17:33 18.09.2020
4181 Clouds 27 1017 69 10000 3.6 290 16:59 18.09.2020
4182 Clouds 27 1017 65 10000 3.1 300 16:31 18.09.2020
4183 Clouds 27 1017 65 10000 2.6 310 15:53 18.09.2020
4184 Clouds 29 1017 61 10000 2.6 300 15:32 18.09.2020
4185 Clear 29 1017 65 10000 2.6 280 14:26 18.09.2020
4186 Clouds 28 1017 65 10000 3.1 290 13:53 18.09.2020
4187 Clouds 28 1017 69 10000 2.1 280 12:43 18.09.2020
4188 Clouds 26 1017 69 10000 2.6 280 11:56 18.09.2020
4189 Clouds 27 1017 74 10000 3.1 270 10:46 18.09.2020
4190 Clouds 27 1016 74 10000 3.1 260 10:27 18.09.2020
4191 Clear 26 1016 74 10000 2.6 280 09:43 18.09.2020
4192 Clear 25 1016 74 10000 2.6 280 09:22 18.09.2020
4193 Clouds 24 1016 74 10000 2.6 280 08:24 18.09.2020
4194 Clouds 26 1015 74 10000 2.6 300 07:31 18.09.2020
4195 Clear 25 996 85 10000 2.86 290 02:29 18.09.2020
4196 Clear 25 996 85 10000 2.95 287 01:44 18.09.2020
4197 Clouds 25 1015 83 10000 3.1 280 00:31 18.09.2020
4198 Clouds 25 1016 83 10000 3.1 280 23:43 17.09.2020
4199 Clouds 25 1015 83 10000 2.1 300 22:46 17.09.2020
4200 Clouds 26 1015 83 10000 2.6 320 22:20 17.09.2020
4201 Clear 26 996 81 10000 3.34 299 21:36 17.09.2020
4202 Clouds 26 1014 78 10000 3.1 300 20:55 17.09.2020
4203 Rain 26 995 79 10000 3.28 314 20:28 17.09.2020
4204 Rain 27 994 76 10000 3.01 317 19:27 17.09.2020
4205 Clear 27 994 74 10000 3.01 317 18:50 17.09.2020
4206 Clear 28 994 75 10000 0.89 286 17:58 17.09.2020
4207 Clear 28 994 72 10000 3.52 323 17:38 17.09.2020
4208 Clear 28 994 74 10000 0.89 295 17:19 17.09.2020
4209 Clouds 28 1014 78 10000 5.7 320 15:48 17.09.2020
4210 Clouds 28 1014 78 10000 5.7 320 15:22 17.09.2020
4211 Clouds 28 1014 78 10000 4.6 320 14:36 17.09.2020
4212 Clouds 28 1014 78 10000 4.6 320 13:57 17.09.2020
4213 Clouds 28 1014 78 10000 5.7 330 13:26 17.09.2020
4214 Clouds 27 1013 78 10000 5.1 330 12:32 17.09.2020
4215 Clouds 27 1013 78 10000 5.1 330 11:50 17.09.2020
4216 Clouds 25 1013 83 10000 4.1 340 10:59 17.09.2020
4217 Clouds 27 1013 78 10000 4.6 340 10:35 17.09.2020
4218 Clouds 27 994 74 10000 0.89 342 09:57 17.09.2020
4219 Clouds 27 1013 83 10000 5.7 340 09:28 17.09.2020
4220 Clouds 26 1012 83 10000 5.1 330 08:43 17.09.2020
4221 Clouds 26 1012 83 10000 5.1 330 08:23 17.09.2020
4222 Clouds 26 993 82 10000 0.45 344 07:46 17.09.2020
4223 Clouds 25 1012 78 10000 5.1 330 07:18 17.09.2020
4224 Clouds 25 992 82 10000 0.89 326 05:24 17.09.2020
4225 Clouds 25 994 85 10000 2.43 333 01:51 17.09.2020
4226 Rain 25 994 84 10000 2.79 345 01:29 17.09.2020
4227 Clouds 25 994 83 10000 2.79 345 00:51 17.09.2020
4228 Clouds 25 994 85 10000 2.74 331 23:36 16.09.2020
4229 Clouds 25 1013 73 10000 2.1 100 22:46 16.09.2020
4230 Clouds 25 1013 73 10000 2.1 100 22:25 16.09.2020
4231 Clouds 25 1013 74 10000 2.1 30 21:47 16.09.2020
4232 Clouds 26 994 81 10000 0.72 336 21:22 16.09.2020
4233 Clouds 26 1013 74 10000 2.6 30 20:32 16.09.2020
4234 Clouds 26 1013 74 10000 2.6 20 19:57 16.09.2020
4235 Clouds 27 994 77 10000 2.81 15 17:50 16.09.2020
4236 Clouds 27 994 73 10000 3.11 10 16:54 16.09.2020
4237 Clouds 28 1014 69 10000 4.6 30 16:23 16.09.2020
4238 Clouds 26 1014 74 10000 4.6 30 15:45 16.09.2020
4239 Clouds 26 1014 74 10000 4.1 30 14:50 16.09.2020
4240 Rain 26 1014 69 10000 4.1 20 14:25 16.09.2020
4241 Clouds 26 1015 74 10000 4.6 20 13:22 16.09.2020
4242 Clouds 26 1015 74 10000 4.1 10 12:35 16.09.2020
4243 Clouds 25 1015 78 10000 3.6 10 11:36 16.09.2020
4244 Clouds 28 997 76 10000 2.37 25 10:20 16.09.2020
4245 Clouds 27 996 80 10000 2.37 25 09:47 16.09.2020
4246 Rain 27 1015 78 10000 2.22 33 09:20 16.09.2020
4247 Rain 25 1015 83 10000 0.5 0 08:24 16.09.2020
4248 Clouds 24 1015 78 10000 1.5 140 07:22 16.09.2020
4249 Clouds 25 1017 78 10000 1.5 150 00:57 16.09.2020
4250 Clouds 26 1017 73 10000 0.5 0 23:42 15.09.2020
4251 Clouds 26 1016 73 10000 2.1 140 23:20 15.09.2020
4252 Clouds 26 1016 73 10000 2.6 90 22:49 15.09.2020
4253 Clouds 26 1016 74 10000 4.1 50 21:59 15.09.2020
4254 Clouds 27 1016 74 10000 4.1 50 21:38 15.09.2020
4255 Clouds 27 1016 74 10000 4.1 70 20:49 15.09.2020
4256 Clouds 27 1016 74 10000 4.1 70 20:49 15.09.2020
4257 Clouds 27 1016 69 10000 4.6 50 20:23 15.09.2020
4258 Clouds 27 1016 69 10000 5.1 40 19:35 15.09.2020
4259 Clouds 26 1016 69 10000 5.1 40 17:58 15.09.2020
4260 Clouds 27 1016 65 10000 5.1 40 17:32 15.09.2020
4261 Clouds 27 1016 74 10000 4.6 40 16:52 15.09.2020
4262 Clouds 28 1017 69 10000 5.1 30 16:18 15.09.2020
4263 Clouds 28 1017 69 10000 5.1 30 16:18 15.09.2020
4264 Clouds 28 1017 69 10000 5.1 30 16:18 15.09.2020
4265 Clouds 28 1017 69 10000 4.1 30 14:58 15.09.2020
4266 Clouds 27 1018 74 10000 4.1 30 14:35 15.09.2020
4267 Clouds 28 1019 74 10000 2.1 350 12:19 15.09.2020
4268 Clouds 25 1018 73 10000 0.5 0 10:19 15.09.2020
4269 Clouds 23 1018 69 10000 1 270 09:22 15.09.2020
4270 Clouds 23 1022 78 10000 0.68 61 08:33 15.09.2020
4271 Clouds 22 1018 73 10000 1.5 170 07:27 15.09.2020
4272 Clouds 20 1022 91 10000 1.67 76 05:54 15.09.2020
4273 Clouds 25 1020 83 10000 1.5 130 23:38 14.09.2020
4274 Clouds 25 1000 84 10000 1.46 38 22:43 14.09.2020
4275 Clouds 25 1000 84 10000 0.33 299 22:23 14.09.2020
4276 Clouds 25 1019 78 10000 2.6 210 20:38 14.09.2020
4277 Clouds 27 1000 84 10000 1.49 81 18:32 14.09.2020
4278 Clouds 27 1001 84 10000 1.97 75 16:42 14.09.2020
4279 Rain 27 1001 82 10000 2.1 84 16:20 14.09.2020
4280 Clouds 27 1001 85 10000 1.96 66 14:50 14.09.2020
4281 Clouds 27 1001 82 10000 1.93 82 14:21 14.09.2020
4282 Clouds 28 1020 74 10000 7.2 60 12:47 14.09.2020
4283 Clouds 27 1020 74 10000 5.7 40 11:28 14.09.2020
4284 Clouds 25 1001 99 10000 1.45 77 08:52 14.09.2020
4285 Clouds 23 1001 99 10000 1.25 90 07:52 14.09.2020
4286 Clouds 24 1002 91 10000 2.18 64 21:58 13.09.2020
4287 Clouds 24 1001 91 10000 2.18 64 21:37 13.09.2020
4288 Rain 26 1000 79 10000 0.33 4 17:53 13.09.2020
4289 Clouds 27 1000 72 10000 0.45 306 14:51 13.09.2020
4290 Clouds 26 1018 78 10000 5.7 60 12:27 13.09.2020
4291 Clouds 24 1001 99 10000 3.25 103 10:21 13.09.2020
4292 Clouds 23 999 99 10000 3.62 101 07:38 13.09.2020
4293 Clouds 22 999 99 10000 3.47 95 06:52 13.09.2020
4294 Clouds 22 1015 83 10000 2.6 210 21:38 12.09.2020
4295 Clouds 22 1015 83 10000 3.1 200 21:18 12.09.2020
4296 Clouds 22 997 99 10000 1.83 58 19:43 12.09.2020
4297 Rain 23 1015 65 10000 5.1 70 18:18 12.09.2020
4298 Rain 23 997 99 10000 2.09 24 17:47 12.09.2020
4299 Rain 24 996 96 10000 2.29 21 16:53 12.09.2020
4300 Clouds 26 995 72 10000 0.89 357 14:50 12.09.2020
4301 Rain 26 995 74 10000 2.11 354 14:30 12.09.2020
4302 Clear 27 995 71 10000 0.89 357 11:18 12.09.2020
4303 Rain 22 994 95 10000 0.68 238 07:18 12.09.2020
4304 Clouds 22 993 92 10000 0.59 316 04:59 12.09.2020
4305 Clear 23 993 89 10000 0.6 320 00:58 12.09.2020
4306 Clear 24 993 88 10000 0.45 1 22:40 11.09.2020
4307 Clear 24 993 87 10000 0.74 339 21:36 11.09.2020
4308 Rain 24 992 84 10000 1.07 311 20:25 11.09.2020
4309 Clouds 25 1012 71 10000 5.36 108 17:48 11.09.2020
4310 Clouds 24 1017 61 10000 0.89 341 16:59 11.09.2020
4311 Rain 23 1011 73 10000 4.1 230 14:27 11.09.2020
4312 Clouds 27 1011 69 10000 2.1 250 12:37 11.09.2020
4313 Clouds 25 1011 74 10000 3.1 230 10:49 11.09.2020
4314 Clouds 25 992 74 10000 2.13 276 07:33 11.09.2020
4315 Clouds 27 1013 69 10000 2.1 210 22:27 10.09.2020
4316 Clouds 29 994 70 10000 0.83 63 19:34 10.09.2020
4317 Clouds 29 994 69 10000 0.83 63 18:36 10.09.2020
4318 Rain 29 995 68 10000 2.77 52 15:54 10.09.2020
4319 Clear 31 996 59 10000 2.69 43 14:22 10.09.2020
4320 Clear 30 997 68 10000 1.83 32 11:55 10.09.2020
4321 Clear 29 997 70 10000 1.39 48 10:49 10.09.2020
4322 Clear 25 998 81 10000 1.16 135 07:52 10.09.2020
4323 Clear 24 998 82 10000 1.34 153 07:33 10.09.2020
4324 Clear 22 1022 93 10000 1.49 91 21:51 09.09.2020
4325 Clouds 23 1022 91 10000 1.79 135 19:57 09.09.2020
4326 Rain 28 1019 62 10000 8.2 50 17:23 09.09.2020
4327 Rain 29 1019 62 10000 8.2 50 16:28 09.09.2020
4328 Clear 27 1022 78 10000 5.1 30 10:51 09.09.2020
4329 Clear 27 1022 78 10000 4.1 30 10:33 09.09.2020
4330 Clear 25 1022 69 10000 1.5 130 09:35 09.09.2020
4331 Clear 24 1022 83 10000 2.6 200 07:38 09.09.2020
4332 Clear 23 1021 78 10000 2.1 190 04:41 09.09.2020
4333 Clear 23 1021 78 10000 2.1 190 04:41 09.09.2020
4334 Clear 23 1021 78 10000 2.1 190 04:41 09.09.2020
4335 Clear 24 1021 78 10000 2.6 220 01:21 09.09.2020
4336 Clear 24 1024 91 10000 0.89 270 23:36 08.09.2020
4337 Clear 24 1024 91 10000 0.89 292 23:36 08.09.2020
4338 Clear 25 1021 78 10000 2.6 270 21:46 08.09.2020
4339 Clear 25 1020 74 10000 1.5 60 21:22 08.09.2020
4340 Clouds 25 1023 90 10000 0.89 135 19:48 08.09.2020
4341 Clouds 28 1018 65 10000 8.7 50 16:58 08.09.2020
4342 Clouds 27 1019 61 10000 6.7 40 12:27 08.09.2020
4343 Clouds 26 1019 65 10000 6.2 40 11:24 08.09.2020
4344 Clear 28 1001 73 10000 3.29 71 10:53 08.09.2020
4345 Clear 25 1018 65 10000 4.6 60 09:41 08.09.2020
4346 Clear 25 1000 94 10000 1.94 84 07:52 08.09.2020
4347 Clear 24 999 93 10000 1.8 100 06:36 08.09.2020
4348 Clear 26 998 90 10000 3.05 77 22:48 07.09.2020
4349 Clear 26 998 90 10000 3.21 71 21:55 07.09.2020
4350 Clouds 27 996 86 10000 3.23 59 18:59 07.09.2020
4351 Clouds 28 1013 62 10000 7.2 40 15:50 07.09.2020
4352 Clouds 28 1014 61 10000 4.1 30 13:31 07.09.2020
4353 Clouds 27 1014 61 10000 2.6 350 12:20 07.09.2020
4354 Clouds 27 1014 61 10000 2.6 350 11:49 07.09.2020
4355 Clouds 28 1014 74 10000 2.1 260 11:18 07.09.2020
4356 Clouds 24 1012 73 10000 2.1 140 07:36 07.09.2020
4357 Clear 25 1013 69 10000 1 0 00:53 07.09.2020
4358 Clouds 23 1013 78 10000 4.1 210 21:40 06.09.2020
4359 Clouds 24 1013 65 10000 6.2 190 20:43 06.09.2020
4360 Clouds 26 1013 65 10000 6.2 190 20:24 06.09.2020
4361 Clouds 27 1012 61 10000 6.7 60 18:50 06.09.2020
4362 Clouds 29 1013 58 10000 6.2 40 15:28 06.09.2020
4363 Clouds 29 1015 61 10000 2.1 20 13:58 06.09.2020
4364 Rain 29 996 65 10000 0.72 32 12:58 06.09.2020
4365 Clouds 28 1014 65 10000 2.6 30 09:55 06.09.2020
4366 Clear 25 1014 61 10000 1 0 08:57 06.09.2020
4367 Clear 26 997 69 10000 2.17 135 00:19 06.09.2020
4368 Clear 27 997 69 10000 2.38 115 22:36 05.09.2020
4369 Clouds 28 1016 54 10000 7.2 50 17:48 05.09.2020
4370 Clear 28 1018 61 10000 6.7 40 14:37 05.09.2020
4371 Clear 28 1019 65 10000 4.1 30 13:19 05.09.2020
4372 Clear 28 1019 65 10000 3.1 20 12:41 05.09.2020
4373 Clear 29 1001 64 10000 1.56 13 11:40 05.09.2020
4374 Clear 28 1001 65 10000 1.02 33 10:30 05.09.2020
4375 Clear 27 1001 73 10000 0.97 120 09:25 05.09.2020
4376 Clear 22 1001 84 10000 1.24 106 06:28 05.09.2020
4377 Clear 24 1021 65 10000 6.7 60 21:40 04.09.2020
4378 Clear 27 1003 68 10000 2.13 71 19:53 04.09.2020
4379 Clear 28 1003 63 10000 2.71 59 18:41 04.09.2020
4380 Clouds 28 1022 57 10000 8.2 40 16:52 04.09.2020
4381 Clouds 28 1022 61 10000 7.2 40 15:30 04.09.2020
4382 Clouds 28 1023 57 10000 7.2 50 12:27 04.09.2020
4383 Clear 27 1005 70 10000 3.31 64 09:30 04.09.2020
4384 Clear 25 1004 77 10000 2.63 73 07:19 04.09.2020
4385 Clear 25 1004 76 10000 3.25 71 02:52 04.09.2020
4386 Clear 24 1021 61 10000 6.2 80 22:42 03.09.2020
4387 Clear 22 1020 57 10000 7.7 60 21:43 03.09.2020
4388 Clouds 25 1020 57 10000 7.7 60 20:53 03.09.2020
4389 Clouds 26 1002 67 10000 3.57 52 20:24 03.09.2020
4390 Clouds 27 1001 64 10000 3.93 50 18:19 03.09.2020
4391 Clouds 27 1001 67 10000 3.97 46 16:27 03.09.2020
4392 Clouds 27 1001 69 10000 3.68 33 14:20 03.09.2020
4393 Clouds 27 1001 70 10000 3.26 25 12:26 03.09.2020
4394 Clouds 27 1001 68 10000 0.45 345 10:49 03.09.2020
4395 Clouds 25 1017 73 10000 3.1 70 08:31 03.09.2020
4396 Clouds 24 1016 65 10000 1.5 110 00:18 03.09.2020
4397 Clouds 24 1013 61 10000 4.6 80 20:44 02.09.2020
4398 Clouds 24 1013 54 10000 4.1 70 19:59 02.09.2020
4399 Clouds 26 1013 57 10000 4.1 60 17:58 02.09.2020
4400 Clouds 28 1013 57 10000 4.1 20 15:26 02.09.2020
4401 Clouds 27 1013 65 10000 2.6 260 11:51 02.09.2020
4402 Clouds 24 1012 61 10000 1 0 08:46 02.09.2020
4403 Clouds 24 1011 57 10000 3.6 70 07:19 02.09.2020
4404 Clouds 23 1012 57 10000 3.1 80 00:20 02.09.2020
4405 Clouds 23 1012 57 10000 3.1 80 00:20 02.09.2020
4406 Clouds 24 1012 57 10000 5.1 40 21:38 01.09.2020
4407 Clear 25 1011 61 10000 5.1 20 19:50 01.09.2020
4408 Clear 26 1011 61 10000 6.2 30 18:36 01.09.2020
4409 Clear 25 1012 57 10000 5.1 30 18:18 01.09.2020
4410 Clear 26 1012 50 10000 4.6 20 16:34 01.09.2020
4411 Clouds 27 1012 44 10000 4.1 10 15:36 01.09.2020
4412 Clear 26 994 51 10000 2.68 10 13:56 01.09.2020
4413 Clouds 24 1013 54 10000 2.6 30 10:37 01.09.2020
4414 Clouds 26 1013 53 10000 2.6 20 09:45 01.09.2020
4415 Clouds 22 1013 57 10000 3.6 30 07:49 01.09.2020
4416 Clouds 24 1014 69 10000 5.1 330 23:29 31.08.2020
4417 Clouds 23 1014 73 10000 5.7 10 21:32 31.08.2020
4418 Clouds 25 995 85 8293 1.34 11 17:42 31.08.2020
4419 Clouds 28 994 65 10000 0.45 5 16:32 31.08.2020
4420 Clear 31 994 68 10000 2.68 359 14:18 31.08.2020
4421 Clear 31 993 55 10000 1.79 357 12:20 31.08.2020
4422 Clear 29 993 70 10000 3.92 300 09:33 31.08.2020
4423 Clear 26 992 86 10000 2.93 141 06:52 31.08.2020
4424 Clear 27 1013 61 10000 2.1 170 02:18 31.08.2020
4425 Clear 29 1013 62 10000 2.1 280 23:21 30.08.2020
4426 Clear 30 1012 66 10000 4.1 70 21:22 30.08.2020
4427 Clear 31 1011 62 10000 5.1 70 19:22 30.08.2020
4428 Clear 31 1010 62 10000 5.7 60 18:41 30.08.2020
4429 Clear 32 1010 55 10000 5.7 50 17:32 30.08.2020
4430 Clear 34 992 44 10000 0.89 354 15:24 30.08.2020
4431 Clear 34 992 41 10000 0.45 6 14:51 30.08.2020
4432 Clear 36 1009 32 10000 9.3 200 11:58 30.08.2020
4433 Clear 35 991 33 10000 0.89 352 11:40 30.08.2020
4434 Clear 35 989 22 10000 0.45 298 10:21 30.08.2020
4435 Clear 30 1007 33 10000 9.8 200 08:47 30.08.2020
4436 Clear 27 1007 88 10000 1 0 23:22 29.08.2020
4437 Clear 28 1010 66 10000 0.89 90 21:18 29.08.2020
4438 Clear 29 1010 61 10000 0.89 270 20:24 29.08.2020
4439 Clear 29 1006 74 10000 5.7 30 17:59 29.08.2020
4440 Clear 31 1009 64 10000 0.89 135 17:37 29.08.2020
4441 Clear 33 987 46 10000 1.79 351 16:47 29.08.2020
4442 Clear 33 987 46 10000 1.79 351 15:55 29.08.2020
4443 Clear 33 988 42 10000 1.34 342 11:32 29.08.2020
4444 Clear 28 988 59 10000 2.29 136 08:51 29.08.2020
4445 Clear 27 1007 65 10000 0.5 0 08:18 29.08.2020
4446 Clear 27 1008 78 10000 4.1 220 22:23 28.08.2020
4447 Clear 28 1008 74 10000 4.1 220 21:29 28.08.2020
4448 Clear 29 990 50 10000 1.92 99 19:21 28.08.2020
4449 Clear 31 1008 66 10000 3.6 30 18:33 28.08.2020
4450 Clear 30 1009 70 10000 6.2 30 17:18 28.08.2020
4451 Clear 32 1009 70 10000 6.2 30 16:24 28.08.2020
4452 Clear 31 1010 70 10000 5.1 30 14:44 28.08.2020
4453 Clear 31 1010 70 10000 5.1 30 14:24 28.08.2020
4454 Clear 31 992 53 10000 2.73 26 13:46 28.08.2020
4455 Clear 30 993 50 10000 1.68 341 11:31 28.08.2020
4456 Clear 28 993 54 10000 0.97 169 09:27 28.08.2020
4457 Clear 25 993 64 10000 2.15 139 07:46 28.08.2020
4458 Clear 23 993 69 10000 2.61 113 05:39 28.08.2020
4459 Clouds 25 1013 78 10000 1 0 23:53 27.08.2020
4460 Clouds 25 1013 78 10000 1 240 23:34 27.08.2020
4461 Clouds 25 1013 78 10000 1 240 23:34 27.08.2020
4462 Clouds 27 1013 74 10000 4.6 40 20:57 27.08.2020
4463 Clear 27 996 73 10000 1.45 95 20:29 27.08.2020
4464 Clear 28 1014 69 10000 5.7 40 19:44 27.08.2020
4465 Clouds 29 1014 69 10000 5.7 30 17:26 27.08.2020
4466 Clouds 29 1014 69 10000 6.2 30 16:46 27.08.2020
4467 Clouds 30 1015 66 10000 5.7 30 15:44 27.08.2020
4468 Clouds 30 1015 69 10000 5.7 30 13:34 27.08.2020
4469 Clouds 29 997 63 10000 1.89 50 11:27 27.08.2020
4470 Clouds 27 1016 69 10000 2.1 240 09:29 27.08.2020
4471 Clouds 26 1016 73 10000 1.5 140 08:48 27.08.2020
4472 Clouds 23 1016 78 10000 1 0 06:37 27.08.2020
4473 Clear 23 1017 73 10000 2.6 70 01:18 27.08.2020
4474 Clouds 25 1017 74 10000 5.1 50 22:36 26.08.2020
4475 Clouds 25 1016 74 10000 5.7 50 21:44 26.08.2020
4476 Clear 26 1016 69 10000 6.7 40 19:58 26.08.2020
4477 Clear 28 998 68 10000 3.12 36 18:32 26.08.2020
4478 Clouds 28 1016 66 10000 6.7 40 17:19 26.08.2020
4479 Clouds 30 1017 66 10000 5.1 30 14:58 26.08.2020
4480 Clear 29 999 67 10000 1.34 10 12:24 26.08.2020
4481 Clear 27 1017 74 10000 2.1 250 09:27 26.08.2020
4482 Clear 25 1016 73 10000 2.1 70 04:56 26.08.2020
4483 Clouds 26 1015 69 10000 3.6 40 22:41 25.08.2020
4484 Clouds 26 1014 65 10000 4.1 30 21:28 25.08.2020
4485 Clouds 27 1014 65 10000 3.6 50 20:49 25.08.2020
4486 Clear 27 996 70 10000 3.04 47 20:21 25.08.2020
4487 Clouds 27 1014 65 10000 5.1 40 19:43 25.08.2020
4488 Clear 28 996 66 10000 0.89 352 18:36 25.08.2020
4489 Clear 29 1013 62 10000 7.2 50 16:59 25.08.2020
4490 Clear 30 1013 62 10000 8.2 40 15:51 25.08.2020
4491 Clouds 29 1013 65 10000 7.7 40 14:42 25.08.2020
4492 Clear 30 995 49 10000 3.27 46 13:27 25.08.2020
4493 Clear 30 995 51 10000 2.57 52 11:39 25.08.2020
4494 Clouds 27 1012 65 10000 2.6 70 08:57 25.08.2020
4495 Clear 24 994 72 10000 0.65 112 07:50 25.08.2020
4496 Clear 24 994 73 10000 0.54 183 07:24 25.08.2020
4497 Clear 23 994 73 10000 0.54 183 06:46 25.08.2020
4498 Clear 23 1011 64 10000 2.1 180 05:57 25.08.2020
4499 Clear 23 1011 69 10000 1.5 180 05:37 25.08.2020
4500 Clear 24 1011 69 10000 1.5 130 04:21 25.08.2020
4501 Clear 24 1011 64 10000 2.6 150 03:43 25.08.2020
4502 Clear 24 1011 64 10000 2.6 150 03:24 25.08.2020
4503 Clear 25 1011 61 10000 3.1 150 02:42 25.08.2020
4504 Clear 26 1012 69 10000 4.6 50 22:37 24.08.2020
4505 Clear 26 1011 69 10000 5.7 50 21:49 24.08.2020
4506 Clear 27 993 73 10000 1.79 63 20:21 24.08.2020
4507 Clear 28 993 68 10000 2.64 36 19:33 24.08.2020
4508 Clear 29 1011 62 10000 8.7 40 17:52 24.08.2020
4509 Clear 29 1010 58 10000 9.3 50 16:50 24.08.2020
4510 Clear 29 1011 58 10000 8.7 50 16:19 24.08.2020
4511 Clear 29 1011 65 10000 9.3 40 15:19 24.08.2020
4512 Clear 30 1011 62 10000 8.7 40 14:28 24.08.2020
4513 Clear 31 1011 66 10000 8.7 40 13:21 24.08.2020
4514 Clear 30 1011 62 10000 7.7 40 12:20 24.08.2020
4515 Clear 30 1012 62 10000 6.7 40 11:52 24.08.2020
4516 Clear 29 1012 65 10000 3.1 350 11:32 24.08.2020
4517 Clear 28 1011 69 10000 2.6 250 09:59 24.08.2020
4518 Clear 25 1011 73 10000 1.5 150 08:31 24.08.2020
4519 Clear 24 1011 73 10000 1.5 170 07:32 24.08.2020
4520 Clear 26 1012 78 10000 2.1 320 00:33 24.08.2020
4521 Clear 26 1012 78 10000 2.1 340 23:58 23.08.2020
4522 Clear 26 1012 78 10000 1.5 40 23:38 23.08.2020
4523 Clear 27 1012 74 10000 3.6 30 20:55 23.08.2020
4524 Clear 28 994 72 10000 1.12 11 19:50 23.08.2020
4525 Clear 29 1013 70 10000 3.6 20 18:45 23.08.2020
4526 Clear 29 1013 70 10000 4.1 30 17:53 23.08.2020
4527 Clouds 29 1013 70 10000 4.6 20 16:34 23.08.2020
4528 Clouds 30 1014 74 10000 4.1 20 14:57 23.08.2020
4529 Clouds 30 1013 70 10000 4.6 30 14:27 23.08.2020
4530 Clouds 30 1014 74 10000 3.6 20 13:19 23.08.2020
4531 Clear 30 996 67 10000 2.57 17 10:55 23.08.2020
4532 Clear 30 996 71 10000 2.25 30 10:30 23.08.2020
4533 Clouds 26 1013 74 10000 1.5 130 07:57 23.08.2020
4534 Clear 26 995 74 10000 1.36 82 06:36 23.08.2020
4535 Clear 26 1014 65 10000 0.94 181 00:36 23.08.2020
4536 Clear 26 1014 65 10000 1 230 00:18 23.08.2020
4537 Clear 26 1015 61 10000 0.5 0 23:21 22.08.2020
4538 Clear 26 1015 61 10000 0.5 0 23:21 22.08.2020
4539 Clear 26 1015 61 10000 0.5 0 23:21 22.08.2020
4540 Clear 26 1015 61 10000 0.5 0 23:21 22.08.2020
4541 Clear 27 1015 58 10000 1 0 22:23 22.08.2020
4542 Clear 29 1015 78 10000 2.6 30 19:45 22.08.2020
4543 Clear 29 1015 78 10000 2.6 30 19:45 22.08.2020
4544 Clear 30 1015 79 10000 4.1 30 18:30 22.08.2020
4545 Clear 31 1015 74 10000 3.1 20 17:43 22.08.2020
4546 Clear 30 1016 79 10000 2.6 10 16:47 22.08.2020
4547 Clear 31 998 58 10000 2.28 3 13:42 22.08.2020
4548 Clear 31 999 68 10000 1.71 350 12:18 22.08.2020
4549 Clear 30 999 72 10000 0.45 11 11:47 22.08.2020
4550 Clear 30 999 62 10000 1.33 333 10:28 22.08.2020
4551 Clouds 28 1017 78 10000 1.5 240 09:22 22.08.2020
4552 Clear 26 1017 83 10000 1.5 170 02:36 22.08.2020
4553 Clear 27 1017 78 10000 2.6 210 23:28 21.08.2020
4554 Clear 28 1016 83 10000 3.6 30 21:27 21.08.2020
4555 Clear 29 997 70 10000 1.8 70 19:25 21.08.2020
4556 Clear 31 1015 66 10000 8.2 50 16:48 21.08.2020
4557 Clear 31 1015 66 10000 8.2 50 16:48 21.08.2020
4558 Clear 31 1016 74 10000 6.2 40 14:38 21.08.2020
4559 Clear 30 998 68 10000 3.21 49 12:36 21.08.2020
4560 Clear 29 998 64 10000 1.93 43 11:24 21.08.2020
4561 Clear 27 1015 69 10000 2.6 230 08:49 21.08.2020
4562 Clear 25 997 86 10000 0.75 153 07:21 21.08.2020
4563 Clear 27 1013 78 10000 3.1 290 00:19 21.08.2020
4564 Clear 27 1013 65 10000 2.6 80 22:36 20.08.2020
4565 Clear 29 1011 66 10000 8.7 60 19:32 20.08.2020
4566 Clear 30 1011 66 10000 9.8 60 18:21 20.08.2020
4567 Clear 30 1012 62 10000 9.8 60 16:47 20.08.2020
4568 Clear 31 1012 62 10000 8.7 60 14:56 20.08.2020
4569 Clear 31 1013 58 10000 6.7 50 13:32 20.08.2020
4570 Clear 30 1013 69 10000 4.1 240 11:44 20.08.2020
4571 Clear 29 1012 58 10000 3.6 210 10:53 20.08.2020
4572 Clear 28 1011 69 10000 3.1 10 09:40 20.08.2020
4573 Clear 26 1011 65 10000 1 230 08:47 20.08.2020
4574 Clear 24 1011 69 10000 1.5 200 07:43 20.08.2020
4575 Clear 24 1010 61 10000 1 0 04:52 20.08.2020
4576 Clear 25 1010 69 10000 1.5 180 04:18 20.08.2020
4577 Clear 26 1011 65 10000 1 0 00:42 20.08.2020
4578 Clouds 28 1010 39 10000 3.6 60 21:53 19.08.2020
4579 Clear 28 993 66 10000 2.27 78 20:27 19.08.2020
4580 Clear 29 1010 62 10000 8.2 50 17:57 19.08.2020
4581 Clear 30 1010 58 10000 7.7 50 17:37 19.08.2020
4582 Clear 31 1010 58 10000 7.7 50 15:55 19.08.2020
4583 Clear 31 1010 58 10000 7.2 60 14:50 19.08.2020
4584 Clear 30 1011 62 10000 6.2 40 13:35 19.08.2020
4585 Clear 30 1011 66 10000 5.7 40 11:43 19.08.2020
4586 Clear 29 1011 65 10000 2.1 240 10:34 19.08.2020
4587 Clear 28 1011 65 10000 2.6 70 09:47 19.08.2020
4588 Clear 28 1011 69 10000 1.5 0 09:47 19.08.2020
4589 Clear 26 1011 74 10000 1 0 08:30 19.08.2020
4590 Clear 26 1012 74 10000 3.6 50 22:45 18.08.2020
4591 Clear 26 1011 74 10000 4.6 60 22:18 18.08.2020
4592 Clear 26 1011 74 10000 5.1 50 21:46 18.08.2020
4593 Clear 27 1011 74 10000 5.7 50 20:54 18.08.2020
4594 Clear 27 993 78 10000 1.63 55 20:24 18.08.2020
4595 Clear 29 1011 69 10000 5.1 30 18:51 18.08.2020
4596 Clear 30 1011 70 10000 4.6 30 17:46 18.08.2020
4597 Clouds 30 1011 70 10000 4.6 30 16:28 18.08.2020
4598 Clouds 30 1012 74 10000 4.6 20 14:39 18.08.2020
4599 Clouds 30 1012 74 10000 4.6 20 14:39 18.08.2020
4600 Clouds 30 994 70 10000 2.68 23 13:50 18.08.2020
4601 Clouds 30 994 71 10000 1.79 3 13:18 18.08.2020
4602 Clear 30 994 67 10000 1.22 9 11:23 18.08.2020
4603 Clear 27 1012 78 10000 3.6 70 08:50 18.08.2020
4604 Clear 26 1012 83 10000 3.1 50 07:56 18.08.2020
4605 Clear 25 994 86 10000 1.12 161 07:26 18.08.2020
4606 Clouds 27 1013 83 10000 3.1 280 23:48 17.08.2020
4607 Clouds 27 1013 83 10000 2.1 310 23:24 17.08.2020
4608 Clouds 27 1012 83 10000 2.1 310 21:49 17.08.2020
4609 Clouds 28 1012 78 10000 2.6 310 20:50 17.08.2020
4610 Clear 28 994 81 10000 2.57 310 20:21 17.08.2020
4611 Clear 30 993 73 10000 1.34 6 18:21 17.08.2020
4612 Clouds 30 1012 79 10000 3.6 300 16:22 17.08.2020
4613 Clouds 32 1012 83 10000 5.7 300 15:27 17.08.2020
4614 Clear 32 1012 83 10000 5.7 300 14:55 17.08.2020
4615 Clear 32 1013 78 10000 5.7 290 12:51 17.08.2020
4616 Clear 32 1013 78 10000 6.2 280 11:42 17.08.2020
4617 Clear 31 1013 78 10000 6.2 280 11:23 17.08.2020
4618 Clear 30 1012 83 10000 6.7 280 10:21 17.08.2020
4619 Clear 29 1012 74 10000 4.1 270 09:20 17.08.2020
4620 Clear 26 1011 69 10000 5.1 240 06:48 17.08.2020
4621 Clouds 28 1012 38 10000 5.7 200 00:20 17.08.2020
4622 Clouds 28 1011 78 10000 2.1 250 22:19 16.08.2020
4623 Clouds 28 1011 78 10000 2.1 250 22:19 16.08.2020
4624 Clouds 29 1011 62 10000 1.5 210 21:46 16.08.2020
4625 Clear 32 1007 32 10000 0.45 322 18:43 16.08.2020
4626 Clear 33 993 51 10000 0.89 347 18:24 16.08.2020
4627 Clear 36 993 54 10000 0.53 91 16:36 16.08.2020
4628 Clear 36 993 56 10000 0.5 76 15:46 16.08.2020
4629 Clear 36 993 57 10000 1.28 90 15:19 16.08.2020
4630 Clear 35 994 51 10000 0.45 311 13:43 16.08.2020
4631 Clear 33 994 59 10000 2.66 64 12:29 16.08.2020
4632 Clear 33 994 57 10000 2.66 64 11:39 16.08.2020
4633 Clear 32 994 60 10000 2.27 76 11:18 16.08.2020
4634 Clear 31 994 65 10000 2.43 94 10:32 16.08.2020
4635 Clear 29 1012 74 10000 1.5 180 09:22 16.08.2020
4636 Clear 26 1012 78 10000 1.5 210 07:41 16.08.2020
4637 Clear 25 1011 78 10000 2.6 100 07:18 16.08.2020
4638 Clouds 27 1012 88 10000 4.1 50 22:49 15.08.2020
4639 Clouds 28 1012 83 10000 2.6 10 20:58 15.08.2020
4640 Clouds 29 1012 83 10000 2.6 10 20:31 15.08.2020
4641 Clear 30 1012 58 10000 0.5 0 19:20 15.08.2020
4642 Clear 30 1012 70 10000 2.1 340 17:34 15.08.2020
4643 Clear 30 1012 70 10000 2.6 330 16:45 15.08.2020
4644 Clear 32 1013 70 10000 2.1 310 15:19 15.08.2020
4645 Clouds 31 1013 74 10000 3.1 310 14:27 15.08.2020
4646 Clear 30 995 75 10000 3.15 340 12:36 15.08.2020
4647 Clouds 30 1014 79 10000 2.1 310 11:31 15.08.2020
4648 Clouds 30 1014 79 10000 2.1 310 11:31 15.08.2020
4649 Clouds 30 1014 79 10000 2.1 310 11:31 15.08.2020
4650 Clouds 29 1013 79 10000 2.1 340 10:59 15.08.2020
4651 Clouds 29 1013 79 10000 2.1 340 10:41 15.08.2020
4652 Clear 29 995 79 10000 0.45 2 09:45 15.08.2020
4653 Clear 30 994 75 10000 1.79 351 09:27 15.08.2020
4654 Clouds 30 994 52 10000 0.65 183 08:23 15.08.2020
4655 Clouds 27 1013 48 10000 4.6 210 02:51 15.08.2020
4656 Clouds 28 1013 35 10000 8.7 200 23:58 14.08.2020
4657 Clouds 30 1012 31 10000 7.2 210 22:50 14.08.2020
4658 Clouds 30 1012 31 10000 7.2 210 22:50 14.08.2020
4659 Clear 31 1011 28 10000 5.7 190 20:40 14.08.2020
4660 Clear 31 1011 70 10000 3.6 40 19:45 14.08.2020
4661 Clear 34 1011 27 10000 8.7 210 16:55 14.08.2020
4662 Clear 31 1013 58 10000 5.1 240 14:53 14.08.2020
4663 Clear 31 1013 58 10000 5.1 240 14:28 14.08.2020
4664 Clouds 33 1013 41 10000 7.2 220 13:55 14.08.2020
4665 Clear 35 1013 41 10000 6.7 230 11:34 14.08.2020
4666 Clear 32 1014 43 10000 5.1 220 09:57 14.08.2020
4667 Clouds 28 996 56 10000 2.2 158 07:52 14.08.2020
4668 Clear 28 998 69 10000 1.58 213 01:20 14.08.2020
4669 Clear 27 998 70 10000 1.58 213 00:43 14.08.2020
4670 Clear 27 998 70 10000 2.51 137 23:27 13.08.2020
4671 Clear 28 998 70 10000 2.15 140 21:57 13.08.2020
4672 Clear 29 1015 78 10000 5.7 210 21:20 13.08.2020
4673 Clear 29 1015 74 10000 3.6 210 20:31 13.08.2020
4674 Clear 30 1015 66 10000 6.2 40 18:42 13.08.2020
4675 Clear 32 1015 62 10000 6.2 50 17:30 13.08.2020
4676 Clear 31 1016 55 10000 6.2 50 15:39 13.08.2020
4677 Clear 32 1017 62 10000 4.1 40 13:23 13.08.2020
4678 Clear 31 1017 66 10000 2.6 30 12:48 13.08.2020
4679 Clear 30 1016 66 10000 3.6 30 11:55 13.08.2020
4680 Clear 28 999 55 10000 1.22 43 08:52 13.08.2020
4681 Clear 26 999 59 10000 0.64 12 07:42 13.08.2020
4682 Clear 26 1016 78 10000 2.6 210 23:52 12.08.2020
4683 Clear 27 1016 65 10000 3.6 50 22:46 12.08.2020
4684 Clear 27 1016 69 10000 4.6 50 22:19 12.08.2020
4685 Clear 28 1016 74 10000 5.1 50 21:56 12.08.2020
4686 Clear 28 1015 65 10000 4.6 60 20:56 12.08.2020
4687 Clear 28 998 67 10000 2.34 96 20:38 12.08.2020
4688 Clear 28 998 66 10000 2.34 96 20:19 12.08.2020
4689 Clear 29 1015 66 10000 6.2 50 19:31 12.08.2020
4690 Clear 30 1015 66 10000 8.7 40 17:34 12.08.2020
4691 Clear 31 1016 74 10000 7.7 30 15:45 12.08.2020
4692 Clouds 31 1016 74 10000 5.1 20 14:53 12.08.2020
4693 Clear 31 999 69 10000 0.89 4 13:43 12.08.2020
4694 Clear 30 999 66 10000 0.45 19 12:33 12.08.2020
4695 Clear 30 999 65 10000 0.89 353 10:54 12.08.2020
4696 Clear 30 999 62 10000 1.76 341 10:18 12.08.2020
4697 Clear 26 1016 69 10000 1 60 01:57 12.08.2020
4698 Clear 27 1016 74 10000 2.6 200 23:44 11.08.2020
4699 Clear 27 1015 74 10000 5.1 60 22:23 11.08.2020
4700 Clear 27 1015 74 10000 5.1 60 21:50 11.08.2020
4701 Clear 28 1015 74 10000 6.2 60 21:21 11.08.2020
4702 Clear 29 1015 70 10000 7.7 50 19:46 11.08.2020
4703 Clear 29 1015 66 10000 7.7 50 19:22 11.08.2020
4704 Clouds 29 1015 62 10000 6.7 40 17:55 11.08.2020
4705 Clouds 31 1015 58 10000 6.7 40 16:27 11.08.2020
4706 Clear 32 998 54 10000 0.89 1 15:23 11.08.2020
4707 Clear 31 1016 66 10000 5.7 30 14:51 11.08.2020
4708 Clear 31 1016 66 10000 6.7 30 13:56 11.08.2020
4709 Clear 31 1016 74 10000 5.7 30 12:33 11.08.2020
4710 Clear 30 998 55 10000 2.32 6 11:51 11.08.2020
4711 Clear 29 998 65 10000 1.76 355 10:55 11.08.2020
4712 Clear 28 1016 83 10000 2.1 280 09:46 11.08.2020
4713 Clear 26 998 71 10000 0.2 308 07:36 11.08.2020
4714 Clouds 25 1015 78 10000 1.5 160 05:50 11.08.2020
4715 Clear 24 997 76 10000 0.51 237 03:20 11.08.2020
4716 Clear 24 1015 73 10000 1.5 140 02:51 11.08.2020
4717 Clear 24 1015 65 10000 2.1 170 02:21 11.08.2020
4718 Clear 25 1015 74 10000 1.5 140 00:35 11.08.2020
4719 Clear 25 1015 74 10000 1 0 23:40 10.08.2020
4720 Clear 26 1014 78 10000 3.6 30 21:49 10.08.2020
4721 Clear 29 1014 74 10000 3.6 40 20:55 10.08.2020
4722 Clear 29 1014 74 10000 3.6 40 19:43 10.08.2020
4723 Clear 29 1014 74 10000 3.6 30 19:21 10.08.2020
4724 Clear 29 1014 70 10000 3.1 30 18:44 10.08.2020
4725 Clear 29 1014 74 10000 3.6 20 16:46 10.08.2020
4726 Clouds 29 1014 74 10000 4.1 10 15:43 10.08.2020
4727 Clear 31 996 55 10000 0.45 2 12:56 10.08.2020
4728 Clear 30 996 51 10000 1.34 14 11:32 10.08.2020
4729 Clear 30 996 54 10000 1.34 334 10:41 10.08.2020
4730 Clear 29 996 56 10000 2.22 347 09:48 10.08.2020
4731 Clear 28 996 63 10000 0.45 359 08:44 10.08.2020
4732 Clear 26 1013 74 10000 3.6 50 22:54 09.08.2020
4733 Clear 27 1012 74 10000 5.1 30 21:35 09.08.2020
4734 Clear 28 994 64 10000 1.73 52 19:47 09.08.2020
4735 Clear 28 994 65 10000 2.56 45 19:27 09.08.2020
4736 Clear 28 1012 61 10000 7.2 40 18:22 09.08.2020
4737 Clear 29 1012 58 10000 6.7 50 17:41 09.08.2020
4738 Clear 29 1012 62 10000 6.2 40 17:20 09.08.2020
4739 Clear 30 995 58 10000 1.34 15 15:24 09.08.2020
4740 Clouds 29 1013 66 10000 6.2 30 14:35 09.08.2020
4741 Clouds 29 1013 69 10000 6.2 20 13:30 09.08.2020
4742 Clouds 30 1013 69 10000 4.1 10 12:54 09.08.2020
4743 Clouds 29 1013 69 10000 3.1 360 11:47 09.08.2020
4744 Clouds 28 1013 74 10000 2.1 300 10:48 09.08.2020
4745 Clouds 27 1013 78 10000 2.1 200 08:57 09.08.2020
4746 Clouds 26 1013 74 10000 1.5 180 08:27 09.08.2020
4747 Clear 25 1013 83 10000 1 0 02:24 09.08.2020
4748 Rain 26 1014 83 10000 1.5 50 23:47 08.08.2020
4749 Clear 28 995 71 10000 0.45 338 19:52 08.08.2020
4750 Clear 28 995 67 10000 0.89 278 18:26 08.08.2020
4751 Clouds 28 1013 78 10000 4.1 280 17:47 08.08.2020
4752 Clouds 28 1014 74 10000 3.1 250 16:24 08.08.2020
4753 Clouds 29 1014 69 10000 4.1 270 15:41 08.08.2020
4754 Clear 30 996 55 10000 1.34 18 14:48 08.08.2020
4755 Clear 30 996 45 10000 0.45 1 14:23 08.08.2020
4756 Clear 30 997 46 10000 3.45 321 12:25 08.08.2020
4757 Clear 29 997 49 10000 0.45 319 11:18 08.08.2020
4758 Rain 25 997 80 10000 2.25 267 07:41 08.08.2020
4759 Clear 24 997 82 10000 2.2 260 06:57 08.08.2020
4760 Clouds 25 1015 74 10000 3.6 330 02:25 08.08.2020
4761 Clear 25 1015 74 10000 1 0 22:21 07.08.2020
4762 Clear 25 998 76 10000 2.13 303 21:21 07.08.2020
4763 Clear 26 997 74 10000 2.13 303 20:45 07.08.2020
4764 Clear 27 1015 69 10000 3.6 300 18:35 07.08.2020
4765 Rain 26 1015 61 10000 4.1 310 17:20 07.08.2020
4766 Clouds 29 1015 65 10000 4.1 300 14:53 07.08.2020
4767 Clouds 28 1015 65 10000 3.1 290 13:28 07.08.2020
4768 Clouds 28 1015 65 10000 3.1 290 13:28 07.08.2020
4769 Clouds 28 1015 61 10000 3.6 290 12:32 07.08.2020
4770 Clouds 27 1015 69 10000 2.6 240 10:22 07.08.2020
4771 Clouds 25 1015 65 10000 2.6 220 09:26 07.08.2020
4772 Clear 23 997 80 10000 0.92 319 06:44 07.08.2020
4773 Clear 23 1015 61 10000 3.6 30 01:42 07.08.2020
4774 Clear 24 1014 61 10000 4.1 30 00:43 07.08.2020
4775 Clouds 24 1014 61 10000 2.6 80 22:48 06.08.2020
4776 Clouds 24 1014 61 10000 3.1 70 21:34 06.08.2020
4777 Clouds 25 1013 61 10000 3.1 50 20:37 06.08.2020
4778 Clear 26 996 57 10000 1.81 350 19:43 06.08.2020
4779 Clouds 27 1013 57 10000 4.1 30 18:52 06.08.2020
4780 Clouds 27 1013 61 10000 3.6 10 18:23 06.08.2020
4781 Clear 28 995 61 10000 1.34 347 17:34 06.08.2020
4782 Clouds 27 1013 65 10000 2.6 250 15:52 06.08.2020
4783 Clouds 28 1013 65 10000 3.1 240 14:54 06.08.2020
4784 Clouds 28 1013 65 10000 3.1 240 14:18 06.08.2020
4785 Clouds 27 1013 61 10000 4.6 220 13:28 06.08.2020
4786 Clouds 26 1013 69 10000 3.1 220 11:39 06.08.2020
4787 Clouds 24 1012 78 10000 1.5 320 10:54 06.08.2020
4788 Thunderstorm 21 1012 88 10000 4.1 90 09:30 06.08.2020
4789 Rain 22 1011 73 9000 11.8 10 08:48 06.08.2020
4790 Rain 22 1011 73 9000 11.8 10 08:48 06.08.2020
4791 Clouds 25 1011 65 10000 2.6 290 08:23 06.08.2020
4792 Clouds 25 1011 65 10000 6.2 330 02:32 06.08.2020
4793 Clouds 25 1011 65 10000 5.7 320 01:29 06.08.2020
4794 Clouds 25 1011 61 10000 7.2 310 23:21 05.08.2020
4795 Clear 26 1011 61 10000 6.2 300 22:52 05.08.2020
4796 Clear 26 1011 61 10000 6.7 300 22:18 05.08.2020
4797 Clear 26 1010 61 10000 5.1 300 20:47 05.08.2020
4798 Clear 26 992 64 10000 0.45 320 19:57 05.08.2020
4799 Clear 26 992 61 10000 0.45 292 19:33 05.08.2020
4800 Clear 27 1010 57 10000 5.7 290 17:44 05.08.2020
4801 Clear 26 1010 57 10000 5.1 280 16:48 05.08.2020
4802 Clouds 26 1010 57 10000 5.7 280 15:45 05.08.2020
4803 Clouds 28 1010 57 10000 5.1 290 15:22 05.08.2020
4804 Clouds 28 1010 57 10000 5.1 290 14:41 05.08.2020
4805 Clouds 28 1010 57 10000 5.7 280 13:34 05.08.2020
4806 Clouds 27 1010 57 10000 5.1 290 12:28 05.08.2020
4807 Clouds 27 1010 61 10000 5.1 290 11:26 05.08.2020
4808 Clouds 26 1010 57 10000 2.6 250 10:47 05.08.2020
4809 Clouds 26 1009 61 10000 3.1 230 10:21 05.08.2020
4810 Clouds 26 1009 61 10000 3.1 230 10:21 05.08.2020
4811 Clouds 22 1009 73 10000 4.6 200 08:47 05.08.2020
4812 Rain 22 1008 64 9000 5.1 190 07:41 05.08.2020
4813 Clouds 22 1009 57 10000 8.2 270 04:40 05.08.2020
4814 Clouds 24 1009 69 10000 7.2 250 01:23 05.08.2020
4815 Clouds 25 1010 61 10000 6.7 250 23:55 04.08.2020
4816 Clouds 25 1010 61 10000 6.7 250 23:31 04.08.2020
4817 Clouds 25 1010 65 10000 5.7 260 22:51 04.08.2020
4818 Clouds 25 1010 69 10000 6.7 250 22:27 04.08.2020
4819 Clear 26 1010 61 10000 6.2 260 20:59 04.08.2020
4820 Clouds 26 991 58 10000 0.89 335 19:37 04.08.2020
4821 Clouds 28 991 61 10000 0.45 311 18:54 04.08.2020
4822 Clouds 27 991 63 10000 5.13 295 17:39 04.08.2020
4823 Clouds 28 990 55 10000 0.89 317 16:55 04.08.2020
4824 Clouds 28 1009 58 10000 2.6 320 15:55 04.08.2020
4825 Clouds 28 1010 58 10000 3.1 320 15:28 04.08.2020
4826 Clouds 28 991 61 10000 0.89 58 13:55 04.08.2020
4827 Clouds 30 991 62 10000 0.45 341 12:18 04.08.2020
4828 Clouds 30 991 51 10000 0.89 319 11:27 04.08.2020
4829 Clouds 30 990 54 10000 0.89 233 10:51 04.08.2020
4830 Clouds 30 990 54 10000 0.45 255 10:33 04.08.2020
4831 Clouds 27 989 64 10000 3.15 237 07:37 04.08.2020
4832 Clouds 27 989 66 10000 2.64 189 06:56 04.08.2020
4833 Clear 27 1009 88 10000 3.1 240 23:34 03.08.2020
4834 Clear 27 1008 88 10000 2.6 250 22:33 03.08.2020
4835 Clear 27 1008 88 10000 3.1 270 21:46 03.08.2020
4836 Clear 28 990 76 10000 1.11 234 21:21 03.08.2020
4837 Clear 28 990 71 10000 1.11 234 20:38 03.08.2020
4838 Clear 28 1007 83 10000 2.6 210 19:44 03.08.2020
4839 Clear 30 989 57 10000 1.34 299 18:42 03.08.2020
4840 Clear 29 1008 83 10000 5.1 260 18:20 03.08.2020
4841 Clear 29 1008 83 10000 9.8 290 17:25 03.08.2020
4842 Clear 30 1008 78 10000 9.3 280 15:47 03.08.2020
4843 Clear 31 1008 83 10000 8.7 280 14:51 03.08.2020
4844 Clear 31 1008 83 10000 7.7 280 14:25 03.08.2020
4845 Clear 30 1009 70 10000 3.6 250 12:47 03.08.2020
4846 Clear 30 1009 78 10000 6.7 290 11:38 03.08.2020
4847 Clear 30 1009 74 10000 6.2 250 10:38 03.08.2020
4848 Clear 29 991 80 10000 1.54 254 09:27 03.08.2020
4849 Clear 27 992 74 10000 1.53 233 07:56 03.08.2020
4850 Clear 28 992 62 10000 0.82 184 02:24 03.08.2020
4851 Clear 29 992 70 10000 1.15 157 01:52 03.08.2020
4852 Clear 28 1010 94 10000 2.6 210 00:46 03.08.2020
4853 Clear 29 1010 78 10000 2.6 80 21:57 02.08.2020
4854 Clear 29 1010 78 10000 3.6 60 21:22 02.08.2020
4855 Clear 29 1010 78 10000 4.1 40 20:51 02.08.2020
4856 Clear 29 1010 78 10000 4.1 40 20:32 02.08.2020
4857 Clear 30 1010 83 10000 4.1 20 19:43 02.08.2020
4858 Clear 31 1010 83 10000 4.1 20 19:20 02.08.2020
4859 Clear 31 1010 79 10000 3.1 20 18:39 02.08.2020
4860 Clouds 33 1010 79 10000 3.6 360 17:22 02.08.2020
4861 Clouds 33 1011 83 10000 4.1 10 15:38 02.08.2020
4862 Clouds 32 1010 79 10000 4.6 30 14:46 02.08.2020
4863 Clear 32 1011 79 10000 4.1 30 14:23 02.08.2020
4864 Clear 32 1011 79 10000 3.6 20 13:31 02.08.2020
4865 Clear 32 1011 79 10000 3.1 20 12:48 02.08.2020
4866 Clear 32 1011 74 10000 3.1 10 11:51 02.08.2020
4867 Clear 31 1011 74 10000 2.6 10 10:51 02.08.2020
4868 Clear 31 1011 74 10000 2.6 10 10:29 02.08.2020
4869 Clouds 30 1011 83 10000 1 0 09:26 02.08.2020
4870 Clear 29 1011 83 10000 0.5 0 08:29 02.08.2020
4871 Clear 28 1011 65 10000 1 0 07:52 02.08.2020
4872 Clear 27 1010 54 10000 0.5 0 04:47 02.08.2020
4873 Clear 27 1011 47 10000 1.5 190 02:27 02.08.2020
4874 Clear 28 1012 47 10000 1.5 120 00:23 02.08.2020
4875 Clear 29 1012 65 10000 2.6 40 22:50 01.08.2020
4876 Clear 30 1011 45 10000 1.5 60 20:48 01.08.2020
4877 Clear 31 994 44 10000 1.33 319 20:25 01.08.2020
4878 Clear 32 994 45 10000 2.11 323 19:27 01.08.2020
4879 Clear 32 1011 62 10000 2.1 280 18:40 01.08.2020
4880 Clear 33 1012 58 10000 1.5 320 17:43 01.08.2020
4881 Clear 34 1014 25 10000 3.13 315 16:37 01.08.2020
4882 Clear 34 1015 25 10000 2.68 315 15:49 01.08.2020
4883 Clear 34 995 39 10000 2.98 329 15:22 01.08.2020
4884 Clear 33 1013 74 10000 2.6 20 14:44 01.08.2020
4885 Clear 34 996 34 10000 2.79 330 13:20 01.08.2020
4886 Clear 34 996 33 10000 0.45 4 11:45 01.08.2020
4887 Clear 33 996 38 10000 2.13 332 10:56 01.08.2020
4888 Clear 28 996 50 10000 1.12 114 07:27 01.08.2020
4889 Clear 26 1014 69 10000 0.5 0 03:20 01.08.2020
4890 Clear 26 1015 88 10000 0.5 230 01:53 01.08.2020
4891 Clear 26 1015 88 10000 0.5 230 01:32 01.08.2020
4892 Clear 27 1015 83 10000 1.5 30 00:26 01.08.2020
4893 Clear 28 1015 83 10000 1.5 260 21:59 31.07.2020
4894 Clear 28 1014 74 10000 4.1 50 20:48 31.07.2020
4895 Clear 30 997 52 10000 1.72 86 20:29 31.07.2020
4896 Clear 30 997 56 10000 1.72 86 19:54 31.07.2020
4897 Clear 32 997 55 10000 2.68 65 18:31 31.07.2020
4898 Clear 31 1015 62 10000 6.7 50 16:58 31.07.2020
4899 Clear 31 1015 62 10000 6.7 50 16:37 31.07.2020
4900 Clear 33 998 45 10000 3.12 50 14:54 31.07.2020
4901 Clear 32 999 52 10000 3.49 46 13:41 31.07.2020
4902 Clear 32 999 53 10000 3.69 39 12:44 31.07.2020
4903 Clear 32 999 50 10000 3.28 44 12:18 31.07.2020
4904 Clear 32 1000 50 10000 3.28 44 11:35 31.07.2020
4905 Clear 31 999 44 10000 0.45 341 10:43 31.07.2020
4906 Clear 29 1016 83 10000 1.5 270 09:44 31.07.2020
4907 Clear 29 999 61 10000 2.1 72 08:55 31.07.2020
4908 Clear 28 999 61 10000 2.01 87 08:18 31.07.2020
4909 Clear 25 1015 83 10000 2.1 30 05:36 31.07.2020
4910 Clear 26 1016 88 10000 1 210 02:37 31.07.2020
4911 Clear 26 1016 88 10000 2.1 20 01:49 31.07.2020
4912 Clear 27 1000 77 10000 2.03 97 00:27 31.07.2020
4913 Clear 28 1000 70 10000 2.4 104 23:18 30.07.2020
4914 Clear 28 999 72 10000 2.4 104 22:37 30.07.2020
4915 Clear 28 999 78 10000 2.38 113 21:20 30.07.2020
4916 Clear 28 999 75 10000 2.38 113 20:59 30.07.2020
4917 Clear 28 999 73 10000 2.38 113 20:37 30.07.2020
4918 Clear 29 999 66 10000 2.88 88 19:28 30.07.2020
4919 Clear 29 1015 70 10000 9.8 60 18:34 30.07.2020
4920 Clear 29 1015 70 10000 9.3 60 17:25 30.07.2020
4921 Clear 30 1015 70 10000 9.8 60 16:48 30.07.2020
4922 Clear 31 1015 62 10000 9.8 60 16:29 30.07.2020
4923 Clear 31 1015 70 10000 10.3 60 15:40 30.07.2020
4924 Clear 33 999 40 10000 4.35 65 15:18 30.07.2020
4925 Clear 32 999 42 10000 4.35 65 14:41 30.07.2020
4926 Clear 32 999 47 10000 4.18 61 14:23 30.07.2020
4927 Clear 32 999 49 10000 4.18 61 13:49 30.07.2020
4928 Clear 32 1000 49 10000 3.81 59 13:19 30.07.2020
4929 Clear 32 1000 47 10000 3.81 59 12:44 30.07.2020
4930 Clear 31 1000 49 10000 3.65 62 11:46 30.07.2020
4931 Clear 30 1000 54 10000 3.36 68 10:41 30.07.2020
4932 Clear 30 1000 51 10000 3.07 81 10:22 30.07.2020
4933 Clear 29 1000 53 10000 2.93 94 09:19 30.07.2020
4934 Clear 28 1000 57 10000 2.93 91 08:50 30.07.2020
4935 Clear 26 1000 58 10000 2.51 90 07:42 30.07.2020
4936 Clear 25 998 58 10000 2.55 121 02:31 30.07.2020
4937 Clear 26 1015 83 10000 0.5 0 01:30 30.07.2020
4938 Clear 26 1016 78 10000 2.6 270 23:22 29.07.2020
4939 Clear 27 1015 74 10000 2.1 300 22:42 29.07.2020
4940 Clear 27 1015 69 10000 3.1 240 21:53 29.07.2020
4941 Clear 28 999 76 10000 2.39 106 21:35 29.07.2020
4942 Clear 28 998 74 10000 2.39 106 20:46 29.07.2020
4943 Clear 28 998 71 10000 2.56 90 20:23 29.07.2020
4944 Clear 29 998 64 10000 2.56 90 19:41 29.07.2020
4945 Clear 30 998 62 10000 3.05 79 19:23 29.07.2020
4946 Clear 30 1014 66 10000 9.8 60 18:44 29.07.2020
4947 Clear 30 1014 66 10000 10.3 50 18:23 29.07.2020
4948 Clear 31 1014 66 10000 10.3 60 17:46 29.07.2020
4949 Clear 31 1014 70 10000 10.3 50 16:42 29.07.2020
4950 Clear 32 1015 66 10000 8.7 50 15:53 29.07.2020
4951 Clear 32 1015 66 10000 8.7 50 15:29 29.07.2020
4952 Clear 32 1015 66 10000 8.7 60 14:56 29.07.2020
4953 Clear 32 998 59 10000 4.11 55 14:19 29.07.2020
4954 Clear 32 1015 66 10000 8.2 50 13:25 29.07.2020
4955 Clear 32 998 57 10000 3.84 51 12:39 29.07.2020
4956 Clear 30 1015 74 10000 5.1 20 12:20 29.07.2020
4957 Clear 31 1015 74 10000 2.1 350 11:41 29.07.2020
4958 Clear 31 998 48 10000 2.79 48 10:59 29.07.2020
4959 Clear 31 998 48 10000 2.22 62 10:27 29.07.2020
4960 Clear 29 998 54 10000 2.22 62 09:33 29.07.2020
4961 Clear 28 998 70 10000 1.56 110 08:22 29.07.2020
4962 Clear 26 998 78 10000 1.61 123 07:27 29.07.2020
4963 Clear 24 1014 83 10000 1.5 250 05:45 29.07.2020
4964 Clear 25 1014 83 10000 1 290 02:25 29.07.2020
4965 Clear 26 1014 73 10000 1 250 00:34 29.07.2020
4966 Clear 27 1015 69 10000 1.5 300 22:43 28.07.2020
4967 Clear 27 1014 61 10000 2.6 110 22:19 28.07.2020
4968 Clear 28 1014 58 10000 5.1 70 21:35 28.07.2020
4969 Clear 28 1014 58 10000 6.2 70 20:57 28.07.2020
4970 Clear 29 1014 58 10000 6.2 70 20:38 28.07.2020
4971 Clear 30 997 56 10000 2.29 84 19:57 28.07.2020
4972 Clear 30 997 53 10000 2.29 84 19:37 28.07.2020
4973 Clear 30 1013 65 10000 8.7 50 19:18 28.07.2020
4974 Clear 30 1013 55 10000 9.3 70 18:37 28.07.2020
4975 Clear 30 1014 66 10000 9.8 50 17:53 28.07.2020
4976 Clear 31 1014 66 10000 9.8 40 17:21 28.07.2020
4977 Clear 31 1014 70 10000 9.3 40 16:39 28.07.2020
4978 Clear 32 1014 62 10000 9.3 50 15:31 28.07.2020
4979 Clear 32 1014 62 10000 8.2 50 14:52 28.07.2020
4980 Clear 32 1014 62 10000 8.2 50 14:32 28.07.2020
4981 Clear 32 1014 62 10000 8.2 50 14:32 28.07.2020
4982 Clear 31 1015 55 10000 8.2 50 13:41 28.07.2020
4983 Clear 31 1015 55 10000 6.7 60 12:42 28.07.2020
4984 Clear 31 1015 51 10000 7.2 60 12:21 28.07.2020
4985 Clear 31 999 50 10000 3.39 63 11:55 28.07.2020
4986 Clear 30 1016 69 10000 7.2 70 11:18 28.07.2020
4987 Clear 30 1016 65 10000 6.2 60 10:43 28.07.2020
4988 Clear 30 1016 54 10000 1 0 10:20 28.07.2020
4989 Clear 29 999 46 10000 2.57 69 09:39 28.07.2020
4990 Clear 28 1016 65 10000 1.5 250 09:18 28.07.2020
4991 Clear 27 999 51 10000 2.01 63 08:37 28.07.2020
4992 Clear 27 999 59 10000 1.39 85 07:51 28.07.2020
4993 Clear 25 1015 78 10000 1 80 06:56 28.07.2020
4994 Clear 24 1016 78 10000 1 70 02:21 28.07.2020
4995 Clear 24 1016 78 10000 1 70 02:21 28.07.2020
4996 Clear 24 1016 78 10000 1 70 02:21 28.07.2020
4997 Clear 24 1016 78 10000 1 70 02:21 28.07.2020
4998 Clear 24 1016 73 10000 0.5 0 01:50 28.07.2020
4999 Clear 25 1016 78 10000 0.5 0 00:57 28.07.2020
5000 Clear 26 1016 74 10000 0.5 0 23:49 27.07.2020
5001 Clear 26 1016 69 10000 1.5 200 23:25 27.07.2020
5002 Clear 27 1016 61 10000 4.1 70 22:43 27.07.2020
5003 Clear 27 1016 65 10000 5.1 60 22:21 27.07.2020
5004 Clear 27 1016 69 10000 6.7 60 21:46 27.07.2020
5005 Clear 27 1015 69 10000 7.7 60 20:54 27.07.2020
5006 Clear 27 1015 69 10000 7.7 60 20:36 27.07.2020
5007 Clear 28 999 67 10000 2.09 68 20:18 27.07.2020
5008 Clear 29 999 62 10000 2.09 68 19:34 27.07.2020
5009 Clear 29 1015 65 10000 9.3 50 18:47 27.07.2020
5010 Clear 30 1016 62 10000 9.3 50 17:50 27.07.2020
5011 Clear 30 1016 62 10000 9.3 50 17:32 27.07.2020
5012 Clear 30 1016 62 10000 9.3 40 16:59 27.07.2020
5013 Clear 30 1016 58 10000 8.7 40 16:22 27.07.2020
5014 Clear 31 1016 62 10000 8.2 40 15:49 27.07.2020
5015 Clear 30 1016 62 10000 8.2 40 15:31 27.07.2020
5016 Clear 30 1017 62 10000 7.2 40 14:54 27.07.2020
5017 Clear 32 1000 34 10000 3.69 47 14:35 27.07.2020
5018 Clear 31 1000 33 10000 3.65 47 13:49 27.07.2020
5019 Clear 31 1017 69 10000 5.7 40 13:28 27.07.2020
5020 Clear 31 1017 69 10000 5.7 30 12:53 27.07.2020
5021 Clear 31 1017 69 10000 5.7 30 12:32 27.07.2020
5022 Clear 30 1000 40 10000 2.75 41 11:27 27.07.2020
5023 Clear 29 1017 69 10000 5.1 30 10:59 27.07.2020
5024 Clear 28 1017 69 10000 5.1 30 09:58 27.07.2020
5025 Clear 28 1017 69 10000 5.1 40 09:38 27.07.2020
5026 Clear 28 1017 61 10000 4.6 50 09:18 27.07.2020
5027 Clear 27 1017 65 10000 4.1 60 08:50 27.07.2020
5028 Clear 27 1017 65 10000 3.6 60 08:30 27.07.2020
5029 Clear 26 1000 76 10000 1.29 89 07:44 27.07.2020
5030 Clear 25 1017 69 10000 3.1 60 06:36 27.07.2020
5031 Clear 24 1016 73 10000 1.5 160 03:54 27.07.2020
5032 Clear 25 1016 69 10000 0.5 0 02:18 27.07.2020
5033 Clear 25 1016 65 10000 2.6 80 00:19 27.07.2020
5034 Clear 26 1016 57 10000 3.1 50 23:29 26.07.2020
5035 Clear 26 1016 65 10000 3.6 40 22:47 26.07.2020
5036 Clear 26 1015 74 10000 4.6 50 22:29 26.07.2020
5037 Clear 27 1015 74 10000 5.1 50 21:54 26.07.2020
5038 Clear 27 1015 74 10000 5.7 60 21:22 26.07.2020
5039 Clear 28 1015 69 10000 6.7 60 20:54 26.07.2020
5040 Clear 28 1015 69 10000 6.7 60 20:33 26.07.2020
5041 Clear 29 998 64 10000 1.93 72 19:50 26.07.2020
5042 Clear 29 1014 65 10000 6.7 40 19:32 26.07.2020
5043 Clear 29 1014 65 10000 6.7 40 18:59 26.07.2020
5044 Clear 29 1015 65 10000 6.2 40 18:38 26.07.2020
5045 Clear 30 1015 62 10000 6.2 30 18:19 26.07.2020
5046 Clear 30 1015 62 10000 6.2 30 17:42 26.07.2020
5047 Clear 30 1015 62 10000 6.2 30 17:20 26.07.2020
5048 Clear 30 1015 62 10000 5.7 30 16:48 26.07.2020
5049 Clear 30 1015 66 10000 5.1 30 16:24 26.07.2020
5050 Clear 30 1015 62 10000 5.1 20 15:42 26.07.2020
5051 Clear 31 998 48 10000 1.34 6 15:24 26.07.2020
5052 Clear 30 1015 58 10000 4.1 360 14:50 26.07.2020
5053 Clear 30 1015 62 10000 4.1 360 14:23 26.07.2020
5054 Clear 31 998 42 10000 0.89 355 13:46 26.07.2020
5055 Clear 30 998 53 10000 0.45 8 12:55 26.07.2020
5056 Clear 30 998 49 10000 1.34 353 12:37 26.07.2020
5057 Clear 30 998 40 10000 1.34 2 12:18 26.07.2020
5058 Clear 30 998 54 10000 0.45 13 11:39 26.07.2020
5059 Clear 30 998 49 10000 1.88 344 10:58 26.07.2020
5060 Clear 30 998 46 10000 1.88 344 10:40 26.07.2020
5061 Clear 28 1015 78 10000 3.1 240 09:53 26.07.2020
5062 Clear 29 998 49 10000 1.29 343 09:31 26.07.2020
5063 Clear 27 1014 74 10000 2.6 220 08:53 26.07.2020
5064 Clear 26 997 61 10000 0.18 180 07:43 26.07.2020
5065 Clear 24 1013 83 10000 2.6 80 06:28 26.07.2020
5066 Clear 23 997 65 10000 0.67 113 03:49 26.07.2020
5067 Clouds 25 1014 78 10000 1.5 280 00:57 26.07.2020
5068 Clouds 26 1014 78 10000 1.5 290 23:56 25.07.2020
5069 Clear 26 1014 78 10000 2.1 290 23:30 25.07.2020
5070 Clear 26 1014 74 10000 2.1 280 22:38 25.07.2020
5071 Clear 25 1013 74 10000 2.1 310 21:47 25.07.2020
5072 Clear 26 996 68 10000 1.3 311 21:20 25.07.2020
5073 Clear 27 996 68 10000 0.45 347 20:43 25.07.2020
5074 Clear 28 996 63 10000 1.71 325 20:20 25.07.2020
5075 Clear 28 1013 65 10000 3.1 330 19:30 25.07.2020
5076 Clear 29 1013 65 10000 3.1 350 18:57 25.07.2020
5077 Clear 28 1013 65 10000 3.1 350 18:35 25.07.2020
5078 Clear 29 1013 70 10000 3.6 350 17:58 25.07.2020
5079 Clear 29 1013 70 10000 3.6 350 17:39 25.07.2020
5080 Clear 30 1013 70 10000 2.6 350 17:21 25.07.2020
5081 Clear 29 1013 66 10000 4.1 350 16:50 25.07.2020
5082 Clear 30 1013 66 10000 4.1 350 16:28 25.07.2020
5083 Clear 30 1013 70 10000 3.1 350 15:47 25.07.2020
5084 Clear 30 1013 66 10000 3.1 360 15:21 25.07.2020
5085 Clear 30 1013 66 10000 3.1 360 15:21 25.07.2020
5086 Clear 30 1013 66 10000 3.1 10 14:46 25.07.2020
5087 Clear 30 1013 74 10000 3.6 350 14:28 25.07.2020
5088 Clear 30 995 57 10000 2.68 10 13:42 25.07.2020
5089 Clear 31 995 35 10000 1.34 354 13:22 25.07.2020
5090 Clear 30 1013 69 10000 3.1 330 12:56 25.07.2020
5091 Clear 30 1013 69 10000 1.5 330 12:22 25.07.2020
5092 Clear 29 1013 74 10000 2.6 340 11:43 25.07.2020
5093 Clear 28 995 60 10000 0.89 7 11:23 25.07.2020
5094 Clear 28 995 66 10000 2.5 337 10:45 25.07.2020
5095 Clear 28 995 68 10000 0.45 340 10:25 25.07.2020
5096 Clear 28 995 65 10000 1.34 7 09:58 25.07.2020
5097 Clear 28 995 64 10000 1.37 340 09:27 25.07.2020
5098 Clear 28 995 62 10000 1.37 340 08:59 25.07.2020
5099 Clear 27 995 56 10000 0.72 310 08:25 25.07.2020
5100 Clear 27 995 57 10000 0.72 310 07:55 25.07.2020
5101 Clear 26 995 58 10000 0.72 310 07:36 25.07.2020
5102 Clear 25 994 56 10000 1.01 260 06:55 25.07.2020
5103 Clear 25 1011 78 10000 1.5 190 03:31 25.07.2020
5104 Clear 25 1012 78 10000 2.1 150 02:36 25.07.2020
5105 Clear 25 995 67 10000 0.56 258 01:38 25.07.2020
5106 Clear 25 995 65 10000 0.48 176 01:19 25.07.2020
5107 Clear 25 995 65 10000 0.48 176 00:45 25.07.2020
5108 Clear 26 995 66 10000 0.7 158 00:22 25.07.2020
5109 Clear 26 995 65 10000 0.7 158 23:55 24.07.2020
5110 Clear 26 1012 83 10000 2.6 250 23:36 24.07.2020
5111 Clear 26 1011 88 10000 1 290 23:18 24.07.2020
5112 Clear 26 1011 78 10000 1 40 22:41 24.07.2020
5113 Clear 27 1012 74 10000 1.5 40 22:21 24.07.2020
5114 Clouds 27 1011 83 10000 2.1 30 21:45 24.07.2020
5115 Clear 28 995 62 10000 0.5 129 21:26 24.07.2020
5116 Clear 28 994 55 10000 0.5 129 20:46 24.07.2020
5117 Clear 28 994 58 10000 0.65 38 20:28 24.07.2020
5118 Clear 29 994 53 10000 0.65 38 19:45 24.07.2020
5119 Clear 30 1011 74 10000 5.1 40 19:24 24.07.2020
5120 Clear 28 1011 74 10000 6.2 30 18:42 24.07.2020
5121 Clear 29 1010 69 10000 7.2 40 18:18 24.07.2020
5122 Clear 29 1010 69 10000 8.2 40 17:44 24.07.2020
5123 Clear 29 1010 66 10000 8.7 40 17:18 24.07.2020
5124 Clear 31 1014 35 10000 1.79 90 16:38 24.07.2020
5125 Clear 31 1014 35 10000 1.79 135 16:18 24.07.2020
5126 Clear 31 1011 66 10000 7.7 40 15:43 24.07.2020
5127 Clear 31 1011 70 10000 7.2 30 15:19 24.07.2020
5128 Clear 30 1011 66 10000 7.7 30 14:42 24.07.2020
5129 Clear 32 1011 66 10000 7.2 40 14:19 24.07.2020
5130 Clear 32 1012 66 10000 6.2 40 13:41 24.07.2020
5131 Clear 32 1012 69 10000 4.6 10 13:20 24.07.2020
5132 Clear 31 1012 58 10000 2.6 310 12:40 24.07.2020
5133 Clear 31 1012 61 10000 3.1 310 12:19 24.07.2020
5134 Clear 30 1012 58 10000 2.6 310 11:37 24.07.2020
5135 Clear 30 1012 61 10000 2.1 290 11:18 24.07.2020
5136 Clear 30 1012 61 10000 2.1 290 11:18 24.07.2020
5137 Clear 29 1012 61 10000 2.1 300 10:44 24.07.2020
5138 Clear 29 995 44 10000 1.51 90 10:18 24.07.2020
5139 Clear 27 1011 57 10000 2.6 250 09:44 24.07.2020
5140 Clear 28 1011 54 10000 2.1 250 09:24 24.07.2020
5141 Clear 28 995 45 10000 1.98 118 08:55 24.07.2020
5142 Clear 27 995 45 10000 1.98 118 08:37 24.07.2020
5143 Clear 26 995 51 10000 2.3 119 07:57 24.07.2020
5144 Clear 25 995 52 10000 2.3 119 07:37 24.07.2020
5145 Clear 25 1011 64 10000 1.5 170 07:18 24.07.2020
5146 Clear 23 995 54 10000 1.88 99 05:57 24.07.2020
5147 Clear 23 995 55 10000 1.88 99 05:32 24.07.2020
5148 Clear 23 995 58 10000 1.8 94 04:40 24.07.2020
5149 Clear 24 995 58 10000 2.01 114 01:59 24.07.2020
5150 Clear 24 996 54 10000 1.97 116 00:49 24.07.2020
5151 Clear 26 1012 61 10000 1 0 00:26 24.07.2020
5152 Clear 26 1012 65 10000 1 0 23:45 23.07.2020
5153 Clear 27 1012 61 10000 2.6 210 23:23 23.07.2020
5154 Clear 27 1012 65 10000 3.6 240 22:44 23.07.2020
5155 Clear 27 1012 57 10000 3.6 60 22:23 23.07.2020
5156 Clear 27 1012 57 10000 3.6 60 21:56 23.07.2020
5157 Clear 27 1012 58 10000 3.6 60 21:37 23.07.2020
5158 Clear 27 996 72 10000 1.85 107 21:18 23.07.2020
5159 Clear 27 996 72 10000 1.85 107 21:18 23.07.2020
5160 Clear 28 996 67 10000 1.85 107 20:43 23.07.2020
5161 Clear 28 996 65 10000 1.86 84 20:20 23.07.2020
5162 Clear 29 996 62 10000 1.86 84 19:59 23.07.2020
5163 Clear 29 1012 58 10000 6.7 60 19:39 23.07.2020
5164 Clear 29 1012 58 10000 7.2 60 19:21 23.07.2020
5165 Clear 28 1012 58 10000 7.2 60 18:43 23.07.2020
5166 Clear 28 1012 62 10000 7.2 50 18:24 23.07.2020
5167 Clear 29 1012 58 10000 7.7 50 17:59 23.07.2020
5168 Clear 29 1012 58 10000 7.7 50 17:39 23.07.2020
5169 Clear 29 1012 58 10000 8.2 50 17:18 23.07.2020
5170 Clear 29 1012 58 10000 7.7 50 16:41 23.07.2020
5171 Clear 29 1013 66 10000 8.2 40 16:22 23.07.2020
5172 Clear 29 1013 62 10000 8.2 40 15:44 23.07.2020
5173 Clear 29 1013 66 10000 7.7 40 15:23 23.07.2020
5174 Clear 30 997 59 10000 3.54 46 14:41 23.07.2020
5175 Clear 30 997 60 10000 3.83 45 14:20 23.07.2020
5176 Clear 30 997 61 10000 3.83 45 13:59 23.07.2020
5177 Clear 30 997 61 10000 3.83 45 13:40 23.07.2020
5178 Clear 30 997 59 10000 3.7 44 13:22 23.07.2020
5179 Clear 31 1014 74 10000 5.7 40 12:45 23.07.2020
5180 Clear 30 997 58 10000 3.19 43 12:23 23.07.2020
5181 Clear 30 997 58 10000 3.19 43 11:51 23.07.2020
5182 Clear 29 1014 74 10000 4.6 30 11:26 23.07.2020
5183 Clear 30 997 57 10000 2.76 39 10:59 23.07.2020
5184 Clear 29 1014 74 10000 4.1 30 10:39 23.07.2020
5185 Clear 28 1015 78 10000 2.1 330 10:19 23.07.2020
5186 Clear 29 1015 78 10000 2.1 330 10:19 23.07.2020
5187 Clear 29 998 58 10000 2.2 38 09:48 23.07.2020
5188 Clear 27 1015 78 10000 1.5 260 09:28 23.07.2020
5189 Clear 27 1014 74 10000 1 270 08:52 23.07.2020
5190 Clear 27 998 65 10000 0.89 94 08:33 23.07.2020
5191 Clear 26 998 71 10000 0.89 94 07:54 23.07.2020
5192 Clear 26 997 73 10000 0.89 94 07:33 23.07.2020
5193 Clear 24 997 76 10000 0.59 116 06:46 23.07.2020
5194 Clear 23 1014 78 10000 1 110 06:20 23.07.2020
5195 Clear 23 1014 73 10000 1.5 160 05:45 23.07.2020
5196 Clear 23 1014 83 10000 0.5 0 04:47 23.07.2020
5197 Clear 24 1015 78 10000 1.5 120 03:58 23.07.2020
5198 Clear 25 1015 83 10000 4.6 60 02:42 23.07.2020
5199 Clear 25 1016 83 10000 4.1 50 00:33 23.07.2020
5200 Clear 25 1016 83 10000 4.1 50 23:57 22.07.2020
5201 Clear 25 1016 83 10000 4.1 50 23:37 22.07.2020
5202 Clear 25 1016 83 10000 4.6 40 23:19 22.07.2020
5203 Clear 25 1016 83 10000 5.1 30 22:40 22.07.2020
5204 Clear 26 1016 83 10000 5.1 30 22:21 22.07.2020
5205 Clear 26 1015 83 10000 4.6 30 21:54 22.07.2020
5206 Clear 26 1015 83 10000 4.6 30 21:36 22.07.2020
5207 Clear 26 1015 78 10000 4.6 30 21:18 22.07.2020
5208 Clear 27 1016 78 10000 4.6 40 20:55 22.07.2020
5209 Clear 27 999 66 10000 2.11 19 20:36 22.07.2020
5210 Clear 27 999 65 10000 0.45 350 20:18 22.07.2020
5211 Clear 29 1016 74 10000 4.6 30 19:43 22.07.2020
5212 Clear 29 1016 74 10000 5.1 30 19:25 22.07.2020
5213 Clear 28 1016 69 10000 5.1 30 18:55 22.07.2020
5214 Clear 28 1016 74 10000 5.1 30 18:32 22.07.2020
5215 Clear 28 1016 69 10000 4.6 30 17:45 22.07.2020
5216 Clear 28 1017 69 10000 4.1 30 17:26 22.07.2020
5217 Clear 28 1017 69 10000 4.6 20 16:57 22.07.2020
5218 Clear 28 1017 69 10000 4.6 20 16:38 22.07.2020
5219 Clear 29 1017 69 10000 5.7 20 16:20 22.07.2020
5220 Clear 29 1017 69 10000 5.7 20 16:00 22.07.2020
5221 Clear 29 1017 69 10000 5.7 30 15:41 22.07.2020
5222 Clear 29 1017 74 10000 5.7 30 15:21 22.07.2020
5223 Clear 30 1000 53 10000 1.34 12 14:48 22.07.2020
5224 Clear 30 1000 52 10000 1.34 346 14:20 22.07.2020
5225 Clear 29 1001 57 10000 1.79 2 13:57 22.07.2020
5226 Clear 29 1001 57 10000 1.34 3 13:37 22.07.2020
5227 Clear 29 1001 51 10000 0.89 345 13:18 22.07.2020
5228 Clear 30 1001 50 10000 3.05 20 12:41 22.07.2020
5229 Clear 29 1001 52 10000 0.89 354 12:21 22.07.2020
5230 Clear 29 1001 53 10000 0.89 341 11:56 22.07.2020
5231 Clear 29 1001 50 10000 2.67 26 11:37 22.07.2020
5232 Clear 29 1001 57 10000 2.48 28 11:18 22.07.2020
5233 Clear 29 1001 56 10000 2.48 28 11:18 22.07.2020
5234 Clear 28 1018 69 10000 4.1 30 10:42 22.07.2020
5235 Clear 28 1001 64 10000 2.2 26 10:23 22.07.2020
5236 Clear 28 1018 74 10000 2.6 10 09:51 22.07.2020
5237 Clear 27 1018 69 10000 1.5 330 09:23 22.07.2020
5238 Clear 26 1018 65 10000 1 300 08:56 22.07.2020
5239 Clear 26 1002 73 10000 1.25 40 08:37 22.07.2020
5240 Clear 26 1002 74 10000 1.25 40 08:18 22.07.2020
5241 Clear 24 1001 77 10000 0.81 88 07:21 22.07.2020
5242 Clear 24 1018 64 10000 1.5 150 06:36 22.07.2020
5243 Clear 23 1018 69 10000 0.5 0 06:18 22.07.2020
5244 Clear 23 1018 64 10000 0.5 0 05:45 22.07.2020
5245 Clear 21 1001 78 10000 0.95 103 05:18 22.07.2020
5246 Clear 23 1018 73 10000 3.1 80 04:22 22.07.2020
5247 Clear 24 1018 65 10000 4.1 50 02:38 22.07.2020
5248 Clear 24 1018 69 10000 3.6 50 01:32 22.07.2020
5249 Clear 25 1019 69 10000 3.6 70 00:28 22.07.2020
5250 Clear 25 1019 69 10000 4.1 60 23:44 21.07.2020
5251 Clear 25 1018 69 10000 4.6 70 23:23 21.07.2020
5252 Clear 25 1018 69 10000 4.6 70 22:59 21.07.2020
5253 Clear 25 1018 69 10000 5.1 60 22:40 21.07.2020
5254 Clear 26 1018 69 10000 4.6 60 22:22 21.07.2020
5255 Clear 26 1018 69 10000 4.6 60 21:59 21.07.2020
5256 Clear 26 1018 69 10000 4.6 60 21:40 21.07.2020
5257 Clear 26 1018 65 10000 5.1 50 21:22 21.07.2020
5258 Clear 26 1018 65 10000 6.2 50 20:59 21.07.2020
5259 Clear 27 1018 65 10000 6.2 50 20:40 21.07.2020
5260 Clear 27 1001 71 10000 2.55 56 20:21 21.07.2020
5261 Clear 27 1002 68 10000 0.89 4 19:44 21.07.2020
5262 Clear 28 1018 69 10000 6.2 40 19:20 21.07.2020
5263 Clear 27 1018 65 10000 6.2 40 18:44 21.07.2020
5264 Clear 27 1018 58 10000 6.2 40 18:25 21.07.2020
5265 Clear 28 1018 58 10000 6.2 40 17:58 21.07.2020
5266 Clear 28 1018 58 10000 6.2 40 17:37 21.07.2020
5267 Clear 28 1018 61 10000 7.2 40 17:18 21.07.2020
5268 Clear 28 1019 61 10000 7.2 40 16:41 21.07.2020
5269 Clear 28 1019 65 10000 7.2 30 16:20 21.07.2020
5270 Clear 29 1019 65 10000 6.7 30 15:44 21.07.2020
5271 Clear 29 1019 65 10000 6.7 30 15:44 21.07.2020
5272 Clear 29 1019 61 10000 5.7 30 15:23 21.07.2020
5273 Clear 29 1019 65 10000 5.1 30 14:56 21.07.2020
5274 Clear 29 1019 65 10000 5.1 30 14:37 21.07.2020
5275 Clear 29 1020 65 10000 5.1 30 14:18 21.07.2020
5276 Clear 29 1003 46 10000 3.51 40 13:40 21.07.2020
5277 Clear 28 1003 47 10000 3.06 45 13:22 21.07.2020
5278 Clear 28 1003 47 10000 1.79 352 12:56 21.07.2020
5279 Clear 28 1003 52 10000 0.45 347 12:37 21.07.2020
5280 Clear 28 1003 53 10000 0.45 346 12:18 21.07.2020
5281 Clear 29 1020 69 10000 5.7 40 11:41 21.07.2020
5282 Clear 28 1019 65 10000 5.7 30 11:21 21.07.2020
5283 Clear 28 1019 65 10000 5.7 30 10:57 21.07.2020
5284 Clear 28 1019 65 10000 5.7 30 10:38 21.07.2020
5285 Clear 27 1019 65 10000 5.7 40 10:19 21.07.2020
5286 Clear 27 1019 65 10000 5.1 50 09:42 21.07.2020
5287 Clear 27 1019 65 10000 5.1 50 09:42 21.07.2020
5288 Clear 27 1019 61 10000 4.6 70 09:22 21.07.2020
5289 Clear 26 1019 65 10000 4.1 70 08:44 21.07.2020
5290 Clear 26 1019 65 10000 3.6 80 08:24 21.07.2020
5291 Clear 25 1019 65 10000 2.1 90 07:49 21.07.2020
5292 Clear 25 1003 83 10000 1.14 83 07:31 21.07.2020
5293 Clear 23 1003 86 10000 1.07 104 06:58 21.07.2020
5294 Clear 22 1019 73 10000 2.1 150 06:25 21.07.2020
5295 Clear 23 1018 64 10000 0.5 0 04:29 21.07.2020
5296 Clear 23 1018 60 10000 2.1 90 02:57 21.07.2020
5297 Clear 23 1019 57 10000 2.1 110 01:42 21.07.2020
5298 Clear 25 1019 65 10000 3.6 70 00:50 21.07.2020
5299 Clear 25 1019 65 10000 3.1 70 00:28 21.07.2020
5300 Clear 25 1019 65 10000 3.6 70 23:58 20.07.2020
5301 Clear 25 1019 65 10000 3.6 70 23:38 20.07.2020
5302 Clear 26 1019 61 10000 4.6 70 23:20 20.07.2020
5303 Clear 26 1019 61 10000 4.6 70 23:20 20.07.2020
5304 Clear 26 1019 61 10000 5.1 50 22:56 20.07.2020
5305 Clear 26 1019 61 10000 5.1 50 22:37 20.07.2020
5306 Clear 26 1018 61 10000 5.1 50 22:18 20.07.2020
5307 Clear 26 1018 61 10000 5.1 60 21:42 20.07.2020
5308 Clear 26 1018 61 10000 5.7 50 21:24 20.07.2020
5309 Clear 27 1018 57 10000 5.7 50 20:55 20.07.2020
5310 Clear 27 1018 57 10000 5.7 50 20:37 20.07.2020
5311 Clear 27 1018 57 10000 5.1 50 20:19 20.07.2020
5312 Clear 26 1018 61 10000 5.1 40 19:38 20.07.2020
5313 Clear 26 1018 54 10000 6.2 50 19:18 20.07.2020
5314 Clear 25 1018 61 10000 6.2 40 18:43 20.07.2020
5315 Clear 25 1018 58 10000 5.1 40 18:25 20.07.2020
5316 Clear 25 1018 58 10000 5.7 40 17:58 20.07.2020
5317 Clear 26 1018 58 10000 5.7 40 17:38 20.07.2020
5318 Clear 27 1018 58 10000 5.1 40 17:19 20.07.2020
5319 Clear 27 1018 61 10000 4.6 30 16:46 20.07.2020
5320 Clear 27 1018 57 10000 5.1 30 16:20 20.07.2020
5321 Clear 27 1018 57 10000 5.7 30 15:44 20.07.2020
5322 Clear 27 1018 57 10000 5.7 20 15:19 20.07.2020
5323 Clear 27 1018 57 10000 5.7 20 14:46 20.07.2020
5324 Clear 28 1018 54 10000 5.7 20 14:20 20.07.2020
5325 Clear 28 1018 54 10000 5.7 20 13:59 20.07.2020
5326 Clear 28 1018 54 10000 5.1 10 13:40 20.07.2020
5327 Clear 28 1018 54 10000 5.1 10 13:21 20.07.2020
5328 Clear 27 1001 49 10000 0.45 358 12:58 20.07.2020
5329 Clear 28 1018 54 10000 5.1 10 12:40 20.07.2020
5330 Clear 28 1018 57 10000 4.6 10 12:19 20.07.2020
5331 Clear 27 1018 54 10000 4.6 20 11:58 20.07.2020
5332 Clear 28 1018 54 10000 4.6 20 11:39 20.07.2020
5333 Clear 27 1001 49 10000 1.34 5 11:21 20.07.2020
5334 Clear 27 1001 49 10000 1.34 348 10:44 20.07.2020
5335 Clear 27 1001 54 10000 1.34 333 10:26 20.07.2020
5336 Clouds 26 1017 57 10000 2.6 20 09:57 20.07.2020
5337 Clouds 26 1017 57 10000 2.6 20 09:38 20.07.2020
5338 Clouds 25 1017 57 10000 3.1 20 09:20 20.07.2020
5339 Clouds 24 1017 57 10000 3.1 360 08:45 20.07.2020
5340 Clouds 24 1017 57 10000 3.1 360 08:24 20.07.2020
5341 Clear 24 1000 81 10000 2.24 25 07:43 20.07.2020
5342 Clear 23 1000 82 10000 1.58 26 07:21 20.07.2020
5343 Clouds 23 1016 73 10000 1 0 06:43 20.07.2020
5344 Clear 23 1016 61 10000 2.6 10 05:46 20.07.2020
5345 Clear 24 1016 69 10000 3.1 360 02:50 20.07.2020
5346 Clear 24 1016 65 10000 4.1 30 00:57 20.07.2020
5347 Clear 24 1016 69 10000 4.1 40 00:20 20.07.2020
5348 Clear 25 1016 65 10000 4.1 30 23:46 19.07.2020
5349 Clear 25 1016 65 10000 4.1 30 23:27 19.07.2020
5350 Clear 25 1016 69 10000 4.1 20 22:58 19.07.2020
5351 Clear 25 1016 65 10000 4.6 30 22:37 19.07.2020
5352 Clear 25 1015 65 10000 5.1 20 22:18 19.07.2020
5353 Clear 25 1015 65 10000 5.7 20 21:54 19.07.2020
5354 Clear 25 1015 65 10000 5.7 20 21:36 19.07.2020
5355 Clear 25 999 70 10000 1.61 348 21:18 19.07.2020
5356 Clear 26 998 67 10000 0.45 348 20:41 19.07.2020
5357 Clear 26 998 66 10000 2.49 350 20:20 19.07.2020
5358 Clear 26 998 62 10000 0.89 3 19:58 19.07.2020
5359 Clear 27 1015 57 10000 4.6 10 19:38 19.07.2020
5360 Clear 27 998 57 10000 0.89 357 19:19 19.07.2020
5361 Clear 28 1015 58 10000 5.1 360 18:42 19.07.2020
5362 Clear 28 1015 58 10000 5.1 360 18:41 19.07.2020
5363 Clear 27 1014 51 10000 5.1 350 18:23 19.07.2020
5364 Clear 27 1014 48 10000 5.7 350 17:56 19.07.2020
5365 Clear 27 1014 48 10000 5.7 350 17:37 19.07.2020
5366 Clear 27 1014 54 10000 4.6 350 17:18 19.07.2020
5367 Clouds 28 1014 51 10000 3.6 350 16:39 19.07.2020
5368 Clouds 28 1014 61 10000 3.6 350 16:21 19.07.2020
5369 Clouds 28 1014 61 10000 4.6 360 15:52 19.07.2020
5370 Clouds 28 1014 61 10000 4.6 360 15:32 19.07.2020
5371 Clear 27 997 58 10000 1.34 1 14:59 19.07.2020
5372 Clear 27 997 58 10000 1.34 11 14:40 19.07.2020
5373 Clear 27 997 61 10000 2.68 17 14:22 19.07.2020
5374 Clear 27 997 63 10000 2.68 22 13:43 19.07.2020
5375 Clear 27 997 65 10000 2.24 11 13:22 19.07.2020
5376 Clear 27 997 65 10000 0.89 15 12:51 19.07.2020
5377 Clear 26 997 67 10000 1.79 346 12:27 19.07.2020
5378 Clear 26 997 68 10000 0.89 7 11:58 19.07.2020
5379 Clear 26 997 69 10000 0.45 7 11:39 19.07.2020
5380 Clear 26 997 71 10000 0.89 349 11:21 19.07.2020
5381 Clear 26 997 72 10000 0.45 345 10:42 19.07.2020
5382 Clouds 25 997 72 10000 1.34 342 10:22 19.07.2020
5383 Clouds 26 1013 69 10000 2.6 20 09:47 19.07.2020
5384 Clear 24 997 78 10000 2.3 8 09:22 19.07.2020
5385 Clear 24 997 83 10000 2.12 21 08:54 19.07.2020
5386 Clear 23 997 91 10000 1.82 29 08:28 19.07.2020
5387 Clear 22 997 94 10000 1.82 29 07:59 19.07.2020
5388 Clear 22 996 93 10000 1.25 50 07:28 19.07.2020
5389 Clear 22 996 93 10000 1.25 50 06:52 19.07.2020
5390 Clouds 23 1012 73 10000 2.6 360 06:22 19.07.2020
5391 Clouds 23 1012 73 10000 3.1 350 05:51 19.07.2020
5392 Clouds 23 1012 73 10000 1 0 05:21 19.07.2020
5393 Clear 22 996 90 10000 0.93 64 02:48 19.07.2020
5394 Clouds 23 1013 73 10000 1 110 02:27 19.07.2020
5395 Clouds 23 1013 78 10000 2.6 80 01:52 19.07.2020
5396 Clouds 23 1013 73 10000 3.1 50 01:18 19.07.2020
5397 Clouds 24 1013 73 10000 3.6 30 00:30 19.07.2020
5398 Clouds 24 1013 73 10000 3.6 30 23:59 18.07.2020
5399 Clouds 24 1013 73 10000 3.6 40 23:41 18.07.2020
5400 Clouds 24 1013 69 10000 3.1 60 23:22 18.07.2020
5401 Clouds 24 1013 73 10000 3.6 50 22:44 18.07.2020
5402 Clouds 24 1012 73 10000 3.1 30 22:20 18.07.2020
5403 Clouds 24 1012 73 10000 3.1 30 21:52 18.07.2020
5404 Clouds 25 996 78 10000 1.05 47 21:29 18.07.2020
5405 Clouds 25 1012 73 10000 4.1 20 20:59 18.07.2020
5406 Clouds 25 995 77 10000 1.05 47 20:41 18.07.2020
5407 Clouds 25 995 76 10000 1.8 20 20:21 18.07.2020
5408 Clouds 25 995 73 10000 0.89 7 19:49 18.07.2020
5409 Clouds 25 995 73 10000 0.89 7 19:30 18.07.2020
5410 Clouds 26 995 73 10000 0.89 7 18:48 18.07.2020
5411 Clouds 26 995 73 10000 0.89 7 18:23 18.07.2020
5412 Clouds 26 995 70 10000 0.89 21 17:58 18.07.2020
5413 Clouds 26 995 73 10000 0.89 353 17:39 18.07.2020
5414 Clouds 26 1012 69 10000 5.7 310 17:19 18.07.2020
5415 Clouds 26 1012 69 10000 5.7 310 16:42 18.07.2020
5416 Clouds 27 1012 65 10000 5.1 300 16:22 18.07.2020
5417 Clouds 27 1012 69 10000 5.1 310 15:58 18.07.2020
5418 Clouds 26 1012 69 10000 5.1 310 15:39 18.07.2020
5419 Clouds 27 1012 69 10000 5.7 310 15:20 18.07.2020
5420 Clouds 27 1012 69 10000 5.7 300 14:41 18.07.2020
5421 Clouds 27 1012 69 10000 5.1 310 14:22 18.07.2020
5422 Clouds 27 1012 69 10000 5.1 300 13:56 18.07.2020
5423 Clouds 27 1012 69 10000 5.1 300 13:36 18.07.2020
5424 Clouds 27 1012 69 10000 5.1 290 13:18 18.07.2020
5425 Clouds 28 1012 74 10000 5.1 290 12:42 18.07.2020
5426 Clouds 28 1012 74 10000 4.6 290 12:20 18.07.2020
5427 Clouds 27 1012 65 10000 3.6 290 11:59 18.07.2020
5428 Clouds 27 1012 65 10000 3.6 290 11:41 18.07.2020
5429 Clouds 27 1012 61 10000 1.5 290 11:19 18.07.2020
5430 Clouds 27 1012 65 10000 2.1 260 10:47 18.07.2020
5431 Clouds 27 1012 65 10000 2.1 260 10:28 18.07.2020
5432 Clouds 26 1012 65 10000 2.1 260 09:58 18.07.2020
5433 Clouds 26 1012 65 10000 2.6 240 09:40 18.07.2020
5434 Clouds 25 1012 65 10000 2.6 230 09:20 18.07.2020
5435 Clouds 24 1012 65 10000 3.1 210 08:46 18.07.2020
5436 Clouds 24 1012 69 10000 3.6 210 08:24 18.07.2020
5437 Clear 25 995 87 10000 0.84 269 07:44 18.07.2020
5438 Clear 24 995 89 10000 0.93 251 07:24 18.07.2020
5439 Clear 23 995 90 10000 0.93 251 06:52 18.07.2020
5440 Clouds 23 1011 69 10000 2.6 360 05:48 18.07.2020
5441 Clouds 24 1011 69 10000 3.6 350 04:29 18.07.2020
5442 Clear 22 995 87 10000 1 299 02:41 18.07.2020
5443 Clouds 24 1012 65 10000 1.5 80 01:27 18.07.2020
5444 Clouds 24 1012 65 10000 2.1 80 00:46 18.07.2020
5445 Clouds 24 1012 61 10000 3.1 50 00:27 18.07.2020
5446 Clouds 25 1012 61 10000 3.1 50 23:41 17.07.2020
5447 Clouds 24 1012 65 10000 3.6 50 23:21 17.07.2020
5448 Clouds 25 1012 65 10000 3.6 50 22:59 17.07.2020
5449 Clouds 25 1012 65 10000 3.6 50 22:39 17.07.2020
5450 Clouds 25 1012 69 10000 3.6 50 22:18 17.07.2020
5451 Clouds 26 1012 69 10000 3.6 30 21:42 17.07.2020
5452 Clear 25 995 79 10000 1.4 54 21:24 17.07.2020
5453 Clear 25 995 79 10000 1.4 54 20:59 17.07.2020
5454 Clear 26 995 77 10000 1.4 54 20:39 17.07.2020
5455 Clouds 26 995 75 10000 0.45 352 20:21 17.07.2020
5456 Clouds 26 994 75 10000 0.89 354 19:45 17.07.2020
5457 Clouds 26 994 75 10000 1.34 359 19:26 17.07.2020
5458 Clouds 26 994 73 10000 0.45 10 18:56 17.07.2020
5459 Clouds 27 994 69 10000 2.34 31 18:38 17.07.2020
5460 Clouds 27 994 65 10000 1.34 13 18:20 17.07.2020
5461 Clouds 27 994 66 10000 0.89 1 17:42 17.07.2020
5462 Clouds 27 994 70 10000 0.89 355 17:24 17.07.2020
5463 Clouds 27 994 67 10000 0.45 342 16:44 17.07.2020
5464 Clouds 27 1011 65 10000 4.1 360 16:21 17.07.2020
5465 Clouds 27 995 76 10000 3.03 17 15:44 17.07.2020
5466 Clouds 27 995 79 10000 0.89 6 15:22 17.07.2020
5467 Clouds 27 995 76 10000 0.45 8 14:57 17.07.2020
5468 Clouds 27 995 74 10000 0.45 353 14:37 17.07.2020
5469 Clouds 27 995 74 10000 0.89 349 14:19 17.07.2020
5470 Clouds 26 995 74 10000 0.45 356 13:41 17.07.2020
5471 Clouds 27 995 74 10000 1.79 8 13:20 17.07.2020
5472 Clouds 27 995 73 10000 1.34 20 12:57 17.07.2020
5473 Clouds 27 995 72 10000 1.34 11 12:38 17.07.2020
5474 Clear 27 995 71 10000 0.45 16 12:20 17.07.2020
5475 Clear 28 995 69 10000 0.89 6 11:45 17.07.2020
5476 Clear 28 995 66 10000 0.89 14 11:22 17.07.2020
5477 Clear 28 995 63 10000 1.34 14 10:59 17.07.2020
5478 Clear 28 995 66 10000 0.45 327 10:41 17.07.2020
5479 Clear 28 995 68 10000 0.21 329 10:22 17.07.2020
5480 Clear 27 995 66 10000 0.45 333 09:57 17.07.2020
5481 Clear 27 995 65 10000 0.21 329 09:38 17.07.2020
5482 Clouds 26 1012 65 10000 4.6 220 09:19 17.07.2020
5483 Clouds 26 1012 61 10000 3.1 210 08:46 17.07.2020
5484 Clouds 25 1012 61 10000 3.1 210 08:28 17.07.2020
5485 Clear 25 995 77 10000 0.35 233 07:52 17.07.2020
5486 Clear 24 995 79 10000 0.57 187 07:27 17.07.2020
5487 Clear 23 995 80 10000 0.57 187 06:56 17.07.2020
5488 Clear 22 1011 64 10000 2.1 150 06:22 17.07.2020
5489 Clear 22 1012 60 10000 2.1 150 05:30 17.07.2020
5490 Clear 23 1012 64 10000 1 170 02:58 17.07.2020
5491 Clear 23 1013 60 10000 1.5 160 01:49 17.07.2020
5492 Clear 24 1013 73 10000 3.1 40 00:52 17.07.2020
5493 Clear 24 1013 69 10000 2.6 50 00:24 17.07.2020
5494 Clear 24 1014 69 10000 3.1 60 23:56 16.07.2020
5495 Clear 24 1014 69 10000 3.1 60 23:37 16.07.2020
5496 Clear 24 1013 65 10000 3.6 50 23:18 16.07.2020
5497 Clear 25 1014 65 10000 3.6 40 22:45 16.07.2020
5498 Clear 25 1014 65 10000 4.1 50 22:23 16.07.2020
5499 Clear 25 1014 61 10000 4.1 50 21:56 16.07.2020
5500 Clear 25 1014 61 10000 4.1 50 21:38 16.07.2020
5501 Rain 25 1014 61 10000 4.1 50 21:19 16.07.2020
5502 Rain 26 1014 65 10000 4.1 40 20:58 16.07.2020
5503 Rain 26 1014 65 10000 4.1 40 20:39 16.07.2020
5504 Clear 27 997 73 10000 1.67 46 20:21 16.07.2020
5505 Clouds 27 1014 65 10000 4.1 30 19:48 16.07.2020
5506 Clouds 27 1014 65 10000 4.1 30 19:30 16.07.2020
5507 Clouds 28 1014 65 10000 4.1 20 18:57 16.07.2020
5508 Clouds 28 1014 65 10000 4.1 20 18:39 16.07.2020
5509 Clouds 28 1014 65 10000 4.1 20 18:20 16.07.2020
5510 Clouds 28 1014 65 10000 4.1 20 17:40 16.07.2020
5511 Clouds 28 1014 65 10000 4.1 20 17:19 16.07.2020
5512 Clouds 28 1014 65 10000 4.1 10 16:58 16.07.2020
5513 Clouds 28 1014 65 10000 4.1 10 16:39 16.07.2020
5514 Clouds 28 1014 65 10000 4.1 10 16:21 16.07.2020
5515 Clouds 28 1014 69 10000 4.1 360 15:47 16.07.2020
5516 Clouds 28 1014 69 10000 4.1 360 15:27 16.07.2020
5517 Clouds 28 1015 65 10000 4.1 360 14:59 16.07.2020
5518 Clouds 28 1015 69 10000 4.1 350 14:38 16.07.2020
5519 Clear 28 1015 69 10000 3.6 350 14:20 16.07.2020
5520 Clear 29 1015 61 10000 3.6 350 13:58 16.07.2020
5521 Clear 29 998 64 10000 3.03 12 13:37 16.07.2020
5522 Clear 28 1015 69 10000 3.6 340 13:19 16.07.2020
5523 Clear 29 999 65 0 2.86 4 12:42 16.07.2020
5524 Clouds 28 1016 69 10000 3.1 320 12:21 16.07.2020
5525 Clouds 28 1016 69 10000 2.6 330 11:57 16.07.2020
5526 Clouds 28 1016 69 10000 2.6 330 11:36 16.07.2020
5527 Clouds 28 1015 65 10000 2.1 310 11:18 16.07.2020
5528 Clouds 28 1015 65 10000 2.1 310 11:18 16.07.2020
5529 Clear 27 1015 69 10000 2.1 300 10:42 16.07.2020
5530 Clear 27 1015 69 10000 2.1 260 10:21 16.07.2020
5531 Clear 27 1015 69 10000 2.1 260 09:59 16.07.2020
5532 Clear 27 1015 69 10000 2.1 250 09:59 16.07.2020
5533 Clear 26 1015 69 10000 2.1 250 09:41 16.07.2020
5534 Clear 24 1015 65 10000 2.1 220 09:22 16.07.2020
5535 Clear 23 1015 73 10000 2.1 230 08:42 16.07.2020
5536 Clear 24 1015 69 10000 1.5 170 08:24 16.07.2020
5537 Clear 23 999 99 0 0.62 245 07:48 16.07.2020
5538 Clear 23 999 99 0 0.62 245 07:48 16.07.2020
5539 Clear 23 998 99 0 1.17 232 07:26 16.07.2020
5540 Clear 22 998 99 0 1.17 232 06:57 16.07.2020
5541 Clear 22 998 99 0 1.17 232 06:38 16.07.2020
5542 Clear 21 998 99 0 1.36 245 06:18 16.07.2020
5543 Clear 21 998 99 0 1.36 245 06:18 16.07.2020
5544 Clear 21 998 99 0 1.36 245 05:34 16.07.2020
5545 Clear 22 1014 83 10000 2.1 170 04:26 16.07.2020
5546 Clear 22 1015 83 10000 2.6 160 03:40 16.07.2020
5547 Clear 22 1015 78 10000 2.1 150 03:22 16.07.2020
5548 Clear 22 1015 83 10000 1.5 170 02:30 16.07.2020
5549 Clear 21 1015 78 10000 2.6 160 01:52 16.07.2020
5550 Clear 21 1015 78 10000 2.1 170 01:21 16.07.2020
5551 Clear 22 1015 78 10000 2.1 160 00:39 16.07.2020
5552 Clear 21 1015 78 10000 1.5 200 23:58 15.07.2020
5553 Clear 22 1015 78 10000 1.5 200 23:40 15.07.2020
5554 Clear 22 1015 78 10000 1.5 200 23:40 15.07.2020
5555 Clear 22 999 99 0 0.93 280 23:22 15.07.2020
5556 Clear 21 999 99 0 0.93 280 22:58 15.07.2020
5557 Clear 22 999 99 0 0.93 280 22:38 15.07.2020
5558 Clear 22 999 99 0 0.44 254 22:19 15.07.2020
5559 Clear 22 999 99 0 0.44 254 21:55 15.07.2020
5560 Clear 22 999 99 0 0.44 254 21:37 15.07.2020
5561 Clear 22 998 99 0 0.61 293 21:19 15.07.2020
5562 Clear 23 1014 73 10000 0.5 0 20:57 15.07.2020
5563 Clouds 23 1014 74 10000 1.5 310 20:37 15.07.2020
5564 Clouds 23 1014 78 10000 2.1 290 20:18 15.07.2020
5565 Clouds 23 1014 78 10000 3.6 290 19:55 15.07.2020
5566 Rain 22 1014 78 10000 3.6 290 19:37 15.07.2020
5567 Rain 22 1015 78 10000 4.6 290 19:19 15.07.2020
5568 Rain 22 1015 74 10000 6.2 280 18:44 15.07.2020
5569 Rain 25 1015 78 10000 8.2 300 18:25 15.07.2020
5570 Clouds 25 1014 78 10000 7.2 300 17:58 15.07.2020
5571 Clouds 25 1014 78 10000 7.2 300 17:39 15.07.2020
5572 Rain 23 999 99 0 4.39 315 17:20 15.07.2020
5573 Rain 24 998 99 0 4.39 315 16:57 15.07.2020
5574 Rain 25 998 92 0 0.89 329 16:38 15.07.2020
5575 Rain 27 998 84 0 4.71 311 16:20 15.07.2020
5576 Rain 28 997 71 0 0.89 338 15:42 15.07.2020
5577 Clouds 28 1015 65 10000 4.1 340 15:23 15.07.2020
5578 Clouds 27 1015 65 10000 4.1 340 14:58 15.07.2020
5579 Clouds 27 1015 65 10000 4.1 340 14:58 15.07.2020
5580 Rain 29 1014 65 10000 3.1 360 14:39 15.07.2020
5581 Rain 29 1014 65 10000 3.6 360 14:39 15.07.2020
5582 Rain 29 1014 65 10000 3.1 360 14:19 15.07.2020
5583 Rain 28 998 64 0 0.45 358 13:43 15.07.2020
5584 Rain 28 998 64 0 0.45 358 13:43 15.07.2020
5585 Clouds 28 998 64 0 2.41 310 13:25 15.07.2020
5586 Clouds 28 998 64 0 2.41 310 12:58 15.07.2020
5587 Clouds 28 998 65 0 0.45 355 12:39 15.07.2020
5588 Clouds 28 998 65 0 0.89 344 12:20 15.07.2020
5589 Clouds 29 998 64 0 1.34 354 11:54 15.07.2020
5590 Clouds 28 998 63 0 1.34 2 11:36 15.07.2020
5591 Clouds 29 998 65 0 0.89 349 11:18 15.07.2020
5592 Clouds 29 998 66 0 1.34 353 10:41 15.07.2020
5593 Clouds 28 998 65 0 0.45 344 10:23 15.07.2020
5594 Clouds 28 998 67 0 0.37 95 09:55 15.07.2020
5595 Clear 28 998 66 0 0.53 117 09:36 15.07.2020
5596 Clear 26 1014 74 10000 3.6 250 09:18 15.07.2020
5597 Clear 26 1014 69 10000 3.1 230 08:42 15.07.2020
5598 Clear 24 1014 69 10000 2.1 200 08:24 15.07.2020
5599 Clear 25 1014 73 10000 1.5 170 07:45 15.07.2020
5600 Clear 25 998 86 0 0.85 131 07:25 15.07.2020
5601 Clear 24 997 87 0 0.85 131 06:42 15.07.2020
5602 Clear 23 1013 78 10000 2.1 150 05:55 15.07.2020
5603 Clear 23 1013 78 10000 2.1 150 05:27 15.07.2020
5604 Clear 24 1013 73 10000 1.5 140 04:29 15.07.2020
5605 Clear 24 1013 78 10000 2.1 160 03:37 15.07.2020
5606 Clear 25 1013 73 10000 1.5 130 01:53 15.07.2020
5607 Clear 25 1013 73 10000 1 100 01:28 15.07.2020
5608 Clear 25 1013 74 10000 1 80 00:52 15.07.2020
5609 Clear 25 1013 73 10000 2.1 50 00:28 15.07.2020
5610 Clear 25 1013 74 10000 2.6 70 23:47 14.07.2020
5611 Clear 25 1013 74 10000 3.1 70 23:28 14.07.2020
5612 Clear 25 1013 74 10000 2.6 70 23:28 14.07.2020
5613 Clear 25 1013 74 10000 3.1 60 22:55 14.07.2020
5614 Clear 26 1013 74 10000 3.1 60 22:37 14.07.2020
5615 Clear 26 1013 74 10000 2.6 50 22:18 14.07.2020
5616 Clear 26 1013 74 10000 2.6 50 21:54 14.07.2020
5617 Clear 26 1013 74 10000 2.6 50 21:36 14.07.2020
5618 Clear 26 1012 69 10000 3.1 30 21:18 14.07.2020
5619 Clear 27 1012 69 10000 2.6 20 20:41 14.07.2020
5620 Clear 27 996 77 0 0.89 14 20:20 14.07.2020
5621 Clear 27 996 72 0 1.34 14 19:55 14.07.2020
5622 Clear 27 995 71 0 1.34 355 19:37 14.07.2020
5623 Clear 27 996 70 0 1.79 357 19:18 14.07.2020
5624 Clear 28 995 68 0 1.34 344 18:41 14.07.2020
5625 Clear 28 1012 74 10000 2.6 330 18:19 14.07.2020
5626 Clear 28 1012 65 10000 2.6 310 17:56 14.07.2020
5627 Clear 28 1012 65 10000 2.6 310 17:56 14.07.2020
5628 Clear 28 1012 65 10000 2.6 310 17:37 14.07.2020
5629 Clear 28 1012 69 10000 3.6 310 17:19 14.07.2020
5630 Clear 28 1012 65 10000 2.1 300 16:44 14.07.2020
5631 Clear 29 1012 65 10000 3.1 310 16:26 14.07.2020
5632 Clouds 29 1012 65 10000 2.6 330 15:59 14.07.2020
5633 Clouds 29 1012 65 10000 2.6 330 15:39 14.07.2020
5634 Clear 30 995 58 0 1.79 350 15:21 14.07.2020
5635 Clear 29 995 61 0 1.79 15 14:46 14.07.2020
5636 Rain 29 995 60 0 1.34 358 14:28 14.07.2020
5637 Rain 29 996 59 0 1.34 352 13:56 14.07.2020
5638 Rain 29 995 60 0 1.34 12 13:37 14.07.2020
5639 Rain 29 995 60 0 1.34 12 13:37 14.07.2020
5640 Rain 29 995 60 0 1.34 12 13:37 14.07.2020
5641 Clear 29 995 58 0 2.24 1 13:19 14.07.2020
5642 Clear 29 996 60 0 2.24 347 12:40 14.07.2020
5643 Clear 29 996 59 0 2.68 7 12:21 14.07.2020
5644 Clear 29 996 60 0 2.24 4 11:58 14.07.2020
5645 Clear 29 996 60 0 1.34 1 11:38 14.07.2020
5646 Clear 28 996 62 0 1.34 322 11:18 14.07.2020
5647 Clear 28 996 65 0 0.89 1 10:42 14.07.2020
5648 Clear 28 996 67 0 0.89 14 10:24 14.07.2020
5649 Clear 28 996 68 0 1.34 5 09:42 14.07.2020
5650 Clouds 27 1012 78 10000 2.1 250 09:23 14.07.2020
5651 Clouds 27 1012 78 10000 2.1 250 08:58 14.07.2020
5652 Clouds 27 1012 74 10000 1 0 08:40 14.07.2020
5653 Clouds 27 1012 74 10000 1.5 230 08:22 14.07.2020
5654 Clear 26 996 75 0 1.69 306 07:50 14.07.2020
5655 Clear 25 996 76 0 1.45 289 07:20 14.07.2020
5656 Clear 25 995 77 0 1.45 289 06:59 14.07.2020
5657 Clouds 24 1012 83 10000 2.1 220 06:27 14.07.2020
5658 Clouds 24 1012 78 10000 2.1 210 05:55 14.07.2020
5659 Clouds 24 1011 78 10000 1.5 180 04:54 14.07.2020
5660 Clouds 24 1011 78 10000 1.5 180 04:34 14.07.2020
5661 Clear 25 1012 78 10000 1.5 80 03:33 14.07.2020
5662 Clear 25 1012 78 10000 1 60 02:30 14.07.2020
5663 Clear 25 1012 78 10000 2.6 70 01:45 14.07.2020
5664 Clear 25 1012 83 10000 3.1 70 01:24 14.07.2020
5665 Clear 25 1012 78 10000 3.6 70 00:43 14.07.2020
5666 Clear 25 1012 78 10000 3.6 60 00:25 14.07.2020
5667 Clear 26 1012 78 10000 3.6 70 23:39 13.07.2020
5668 Clear 26 1012 78 10000 4.1 50 23:20 13.07.2020
5669 Clear 26 1012 78 10000 4.1 50 22:58 13.07.2020
5670 Clear 26 1013 83 10000 4.1 40 22:39 13.07.2020
5671 Clear 26 1012 83 10000 5.1 40 22:19 13.07.2020
5672 Clear 27 1012 83 10000 5.7 50 21:55 13.07.2020
5673 Clear 27 1012 83 10000 5.7 50 21:37 13.07.2020
5674 Clear 27 1011 83 10000 6.7 50 21:19 13.07.2020
5675 Clear 27 1011 78 10000 7.7 50 20:55 13.07.2020
5676 Clear 27 1011 78 10000 7.7 50 20:37 13.07.2020
5677 Clouds 28 995 75 0 2.6 68 20:18 13.07.2020
5678 Clouds 28 995 72 0 2.6 68 19:42 13.07.2020
5679 Clouds 29 995 70 0 2.65 38 19:24 13.07.2020
5680 Clouds 29 1011 69 10000 7.7 40 18:57 13.07.2020
5681 Clouds 28 1011 69 10000 7.7 40 18:38 13.07.2020
5682 Clouds 29 1011 74 10000 7.7 40 18:20 13.07.2020
5683 Clouds 29 1012 74 10000 8.2 40 17:56 13.07.2020
5684 Clouds 29 1012 74 10000 8.2 40 17:37 13.07.2020
5685 Clouds 29 1012 69 10000 7.7 40 17:18 13.07.2020
5686 Clouds 29 1012 74 10000 6.7 40 16:43 13.07.2020
5687 Clouds 29 1012 69 10000 7.2 40 16:21 13.07.2020
5688 Clouds 29 1012 74 10000 8.2 40 15:59 13.07.2020
5689 Clouds 29 1012 74 10000 8.2 40 15:40 13.07.2020
5690 Clouds 29 1012 74 10000 8.7 40 15:21 13.07.2020
5691 Clouds 29 1013 69 10000 8.7 40 14:59 13.07.2020
5692 Clouds 29 1013 69 10000 8.7 40 14:59 13.07.2020
5693 Clouds 31 997 49 0 2.99 47 14:39 13.07.2020
5694 Clouds 30 997 55 0 0.45 317 14:21 13.07.2020
5695 Clouds 30 997 57 0 3.11 43 13:56 13.07.2020
5696 Clouds 30 997 55 0 3.1 22 13:38 13.07.2020
5697 Clouds 30 997 55 0 3.1 22 13:20 13.07.2020
5698 Clouds 30 997 54 0 3.1 22 12:43 13.07.2020
5699 Clouds 30 997 55 0 2.33 21 12:23 13.07.2020
5700 Clouds 30 997 55 0 2.33 21 11:58 13.07.2020
5701 Clouds 30 997 50 0 2.33 21 11:39 13.07.2020
5702 Clouds 30 997 52 0 1.58 35 11:20 13.07.2020
5703 Clouds 29 997 60 0 1.58 35 10:40 13.07.2020
5704 Clear 29 997 62 0 1.24 59 10:20 13.07.2020
5705 Clear 28 998 63 0 1.24 59 09:43 13.07.2020
5706 Clear 27 1014 73 10000 2.1 260 09:25 13.07.2020
5707 Clear 27 1014 69 10000 1.5 240 08:54 13.07.2020
5708 Clear 27 998 67 0 1.93 90 08:35 13.07.2020
5709 Clear 26 998 61 0 2.16 104 07:46 13.07.2020
5710 Clear 25 998 67 0 1.8 123 07:20 13.07.2020
5711 Clear 24 998 63 0 1.8 123 06:44 13.07.2020
5712 Clear 23 1014 69 10000 0.5 0 06:24 13.07.2020
5713 Clear 23 1014 78 10000 2.6 220 04:55 13.07.2020
5714 Clear 24 1015 83 10000 1.5 330 01:57 13.07.2020
5715 Clear 24 1015 73 10000 0.5 0 01:37 13.07.2020
5716 Clear 25 1015 73 10000 2.1 230 01:19 13.07.2020
5717 Clear 25 1016 69 10000 1.5 140 00:37 13.07.2020
5718 Clear 25 1016 61 10000 3.6 70 00:18 13.07.2020
5719 Clear 25 1015 65 10000 5.7 40 23:41 12.07.2020
5720 Clear 26 1015 57 10000 5.7 50 23:22 12.07.2020
5721 Clear 26 1015 65 10000 6.2 50 22:56 12.07.2020
5722 Clear 26 1015 65 10000 6.2 50 22:36 12.07.2020
5723 Clear 26 1015 65 10000 6.2 50 22:36 12.07.2020
5724 Clear 26 1015 65 10000 6.7 60 22:18 12.07.2020
5725 Clear 27 1015 69 10000 6.7 50 21:42 12.07.2020
5726 Clear 27 1015 65 10000 6.7 50 21:20 12.07.2020
5727 Clear 27 1015 69 10000 6.7 50 20:59 12.07.2020
5728 Clear 27 1015 69 10000 6.7 50 20:41 12.07.2020
5729 Clear 28 999 61 0 2.88 71 20:20 12.07.2020
5730 Clear 28 999 59 0 2.88 71 19:59 12.07.2020
5731 Clear 29 999 57 0 2.88 71 19:39 12.07.2020
5732 Clear 29 999 55 0 3.12 58 19:20 12.07.2020
5733 Clear 30 999 52 0 3.12 58 18:54 12.07.2020
5734 Clear 30 1014 58 10000 8.2 50 18:36 12.07.2020
5735 Clear 30 1014 58 10000 7.7 50 18:18 12.07.2020
5736 Clear 30 1015 62 10000 7.7 50 17:38 12.07.2020
5737 Clear 30 1015 58 10000 7.7 50 17:20 12.07.2020
5738 Clear 30 1015 58 10000 7.7 50 16:48 12.07.2020
5739 Clear 30 1015 65 10000 7.2 40 16:22 12.07.2020
5740 Clear 30 1015 65 10000 7.2 40 15:51 12.07.2020
5741 Clear 30 1016 65 10000 7.2 40 15:31 12.07.2020
5742 Clear 31 1016 65 10000 7.2 40 14:58 12.07.2020
5743 Clear 31 1016 69 10000 7.2 40 14:40 12.07.2020
5744 Clear 31 1016 65 10000 7.7 40 14:22 12.07.2020
5745 Clear 30 1016 65 10000 7.7 40 13:40 12.07.2020
5746 Clear 30 1016 65 10000 7.7 40 13:21 12.07.2020
5747 Clear 30 1016 65 10000 7.2 40 12:57 12.07.2020
5748 Clear 30 1016 65 10000 7.2 40 12:38 12.07.2020
5749 Clear 30 1016 65 10000 7.2 40 12:38 12.07.2020
5750 Clear 30 1016 65 10000 6.7 40 12:18 12.07.2020
5751 Clear 30 1016 61 10000 7.2 40 11:45 12.07.2020
5752 Clear 30 1015 61 10000 7.2 40 11:21 12.07.2020
5753 Clear 29 1016 69 10000 2.6 350 10:57 12.07.2020
5754 Clear 29 1016 69 10000 2.6 350 10:39 12.07.2020
5755 Clear 29 1016 74 10000 2.6 250 10:19 12.07.2020
5756 Clear 28 1016 74 10000 3.6 240 09:43 12.07.2020
5757 Clear 26 1016 73 10000 3.6 240 09:21 12.07.2020
5758 Clear 26 1015 69 10000 2.1 0 08:55 12.07.2020
5759 Clear 25 1015 69 10000 2.1 0 08:37 12.07.2020
5760 Clear 26 1015 65 10000 0.5 0 08:18 12.07.2020
5761 Clear 25 1015 69 10000 2.1 170 07:45 12.07.2020
5762 Clear 25 1015 69 10000 0.5 0 07:27 12.07.2020
5763 Clear 24 1015 73 10000 1.5 140 06:53 12.07.2020
5764 Clear 23 1015 73 10000 1.5 170 06:22 12.07.2020
5765 Clear 23 1014 68 10000 1.5 190 05:57 12.07.2020
5766 Clear 23 1014 73 10000 0.5 0 04:57 12.07.2020
5767 Clear 24 1014 73 10000 0.5 0 04:28 12.07.2020
5768 Clear 24 1014 78 10000 0.5 0 03:45 12.07.2020
5769 Clear 24 1014 69 10000 1 0 03:24 12.07.2020
5770 Clear 25 1015 78 10000 3.1 70 01:54 12.07.2020
5771 Clear 24 1015 73 10000 2.1 70 01:18 12.07.2020
5772 Clear 25 1015 69 10000 2.1 80 00:39 12.07.2020
5773 Clear 25 1015 69 10000 1.5 90 00:20 12.07.2020
5774 Clear 25 1015 74 10000 3.1 90 23:40 11.07.2020
5775 Clear 25 1015 74 10000 5.7 50 23:21 11.07.2020
5776 Clear 26 1015 74 10000 5.7 50 22:57 11.07.2020
5777 Clear 26 1015 69 10000 5.7 50 22:38 11.07.2020
5778 Clear 26 1015 74 10000 6.7 50 22:20 11.07.2020
5779 Clear 27 1014 74 10000 6.7 40 21:44 11.07.2020
5780 Clear 27 1014 74 10000 6.7 40 21:25 11.07.2020
5781 Clear 27 1014 69 10000 6.7 50 20:59 11.07.2020
5782 Clear 27 1014 69 10000 6.7 50 20:41 11.07.2020
5783 Clear 27 998 71 0 1.91 50 20:21 11.07.2020
5784 Clear 28 1014 65 10000 6.7 60 19:59 11.07.2020
5785 Clear 28 998 66 0 1.91 50 19:41 11.07.2020
5786 Clear 29 1014 65 10000 7.2 50 19:23 11.07.2020
5787 Clear 29 999 63 0 2.09 29 18:57 11.07.2020
5788 Clear 27 1014 61 10000 7.2 40 18:39 11.07.2020
5789 Clear 28 1014 65 10000 6.7 40 18:20 11.07.2020
5790 Clear 28 1015 65 10000 6.7 30 17:56 11.07.2020
5791 Clear 28 1015 65 10000 6.7 30 17:38 11.07.2020
5792 Clear 28 1015 65 10000 6.2 40 17:19 11.07.2020
5793 Clear 28 1015 65 10000 6.2 30 16:43 11.07.2020
5794 Clear 28 1015 69 10000 6.7 30 16:24 11.07.2020
5795 Clear 29 1015 65 10000 6.2 30 15:58 11.07.2020
5796 Clear 29 1015 65 10000 6.2 30 15:40 11.07.2020
5797 Clouds 29 1015 61 10000 6.7 40 15:20 11.07.2020
5798 Clouds 30 1015 61 10000 5.7 30 14:57 11.07.2020
5799 Clouds 30 1015 61 10000 5.7 30 14:37 11.07.2020
5800 Clear 30 999 56 0 0.45 2 14:19 11.07.2020
5801 Clouds 29 1016 74 10000 4.1 10 13:42 11.07.2020
5802 Clouds 29 1016 74 10000 4.6 20 13:22 11.07.2020
5803 Clouds 29 1016 78 10000 4.1 20 12:57 11.07.2020
5804 Clouds 29 1016 78 10000 4.1 20 12:39 11.07.2020
5805 Clouds 29 1016 74 10000 3.6 10 12:20 11.07.2020
5806 Clouds 29 1016 74 10000 3.1 350 11:42 11.07.2020
5807 Clear 29 999 73 0 1.72 2 11:21 11.07.2020
5808 Clear 29 999 74 0 1.72 2 10:57 11.07.2020
5809 Clear 28 1016 78 10000 2.1 310 10:39 11.07.2020
5810 Clear 28 1016 74 10000 2.6 250 10:21 11.07.2020
5811 Clouds 27 1016 73 10000 2.6 250 09:43 11.07.2020
5812 Clear 27 999 77 0 1.07 355 09:20 11.07.2020
5813 Clear 26 999 80 0 1.07 355 08:49 11.07.2020
5814 Clear 26 1015 73 10000 1.5 260 08:31 11.07.2020
5815 Clear 25 1015 73 10000 1.5 260 07:59 11.07.2020
5816 Clear 26 999 78 0 0.89 312 07:40 11.07.2020
5817 Clear 24 999 77 0 0.62 267 07:19 11.07.2020
5818 Clear 24 999 76 0 0.62 267 06:46 11.07.2020
5819 Clear 23 1015 78 10000 1.5 160 06:18 11.07.2020
5820 Clouds 23 1014 78 10000 1.5 140 05:20 11.07.2020
5821 Clear 24 1015 78 10000 0.5 0 04:54 11.07.2020
5822 Clear 24 1015 78 10000 0.5 0 04:31 11.07.2020
5823 Clear 24 1015 73 10000 1 170 02:58 11.07.2020
5824 Clear 24 1015 73 10000 1 170 02:36 11.07.2020
5825 Clear 25 1015 69 10000 1 190 01:27 11.07.2020
5826 Clear 25 1015 69 10000 0.5 200 00:59 11.07.2020
5827 Clear 25 1015 69 10000 0.5 200 00:38 11.07.2020
5828 Clear 25 1015 74 10000 1 0 00:19 11.07.2020
5829 Clear 25 1015 74 10000 2.1 90 23:56 10.07.2020
5830 Clear 25 1015 74 10000 2.1 90 23:38 10.07.2020
5831 Clear 25 1015 74 10000 3.1 70 23:18 10.07.2020
5832 Clear 26 1015 74 10000 4.6 60 22:42 10.07.2020
5833 Clear 26 1015 74 10000 5.1 50 22:19 10.07.2020
5834 Clear 26 1014 74 10000 6.7 60 21:41 10.07.2020
5835 Clear 26 1014 69 10000 6.7 50 21:21 10.07.2020
5836 Clouds 27 1014 69 10000 5.7 60 20:59 10.07.2020
5837 Clouds 27 1014 69 10000 5.7 60 20:41 10.07.2020
5838 Clouds 27 998 76 0 2.36 65 20:21 10.07.2020
5839 Clouds 27 998 73 0 2.36 65 19:57 10.07.2020
5840 Clouds 27 1014 74 10000 5.7 40 19:39 10.07.2020
5841 Clouds 28 998 69 0 2.7 49 19:20 10.07.2020
5842 Clouds 26 1014 69 10000 5.1 40 18:41 10.07.2020
5843 Clouds 28 1014 74 10000 5.7 40 18:20 10.07.2020
5844 Clouds 28 1015 74 10000 5.7 30 17:58 10.07.2020
5845 Clouds 29 1015 74 10000 5.7 30 17:39 10.07.2020
5846 Clouds 29 1015 69 10000 5.1 30 17:20 10.07.2020
5847 Clouds 29 1015 69 10000 5.1 30 16:43 10.07.2020
5848 Clouds 29 1015 69 10000 5.1 30 16:21 10.07.2020
5849 Clouds 29 1015 74 10000 5.7 20 15:48 10.07.2020
5850 Clouds 29 1015 74 10000 5.7 20 15:26 10.07.2020
5851 Clouds 28 1015 74 10000 5.7 30 14:59 10.07.2020
5852 Clouds 29 1015 74 10000 5.7 30 14:40 10.07.2020
5853 Clouds 30 1015 74 10000 6.7 40 14:20 10.07.2020
5854 Clouds 30 1015 74 10000 6.7 40 14:20 10.07.2020
5855 Clouds 30 1015 74 10000 6.7 30 13:57 10.07.2020
5856 Clouds 30 1015 74 10000 6.7 30 13:38 10.07.2020
5857 Clouds 30 1015 78 10000 6.7 40 13:20 10.07.2020
5858 Clouds 29 1015 78 10000 6.2 30 12:56 10.07.2020
5859 Clouds 29 1015 78 10000 6.2 30 12:37 10.07.2020
5860 Clouds 29 1015 78 10000 6.2 40 12:19 10.07.2020
5861 Clouds 29 1015 78 10000 5.1 40 11:39 10.07.2020
5862 Clouds 29 1015 78 10000 5.1 40 11:20 10.07.2020
5863 Clouds 28 1015 78 10000 4.6 30 10:56 10.07.2020
5864 Clear 28 1015 78 10000 4.6 40 10:38 10.07.2020
5865 Clear 28 1015 78 10000 4.6 40 10:18 10.07.2020
5866 Clear 27 1015 83 10000 4.6 40 09:40 10.07.2020
5867 Clear 26 1015 74 10000 1.5 0 09:22 10.07.2020
5868 Clear 27 1015 78 10000 4.1 60 08:58 10.07.2020
5869 Clear 26 1015 78 10000 4.1 60 08:40 10.07.2020
5870 Clear 26 1015 78 10000 4.6 60 08:22 10.07.2020
5871 Clear 26 1015 78 10000 3.6 70 07:44 10.07.2020
5872 Clouds 25 1015 83 10000 3.1 70 07:23 10.07.2020
5873 Clouds 25 1015 78 10000 3.6 70 06:54 10.07.2020
5874 Clouds 25 1015 78 10000 3.6 70 06:54 10.07.2020
5875 Clouds 25 1015 78 10000 3.6 70 06:35 10.07.2020
5876 Clear 23 1015 83 10000 2.6 80 05:27 10.07.2020
5877 Clear 24 1015 78 10000 1.5 90 03:44 10.07.2020
5878 Clear 24 1015 78 10000 3.1 80 02:53 10.07.2020
5879 Clear 25 1015 74 10000 3.6 50 01:57 10.07.2020
5880 Clear 25 1016 74 10000 4.6 50 00:54 10.07.2020
5881 Clear 25 1016 78 10000 4.6 60 00:22 10.07.2020
5882 Clear 25 1014 78 10000 3.6 70 23:56 09.07.2020
5883 Clear 25 1014 78 10000 3.6 70 23:37 09.07.2020
5884 Clear 25 1016 78 10000 4.6 60 23:19 09.07.2020
5885 Clouds 26 1015 83 10000 5.7 50 22:56 09.07.2020
5886 Clouds 26 1015 83 10000 5.7 50 22:38 09.07.2020
5887 Clouds 26 1015 78 10000 6.2 50 22:19 09.07.2020
5888 Clouds 26 1015 78 10000 6.7 50 21:54 09.07.2020
5889 Clouds 26 1015 78 10000 6.7 50 21:36 09.07.2020
5890 Clouds 26 1015 78 10000 6.7 50 21:18 09.07.2020
5891 Clouds 27 1015 78 10000 6.7 50 20:41 09.07.2020
5892 Clouds 27 1015 74 10000 6.7 50 20:22 09.07.2020
5893 Clouds 27 1015 78 10000 6.7 40 19:43 09.07.2020
5894 Clouds 28 999 72 0 3.09 45 19:22 09.07.2020
5895 Clouds 28 999 71 0 3.09 45 18:58 09.07.2020
5896 Clouds 28 999 70 0 3.09 45 18:40 09.07.2020
5897 Clouds 28 999 67 0 3.31 33 18:19 09.07.2020
5898 Clouds 28 999 64 0 3.31 33 17:43 09.07.2020
5899 Clouds 28 999 66 0 3.29 29 17:23 09.07.2020
5900 Clouds 29 999 64 0 3.29 29 16:58 09.07.2020
5901 Clouds 29 999 63 0 3.29 29 16:38 09.07.2020
5902 Clouds 28 1016 78 10000 7.7 30 16:19 09.07.2020
5903 Clouds 28 1016 78 10000 7.2 30 15:59 09.07.2020
5904 Clouds 29 1016 78 10000 7.2 30 15:38 09.07.2020
5905 Clouds 28 1016 78 10000 7.2 30 15:20 09.07.2020
5906 Clouds 28 1016 78 10000 6.7 20 14:58 09.07.2020
5907 Clouds 28 1016 78 10000 6.7 20 14:40 09.07.2020
5908 Clouds 28 1016 83 10000 5.7 20 14:20 09.07.2020
5909 Clouds 28 1016 83 10000 5.1 20 13:56 09.07.2020
5910 Clouds 28 1016 83 10000 5.1 20 13:56 09.07.2020
5911 Clouds 28 1016 83 10000 5.1 20 13:38 09.07.2020
5912 Clouds 28 1016 78 10000 4.6 10 13:19 09.07.2020
5913 Clouds 27 1017 78 10000 4.1 360 12:42 09.07.2020
5914 Clouds 28 1017 74 10000 3.6 340 12:23 09.07.2020
5915 Clear 28 1000 63 0 2.42 7 11:58 09.07.2020
5916 Clear 28 1000 65 0 2.42 7 11:40 09.07.2020
5917 Clear 27 1000 71 0 1.73 360 11:19 09.07.2020
5918 Clear 27 1000 73 0 1.34 344 10:56 09.07.2020
5919 Clear 27 1000 75 0 1.34 344 10:38 09.07.2020
5920 Clear 26 1000 77 0 1.45 345 10:20 09.07.2020
5921 Clear 26 1000 79 0 0.89 352 09:43 09.07.2020
5922 Clouds 25 1017 78 10000 1.5 250 09:23 09.07.2020
5923 Clouds 25 1017 78 10000 2.6 220 08:52 09.07.2020
5924 Clear 26 1000 88 0 1.34 350 08:27 09.07.2020
5925 Clear 25 1000 92 0 1.55 297 07:58 09.07.2020
5926 Clear 25 1000 91 0 1.55 297 07:40 09.07.2020
5927 Clear 25 1000 88 0 0.45 352 07:21 09.07.2020
5928 Clear 25 1000 88 0 0.45 352 07:21 09.07.2020
5929 Clouds 24 1016 78 10000 3.1 230 06:21 09.07.2020
5930 Clouds 24 1016 83 10000 3.6 240 05:57 09.07.2020
5931 Clouds 24 1016 83 10000 4.1 300 04:29 09.07.2020
5932 Clear 24 1016 88 10000 3.6 300 03:24 09.07.2020
5933 Clear 24 1016 88 10000 3.1 310 01:58 09.07.2020
5934 Clear 24 1016 88 10000 3.1 310 01:21 09.07.2020
5935 Clouds 24 1016 88 10000 3.1 310 00:41 09.07.2020
5936 Clear 24 1016 88 10000 3.1 300 00:23 09.07.2020
5937 Clear 25 1016 83 10000 2.6 280 23:44 08.07.2020
5938 Clear 25 1015 83 10000 1.5 300 23:25 08.07.2020
5939 Clear 25 1015 83 10000 1.5 10 22:57 08.07.2020
5940 Clear 25 1015 83 10000 1.5 10 22:38 08.07.2020
5941 Clear 25 1015 83 10000 1.5 10 22:38 08.07.2020
5942 Clear 25 1015 83 10000 2.6 30 22:20 08.07.2020
5943 Clouds 25 1015 78 10000 3.1 40 21:57 08.07.2020
5944 Clouds 25 1015 78 10000 3.1 40 21:38 08.07.2020
5945 Clear 26 999 76 0 0.45 353 21:20 08.07.2020
5946 Clear 26 998 75 0 1.13 85 20:43 08.07.2020
5947 Clear 27 998 73 0 0.89 3 20:25 08.07.2020
5948 Clouds 26 1015 83 10000 4.1 30 19:58 08.07.2020
5949 Clouds 26 1014 78 10000 4.1 30 19:39 08.07.2020
5950 Clouds 27 1014 78 10000 4.6 30 19:21 08.07.2020
5951 Clouds 27 1014 78 10000 4.1 30 18:55 08.07.2020
5952 Clouds 27 1014 78 10000 4.1 30 18:55 08.07.2020
5953 Clouds 27 1014 78 10000 4.1 30 18:36 08.07.2020
5954 Clouds 28 1014 78 10000 4.1 30 18:18 08.07.2020
5955 Clouds 28 1014 78 10000 4.1 30 18:18 08.07.2020
5956 Clouds 28 1015 78 10000 4.6 30 17:54 08.07.2020
5957 Clouds 28 1015 78 10000 4.6 30 17:36 08.07.2020
5958 Clouds 28 1015 78 10000 4.6 30 17:18 08.07.2020
5959 Clouds 28 1015 74 10000 4.6 30 16:38 08.07.2020
5960 Clouds 28 1015 74 10000 5.1 30 16:20 08.07.2020
5961 Clouds 28 1014 69 10000 5.7 30 15:58 08.07.2020
5962 Clouds 28 1014 69 10000 5.7 30 15:39 08.07.2020
5963 Clouds 30 1014 74 10000 5.7 30 15:19 08.07.2020
5964 Clear 29 1014 78 10000 5.7 40 14:46 08.07.2020
5965 Clear 29 1014 78 10000 5.7 40 14:28 08.07.2020
5966 Clear 29 1014 78 10000 5.7 40 13:58 08.07.2020
5967 Clear 29 1014 78 10000 5.7 40 13:40 08.07.2020
5968 Clear 29 1014 78 10000 5.7 30 13:20 08.07.2020
5969 Clear 28 1014 69 10000 5.1 30 12:43 08.07.2020
5970 Clear 29 1014 74 10000 4.1 30 12:21 08.07.2020
5971 Clear 29 1014 69 10000 2.1 360 11:56 08.07.2020
5972 Clear 29 1014 69 10000 2.1 360 11:38 08.07.2020
5973 Clear 29 1014 74 10000 2.6 310 11:20 08.07.2020
5974 Clear 28 1014 78 10000 2.6 310 10:44 08.07.2020
5975 Clear 27 1014 78 10000 2.1 320 10:25 08.07.2020
5976 Clear 27 1014 74 10000 1.5 320 09:46 08.07.2020
5977 Clear 26 1013 83 10000 2.1 260 09:26 08.07.2020
5978 Clear 25 1013 78 10000 1.5 260 08:58 08.07.2020
5979 Clear 25 1013 78 10000 1.5 260 08:39 08.07.2020
5980 Clear 25 1013 78 10000 2.1 220 08:20 08.07.2020
5981 Clear 24 1013 83 10000 1.5 220 07:44 08.07.2020
5982 Clear 24 1013 83 10000 0.5 0 07:22 08.07.2020
5983 Clear 23 1012 83 10000 2.6 210 06:52 08.07.2020
5984 Clear 23 1012 83 10000 2.6 210 06:31 08.07.2020
5985 Clear 23 1012 83 10000 3.1 210 05:49 08.07.2020
5986 Clear 23 1012 83 10000 1 0 04:50 08.07.2020
5987 Clear 23 1012 78 10000 1 0 04:20 08.07.2020
5988 Clear 23 1012 83 10000 1 0 02:20 08.07.2020
5989 Clear 24 1012 78 10000 1 210 01:39 08.07.2020
5990 Clear 24 1012 78 10000 1 0 00:56 08.07.2020
5991 Clear 24 1012 73 10000 1 230 00:22 08.07.2020
5992 Clear 25 1012 73 10000 1.5 90 23:44 07.07.2020
5993 Clear 25 1011 74 10000 4.1 50 23:22 07.07.2020
5994 Clear 25 1011 74 10000 4.1 50 23:22 07.07.2020
5995 Clear 25 1011 74 10000 4.1 50 22:58 07.07.2020
5996 Clear 25 1011 74 10000 5.1 60 22:39 07.07.2020
5997 Clear 25 1011 74 10000 5.1 60 22:20 07.07.2020
5998 Clear 25 1011 74 10000 5.7 50 21:58 07.07.2020
5999 Clear 25 1011 74 10000 5.7 50 21:38 07.07.2020
6000 Clear 26 1011 74 10000 6.7 50 21:19 07.07.2020
6001 Clear 26 1011 74 10000 7.2 50 20:56 07.07.2020
6002 Clear 26 1011 74 10000 7.2 50 20:37 07.07.2020
6003 Clear 26 1011 74 10000 7.7 40 20:19 07.07.2020
6004 Clear 27 1010 74 10000 7.2 40 19:39 07.07.2020
6005 Clear 27 1010 74 10000 6.7 40 19:20 07.07.2020
6006 Clear 26 1010 78 10000 6.7 30 18:55 07.07.2020
6007 Clear 27 1010 78 10000 6.7 30 18:37 07.07.2020
6008 Clear 27 1010 78 10000 6.2 30 18:19 07.07.2020
6009 Clear 28 1010 74 10000 6.2 30 17:56 07.07.2020
6010 Clear 28 1010 74 10000 6.2 30 17:37 07.07.2020
6011 Clear 27 1010 78 10000 5.7 30 17:19 07.07.2020
6012 Clear 29 1010 69 10000 5.7 20 16:42 07.07.2020
6013 Clear 28 1010 74 10000 5.1 20 16:23 07.07.2020
6014 Clear 28 1010 74 10000 5.1 20 16:23 07.07.2020
6015 Clear 28 1010 74 10000 5.1 20 15:56 07.07.2020
6016 Clear 28 1010 74 10000 5.1 20 15:37 07.07.2020
6017 Clear 28 1010 74 10000 5.1 20 15:37 07.07.2020
6018 Clear 29 1010 74 10000 4.6 20 15:19 07.07.2020
6019 Clear 29 1010 74 10000 4.6 20 14:46 07.07.2020
6020 Clear 29 1010 74 10000 4.1 10 14:25 07.07.2020
6021 Clear 28 1010 69 10000 4.1 20 13:46 07.07.2020
6022 Clear 28 1010 69 10000 4.1 10 13:22 07.07.2020
6023 Clear 28 1010 69 10000 4.1 10 12:58 07.07.2020
6024 Clear 28 1010 69 10000 5.1 20 12:40 07.07.2020
6025 Clear 28 1010 69 10000 4.1 10 12:21 07.07.2020
6026 Clear 27 1009 65 10000 2.6 350 11:48 07.07.2020
6027 Clear 27 1009 65 10000 2.6 340 11:24 07.07.2020
6028 Clear 26 1009 65 10000 2.6 300 10:59 07.07.2020
6029 Clear 26 1009 65 10000 2.6 300 10:41 07.07.2020
6030 Clear 25 1009 69 10000 2.6 280 10:21 07.07.2020
6031 Clear 25 1009 65 10000 2.1 260 09:55 07.07.2020
6032 Clear 25 1009 65 10000 2.1 260 09:37 07.07.2020
6033 Clear 24 1008 61 10000 1.5 270 09:18 07.07.2020
6034 Clear 23 1008 64 10000 2.1 250 08:40 07.07.2020
6035 Clear 24 1008 69 10000 1.5 260 08:21 07.07.2020
6036 Clear 23 1008 69 10000 0.5 0 07:41 07.07.2020
6037 Clear 24 1008 73 10000 2.1 220 07:21 07.07.2020
6038 Clear 21 1007 69 10000 4.1 200 06:49 07.07.2020
6039 Clear 20 1007 69 10000 4.1 200 06:28 07.07.2020
6040 Clear 20 1007 68 10000 3.1 190 05:51 07.07.2020
6041 Clear 21 1007 69 10000 3.6 200 05:21 07.07.2020
6042 Clear 20 1008 69 10000 4.6 210 04:38 07.07.2020
6043 Clear 21 1008 69 10000 3.1 210 03:35 07.07.2020
6044 Clear 24 1008 64 10000 2.1 190 02:21 07.07.2020
6045 Clear 24 1008 83 10000 4.1 210 01:22 07.07.2020
6046 Clear 24 1009 83 10000 3.6 210 00:42 07.07.2020
6047 Clear 24 1009 83 10000 3.1 230 00:23 07.07.2020
6048 Clear 24 1009 83 10000 3.6 240 23:46 06.07.2020
6049 Clouds 24 1009 78 10000 3.1 240 23:26 06.07.2020
6050 Clouds 24 1009 78 10000 3.6 250 22:59 06.07.2020
6051 Clouds 24 1009 78 10000 3.6 250 22:40 06.07.2020
6052 Clouds 25 1009 78 10000 3.6 270 22:19 06.07.2020
6053 Clouds 25 1009 78 10000 3.6 270 21:57 06.07.2020
6054 Clouds 23 1009 73 10000 3.6 260 21:38 06.07.2020
6055 Clouds 25 1009 78 10000 3.1 260 21:19 06.07.2020
6056 Clouds 25 1009 73 10000 3.1 270 20:59 06.07.2020
6057 Clouds 25 1009 73 10000 3.1 270 20:37 06.07.2020
6058 Clouds 26 1009 74 10000 3.6 270 20:19 06.07.2020
6059 Clouds 26 1009 74 10000 3.6 280 19:56 06.07.2020
6060 Clouds 26 1009 74 10000 3.6 280 19:37 06.07.2020
6061 Clouds 26 1009 78 10000 4.1 280 19:19 06.07.2020
6062 Clouds 26 1009 74 10000 4.1 290 18:41 06.07.2020
6063 Clear 29 991 52 0 1.34 321 18:23 06.07.2020
6064 Clouds 27 1009 74 10000 5.1 290 17:59 06.07.2020
6065 Clouds 28 1009 74 10000 5.1 290 17:41 06.07.2020
6066 Clouds 28 1009 74 10000 5.1 290 17:41 06.07.2020
6067 Clouds 29 1009 78 10000 4.6 290 17:21 06.07.2020
6068 Clouds 28 1009 78 10000 4.1 280 16:55 06.07.2020
6069 Clouds 27 1009 78 10000 4.1 280 16:37 06.07.2020
6070 Clouds 29 1009 78 10000 4.1 280 16:18 06.07.2020
6071 Clouds 29 1009 78 10000 4.1 280 16:18 06.07.2020
6072 Clouds 28 1010 74 10000 3.6 280 15:42 06.07.2020
6073 Clouds 28 1010 74 10000 4.1 290 15:24 06.07.2020
6074 Clear 29 992 51 0 2.24 339 14:56 06.07.2020
6075 Clouds 28 1010 74 10000 4.6 280 14:37 06.07.2020
6076 Clear 28 1010 78 10000 6.2 290 14:19 06.07.2020
6077 Clear 28 1010 69 10000 4.1 270 13:48 06.07.2020
6078 Clear 28 1010 74 10000 5.7 290 13:28 06.07.2020
6079 Clear 28 1010 74 10000 5.7 290 12:58 06.07.2020
6080 Clear 28 1010 74 10000 5.7 290 12:39 06.07.2020
6081 Clear 28 1010 78 10000 4.6 290 12:18 06.07.2020
6082 Clear 28 1010 78 10000 4.1 280 11:57 06.07.2020
6083 Clear 28 1010 78 10000 4.1 280 11:37 06.07.2020
6084 Clouds 28 1010 74 10000 3.6 280 11:19 06.07.2020
6085 Clouds 28 1010 78 10000 3.6 270 10:42 06.07.2020
6086 Clear 28 1010 78 10000 3.1 260 10:22 06.07.2020
6087 Clear 27 1010 73 10000 2.6 250 09:58 06.07.2020
6088 Clear 27 1010 73 10000 2.6 250 09:39 06.07.2020
6089 Clouds 24 1010 73 10000 2.1 240 09:21 06.07.2020
6090 Clouds 26 1010 73 10000 2.1 230 08:55 06.07.2020
6091 Clouds 25 994 71 0 2.25 296 08:36 06.07.2020
6092 Clouds 25 994 74 0 1.46 276 08:18 06.07.2020
6093 Clouds 24 994 80 0 1.46 276 07:40 06.07.2020
6094 Clouds 24 994 81 0 1.14 253 07:22 06.07.2020
6095 Clouds 23 994 83 0 1.14 253 06:39 06.07.2020
6096 Clouds 22 1010 78 10000 2.1 160 06:20 06.07.2020
6097 Clouds 22 1010 78 10000 2.1 160 06:20 06.07.2020
6098 Clouds 23 1010 73 10000 0.5 0 05:33 06.07.2020
6099 Clouds 23 1011 78 10000 2.6 360 04:52 06.07.2020
6100 Clouds 24 1012 69 10000 3.6 350 03:26 06.07.2020
6101 Clouds 24 1012 73 10000 3.6 320 02:22 06.07.2020
6102 Clouds 24 1013 69 10000 3.6 310 01:26 06.07.2020
6103 Clouds 24 1013 69 10000 3.1 340 00:36 06.07.2020
6104 Clouds 24 1013 69 10000 3.1 340 00:18 06.07.2020
6105 Clouds 24 1013 65 10000 3.1 330 23:41 05.07.2020
6106 Clouds 24 1013 69 10000 4.1 320 23:23 05.07.2020
6107 Clouds 25 1013 73 10000 4.1 330 22:59 05.07.2020
6108 Clouds 24 1013 73 10000 4.1 330 22:39 05.07.2020
6109 Clouds 25 1013 69 10000 4.6 300 22:19 05.07.2020
6110 Clouds 25 1013 69 10000 4.6 300 21:57 05.07.2020
6111 Clouds 25 1012 69 10000 3.6 310 21:38 05.07.2020
6112 Clouds 25 1013 69 10000 4.6 320 21:18 05.07.2020
6113 Clouds 25 1013 73 10000 4.1 320 20:57 05.07.2020
6114 Clouds 25 1013 73 10000 4.1 320 20:38 05.07.2020
6115 Clear 25 996 70 0 3.64 318 20:20 05.07.2020
6116 Clear 25 996 68 0 1.34 344 19:42 05.07.2020
6117 Clear 26 996 67 0 0.89 10 19:21 05.07.2020
6118 Clear 26 996 64 0 4.32 319 18:56 05.07.2020
6119 Clouds 26 1013 69 10000 5.1 320 18:37 05.07.2020
6120 Clouds 25 1013 74 10000 5.7 320 18:19 05.07.2020
6121 Clouds 26 1013 74 10000 5.1 320 17:43 05.07.2020
6122 Clouds 27 1014 69 10000 5.7 320 17:20 05.07.2020
6123 Clouds 26 1014 69 10000 5.7 320 16:59 05.07.2020
6124 Clouds 26 1014 74 10000 4.6 300 16:40 05.07.2020
6125 Clouds 26 1014 74 10000 5.1 300 16:21 05.07.2020
6126 Clouds 26 1014 74 10000 4.6 310 15:41 05.07.2020
6127 Clouds 27 1014 74 10000 5.1 310 15:20 05.07.2020
6128 Clouds 27 1014 74 10000 5.1 310 15:20 05.07.2020
6129 Clear 27 997 59 0 1.34 357 14:57 05.07.2020
6130 Clear 27 997 54 0 0.89 31 14:38 05.07.2020
6131 Clouds 26 1014 69 10000 3.6 310 14:20 05.07.2020
6132 Clear 26 998 60 0 0.45 70 13:41 05.07.2020
6133 Clear 26 998 58 0 0.45 39 13:23 05.07.2020
6134 Clear 27 998 55 0 2.68 359 12:46 05.07.2020
6135 Clear 27 998 55 0 2.68 359 12:46 05.07.2020
6136 Clear 26 998 61 0 3.46 342 12:21 05.07.2020
6137 Clear 26 998 61 0 1.34 358 11:56 05.07.2020
6138 Clear 26 998 58 0 3.3 336 11:38 05.07.2020
6139 Clear 26 998 59 0 3.3 336 11:19 05.07.2020
6140 Clear 26 998 59 0 1.79 11 10:55 05.07.2020
6141 Clear 26 998 59 0 3.3 336 10:37 05.07.2020
6142 Clear 26 998 59 0 1.34 334 10:18 05.07.2020
6143 Clear 25 998 58 0 2.6 325 09:41 05.07.2020
6144 Clouds 25 1014 69 10000 1.5 350 09:20 05.07.2020
6145 Clouds 24 1014 73 10000 1.5 360 08:57 05.07.2020
6146 Clouds 24 1014 73 10000 1.5 360 08:38 05.07.2020
6147 Clouds 24 1014 73 10000 2.6 350 08:18 05.07.2020
6148 Clouds 23 1014 73 10000 2.6 350 07:40 05.07.2020
6149 Clear 23 998 80 0 2.12 355 07:22 05.07.2020
6150 Clear 22 998 81 0 2.12 355 06:45 05.07.2020
6151 Clear 21 997 77 0 2.71 347 04:37 05.07.2020
6152 Clear 23 1014 69 10000 3.6 350 03:19 05.07.2020
6153 Clear 23 1014 69 10000 3.6 330 02:41 05.07.2020
6154 Clear 23 1015 64 10000 3.1 330 01:59 05.07.2020
6155 Clear 23 1015 64 10000 4.1 340 01:28 05.07.2020
6156 Clear 23 1015 64 10000 4.1 330 00:52 05.07.2020
6157 Clear 23 1015 64 10000 4.1 330 00:31 05.07.2020
6158 Clouds 24 1015 69 10000 3.6 300 23:57 04.07.2020
6159 Clouds 24 1015 69 10000 3.6 300 23:38 04.07.2020
6160 Clouds 22 1015 69 10000 5.7 300 23:20 04.07.2020
6161 Clouds 22 1014 69 10000 4.6 310 22:42 04.07.2020
6162 Clouds 22 1014 65 10000 4.1 320 22:24 04.07.2020
6163 Clouds 25 1014 65 10000 5.1 310 21:58 04.07.2020
6164 Clouds 25 1014 65 10000 5.1 310 21:40 04.07.2020
6165 Clouds 25 1014 65 10000 4.6 320 21:22 04.07.2020
6166 Clouds 25 1014 69 10000 4.6 320 20:43 04.07.2020
6167 Clouds 25 1014 69 10000 5.7 330 20:22 04.07.2020
6168 Clouds 25 1014 61 10000 4.1 330 19:58 04.07.2020
6169 Clouds 25 1014 61 10000 4.1 330 19:39 04.07.2020
6170 Clouds 24 1014 69 10000 5.7 310 19:21 04.07.2020
6171 Clouds 24 1014 69 10000 5.7 310 19:21 04.07.2020
6172 Clouds 26 1014 65 10000 5.1 300 18:46 04.07.2020
6173 Clouds 25 1014 57 10000 3.6 340 18:23 04.07.2020
6174 Clouds 25 1015 57 10000 3.1 340 17:56 04.07.2020
6175 Clouds 26 1015 57 10000 3.1 340 17:38 04.07.2020
6176 Clouds 26 1015 61 10000 4.6 350 17:19 04.07.2020
6177 Clouds 26 1015 61 10000 4.6 350 16:56 04.07.2020
6178 Clouds 27 1015 61 10000 4.6 350 16:36 04.07.2020
6179 Clouds 27 1015 61 10000 4.6 350 16:36 04.07.2020
6180 Clouds 26 1015 57 10000 4.1 360 16:18 04.07.2020
6181 Clouds 25 1015 57 10000 3.6 20 15:41 04.07.2020
6182 Clouds 28 1015 61 10000 4.1 20 15:23 04.07.2020
6183 Clouds 26 1015 61 10000 4.1 20 14:58 04.07.2020
6184 Clouds 27 1015 65 10000 6.2 10 14:37 04.07.2020
6185 Clouds 27 1015 65 10000 6.2 20 14:18 04.07.2020
6186 Rain 26 998 64 0 0.45 10 13:43 04.07.2020
6187 Rain 27 999 66 0 4.02 5 13:20 04.07.2020
6188 Rain 27 998 68 0 1.79 13 12:59 04.07.2020
6189 Rain 27 998 70 0 2.24 344 12:40 04.07.2020
6190 Clear 27 998 71 0 1.79 8 12:20 04.07.2020
6191 Clouds 28 1014 78 10000 3.6 10 11:45 04.07.2020
6192 Clouds 28 1014 74 10000 3.6 10 11:24 04.07.2020
6193 Clear 27 998 68 0 0.45 359 10:57 04.07.2020
6194 Clouds 27 1014 78 10000 3.6 20 10:38 04.07.2020
6195 Clear 27 1014 78 10000 4.1 30 10:19 04.07.2020
6196 Clear 28 1014 78 10000 4.1 30 09:54 04.07.2020
6197 Clear 27 1014 78 10000 4.1 30 09:36 04.07.2020
6198 Clear 27 1014 78 10000 4.6 30 09:18 04.07.2020
6199 Clear 27 1014 78 10000 4.1 30 08:43 04.07.2020
6200 Clear 26 1014 88 10000 5.1 30 08:24 04.07.2020
6201 Clear 25 1013 88 10000 5.1 30 07:42 04.07.2020
6202 Clear 25 998 75 0 1.17 96 07:20 04.07.2020
6203 Clear 25 1013 88 10000 5.1 20 06:40 04.07.2020
6204 Clear 24 1013 88 10000 5.1 10 06:20 04.07.2020
6205 Clear 24 1013 74 10000 1.5 110 05:31 04.07.2020
6206 Clear 24 1013 78 10000 3.6 60 04:23 04.07.2020
6207 Clear 24 1013 73 10000 4.6 60 02:48 04.07.2020
6208 Clear 24 1013 78 10000 4.1 60 01:51 04.07.2020
6209 Clear 24 1014 88 10000 3.1 70 00:59 04.07.2020
6210 Clear 24 998 84 0 1.43 74 00:40 04.07.2020
6211 Clear 24 998 83 0 0.89 33 00:21 04.07.2020
6212 Clear 25 1014 88 10000 2.6 50 23:39 03.07.2020
6213 Clear 25 1014 88 10000 2.1 40 23:18 03.07.2020
6214 Clear 25 1014 88 10000 2.1 40 23:18 03.07.2020
6215 Clear 25 1014 83 10000 2.1 70 22:43 03.07.2020
6216 Clear 25 1013 83 10000 3.1 20 22:25 03.07.2020
6217 Clear 26 1013 83 10000 3.1 20 21:59 03.07.2020
6218 Clear 26 1013 83 10000 3.1 20 21:59 03.07.2020
6219 Clear 26 1013 83 10000 3.1 10 21:39 03.07.2020
6220 Clear 26 997 77 0 0.89 81 21:19 03.07.2020
6221 Clear 27 996 76 0 0.89 81 20:43 03.07.2020
6222 Clear 27 996 75 0 0.45 357 20:25 03.07.2020
6223 Clear 27 996 71 0 1.16 40 19:59 03.07.2020
6224 Clear 27 1012 83 10000 4.6 360 19:40 03.07.2020
6225 Clear 27 1012 83 10000 4.1 20 19:18 03.07.2020
6226 Clear 27 1011 83 10000 5.1 30 18:45 03.07.2020
6227 Clear 28 1012 78 10000 4.6 30 18:24 03.07.2020
6228 Clear 28 1012 78 10000 5.1 20 17:59 03.07.2020
6229 Clear 28 1012 78 10000 5.1 20 17:41 03.07.2020
6230 Clear 28 1012 78 10000 4.6 360 17:20 03.07.2020
6231 Clear 28 1012 78 10000 4.1 10 16:41 03.07.2020
6232 Clear 29 1012 74 10000 4.1 360 16:23 03.07.2020
6233 Clear 28 1012 74 10000 4.1 350 15:46 03.07.2020
6234 Clear 30 996 58 0 2.24 7 15:24 03.07.2020
6235 Clear 30 996 58 0 1.34 353 14:57 03.07.2020
6236 Clear 30 996 58 0 3.59 344 14:39 03.07.2020
6237 Clear 29 996 58 0 0.89 15 14:19 03.07.2020
6238 Clear 28 996 66 0 0.45 342 13:47 03.07.2020
6239 Clear 29 996 67 0 1.34 11 13:29 03.07.2020
6240 Clear 28 996 68 0 3.44 330 12:54 03.07.2020
6241 Clear 28 996 70 0 1.34 7 12:36 03.07.2020
6242 Clear 29 996 70 0 1.79 355 12:18 03.07.2020
6243 Clear 28 996 70 0 3.64 315 11:42 03.07.2020
6244 Clear 29 996 71 0 3.38 304 11:23 03.07.2020
6245 Clear 28 996 71 0 0.45 352 10:56 03.07.2020
6246 Clear 28 996 73 0 3.38 304 10:37 03.07.2020
6247 Clear 27 996 74 0 2.69 302 10:19 03.07.2020
6248 Clear 27 1012 78 10000 1.5 0 09:54 03.07.2020
6249 Clear 27 1012 78 10000 1.5 0 09:36 03.07.2020
6250 Clear 26 1012 78 10000 2.1 220 09:18 03.07.2020
6251 Clear 26 1012 83 10000 1.5 230 08:39 03.07.2020
6252 Clear 25 996 87 0 1.22 281 08:18 03.07.2020
6253 Clear 24 996 90 0 0.45 353 07:48 03.07.2020
6254 Clear 24 995 92 0 1.09 246 07:26 03.07.2020
6255 Clear 24 995 92 0 1.09 246 06:49 03.07.2020
6256 Clouds 23 1010 83 10000 1.5 180 06:18 03.07.2020
6257 Clouds 24 1010 83 10000 2.1 230 04:53 03.07.2020
6258 Clouds 24 1011 83 10000 0.5 0 03:28 03.07.2020
6259 Clouds 24 1011 83 10000 1.5 200 02:47 03.07.2020
6260 Clouds 24 1011 83 10000 1.5 170 02:25 03.07.2020
6261 Clouds 25 1011 88 10000 1.5 180 01:28 03.07.2020
6262 Clouds 25 1012 83 10000 2.6 260 00:49 03.07.2020
6263 Clouds 25 1012 83 10000 2.6 260 00:28 03.07.2020
6264 Clouds 26 1012 83 10000 2.6 250 23:47 02.07.2020
6265 Clear 26 1012 83 10000 3.1 230 23:20 02.07.2020
6266 Clear 25 1012 83 10000 3.1 230 22:58 02.07.2020
6267 Clear 25 1011 88 10000 4.6 280 22:39 02.07.2020
6268 Clear 25 1011 83 9000 3.6 300 22:20 02.07.2020
6269 Clear 25 1011 83 9000 3.6 300 22:20 02.07.2020
6270 Clear 25 1011 83 9000 4.6 290 21:55 02.07.2020
6271 Clear 24 1011 83 9000 4.6 290 21:37 02.07.2020
6272 Clear 26 994 81 0 0.89 352 21:18 02.07.2020
6273 Clear 26 1011 88 10000 4.6 290 20:57 02.07.2020
6274 Clear 26 1011 88 10000 4.6 290 20:39 02.07.2020
6275 Clear 27 994 76 0 0.45 357 20:18 02.07.2020
6276 Clear 27 1010 83 10000 5.7 300 19:41 02.07.2020
6277 Rain 27 1010 83 10000 6.2 300 19:22 02.07.2020
6278 Clear 27 1010 83 10000 6.2 300 18:57 02.07.2020
6279 Clear 27 1010 83 10000 6.2 300 18:39 02.07.2020
6280 Rain 27 1010 83 10000 6.7 300 18:20 02.07.2020
6281 Clear 28 1010 78 10000 7.2 310 17:40 02.07.2020
6282 Rain 28 1010 78 10000 5.1 300 17:20 02.07.2020
6283 Rain 28 1010 78 10000 5.1 300 17:20 02.07.2020
6284 Clear 28 1011 78 10000 7.2 300 16:58 02.07.2020
6285 Clear 29 1011 78 10000 7.2 300 16:40 02.07.2020
6286 Rain 29 1011 78 10000 5.7 300 16:20 02.07.2020
6287 Clear 29 1011 78 10000 5.1 310 15:55 02.07.2020
6288 Clear 29 1011 78 10000 5.1 310 15:36 02.07.2020
6289 Clouds 28 1011 74 10000 6.7 300 15:18 02.07.2020
6290 Clouds 29 1012 83 10000 6.7 290 14:43 02.07.2020
6291 Clear 29 994 58 0 1.34 8 14:21 02.07.2020
6292 Clear 29 995 65 0 0.45 7 13:56 02.07.2020
6293 Clear 29 994 65 0 1.34 16 13:37 02.07.2020
6294 Clear 29 995 64 0 4.18 306 13:18 02.07.2020
6295 Clear 29 995 62 0 0.89 353 12:41 02.07.2020
6296 Clouds 29 1012 83 10000 5.1 310 12:22 02.07.2020
6297 Clouds 29 1012 83 10000 4.1 310 11:55 02.07.2020
6298 Clouds 28 1012 83 10000 4.1 310 11:37 02.07.2020
6299 Clear 30 994 56 0 0.89 3 11:19 02.07.2020
6300 Clear 31 994 45 0 1.34 3 10:42 02.07.2020
6301 Clear 30 1011 69 10000 3.1 310 10:23 02.07.2020
6302 Clear 29 1011 74 10000 2.6 340 09:44 02.07.2020
6303 Clear 29 995 52 0 0.29 256 09:23 02.07.2020
6304 Clear 29 995 55 0 0.29 256 08:59 02.07.2020
6305 Clear 28 995 57 0 0.29 256 08:40 02.07.2020
6306 Clear 28 995 59 0 0.95 167 08:20 02.07.2020
6307 Clear 27 995 63 0 0.95 167 07:42 02.07.2020
6308 Clear 26 995 64 0 1.27 144 07:22 02.07.2020
6309 Clear 25 995 64 0 1.27 144 06:47 02.07.2020
6310 Clear 25 995 65 0 1.1 148 06:27 02.07.2020
6311 Clear 25 995 66 0 1.1 148 05:49 02.07.2020
6312 Clear 26 995 67 0 1.17 172 04:55 02.07.2020
6313 Clear 26 994 66 0 1.88 146 03:34 02.07.2020
6314 Clear 26 1012 61 10000 0.5 0 01:51 02.07.2020
6315 Clear 25 1012 69 10000 2.1 90 00:44 02.07.2020
6316 Clear 25 1012 65 10000 2.6 220 00:18 02.07.2020
6317 Clear 25 997 72 0 2.44 128 23:43 01.07.2020
6318 Clear 25 996 73 0 2.89 123 23:22 01.07.2020
6319 Clear 26 1012 83 10000 3.6 240 22:55 01.07.2020
6320 Clear 26 1012 83 10000 3.6 240 22:37 01.07.2020
6321 Clear 26 1012 88 10000 3.1 250 22:18 01.07.2020
6322 Clear 26 1012 88 10000 3.1 250 21:56 01.07.2020
6323 Clear 26 1012 78 10000 2.6 270 21:38 01.07.2020
6324 Clear 27 1011 65 10000 0.5 0 21:19 01.07.2020
6325 Clear 28 1012 61 10000 2.6 60 20:46 01.07.2020
6326 Clear 28 1011 61 10000 4.1 50 20:26 01.07.2020
6327 Clear 28 1011 65 10000 4.1 40 19:58 01.07.2020
6328 Clear 28 1011 65 10000 4.1 40 19:39 01.07.2020
6329 Clear 29 1011 55 10000 6.7 60 19:20 01.07.2020
6330 Clear 30 1011 51 10000 7.2 60 18:56 01.07.2020
6331 Clear 30 1011 51 10000 7.2 60 18:38 01.07.2020
6332 Clear 31 1011 45 10000 7.2 60 18:20 01.07.2020
6333 Clear 31 1012 45 10000 6.7 70 17:41 01.07.2020
6334 Clear 32 1012 38 10000 6.2 60 17:20 01.07.2020
6335 Clear 31 1012 38 10000 6.2 60 16:57 01.07.2020
6336 Clear 32 1012 49 10000 5.7 60 16:39 01.07.2020
6337 Clear 32 1012 49 10000 5.7 60 16:20 01.07.2020
6338 Clear 32 1012 45 10000 7.7 70 15:42 01.07.2020
6339 Clear 32 1012 51 10000 6.7 60 15:23 01.07.2020
6340 Clear 31 997 36 0 2.88 55 14:58 01.07.2020
6341 Clear 31 997 40 0 2.88 55 14:38 01.07.2020
6342 Clear 31 997 37 0 2.74 40 14:19 01.07.2020
6343 Clear 30 997 36 0 2.74 40 13:40 01.07.2020
6344 Clear 31 1013 58 10000 4.6 40 13:22 01.07.2020
6345 Clear 31 997 39 0 2.48 45 12:59 01.07.2020
6346 Clear 31 997 41 0 0.45 31 12:40 01.07.2020
6347 Clear 31 997 40 0 2.28 53 12:22 01.07.2020
6348 Clear 30 997 40 0 2.28 53 11:58 01.07.2020
6349 Clear 30 997 42 0 2.16 59 11:39 01.07.2020
6350 Clear 30 997 42 0 2.16 59 11:20 01.07.2020
6351 Clear 29 997 46 0 2.16 59 10:43 01.07.2020
6352 Clear 29 998 47 0 2.03 61 10:23 01.07.2020
6353 Clear 29 998 49 0 2.03 61 09:59 01.07.2020
6354 Clear 28 998 49 0 1.43 42 09:38 01.07.2020
6355 Clear 28 998 51 0 1.13 60 09:20 01.07.2020
6356 Clear 27 998 53 0 1.13 60 08:56 01.07.2020
6357 Clear 27 998 54 0 1.13 60 08:38 01.07.2020
6358 Clear 27 998 58 0 1.17 125 08:18 01.07.2020
6359 Clear 26 997 62 0 1.17 125 07:40 01.07.2020
6360 Clear 26 997 64 0 1.76 134 07:21 01.07.2020
6361 Clear 26 997 64 0 1.76 134 07:21 01.07.2020
6362 Clear 24 997 66 0 1.76 134 06:50 01.07.2020
6363 Clear 23 1012 78 10000 0.5 0 06:28 01.07.2020
6364 Clear 23 1012 83 10000 1 0 05:30 01.07.2020
6365 Clear 24 1012 73 10000 1.5 80 03:55 01.07.2020
6366 Clear 24 1012 73 10000 1.5 80 03:36 01.07.2020
6367 Clear 24 1012 88 10000 2.1 40 03:18 01.07.2020
6368 Clear 24 1013 78 10000 1 210 01:55 01.07.2020
6369 Clear 25 1013 73 10000 0.5 0 00:48 01.07.2020
6370 Clear 25 1013 78 10000 1 160 00:26 01.07.2020
6371 Clear 25 1013 73 10000 0.5 0 23:57 30.06.2020
6372 Clear 25 1013 73 10000 0.5 0 23:39 30.06.2020
6373 Clear 26 1013 78 10000 3.1 220 23:19 30.06.2020
6374 Clear 26 1013 74 10000 2.6 270 22:41 30.06.2020
6375 Clear 26 1013 69 10000 0.5 0 22:18 30.06.2020
6376 Clear 26 1013 61 10000 3.1 80 21:41 30.06.2020
6377 Clear 27 1013 61 10000 5.1 60 21:19 30.06.2020
6378 Clear 27 1013 61 10000 5.1 60 20:57 30.06.2020
6379 Clear 27 1012 57 10000 6.7 70 20:39 30.06.2020
6380 Clear 27 1012 61 10000 7.7 60 20:20 30.06.2020
6381 Clear 28 1013 61 10000 8.2 50 19:43 30.06.2020
6382 Clear 28 1012 58 10000 8.2 50 19:20 30.06.2020
6383 Clear 29 1012 45 10000 8.7 60 18:54 30.06.2020
6384 Clear 29 1012 45 10000 8.7 60 18:36 30.06.2020
6385 Clear 29 1012 51 10000 9.3 60 18:18 30.06.2020
6386 Clear 30 1012 48 10000 9.3 60 17:38 30.06.2020
6387 Clear 30 1013 45 10000 9.3 60 17:19 30.06.2020
6388 Clear 31 1013 42 10000 8.2 60 16:55 30.06.2020
6389 Clear 30 1013 42 10000 8.2 60 16:36 30.06.2020
6390 Clear 30 1013 40 10000 9.3 60 16:18 30.06.2020
6391 Clear 30 1013 48 10000 8.7 60 15:41 30.06.2020
6392 Clear 32 998 46 0 3.87 67 15:22 30.06.2020
6393 Clear 31 998 46 0 3.87 67 14:58 30.06.2020
6394 Clear 31 998 47 0 3.93 66 14:39 30.06.2020
6395 Clear 31 998 46 0 3.69 62 14:18 30.06.2020
6396 Clear 30 1014 48 10000 7.2 60 13:41 30.06.2020
6397 Clear 30 1014 61 10000 7.2 40 13:21 30.06.2020
6398 Clear 29 1014 65 10000 7.2 40 12:59 30.06.2020
6399 Clear 29 1014 65 10000 7.2 40 12:40 30.06.2020
6400 Clear 29 1014 65 10000 5.7 40 12:21 30.06.2020
6401 Clear 29 1014 65 10000 5.7 40 12:21 30.06.2020
6402 Clear 29 1014 51 10000 5.1 60 11:58 30.06.2020
6403 Clear 29 1014 51 10000 5.1 60 11:39 30.06.2020
6404 Clear 28 1014 54 10000 5.7 60 11:20 30.06.2020
6405 Clear 28 1014 54 10000 5.7 60 10:59 30.06.2020
6406 Clouds 26 1016 83 10000 3.6 10 16:43 28.06.2020
6407 Clouds 26 1016 83 10000 3.6 360 16:24 28.06.2020
6408 Clear 26 1018 63 0 2.68 135 15:56 28.06.2020
6409 Clear 26 1018 63 0 2.68 135 15:38 28.06.2020
6410 Clear 28 999 64 0 1.34 330 15:19 28.06.2020
6411 Clear 28 999 65 0 1.34 358 14:46 28.06.2020
6412 Clear 26 1016 78 10000 4.1 350 14:28 28.06.2020
6413 Clear 27 1016 78 10000 4.1 350 13:58 28.06.2020
6414 Clear 27 1016 78 10000 4.1 350 13:38 28.06.2020
6415 Clear 28 999 59 0 0.89 4 13:19 28.06.2020
6416 Clear 28 999 64 0 0.45 359 12:56 28.06.2020
6417 Clear 28 999 66 0 0.45 355 12:37 28.06.2020
6418 Clear 28 1000 67 0 0.89 356 12:19 28.06.2020
6419 Clear 27 999 70 0 3.3 327 11:56 28.06.2020
6420 Clear 27 1000 70 0 0.45 8 11:38 28.06.2020
6421 Clear 27 999 72 0 1.34 17 11:19 28.06.2020
6422 Clear 27 1000 72 0 1.34 357 10:55 28.06.2020
6423 Clear 27 1000 68 0 2.76 314 10:36 28.06.2020
6424 Clear 27 1000 68 0 2.76 314 10:36 28.06.2020
6425 Clear 27 1000 68 0 2.76 314 10:36 28.06.2020
6426 Clear 27 1000 68 0 0.45 325 10:18 28.06.2020
6427 Clear 26 1000 69 0 2.05 309 09:39 28.06.2020
6428 Clear 26 1000 74 0 1.31 324 09:21 28.06.2020
6429 Clear 25 1000 79 0 0.88 330 08:48 28.06.2020
6430 Clear 25 1000 80 0 0.27 353 08:26 28.06.2020
6431 Clear 24 1000 80 0 0.27 353 07:49 28.06.2020
6432 Clear 24 1000 80 0 0.27 353 07:29 28.06.2020
6433 Clouds 24 1015 88 10000 4.1 10 06:43 28.06.2020
6434 Clouds 22 1015 88 10000 3.6 10 06:24 28.06.2020
6435 Clear 23 1015 88 10000 4.1 10 05:26 28.06.2020
6436 Clear 24 1015 88 10000 3.1 40 03:32 28.06.2020
6437 Clear 24 1015 78 10000 0.5 0 02:40 28.06.2020
6438 Clear 24 1015 88 10000 3.1 210 01:53 28.06.2020
6439 Clear 24 1016 88 10000 2.1 240 01:26 28.06.2020
6440 Clear 24 1015 88 10000 4.6 280 00:48 28.06.2020
6441 Clear 25 1015 94 10000 5.1 270 00:25 28.06.2020
6442 Clear 25 999 68 0 0.82 210 23:42 27.06.2020
6443 Clear 25 1015 94 10000 4.1 230 23:24 27.06.2020
6444 Clear 25 1015 94 10000 4.1 230 22:58 27.06.2020
6445 Clear 23 1015 94 10000 2.6 230 22:40 27.06.2020
6446 Clear 25 1015 94 10000 2.6 210 22:21 27.06.2020
6447 Clear 24 1015 94 10000 2.6 240 21:55 27.06.2020
6448 Clear 26 1015 94 10000 2.6 240 21:37 27.06.2020
6449 Clear 26 1014 88 10000 4.1 260 21:19 27.06.2020
6450 Clear 27 1014 74 10000 3.1 200 20:43 27.06.2020
6451 Clear 28 998 61 0 1.25 12 20:19 27.06.2020
6452 Clear 28 998 64 0 1.25 12 19:56 27.06.2020
6453 Clear 27 1014 69 10000 5.7 50 19:36 27.06.2020
6454 Clear 27 1014 65 10000 6.7 50 19:18 27.06.2020
6455 Clear 28 1014 69 10000 6.7 40 18:46 27.06.2020
6456 Clear 29 1014 69 10000 6.7 40 18:28 27.06.2020
6457 Clear 29 1015 74 10000 4.6 40 17:58 27.06.2020
6458 Clear 29 1015 74 10000 4.6 40 17:38 27.06.2020
6459 Clear 28 1015 83 10000 3.1 20 17:19 27.06.2020
6460 Clear 29 1015 78 10000 3.1 20 16:46 27.06.2020
6461 Clear 29 1015 78 10000 3.1 20 16:28 27.06.2020
6462 Clear 29 1015 78 10000 3.1 20 15:59 27.06.2020
6463 Clear 28 1015 78 10000 3.6 20 15:39 27.06.2020
6464 Clear 29 1015 83 10000 3.6 20 15:21 27.06.2020
6465 Clear 30 999 51 0 1.59 351 14:43 27.06.2020
6466 Clear 31 999 46 0 2.24 355 14:24 27.06.2020
6467 Clear 31 999 41 0 0.89 334 13:58 27.06.2020
6468 Clear 30 999 43 0 1.89 29 13:38 27.06.2020
6469 Clear 30 999 47 0 0.89 20 13:19 27.06.2020
6470 Clear 30 999 50 0 1.34 309 12:57 27.06.2020
6471 Clear 29 999 47 0 2.26 33 12:38 27.06.2020
6472 Clear 29 999 51 0 2.21 31 12:20 27.06.2020
6473 Clear 30 999 48 0 2.21 31 11:54 27.06.2020
6474 Clear 29 1015 54 10000 7.2 40 11:36 27.06.2020
6475 Clear 30 1014 35 10000 6.7 50 11:18 27.06.2020
6476 Clear 29 1015 42 10000 6.7 50 10:38 27.06.2020
6477 Clear 28 1015 57 10000 7.2 40 10:19 27.06.2020
6478 Clear 28 999 50 0 0.92 37 09:41 27.06.2020
6479 Clear 27 1000 51 0 0.58 76 09:22 27.06.2020
6480 Clear 27 1000 54 0 0.58 6 08:57 27.06.2020
6481 Clear 26 1000 59 0 0.25 181 08:39 27.06.2020
6482 Clear 26 1000 59 0 0.25 181 08:20 27.06.2020
6483 Clear 25 1000 61 0 0.25 181 07:41 27.06.2020
6484 Clear 24 1000 64 0 0.8 187 07:23 27.06.2020
6485 Clear 23 1000 66 0 0.8 187 06:38 27.06.2020
6486 Clear 22 1000 68 0 1.01 203 06:19 27.06.2020
6487 Clear 23 1015 83 10000 1.5 140 04:22 27.06.2020
6488 Clear 23 1015 83 10000 1 0 03:51 27.06.2020
6489 Clear 22 999 66 0 1 192 02:49 27.06.2020
6490 Clear 23 1015 88 10000 1 0 02:29 27.06.2020
6491 Clear 24 1015 83 10000 2.6 280 01:41 27.06.2020
6492 Clear 25 1016 65 10000 3.6 220 00:56 27.06.2020
6493 Clear 25 1000 69 0 1.67 162 00:28 27.06.2020
6494 Clear 25 1015 65 10000 4.1 210 23:41 26.06.2020
6495 Clear 25 1015 78 10000 4.1 220 23:22 26.06.2020
6496 Clear 25 1015 78 10000 4.1 230 22:56 26.06.2020
6497 Clear 26 1015 78 10000 4.1 230 22:37 26.06.2020
6498 Clear 26 1015 73 10000 3.6 220 22:19 26.06.2020
6499 Clear 25 1014 69 10000 3.6 220 21:57 26.06.2020
6500 Clear 25 1014 69 10000 3.6 220 21:37 26.06.2020
6501 Clear 27 1014 69 10000 3.6 220 21:19 26.06.2020
6502 Clear 25 1014 57 10000 1.5 310 20:42 26.06.2020
6503 Clear 27 1014 45 10000 3.6 80 20:19 26.06.2020
6504 Clear 27 1014 42 10000 6.7 70 19:43 26.06.2020
6505 Clear 27 1014 45 10000 6.7 70 19:23 26.06.2020
6506 Clear 28 1014 42 10000 6.2 70 18:55 26.06.2020
6507 Clear 28 1014 42 10000 6.2 70 18:37 26.06.2020
6508 Clear 28 1014 45 10000 6.7 70 18:18 26.06.2020
6509 Clear 28 1015 48 10000 7.2 60 17:43 26.06.2020
6510 Clear 28 1015 54 10000 7.2 60 17:24 26.06.2020
6511 Clear 28 1015 48 10000 6.7 60 16:48 26.06.2020
6512 Clear 29 1015 42 10000 7.7 70 16:25 26.06.2020
6513 Clear 28 1015 45 10000 7.7 60 15:55 26.06.2020
6514 Clear 28 1015 45 10000 7.7 60 15:37 26.06.2020
6515 Clear 31 1000 44 0 0.96 61 15:18 26.06.2020
6516 Clear 30 1000 42 0 0.96 61 14:55 26.06.2020
6517 Clear 30 1000 37 0 0.96 61 14:37 26.06.2020
6518 Clear 30 1000 37 0 1.37 66 14:19 26.06.2020
6519 Clear 30 1000 45 0 1.37 66 13:43 26.06.2020
6520 Clear 29 1000 48 0 1.82 69 13:18 26.06.2020
6521 Clear 29 1000 53 0 0.45 9 13:18 26.06.2020
6522 Clear 29 1000 56 0 1.82 69 12:41 26.06.2020
6523 Clear 29 1000 45 0 2.07 68 12:23 26.06.2020
6524 Clear 29 1000 45 0 2.07 68 12:23 26.06.2020
6525 Clear 29 1000 43 0 2.07 68 11:59 26.06.2020
6526 Clear 29 1001 43 0 2.07 68 11:40 26.06.2020
6527 Clear 29 1000 48 0 1.99 65 11:21 26.06.2020
6528 Clear 28 1001 51 0 1.99 65 10:58 26.06.2020
6529 Clear 28 1001 51 0 1.99 65 10:39 26.06.2020
6530 Clear 28 1001 50 0 1.49 74 10:19 26.06.2020
6531 Clear 27 1001 58 0 1.49 74 09:45 26.06.2020
6532 Clear 27 1001 59 0 0.9 90 09:26 26.06.2020
6533 Clear 26 1001 63 0 1.31 95 08:59 26.06.2020
6534 Clear 26 1001 65 0 0.9 90 08:41 26.06.2020
6535 Clear 26 1001 68 0 0.92 128 08:23 26.06.2020
6536 Clear 25 1001 69 0 0.92 128 07:44 26.06.2020
6537 Clear 24 1001 71 0 1.09 162 07:22 26.06.2020
6538 Clear 22 1001 72 0 1.1 146 06:47 26.06.2020
6539 Clear 22 1017 83 10000 1 0 06:28 26.06.2020
6540 Clear 22 1016 83 10000 1 0 05:49 26.06.2020
6541 Clear 22 1016 83 10000 1 190 04:42 26.06.2020
6542 Clear 23 1017 88 10000 1.5 220 02:22 26.06.2020
6543 Clear 23 1017 88 10000 2.6 210 01:22 26.06.2020
6544 Clear 23 1017 88 10000 3.1 220 00:42 26.06.2020
6545 Clear 23 1017 88 10000 2.6 230 00:20 26.06.2020
6546 Clear 23 1018 88 10000 2.6 220 23:46 25.06.2020
6547 Clear 24 1017 83 10000 3.6 220 23:20 25.06.2020
6548 Clear 24 1017 83 10000 3.6 220 22:57 25.06.2020
6549 Clear 24 1017 83 10000 3.6 220 22:38 25.06.2020
6550 Clear 24 1017 83 10000 3.6 210 22:19 25.06.2020
6551 Clear 25 1017 83 10000 4.6 220 21:56 25.06.2020
6552 Clear 25 1017 83 10000 4.6 220 21:38 25.06.2020
6553 Clear 25 1016 83 10000 4.1 220 21:20 25.06.2020
6554 Clear 26 1001 71 0 2.42 99 20:55 25.06.2020
6555 Clear 26 1016 83 10000 4.6 250 20:37 25.06.2020
6556 Clear 27 1016 69 10000 4.1 80 20:19 25.06.2020
6557 Clear 27 1001 59 0 2.11 79 19:41 25.06.2020
6558 Clear 26 1016 69 10000 7.2 50 19:19 25.06.2020
6559 Clear 27 1016 69 10000 7.2 50 18:58 25.06.2020
6560 Clear 27 1016 69 10000 7.2 50 18:38 25.06.2020
6561 Clear 27 1017 74 10000 7.2 40 18:19 25.06.2020
6562 Clear 27 1017 74 10000 6.7 40 17:44 25.06.2020
6563 Clear 27 1017 74 10000 7.7 40 17:20 25.06.2020
6564 Clear 28 1017 69 10000 8.2 40 16:58 25.06.2020
6565 Clear 28 1017 69 10000 8.2 40 16:37 25.06.2020
6566 Clear 28 1017 69 10000 7.7 40 16:19 25.06.2020
6567 Clear 27 1018 78 10000 7.7 40 15:41 25.06.2020
6568 Clear 27 1018 83 10000 7.2 40 15:22 25.06.2020
6569 Clear 26 1018 83 10000 7.2 40 14:45 25.06.2020
6570 Clear 26 1018 83 10000 7.2 30 14:25 25.06.2020
6571 Clear 29 1018 65 10000 7.7 50 13:59 25.06.2020
6572 Clear 28 1002 49 0 1.96 36 13:41 25.06.2020
6573 Clear 28 1003 53 0 2.24 39 13:19 25.06.2020
6574 Clear 28 1003 53 0 2.24 39 13:19 25.06.2020
6575 Clear 28 1018 73 10000 7.2 40 12:55 25.06.2020
6576 Clear 27 1002 51 0 2.24 39 12:37 25.06.2020
6577 Clear 27 1002 47 0 0.45 314 12:18 25.06.2020
6578 Clear 27 1002 50 0 1.94 33 11:42 25.06.2020
6579 Clear 27 1002 50 0 1.78 25 11:21 25.06.2020
6580 Clear 27 1018 65 10000 6.7 50 10:44 25.06.2020
6581 Clear 26 1002 59 0 1.43 6 10:25 25.06.2020
6582 Clear 26 1018 69 10000 5.1 60 09:55 25.06.2020
6583 Clear 26 1018 69 10000 5.1 60 09:37 25.06.2020
6584 Clear 25 1002 66 0 0.45 1 09:18 25.06.2020
6585 Clear 25 1002 68 0 0.81 307 08:42 25.06.2020
6586 Clear 24 1002 67 0 0.81 307 08:18 25.06.2020
6587 Clear 24 1002 67 0 0.81 307 08:18 25.06.2020
6588 Clear 24 1002 67 0 0.81 307 08:18 25.06.2020
6589 Clear 24 1018 56 10000 2.1 240 07:43 25.06.2020
6590 Clear 23 1002 60 0 1.09 254 07:24 25.06.2020
6591 Clear 23 1002 61 0 1.09 254 06:45 25.06.2020
6592 Clear 22 1017 60 10000 1.5 130 06:25 25.06.2020
6593 Clear 21 1017 68 10000 2.1 190 05:39 25.06.2020
6594 Clear 22 1017 68 10000 0.5 0 03:51 25.06.2020
6595 Clear 22 1017 78 10000 1.5 200 02:59 25.06.2020
6596 Clear 22 1018 78 10000 1 240 02:41 25.06.2020
6597 Clear 22 1018 78 10000 1 0 01:43 25.06.2020
6598 Clear 23 1018 83 10000 3.1 230 00:59 25.06.2020
6599 Clear 23 1018 83 10000 2.1 200 00:40 25.06.2020
6600 Clear 23 1018 83 10000 2.1 200 00:18 25.06.2020
6601 Clear 22 1018 88 10000 3.1 220 23:41 24.06.2020
6602 Clear 23 1018 73 10000 2.1 280 23:23 24.06.2020
6603 Clear 23 1018 78 10000 2.1 280 22:56 24.06.2020
6604 Clear 23 1018 78 10000 2.1 280 22:37 24.06.2020
6605 Clear 23 1018 78 10000 2.1 270 22:19 24.06.2020
6606 Clear 23 1018 73 10000 1.5 170 21:55 24.06.2020
6607 Clear 24 1018 73 10000 1.5 170 21:36 24.06.2020
6608 Clear 24 1017 61 10000 5.1 70 21:18 24.06.2020
6609 Clear 24 1017 65 10000 4.6 50 20:56 24.06.2020
6610 Clear 25 1017 65 10000 4.6 50 20:38 24.06.2020
6611 Clear 26 1017 57 10000 6.7 50 20:19 24.06.2020
6612 Clear 26 1017 57 10000 6.7 50 19:55 24.06.2020
6613 Clear 25 1017 57 10000 6.7 50 19:36 24.06.2020
6614 Clouds 25 1017 61 10000 6.7 50 19:18 24.06.2020
6615 Clouds 26 1017 65 10000 7.2 40 18:56 24.06.2020
6616 Clouds 26 1017 65 10000 7.2 40 18:37 24.06.2020
6617 Clouds 26 1017 73 10000 7.7 40 18:19 24.06.2020
6618 Clouds 27 1017 69 10000 6.7 30 17:41 24.06.2020
6619 Clouds 27 1017 65 10000 6.2 30 17:19 24.06.2020
6620 Clouds 26 1017 65 10000 6.2 30 16:58 24.06.2020
6621 Clouds 27 1018 65 10000 4.6 30 16:39 24.06.2020
6622 Clouds 27 1018 73 10000 5.1 20 16:21 24.06.2020
6623 Clouds 26 1018 73 10000 5.1 10 15:57 24.06.2020
6624 Clouds 27 1018 73 10000 5.1 10 15:38 24.06.2020
6625 Clouds 27 1017 74 10000 6.2 30 15:20 24.06.2020
6626 Clouds 28 1002 48 0 3.31 357 14:43 24.06.2020
6627 Clear 28 1001 43 0 0.45 294 14:25 24.06.2020
6628 Clear 28 1001 41 0 1.34 17 13:57 24.06.2020
6629 Clear 28 1001 45 0 2.24 353 13:38 24.06.2020
6630 Clear 28 1001 49 0 1.34 3 13:18 24.06.2020
6631 Clear 28 1001 42 0 2.69 2 12:41 24.06.2020
6632 Clear 28 1001 43 0 1.86 9 12:20 24.06.2020
6633 Clear 28 1001 42 0 1.86 9 11:56 24.06.2020
6634 Clear 28 1002 43 0 1.86 9 11:38 24.06.2020
6635 Clear 28 1018 65 10000 3.6 30 11:18 24.06.2020
6636 Clear 27 1018 73 10000 2.1 360 10:43 24.06.2020
6637 Clear 27 1001 44 0 1 39 10:19 24.06.2020
6638 Clear 27 1001 47 0 1 39 09:43 24.06.2020
6639 Clear 24 1017 78 10000 3.6 240 09:22 24.06.2020
6640 Clear 25 1001 55 0 0.94 51 08:45 24.06.2020
6641 Clear 25 1001 56 0 0.42 23 08:26 24.06.2020
6642 Clear 24 1002 57 0 0.42 23 07:58 24.06.2020
6643 Clear 23 1001 59 0 0.42 23 07:40 24.06.2020
6644 Clear 23 1001 62 0 0.55 230 07:18 24.06.2020
6645 Clear 21 1001 65 0 0.55 230 06:40 24.06.2020
6646 Clear 20 1017 77 10000 1.5 150 06:21 24.06.2020
6647 Clear 20 1017 77 10000 1.5 170 05:32 24.06.2020
6648 Clouds 21 1017 77 10000 1 0 04:37 24.06.2020
6649 Clouds 21 1017 88 10000 1 0 03:37 24.06.2020
6650 Clear 22 1017 88 10000 1.5 30 02:52 24.06.2020
6651 Clear 22 1017 88 10000 2.1 220 01:46 24.06.2020
6652 Clouds 22 1017 88 10000 2.6 230 00:50 24.06.2020
6653 Clouds 22 1017 88 10000 3.1 190 00:31 24.06.2020
6654 Clouds 23 1017 88 10000 3.1 190 23:47 23.06.2020
6655 Clear 23 1017 88 10000 2.6 240 23:21 23.06.2020
6656 Clear 23 1017 88 10000 1.5 260 22:57 23.06.2020
6657 Clear 23 1017 88 10000 1.5 260 22:39 23.06.2020
6658 Clear 23 1017 88 10000 0.5 0 22:18 23.06.2020
6659 Clear 24 1017 88 10000 1 340 21:42 23.06.2020
6660 Clear 24 1001 74 0 1.53 281 21:20 23.06.2020
6661 Clear 24 1000 71 0 1.67 273 20:56 23.06.2020
6662 Clear 25 1000 68 0 1.34 355 20:38 23.06.2020
6663 Clear 25 1016 83 10000 2.1 320 20:19 23.06.2020
6664 Clear 25 1016 83 10000 3.1 330 19:57 23.06.2020
6665 Clear 24 1016 83 10000 2.1 300 19:38 23.06.2020
6666 Clear 24 1016 83 10000 2.1 300 19:20 23.06.2020
6667 Clear 25 1016 78 10000 2.6